<?xml version='1.0' encoding='UTF-8'?>
<gpx xmlns="http://www.topografix.com/GPX/1/1" creator="www.balnam.be" version="1.1" xmlns:xsi="http://www.w3.org/2001/XMLSchema-instance" xsi:schemaLocation="http://www.topografix.com/GPX/1/1 http://www.topografix.com/GPX/1/1/gpx.xsd">
<trk>
<name>nlbbv1</name>
<cmt>v</cmt>
<desc>Bovesse Chemin n°1 Chemin de Namur</desc>
<link href="https://chemins.be/bovesse/chemin/1"/><trkseg>
<trkpt lat="50.509135" lon="4.784742"><time>2026-05-07T18:17:55Z</time></trkpt>
<trkpt lat="50.510489" lon="4.783302"><time>2026-05-07T18:27:55Z</time></trkpt>
<trkpt lat="50.511723" lon="4.782467"><time>2026-05-07T18:37:55Z</time></trkpt>
<trkpt lat="50.512411" lon="4.781461"><time>2026-05-07T18:47:55Z</time></trkpt>
</trkseg>
</trk>
<trk>
<name>nlbbv10</name>
<cmt>v</cmt>
<desc>Bovesse Chemin n°10 Chemin des Isnes / Rue des Isnes / Chemin n°10 de Bovesse / Rue du Moulin</desc>
<link href="https://chemins.be/bovesse/chemin/10"/><trkseg>
<trkpt lat="50.513568" lon="4.758471"><time>2026-05-07T18:17:55Z</time></trkpt>
<trkpt lat="50.514190" lon="4.760817"><time>2026-05-07T18:27:55Z</time></trkpt>
<trkpt lat="50.514826" lon="4.764206"><time>2026-05-07T18:37:55Z</time></trkpt>
<trkpt lat="50.514992" lon="4.768028"><time>2026-05-07T18:47:55Z</time></trkpt>
<trkpt lat="50.515380" lon="4.770330"><time>2026-05-07T18:57:55Z</time></trkpt>
</trkseg></trk>
<trk>
<name>nlbbv10</name>
<cmt>r</cmt>
<desc>Bovesse Chemin n°10 Chemin des Isnes / Rue des Isnes / Chemin n°10 de Bovesse / Rue du Moulin</desc>
<link href="https://chemins.be/bovesse/chemin/10"/><trkseg>
<trkpt lat="50.515380" lon="4.770330"><time>2026-05-07T18:57:55Z</time></trkpt>
<trkpt lat="50.516487" lon="4.775246"><time>2026-05-07T19:07:55Z</time></trkpt>
<trkpt lat="50.517349" lon="4.778074"><time>2026-05-07T19:17:55Z</time></trkpt>
<trkpt lat="50.519156" lon="4.780684"><time>2026-05-07T19:27:55Z</time></trkpt>
</trkseg>
</trk>
<trk>
<name>nlbbv11</name>
<cmt>s</cmt>
<desc>Bovesse Chemin n°11 </desc>
<link href="https://chemins.be/bovesse/chemin/11"/><trkseg>
<trkpt lat="50.510299" lon="4.778633"><time>2026-05-07T18:17:55Z</time></trkpt>
<trkpt lat="50.509622" lon="4.781842"><time>2026-05-07T18:27:55Z</time></trkpt>
<trkpt lat="50.508805" lon="4.783907"><time>2026-05-07T18:37:55Z</time></trkpt>
</trkseg>
</trk>
<trk>
<name>nlbbv12</name>
<cmt>r</cmt>
<desc>Bovesse Chemin n°12 Chemin de la Distillerie / Rue de la Distillerie / Rue du Vieux Château / ?</desc>
<link href="https://chemins.be/bovesse/chemin/12"/><trkseg>
<trkpt lat="50.517704" lon="4.789344"><time>2026-05-07T18:17:55Z</time></trkpt>
<trkpt lat="50.518055" lon="4.789361"><time>2026-05-07T18:27:55Z</time></trkpt>
<trkpt lat="50.518730" lon="4.786744"><time>2026-05-07T18:37:55Z</time></trkpt>
<trkpt lat="50.519183" lon="4.785606"><time>2026-05-07T18:47:55Z</time></trkpt>
<trkpt lat="50.519860" lon="4.784780"><time>2026-05-07T18:57:55Z</time></trkpt>
<trkpt lat="50.519870" lon="4.784653"><time>2026-05-07T19:07:55Z</time></trkpt>
<trkpt lat="50.520348" lon="4.784291"><time>2026-05-07T19:17:55Z</time></trkpt>
</trkseg></trk>
<trk>
<name>nlbbv12</name>
<cmt>s</cmt>
<desc>Bovesse Chemin n°12 Chemin de la Distillerie / Rue de la Distillerie / Rue du Vieux Château / ?</desc>
<link href="https://chemins.be/bovesse/chemin/12"/><trkseg>
<trkpt lat="50.520348" lon="4.784291"><time>2026-05-07T19:17:55Z</time></trkpt>
<trkpt lat="50.522347" lon="4.783251"><time>2026-05-07T19:27:55Z</time></trkpt>
<trkpt lat="50.523425" lon="4.783514"><time>2026-05-07T19:37:55Z</time></trkpt>
</trkseg>
</trk>
<trk>
<name>nlbbv13</name>
<cmt>r</cmt>
<desc>Bovesse Chemin n°13 Rue de la Distillerie</desc>
<link href="https://chemins.be/bovesse/chemin/13"/><trkseg>
<trkpt lat="50.519843" lon="4.784611"><time>2026-05-07T18:17:55Z</time></trkpt>
<trkpt lat="50.519694" lon="4.783453"><time>2026-05-07T18:27:55Z</time></trkpt>
<trkpt lat="50.519708" lon="4.782226"><time>2026-05-07T18:37:55Z</time></trkpt>
<trkpt lat="50.519358" lon="4.781998"><time>2026-05-07T18:47:55Z</time></trkpt>
</trkseg>
</trk>
<trk>
<name>nlbbv14</name>
<cmt>r</cmt>
<desc>Bovesse Chemin n°14 Chemin de Marette / Rue de Marette / Rue de la Houlette / Rue des Fermes</desc>
<link href="https://chemins.be/bovesse/chemin/14"/><trkseg>
<trkpt lat="50.508482" lon="4.765718"><time>2026-05-07T18:17:55Z</time></trkpt>
<trkpt lat="50.509750" lon="4.768464"><time>2026-05-07T18:27:55Z</time></trkpt>
<trkpt lat="50.510584" lon="4.768851"><time>2026-05-07T18:37:55Z</time></trkpt>
<trkpt lat="50.512268" lon="4.773293"><time>2026-05-07T18:47:55Z</time></trkpt>
<trkpt lat="50.512755" lon="4.775440"><time>2026-05-07T18:57:55Z</time></trkpt>
<trkpt lat="50.513147" lon="4.778940"><time>2026-05-07T19:07:55Z</time></trkpt>
<trkpt lat="50.513644" lon="4.780946"><time>2026-05-07T19:17:55Z</time></trkpt>
<trkpt lat="50.514184" lon="4.783108"><time>2026-05-07T19:27:55Z</time></trkpt>
</trkseg>
</trk>
<trk>
<name>nlbbv15</name>
<cmt>r</cmt>
<desc>Bovesse Chemin n°15 Chemin du Chemin de Fer / Rue du Chemin de Fer / ? / Rue des Isnes</desc>
<link href="https://chemins.be/bovesse/chemin/15"/><trkseg>
<trkpt lat="50.513220" lon="4.778701"><time>2026-05-07T18:17:55Z</time></trkpt>
<trkpt lat="50.513851" lon="4.778199"><time>2026-05-07T18:27:55Z</time></trkpt>
<trkpt lat="50.514346" lon="4.778175"><time>2026-05-07T18:37:55Z</time></trkpt>
</trkseg></trk>
<trk>
<name>nlbbv15</name>
<cmt>v</cmt>
<desc>Bovesse Chemin n°15 Chemin du Chemin de Fer / Rue du Chemin de Fer / ? / Rue des Isnes</desc>
<link href="https://chemins.be/bovesse/chemin/15"/><trkseg>
<trkpt lat="50.514346" lon="4.778175"><time>2026-05-07T18:37:55Z</time></trkpt>
<trkpt lat="50.514941" lon="4.777546"><time>2026-05-07T18:47:55Z</time></trkpt>
</trkseg></trk>
<trk>
<name>nlbbv15</name>
<cmt>s</cmt>
<desc>Bovesse Chemin n°15 Chemin du Chemin de Fer / Rue du Chemin de Fer / ? / Rue des Isnes</desc>
<link href="https://chemins.be/bovesse/chemin/15"/><trkseg>
<trkpt lat="50.514941" lon="4.777546"><time>2026-05-07T18:47:55Z</time></trkpt>
<trkpt lat="50.516363" lon="4.777248"><time>2026-05-07T18:57:55Z</time></trkpt>
</trkseg></trk>
<trk>
<name>nlbbv15</name>
<cmt>r</cmt>
<desc>Bovesse Chemin n°15 Chemin du Chemin de Fer / Rue du Chemin de Fer / ? / Rue des Isnes</desc>
<link href="https://chemins.be/bovesse/chemin/15"/><trkseg>
<trkpt lat="50.516363" lon="4.777248"><time>2026-05-07T18:57:55Z</time></trkpt>
<trkpt lat="50.516797" lon="4.776560"><time>2026-05-07T19:07:55Z</time></trkpt>
</trkseg>
</trk>
<trk>
<name>nlbbv16</name>
<cmt>r</cmt>
<desc>Bovesse Chemin n°16 Rue du Ruisseau</desc>
<link href="https://chemins.be/bovesse/chemin/16"/><trkseg>
<trkpt lat="50.517590" lon="4.778485"><time>2026-05-07T18:17:55Z</time></trkpt>
<trkpt lat="50.518185" lon="4.780591"><time>2026-05-07T18:27:55Z</time></trkpt>
<trkpt lat="50.518246" lon="4.781184"><time>2026-05-07T18:37:55Z</time></trkpt>
<trkpt lat="50.518314" lon="4.782299"><time>2026-05-07T18:47:55Z</time></trkpt>
</trkseg>
</trk>
<trk>
<name>nlbbv17</name>
<cmt>s</cmt>
<desc>Bovesse Sentier n°17 Rue du Chemin de Fer</desc>
<link href="https://chemins.be/bovesse/sentier/17"/><trkseg>
<trkpt lat="50.509523" lon="4.784266"><time>2026-05-07T18:17:55Z</time></trkpt>
<trkpt lat="50.511224" lon="4.781149"><time>2026-05-07T18:27:55Z</time></trkpt>
</trkseg></trk>
<trk>
<name>nlbbv17</name>
<cmt>v</cmt>
<desc>Bovesse Sentier n°17 Rue du Chemin de Fer</desc>
<link href="https://chemins.be/bovesse/sentier/17"/><trkseg>
<trkpt lat="50.511224" lon="4.781149"><time>2026-05-07T18:27:55Z</time></trkpt>
<trkpt lat="50.511615" lon="4.780595"><time>2026-05-07T18:37:55Z</time></trkpt>
</trkseg></trk>
<trk>
<name>nlbbv17</name>
<cmt>s</cmt>
<desc>Bovesse Sentier n°17 Rue du Chemin de Fer</desc>
<link href="https://chemins.be/bovesse/sentier/17"/><trkseg>
<trkpt lat="50.511615" lon="4.780595"><time>2026-05-07T18:37:55Z</time></trkpt>
<trkpt lat="50.513031" lon="4.778826"><time>2026-05-07T18:47:55Z</time></trkpt>
</trkseg></trk>
<trk>
<name>nlbbv17</name>
<cmt>r</cmt>
<desc>Bovesse Sentier n°17 Rue du Chemin de Fer</desc>
<link href="https://chemins.be/bovesse/sentier/17"/><trkseg>
<trkpt lat="50.513031" lon="4.778826"><time>2026-05-07T18:47:55Z</time></trkpt>
<trkpt lat="50.513166" lon="4.778785"><time>2026-05-07T18:57:55Z</time></trkpt>
<trkpt lat="50.513905" lon="4.778213"><time>2026-05-07T19:07:55Z</time></trkpt>
<trkpt lat="50.514355" lon="4.778189"><time>2026-05-07T19:17:55Z</time></trkpt>
</trkseg></trk>
<trk>
<name>nlbbv17</name>
<cmt>v</cmt>
<desc>Bovesse Sentier n°17 Rue du Chemin de Fer</desc>
<link href="https://chemins.be/bovesse/sentier/17"/><trkseg>
<trkpt lat="50.514355" lon="4.778189"><time>2026-05-07T19:17:55Z</time></trkpt>
<trkpt lat="50.514950" lon="4.777630"><time>2026-05-07T19:27:55Z</time></trkpt>
</trkseg>
</trk>
<trk>
<name>nlbbv18</name>
<cmt>r</cmt>
<desc>Bovesse Sentier n°18 Rue de la Dime / Rue de la Dîme</desc>
<link href="https://chemins.be/bovesse/sentier/18"/><trkseg>
<trkpt lat="50.514147" lon="4.786168"><time>2026-05-07T18:17:55Z</time></trkpt>
<trkpt lat="50.512182" lon="4.790000"><time>2026-05-07T18:27:55Z</time></trkpt>
<trkpt lat="50.511790" lon="4.791561"><time>2026-05-07T18:37:55Z</time></trkpt>
</trkseg>
</trk>
<trk>
<name>nlbbv19</name>
<cmt>s</cmt>
<desc>Bovesse Sentier n°19 </desc>
<link href="https://chemins.be/bovesse/sentier/19"/><trkseg>
<trkpt lat="50.513240" lon="4.788176"><time>2026-05-07T18:17:55Z</time></trkpt>
<trkpt lat="50.513544" lon="4.791196"><time>2026-05-07T18:27:55Z</time></trkpt>
<trkpt lat="50.513577" lon="4.791930"><time>2026-05-07T18:37:55Z</time></trkpt>
</trkseg>
</trk>
<trk>
<name>nlbbv2</name>
<cmt>r</cmt>
<desc>Bovesse Chemin n°2 Chemin de Bovesse à Saint-Denis</desc>
<link href="https://chemins.be/bovesse/chemin/2"/><trkseg>
<trkpt lat="50.526155" lon="4.774258"><time>2026-05-07T18:17:55Z</time></trkpt>
<trkpt lat="50.522030" lon="4.771233"><time>2026-05-07T18:27:55Z</time></trkpt>
<trkpt lat="50.517250" lon="4.777946"><time>2026-05-07T18:37:55Z</time></trkpt>
<trkpt lat="50.516240" lon="4.778967"><time>2026-05-07T18:47:55Z</time></trkpt>
<trkpt lat="50.515311" lon="4.779678"><time>2026-05-07T18:57:55Z</time></trkpt>
<trkpt lat="50.513743" lon="4.780863"><time>2026-05-07T19:07:55Z</time></trkpt>
<trkpt lat="50.512805" lon="4.781658"><time>2026-05-07T19:17:55Z</time></trkpt>
</trkseg>
</trk>
<trk>
<name>nlbbv20</name>
<cmt>b</cmt>
<desc>Bovesse Sentier n°20 </desc>
<link href="https://chemins.be/bovesse/sentier/20"/><trkseg>
<trkpt lat="50.517241" lon="4.783065"><time>2026-05-07T18:17:55Z</time></trkpt>
<trkpt lat="50.517073" lon="4.782485"><time>2026-05-07T18:27:55Z</time></trkpt>
<trkpt lat="50.516902" lon="4.782498"><time>2026-05-07T18:37:55Z</time></trkpt>
<trkpt lat="50.516766" lon="4.781978"><time>2026-05-07T18:47:55Z</time></trkpt>
</trkseg></trk>
<trk>
<name>nlbbv20</name>
<cmt>s</cmt>
<desc>Bovesse Sentier n°20 </desc>
<link href="https://chemins.be/bovesse/sentier/20"/><trkseg>
<trkpt lat="50.516766" lon="4.781978"><time>2026-05-07T18:47:55Z</time></trkpt>
<trkpt lat="50.516339" lon="4.781605"><time>2026-05-07T18:57:55Z</time></trkpt>
<trkpt lat="50.516168" lon="4.781448"><time>2026-05-07T19:07:55Z</time></trkpt>
<trkpt lat="50.514947" lon="4.781028"><time>2026-05-07T19:17:55Z</time></trkpt>
<trkpt lat="50.514613" lon="4.781307"><time>2026-05-07T19:27:55Z</time></trkpt>
<trkpt lat="50.513777" lon="4.781357"><time>2026-05-07T19:37:55Z</time></trkpt>
</trkseg>
</trk>
<trk>
<name>nlbbv21</name>
<cmt>s</cmt>
<desc>Bovesse Sentier n°21 </desc>
<link href="https://chemins.be/bovesse/sentier/21"/><trkseg>
<trkpt lat="50.516796" lon="4.781933"><time>2026-05-07T18:17:55Z</time></trkpt>
<trkpt lat="50.517390" lon="4.781656"><time>2026-05-07T18:27:55Z</time></trkpt>
<trkpt lat="50.517660" lon="4.781503"><time>2026-05-07T18:37:55Z</time></trkpt>
<trkpt lat="50.517804" lon="4.781476"><time>2026-05-07T18:47:55Z</time></trkpt>
<trkpt lat="50.518209" lon="4.781409"><time>2026-05-07T18:57:55Z</time></trkpt>
<trkpt lat="50.518211" lon="4.780845"><time>2026-05-07T19:07:55Z</time></trkpt>
<trkpt lat="50.518886" lon="4.780611"><time>2026-05-07T19:17:55Z</time></trkpt>
</trkseg>
</trk>
<trk>
<name>nlbbv22</name>
<cmt>s</cmt>
<desc>Bovesse Sentier n°22 </desc>
<link href="https://chemins.be/bovesse/sentier/22"/><trkseg>
<trkpt lat="50.516751" lon="4.781904"><time>2026-05-07T18:17:55Z</time></trkpt>
<trkpt lat="50.517000" lon="4.780116"><time>2026-05-07T18:27:55Z</time></trkpt>
<trkpt lat="50.516700" lon="4.778647"><time>2026-05-07T18:37:55Z</time></trkpt>
</trkseg></trk>
<trk>
<name>nlbbv22</name>
<cmt>q</cmt>
<desc>Bovesse Sentier n°22 </desc>
<link href="https://chemins.be/bovesse/sentier/22"/><trkseg>
<trkpt lat="50.516700" lon="4.778647"><time>2026-05-07T18:37:55Z</time></trkpt>
<trkpt lat="50.516312" lon="4.778939"><time>2026-05-07T18:47:55Z</time></trkpt>
<trkpt lat="50.516424" lon="4.777685"><time>2026-05-07T18:57:55Z</time></trkpt>
<trkpt lat="50.516318" lon="4.777247"><time>2026-05-07T19:07:55Z</time></trkpt>
</trkseg>
</trk>
<trk>
<name>nlbbv23</name>
<cmt>s</cmt>
<desc>Bovesse Sentier n°23 Rue des Fermes</desc>
<link href="https://chemins.be/bovesse/sentier/23"/><trkseg>
<trkpt lat="50.512970" lon="4.783422"><time>2026-05-07T18:17:55Z</time></trkpt>
<trkpt lat="50.514184" lon="4.783108"><time>2026-05-07T18:27:55Z</time></trkpt>
</trkseg></trk>
<trk>
<name>nlbbv23</name>
<cmt>v</cmt>
<desc>Bovesse Sentier n°23 Rue des Fermes</desc>
<link href="https://chemins.be/bovesse/sentier/23"/><trkseg>
<trkpt lat="50.514184" lon="4.783108"><time>2026-05-07T18:27:55Z</time></trkpt>
<trkpt lat="50.514491" lon="4.782829"><time>2026-05-07T18:37:55Z</time></trkpt>
</trkseg></trk>
<trk>
<name>nlbbv23</name>
<cmt>d</cmt>
<desc>Bovesse Sentier n°23 Rue des Fermes</desc>
<link href="https://chemins.be/bovesse/sentier/23"/><trkseg>
<trkpt lat="50.514491" lon="4.782829"><time>2026-05-07T18:37:55Z</time></trkpt>
<trkpt lat="50.515582" lon="4.781936"><time>2026-05-07T18:47:55Z</time></trkpt>
<trkpt lat="50.515813" lon="4.782756"><time>2026-05-07T18:57:55Z</time></trkpt>
</trkseg></trk>
<trk>
<name>nlbbv23</name>
<cmt>s</cmt>
<desc>Bovesse Sentier n°23 Rue des Fermes</desc>
<link href="https://chemins.be/bovesse/sentier/23"/><trkseg>
<trkpt lat="50.515813" lon="4.782756"><time>2026-05-07T18:57:55Z</time></trkpt>
<trkpt lat="50.516390" lon="4.782352"><time>2026-05-07T19:07:55Z</time></trkpt>
<trkpt lat="50.516724" lon="4.782017"><time>2026-05-07T19:17:55Z</time></trkpt>
</trkseg>
</trk>
<trk>
<name>nlbbv24</name>
<cmt>s</cmt>
<desc>Bovesse Sentier n°24 Rue des Fermes</desc>
<link href="https://chemins.be/bovesse/sentier/24"/><trkseg>
<trkpt lat="50.513255" lon="4.784101"><time>2026-05-07T18:17:55Z</time></trkpt>
<trkpt lat="50.514193" lon="4.783137"><time>2026-05-07T18:27:55Z</time></trkpt>
</trkseg>
</trk>
<trk>
<name>nlbbv25</name>
<cmt>d</cmt>
<desc>Bovesse Sentier n°25 </desc>
<link href="https://chemins.be/bovesse/sentier/25"/><trkseg>
<trkpt lat="50.516080" lon="4.783647"><time>2026-05-07T18:17:55Z</time></trkpt>
<trkpt lat="50.515822" lon="4.782770"><time>2026-05-07T18:27:55Z</time></trkpt>
</trkseg>
</trk>
<trk>
<name>nlbbv26</name>
<cmt>r</cmt>
<desc>Bovesse Sentier n°26 Rue du Ruisseau</desc>
<link href="https://chemins.be/bovesse/sentier/26"/><trkseg>
<trkpt lat="50.517259" lon="4.783234"><time>2026-05-07T18:17:55Z</time></trkpt>
<trkpt lat="50.517337" lon="4.783912"><time>2026-05-07T18:27:55Z</time></trkpt>
<trkpt lat="50.517616" lon="4.783787"><time>2026-05-07T18:37:55Z</time></trkpt>
<trkpt lat="50.517728" lon="4.785255"><time>2026-05-07T18:47:55Z</time></trkpt>
</trkseg></trk>
<trk>
<name>nlbbv26</name>
<cmt>s</cmt>
<desc>Bovesse Sentier n°26 Rue du Ruisseau</desc>
<link href="https://chemins.be/bovesse/sentier/26"/><trkseg>
<trkpt lat="50.517728" lon="4.785255"><time>2026-05-07T18:47:55Z</time></trkpt>
<trkpt lat="50.517761" lon="4.786002"><time>2026-05-07T18:57:55Z</time></trkpt>
<trkpt lat="50.517973" lon="4.787034"><time>2026-05-07T19:07:55Z</time></trkpt>
<trkpt lat="50.517808" lon="4.788076"><time>2026-05-07T19:17:55Z</time></trkpt>
</trkseg></trk>
<trk>
<name>nlbbv26</name>
<cmt>v</cmt>
<desc>Bovesse Sentier n°26 Rue du Ruisseau</desc>
<link href="https://chemins.be/bovesse/sentier/26"/><trkseg>
<trkpt lat="50.517808" lon="4.788076"><time>2026-05-07T19:17:55Z</time></trkpt>
<trkpt lat="50.517606" lon="4.789258"><time>2026-05-07T19:27:55Z</time></trkpt>
</trkseg>
</trk>
<trk>
<name>nlbbv27</name>
<cmt>s</cmt>
<desc>Bovesse Sentier n°27 </desc>
<link href="https://chemins.be/bovesse/sentier/27"/><trkseg>
<trkpt lat="50.517761" lon="4.785946"><time>2026-05-07T18:17:55Z</time></trkpt>
<trkpt lat="50.518238" lon="4.785922"><time>2026-05-07T18:27:55Z</time></trkpt>
<trkpt lat="50.518856" lon="4.786477"><time>2026-05-07T18:37:55Z</time></trkpt>
<trkpt lat="50.523531" lon="4.783952"><time>2026-05-07T18:47:55Z</time></trkpt>
</trkseg>
</trk>
<trk>
<name>nlbbv28</name>
<cmt>s</cmt>
<desc>Bovesse Sentier n°28 </desc>
<link href="https://chemins.be/bovesse/sentier/28"/><trkseg>
<trkpt lat="50.516046" lon="4.788032"><time>2026-05-07T18:17:55Z</time></trkpt>
<trkpt lat="50.516828" lon="4.788081"><time>2026-05-07T18:27:55Z</time></trkpt>
<trkpt lat="50.517808" lon="4.788090"><time>2026-05-07T18:37:55Z</time></trkpt>
</trkseg></trk>
<trk>
<name>nlbbv28</name>
<cmt>b</cmt>
<desc>Bovesse Sentier n°28 </desc>
<link href="https://chemins.be/bovesse/sentier/28"/><trkseg>
<trkpt lat="50.517808" lon="4.788090"><time>2026-05-07T18:37:55Z</time></trkpt>
<trkpt lat="50.518293" lon="4.788207"><time>2026-05-07T18:47:55Z</time></trkpt>
</trkseg>
</trk>
<trk>
<name>nlbbv29</name>
<cmt>s</cmt>
<desc>Bovesse Sentier n°29 </desc>
<link href="https://chemins.be/bovesse/sentier/29"/><trkseg>
<trkpt lat="50.513635" lon="4.780862"><time>2026-05-07T18:17:55Z</time></trkpt>
<trkpt lat="50.513756" lon="4.779580"><time>2026-05-07T18:27:55Z</time></trkpt>
<trkpt lat="50.513824" lon="4.778283"><time>2026-05-07T18:37:55Z</time></trkpt>
<trkpt lat="50.513146" lon="4.774273"><time>2026-05-07T18:47:55Z</time></trkpt>
</trkseg>
</trk>
<trk>
<name>nlbbv3</name>
<cmt>r</cmt>
<desc>Bovesse Chemin n°3 Chemin de Temploux</desc>
<link href="https://chemins.be/bovesse/chemin/3"/><trkseg>
<trkpt lat="50.513211" lon="4.778814"><time>2026-05-07T18:17:55Z</time></trkpt>
<trkpt lat="50.511059" lon="4.777117"><time>2026-05-07T18:27:55Z</time></trkpt>
<trkpt lat="50.509202" lon="4.775987"><time>2026-05-07T18:37:55Z</time></trkpt>
</trkseg></trk>
<trk>
<name>nlbbv3</name>
<cmt>v</cmt>
<desc>Bovesse Chemin n°3 Chemin de Temploux</desc>
<link href="https://chemins.be/bovesse/chemin/3"/><trkseg>
<trkpt lat="50.509202" lon="4.775987"><time>2026-05-07T18:37:55Z</time></trkpt>
<trkpt lat="50.507317" lon="4.775041"><time>2026-05-07T18:47:55Z</time></trkpt>
<trkpt lat="50.506394" lon="4.774314"><time>2026-05-07T18:57:55Z</time></trkpt>
</trkseg>
</trk>
<trk>
<name>nlbbv30</name>
<cmt>d</cmt>
<desc>Bovesse Sentier n°30 </desc>
<link href="https://chemins.be/bovesse/sentier/30"/><trkseg>
<trkpt lat="50.520728" lon="4.780966"><time>2026-05-07T18:17:55Z</time></trkpt>
<trkpt lat="50.520258" lon="4.781766"><time>2026-05-07T18:27:55Z</time></trkpt>
</trkseg></trk>
<trk>
<name>nlbbv30</name>
<cmt>s</cmt>
<desc>Bovesse Sentier n°30 </desc>
<link href="https://chemins.be/bovesse/sentier/30"/><trkseg>
<trkpt lat="50.520258" lon="4.781766"><time>2026-05-07T18:27:55Z</time></trkpt>
<trkpt lat="50.519761" lon="4.782523"><time>2026-05-07T18:37:55Z</time></trkpt>
</trkseg>
</trk>
<trk>
<name>nlbbv31</name>
<cmt>s</cmt>
<desc>Bovesse Sentier n°31 </desc>
<link href="https://chemins.be/bovesse/sentier/31"/><trkseg>
<trkpt lat="50.516737" lon="4.775827"><time>2026-05-07T18:17:55Z</time></trkpt>
<trkpt lat="50.517797" lon="4.773453"><time>2026-05-07T18:27:55Z</time></trkpt>
<trkpt lat="50.517961" lon="4.772594"><time>2026-05-07T18:37:55Z</time></trkpt>
<trkpt lat="50.518053" lon="4.769479"><time>2026-05-07T18:47:55Z</time></trkpt>
<trkpt lat="50.519166" lon="4.767457"><time>2026-05-07T18:57:55Z</time></trkpt>
</trkseg>
</trk>
<trk>
<name>nlbbv32</name>
<cmt>q</cmt>
<desc>Bovesse Sentier n°32 </desc>
<link href="https://chemins.be/bovesse/sentier/32"/><trkseg>
<trkpt lat="50.516638" lon="4.783468"><time>2026-05-07T18:17:55Z</time></trkpt>
<trkpt lat="50.516381" lon="4.782338"><time>2026-05-07T18:27:55Z</time></trkpt>
</trkseg></trk>
<trk>
<name>nlbbv32</name>
<cmt>s</cmt>
<desc>Bovesse Sentier n°32 </desc>
<link href="https://chemins.be/bovesse/sentier/32"/><trkseg>
<trkpt lat="50.516381" lon="4.782338"><time>2026-05-07T18:27:55Z</time></trkpt>
<trkpt lat="50.516339" lon="4.781492"><time>2026-05-07T18:37:55Z</time></trkpt>
</trkseg>
</trk>
<trk>
<name>nlbbv33</name>
<cmt>s</cmt>
<desc>Bovesse Sentier n°33 </desc>
<link href="https://chemins.be/bovesse/sentier/33"/><trkseg>
<trkpt lat="50.515803" lon="4.788072"><time>2026-05-07T18:17:55Z</time></trkpt>
<trkpt lat="50.514935" lon="4.791857"><time>2026-05-07T18:27:55Z</time></trkpt>
</trkseg>
</trk>
<trk>
<name>nlbbv4</name>
<cmt>v</cmt>
<desc>Bovesse Chemin n°4 Chemin des Fermes / Rue de Temploux / Rue du Manoir</desc>
<link href="https://chemins.be/bovesse/chemin/4"/><trkseg>
<trkpt lat="50.502227" lon="4.767935"><time>2026-05-07T18:17:55Z</time></trkpt>
<trkpt lat="50.503663" lon="4.771006"><time>2026-05-07T18:27:55Z</time></trkpt>
<trkpt lat="50.504263" lon="4.771716"><time>2026-05-07T18:37:55Z</time></trkpt>
<trkpt lat="50.506824" lon="4.774769"><time>2026-05-07T18:47:55Z</time></trkpt>
</trkseg></trk>
<trk>
<name>nlbbv4</name>
<cmt>s</cmt>
<desc>Bovesse Chemin n°4 Chemin des Fermes / Rue de Temploux / Rue du Manoir</desc>
<link href="https://chemins.be/bovesse/chemin/4"/><trkseg>
<trkpt lat="50.506824" lon="4.774769"><time>2026-05-07T18:47:55Z</time></trkpt>
<trkpt lat="50.508184" lon="4.776557"><time>2026-05-07T18:57:55Z</time></trkpt>
<trkpt lat="50.509358" lon="4.777610"><time>2026-05-07T19:07:55Z</time></trkpt>
</trkseg></trk>
<trk>
<name>nlbbv4</name>
<cmt>v</cmt>
<desc>Bovesse Chemin n°4 Chemin des Fermes / Rue de Temploux / Rue du Manoir</desc>
<link href="https://chemins.be/bovesse/chemin/4"/><trkseg>
<trkpt lat="50.509358" lon="4.777610"><time>2026-05-07T19:07:55Z</time></trkpt>
<trkpt lat="50.510443" lon="4.778353"><time>2026-05-07T19:17:55Z</time></trkpt>
</trkseg></trk>
<trk>
<name>nlbbv4</name>
<cmt>r</cmt>
<desc>Bovesse Chemin n°4 Chemin des Fermes / Rue de Temploux / Rue du Manoir</desc>
<link href="https://chemins.be/bovesse/chemin/4"/><trkseg>
<trkpt lat="50.510443" lon="4.778353"><time>2026-05-07T19:17:55Z</time></trkpt>
<trkpt lat="50.511604" lon="4.780689"><time>2026-05-07T19:27:55Z</time></trkpt>
<trkpt lat="50.512451" lon="4.781394"><time>2026-05-07T19:37:55Z</time></trkpt>
</trkseg></trk>
<trk>
<name>nlbbv4</name>
<cmt>s</cmt>
<desc>Bovesse Chemin n°4 Chemin des Fermes / Rue de Temploux / Rue du Manoir</desc>
<link href="https://chemins.be/bovesse/chemin/4"/><trkseg>
<trkpt lat="50.512451" lon="4.781394"><time>2026-05-07T19:37:55Z</time></trkpt>
<trkpt lat="50.512593" lon="4.781563"><time>2026-05-07T19:47:55Z</time></trkpt>
</trkseg></trk>
<trk>
<name>nlbbv4</name>
<cmt>v</cmt>
<desc>Bovesse Chemin n°4 Chemin des Fermes / Rue de Temploux / Rue du Manoir</desc>
<link href="https://chemins.be/bovesse/chemin/4"/><trkseg>
<trkpt lat="50.512593" lon="4.781563"><time>2026-05-07T19:47:55Z</time></trkpt>
<trkpt lat="50.512720" lon="4.781710"><time>2026-05-07T19:57:55Z</time></trkpt>
</trkseg>
</trk>
<trk>
<name>nlbbv5</name>
<cmt>r</cmt>
<desc>Bovesse Chemin n°5 Chemin de Marette / Rue de Marette / ?</desc>
<link href="https://chemins.be/bovesse/chemin/5"/><trkseg>
<trkpt lat="50.509291" lon="4.757858"><time>2026-05-07T18:17:55Z</time></trkpt>
<trkpt lat="50.508575" lon="4.762138"><time>2026-05-07T18:27:55Z</time></trkpt>
<trkpt lat="50.508366" lon="4.762799"><time>2026-05-07T18:37:55Z</time></trkpt>
<trkpt lat="50.508393" lon="4.765618"><time>2026-05-07T18:47:55Z</time></trkpt>
</trkseg></trk>
<trk>
<name>nlbbv5</name>
<cmt>s</cmt>
<desc>Bovesse Chemin n°5 Chemin de Marette / Rue de Marette / ?</desc>
<link href="https://chemins.be/bovesse/chemin/5"/><trkseg>
<trkpt lat="50.508393" lon="4.765618"><time>2026-05-07T18:47:55Z</time></trkpt>
<trkpt lat="50.508457" lon="4.767973"><time>2026-05-07T18:57:55Z</time></trkpt>
<trkpt lat="50.509249" lon="4.772816"><time>2026-05-07T19:07:55Z</time></trkpt>
<trkpt lat="50.509842" lon="4.775584"><time>2026-05-07T19:17:55Z</time></trkpt>
<trkpt lat="50.510444" lon="4.778254"><time>2026-05-07T19:27:55Z</time></trkpt>
</trkseg>
</trk>
<trk>
<name>nlbbv6</name>
<cmt>v</cmt>
<desc>Bovesse Chemin n°6 Chemin n°9 de Isnes</desc>
<link href="https://chemins.be/bovesse/chemin/6"/><trkseg>
<trkpt lat="50.512177" lon="4.755132"><time>2026-05-07T18:17:55Z</time></trkpt>
<trkpt lat="50.513149" lon="4.757715"><time>2026-05-07T18:27:55Z</time></trkpt>
</trkseg>
</trk>
<trk>
<name>nlbbv7</name>
<cmt>r</cmt>
<desc>Bovesse Chemin n°7 Chemin d'Emines / Rue des Fermes / Rue de la Ronce / Rue de la Distillerie</desc>
<link href="https://chemins.be/bovesse/chemin/7"/><trkseg>
<trkpt lat="50.512742" lon="4.781770"><time>2026-05-07T18:17:55Z</time></trkpt>
<trkpt lat="50.512978" lon="4.783732"><time>2026-05-07T18:27:55Z</time></trkpt>
<trkpt lat="50.514119" lon="4.786323"><time>2026-05-07T18:37:55Z</time></trkpt>
<trkpt lat="50.514764" lon="4.787062"><time>2026-05-07T18:47:55Z</time></trkpt>
<trkpt lat="50.515228" lon="4.787855"><time>2026-05-07T18:57:55Z</time></trkpt>
<trkpt lat="50.516072" lon="4.788117"><time>2026-05-07T19:07:55Z</time></trkpt>
<trkpt lat="50.516357" lon="4.789078"><time>2026-05-07T19:17:55Z</time></trkpt>
<trkpt lat="50.516796" lon="4.789322"><time>2026-05-07T19:27:55Z</time></trkpt>
<trkpt lat="50.517713" lon="4.789330"><time>2026-05-07T19:37:55Z</time></trkpt>
<trkpt lat="50.517500" lon="4.791274"><time>2026-05-07T19:47:55Z</time></trkpt>
</trkseg>
</trk>
<trk>
<name>nlbbv8</name>
<cmt>r</cmt>
<desc>Bovesse Chemin n°8 Chemin de Saint-Denis / Rue du Ruisseau / Rue de la Distillerie / Rue du Moulin / ? / Rue de Cannevaux</desc>
<link href="https://chemins.be/bovesse/chemin/8"/><trkseg>
<trkpt lat="50.514174" lon="4.786168"><time>2026-05-07T18:17:55Z</time></trkpt>
<trkpt lat="50.515935" lon="4.783815"><time>2026-05-07T18:27:55Z</time></trkpt>
<trkpt lat="50.517331" lon="4.783094"><time>2026-05-07T18:37:55Z</time></trkpt>
<trkpt lat="50.518341" lon="4.782257"><time>2026-05-07T18:47:55Z</time></trkpt>
<trkpt lat="50.519304" lon="4.781969"><time>2026-05-07T18:57:55Z</time></trkpt>
<trkpt lat="50.519165" lon="4.780755"><time>2026-05-07T19:07:55Z</time></trkpt>
<trkpt lat="50.522760" lon="4.780998"><time>2026-05-07T19:17:55Z</time></trkpt>
</trkseg></trk>
<trk>
<name>nlbbv8</name>
<cmt>v</cmt>
<desc>Bovesse Chemin n°8 Chemin de Saint-Denis / Rue du Ruisseau / Rue de la Distillerie / Rue du Moulin / ? / Rue de Cannevaux</desc>
<link href="https://chemins.be/bovesse/chemin/8"/><trkseg>
<trkpt lat="50.522760" lon="4.780998"><time>2026-05-07T19:17:55Z</time></trkpt>
<trkpt lat="50.523452" lon="4.783585"><time>2026-05-07T19:27:55Z</time></trkpt>
</trkseg></trk>
<trk>
<name>nlbbv8</name>
<cmt>r</cmt>
<desc>Bovesse Chemin n°8 Chemin de Saint-Denis / Rue du Ruisseau / Rue de la Distillerie / Rue du Moulin / ? / Rue de Cannevaux</desc>
<link href="https://chemins.be/bovesse/chemin/8"/><trkseg>
<trkpt lat="50.523452" lon="4.783585"><time>2026-05-07T19:27:55Z</time></trkpt>
<trkpt lat="50.523718" lon="4.784447"><time>2026-05-07T19:37:55Z</time></trkpt>
<trkpt lat="50.524548" lon="4.788671"><time>2026-05-07T19:47:55Z</time></trkpt>
</trkseg>
</trk>
<trk>
<name>nlbbv9</name>
<cmt>r</cmt>
<desc>Bovesse Chemin n°9 Rue du Moulin</desc>
<link href="https://chemins.be/bovesse/chemin/9"/><trkseg>
<trkpt lat="50.522805" lon="4.780970"><time>2026-05-07T18:17:55Z</time></trkpt>
<trkpt lat="50.524045" lon="4.781235"><time>2026-05-07T18:27:55Z</time></trkpt>
</trkseg>
</trk>
<trk>
<name>nlbbvi1</name>
<cmt>v</cmt>
<desc>Bovesse Sentier n°i1 </desc>
<link href="https://chemins.be/bovesse/sentier/i1"/><trkseg>
<trkpt lat="50.519518" lon="4.785073"><time>2026-05-07T18:17:55Z</time></trkpt>
<trkpt lat="50.519456" lon="4.784776"><time>2026-05-07T18:27:55Z</time></trkpt>
<trkpt lat="50.519529" lon="4.784509"><time>2026-05-07T18:37:55Z</time></trkpt>
<trkpt lat="50.519512" lon="4.784156"><time>2026-05-07T18:47:55Z</time></trkpt>
<trkpt lat="50.519260" lon="4.784112"><time>2026-05-07T18:57:55Z</time></trkpt>
</trkseg>
</trk>
<trk>
<name>nlbbvi2</name>
<cmt>v</cmt>
<desc>Bovesse Sentier n°i2 Sentier n°i2 de Bovesse</desc>
<link href="https://chemins.be/bovesse/sentier/i2"/><trkseg>
<trkpt lat="50.514996" lon="4.777447"><time>2026-05-07T18:17:55Z</time></trkpt>
<trkpt lat="50.515556" lon="4.776677"><time>2026-05-07T18:27:55Z</time></trkpt>
<trkpt lat="50.516189" lon="4.775625"><time>2026-05-07T18:37:55Z</time></trkpt>
<trkpt lat="50.516406" lon="4.775105"><time>2026-05-07T18:47:55Z</time></trkpt>
</trkseg>
</trk>
<trk>
<name>nlbbvi4</name>
<cmt>v</cmt>
<desc>Bovesse Sentier n°i4 </desc>
<link href="https://chemins.be/bovesse/sentier/i4"/><trkseg>
<trkpt lat="50.501811" lon="4.773697"><time>2026-05-07T18:17:55Z</time></trkpt>
<trkpt lat="50.501345" lon="4.770732"><time>2026-05-07T18:27:55Z</time></trkpt>
<trkpt lat="50.501292" lon="4.767814"><time>2026-05-07T18:37:55Z</time></trkpt>
</trkseg>
</trk>
<trk>
<name>nlbbvL161</name>
<cmt>t</cmt>
<desc>Bovesse Chemin n°L161 </desc>
<link href="https://chemins.be/bovesse/chemin/L161"/><trkseg>
<trkpt lat="50.509136" lon="4.786899"><time>2026-05-07T18:17:55Z</time></trkpt>
<trkpt lat="50.512537" lon="4.781485"><time>2026-05-07T18:27:55Z</time></trkpt>
<trkpt lat="50.520301" lon="4.769455"><time>2026-05-07T18:37:55Z</time></trkpt>
</trkseg>
</trk>
<trk>
<name>nlbbvr25</name>
<cmt>v</cmt>
<desc>Bovesse Chemin de remembrement n°r25 </desc>
<link href="https://chemins.be/bovesse/chemin/r25"/><trkseg>
<trkpt lat="50.508341" lon="4.762277"><time>2026-05-07T18:17:55Z</time></trkpt>
<trkpt lat="50.508261" lon="4.762220"><time>2026-05-07T18:27:55Z</time></trkpt>
<trkpt lat="50.507522" lon="4.762495"><time>2026-05-07T18:37:55Z</time></trkpt>
</trkseg>
</trk>
<trk>
<name>nlbem1</name>
<cmt>r</cmt>
<desc>Emines Chemin n°1 Chemin de Saint-Marc à Villers</desc>
<link href="https://chemins.be/emines/chemin/1"/><trkseg>
<trkpt lat="50.505382" lon="4.848767"><time>2026-05-07T18:17:55Z</time></trkpt>
<trkpt lat="50.507076" lon="4.847994"><time>2026-05-07T18:27:55Z</time></trkpt>
<trkpt lat="50.508951" lon="4.846759"><time>2026-05-07T18:37:55Z</time></trkpt>
<trkpt lat="50.512160" lon="4.844648"><time>2026-05-07T18:47:55Z</time></trkpt>
<trkpt lat="50.512116" lon="4.844253"><time>2026-05-07T18:57:55Z</time></trkpt>
<trkpt lat="50.512702" lon="4.844005"><time>2026-05-07T19:07:55Z</time></trkpt>
<trkpt lat="50.513490" lon="4.842659"><time>2026-05-07T19:17:55Z</time></trkpt>
<trkpt lat="50.515032" lon="4.841420"><time>2026-05-07T19:27:55Z</time></trkpt>
<trkpt lat="50.515558" lon="4.840713"><time>2026-05-07T19:37:55Z</time></trkpt>
<trkpt lat="50.517829" lon="4.838938"><time>2026-05-07T19:47:55Z</time></trkpt>
<trkpt lat="50.519034" lon="4.838851"><time>2026-05-07T19:57:55Z</time></trkpt>
<trkpt lat="50.521241" lon="4.837886"><time>2026-05-07T20:07:55Z</time></trkpt>
<trkpt lat="50.523417" lon="4.835524"><time>2026-05-07T20:17:55Z</time></trkpt>
</trkseg>
</trk>
<trk>
<name>nlbem10</name>
<cmt>s</cmt>
<desc>Emines Chemin n°10 Chemin de Seumoy à Saint-Denis</desc>
<link href="https://chemins.be/emines/chemin/10"/><trkseg>
<trkpt lat="50.527284" lon="4.805084"><time>2026-05-07T18:17:55Z</time></trkpt>
<trkpt lat="50.526046" lon="4.801984"><time>2026-05-07T18:27:55Z</time></trkpt>
<trkpt lat="50.527645" lon="4.797401"><time>2026-05-07T18:37:55Z</time></trkpt>
</trkseg>
</trk>
<trk>
<name>nlbem11</name>
<cmt>r</cmt>
<desc>Emines Chemin n°11 Rue de la Gloriette / Rue Royale</desc>
<link href="https://chemins.be/emines/chemin/11"/><trkseg>
<trkpt lat="50.518899" lon="4.838864"><time>2026-05-07T18:17:55Z</time></trkpt>
<trkpt lat="50.519253" lon="4.840221"><time>2026-05-07T18:27:55Z</time></trkpt>
<trkpt lat="50.519796" lon="4.841580"><time>2026-05-07T18:37:55Z</time></trkpt>
<trkpt lat="50.519873" lon="4.842498"><time>2026-05-07T18:47:55Z</time></trkpt>
<trkpt lat="50.520357" lon="4.845168"><time>2026-05-07T18:57:55Z</time></trkpt>
<trkpt lat="50.523120" lon="4.846549"><time>2026-05-07T19:07:55Z</time></trkpt>
<trkpt lat="50.524747" lon="4.848780"><time>2026-05-07T19:17:55Z</time></trkpt>
</trkseg>
</trk>
<trk>
<name>nlbem12</name>
<cmt>v</cmt>
<desc>Emines Chemin n°12 </desc>
<link href="https://chemins.be/emines/chemin/12"/><trkseg>
<trkpt lat="50.520321" lon="4.845210"><time>2026-05-07T18:17:55Z</time></trkpt>
<trkpt lat="50.520456" lon="4.847242"><time>2026-05-07T18:27:55Z</time></trkpt>
<trkpt lat="50.522204" lon="4.850658"><time>2026-05-07T18:37:55Z</time></trkpt>
</trkseg>
</trk>
<trk>
<name>nlbem13</name>
<cmt>r</cmt>
<desc>Emines Chemin n°13 Rue Royale / Rue Cahiet</desc>
<link href="https://chemins.be/emines/chemin/13"/><trkseg>
<trkpt lat="50.512169" lon="4.844578"><time>2026-05-07T18:17:55Z</time></trkpt>
<trkpt lat="50.513769" lon="4.844566"><time>2026-05-07T18:27:55Z</time></trkpt>
<trkpt lat="50.515454" lon="4.843793"><time>2026-05-07T18:37:55Z</time></trkpt>
<trkpt lat="50.516882" lon="4.844033"><time>2026-05-07T18:47:55Z</time></trkpt>
<trkpt lat="50.520027" lon="4.842415"><time>2026-05-07T18:57:55Z</time></trkpt>
<trkpt lat="50.522488" lon="4.842933"><time>2026-05-07T19:07:55Z</time></trkpt>
</trkseg>
</trk>
<trk>
<name>nlbem13bis</name>
<cmt>r</cmt>
<desc>Emines Chemin n°13bis Rue Grand Mère / Rue Grand-Mère</desc>
<link href="https://chemins.be/emines/chemin/13bis"/><trkseg>
<trkpt lat="50.515751" lon="4.843768"><time>2026-05-07T18:17:55Z</time></trkpt>
<trkpt lat="50.516467" lon="4.842224"><time>2026-05-07T18:27:55Z</time></trkpt>
<trkpt lat="50.517360" lon="4.841570"><time>2026-05-07T18:37:55Z</time></trkpt>
</trkseg>
</trk>
<trk>
<name>nlbem14</name>
<cmt>v</cmt>
<desc>Emines Chemin n°14 Charmille</desc>
<link href="https://chemins.be/emines/chemin/14"/><trkseg>
<trkpt lat="50.512879" lon="4.835914"><time>2026-05-07T18:17:55Z</time></trkpt>
<trkpt lat="50.513535" lon="4.835836"><time>2026-05-07T18:27:55Z</time></trkpt>
</trkseg></trk>
<trk>
<name>nlbem14</name>
<cmt>s</cmt>
<desc>Emines Chemin n°14 Charmille</desc>
<link href="https://chemins.be/emines/chemin/14"/><trkseg>
<trkpt lat="50.513535" lon="4.835836"><time>2026-05-07T18:27:55Z</time></trkpt>
<trkpt lat="50.515037" lon="4.835597"><time>2026-05-07T18:37:55Z</time></trkpt>
<trkpt lat="50.515550" lon="4.835517"><time>2026-05-07T18:47:55Z</time></trkpt>
<trkpt lat="50.515782" lon="4.836069"><time>2026-05-07T18:57:55Z</time></trkpt>
<trkpt lat="50.516214" lon="4.838019"><time>2026-05-07T19:07:55Z</time></trkpt>
</trkseg></trk>
<trk>
<name>nlbem14</name>
<cmt>r</cmt>
<desc>Emines Chemin n°14 Charmille</desc>
<link href="https://chemins.be/emines/chemin/14"/><trkseg>
<trkpt lat="50.516214" lon="4.838019"><time>2026-05-07T19:07:55Z</time></trkpt>
<trkpt lat="50.516765" lon="4.839618"><time>2026-05-07T19:17:55Z</time></trkpt>
</trkseg>
</trk>
<trk>
<name>nlbem15</name>
<cmt>r</cmt>
<desc>Emines Chemin n°15 Rue Grand Mère / ?</desc>
<link href="https://chemins.be/emines/chemin/15"/><trkseg>
<trkpt lat="50.516846" lon="4.839732"><time>2026-05-07T18:17:55Z</time></trkpt>
<trkpt lat="50.517405" lon="4.841486"><time>2026-05-07T18:27:55Z</time></trkpt>
</trkseg></trk>
<trk>
<name>nlbem15</name>
<cmt>v</cmt>
<desc>Emines Chemin n°15 Rue Grand Mère / ?</desc>
<link href="https://chemins.be/emines/chemin/15"/><trkseg>
<trkpt lat="50.517405" lon="4.841486"><time>2026-05-07T18:27:55Z</time></trkpt>
<trkpt lat="50.517513" lon="4.841557"><time>2026-05-07T18:37:55Z</time></trkpt>
<trkpt lat="50.517957" lon="4.842873"><time>2026-05-07T18:47:55Z</time></trkpt>
</trkseg>
</trk>
<trk>
<name>nlbem16</name>
<cmt>r</cmt>
<desc>Emines Chemin n°16 Rue Trieux des Gouttes</desc>
<link href="https://chemins.be/emines/chemin/16"/><trkseg>
<trkpt lat="50.515615" lon="4.844020"><time>2026-05-07T18:17:55Z</time></trkpt>
<trkpt lat="50.516388" lon="4.846242"><time>2026-05-07T18:27:55Z</time></trkpt>
<trkpt lat="50.516754" lon="4.849051"><time>2026-05-07T18:37:55Z</time></trkpt>
<trkpt lat="50.517234" lon="4.850438"><time>2026-05-07T18:47:55Z</time></trkpt>
<trkpt lat="50.517939" lon="4.851475"><time>2026-05-07T18:57:55Z</time></trkpt>
<trkpt lat="50.517260" lon="4.852779"><time>2026-05-07T19:07:55Z</time></trkpt>
<trkpt lat="50.519311" lon="4.856847"><time>2026-05-07T19:17:55Z</time></trkpt>
</trkseg>
</trk>
<trk>
<name>nlbem17</name>
<cmt>s</cmt>
<desc>Emines Chemin n°17 Fond del Maie</desc>
<link href="https://chemins.be/emines/chemin/17"/><trkseg>
<trkpt lat="50.504628" lon="4.841809"><time>2026-05-07T18:17:55Z</time></trkpt>
<trkpt lat="50.505097" lon="4.837232"><time>2026-05-07T18:27:55Z</time></trkpt>
</trkseg>
</trk>
<trk>
<name>nlbem19</name>
<cmt>r</cmt>
<desc>Emines Chemin n°19 Chemin de la Croix de Pierre</desc>
<link href="https://chemins.be/emines/chemin/19"/><trkseg>
<trkpt lat="50.511531" lon="4.844628"><time>2026-05-07T18:17:55Z</time></trkpt>
<trkpt lat="50.509953" lon="4.843427"><time>2026-05-07T18:27:55Z</time></trkpt>
<trkpt lat="50.508822" lon="4.840766"><time>2026-05-07T18:37:55Z</time></trkpt>
<trkpt lat="50.507495" lon="4.839949"><time>2026-05-07T18:47:55Z</time></trkpt>
</trkseg></trk>
<trk>
<name>nlbem19</name>
<cmt>s</cmt>
<desc>Emines Chemin n°19 Chemin de la Croix de Pierre</desc>
<link href="https://chemins.be/emines/chemin/19"/><trkseg>
<trkpt lat="50.507495" lon="4.839949"><time>2026-05-07T18:47:55Z</time></trkpt>
<trkpt lat="50.506968" lon="4.839041"><time>2026-05-07T18:57:55Z</time></trkpt>
<trkpt lat="50.505268" lon="4.837107"><time>2026-05-07T19:07:55Z</time></trkpt>
</trkseg>
</trk>
<trk>
<name>nlbem2</name>
<cmt>s</cmt>
<desc>Emines Chemin n°2 Chemin de Seumois</desc>
<link href="https://chemins.be/emines/chemin/2"/><trkseg>
<trkpt lat="50.503939" lon="4.838856"><time>2026-05-07T18:17:55Z</time></trkpt>
<trkpt lat="50.505142" lon="4.837078"><time>2026-05-07T18:27:55Z</time></trkpt>
<trkpt lat="50.506162" lon="4.835988"><time>2026-05-07T18:37:55Z</time></trkpt>
<trkpt lat="50.509133" lon="4.832902"><time>2026-05-07T18:47:55Z</time></trkpt>
<trkpt lat="50.510002" lon="4.831430"><time>2026-05-07T18:57:55Z</time></trkpt>
<trkpt lat="50.510238" lon="4.830685"><time>2026-05-07T19:07:55Z</time></trkpt>
<trkpt lat="50.510459" lon="4.829418"><time>2026-05-07T19:17:55Z</time></trkpt>
<trkpt lat="50.512458" lon="4.826266"><time>2026-05-07T19:27:55Z</time></trkpt>
</trkseg></trk>
<trk>
<name>nlbem2</name>
<cmt>r</cmt>
<desc>Emines Chemin n°2 Chemin de Seumois</desc>
<link href="https://chemins.be/emines/chemin/2"/><trkseg>
<trkpt lat="50.512458" lon="4.826266"><time>2026-05-07T19:27:55Z</time></trkpt>
<trkpt lat="50.512107" lon="4.824596"><time>2026-05-07T19:37:55Z</time></trkpt>
<trkpt lat="50.514451" lon="4.822407"><time>2026-05-07T19:47:55Z</time></trkpt>
<trkpt lat="50.515642" lon="4.821404"><time>2026-05-07T19:57:55Z</time></trkpt>
<trkpt lat="50.516374" lon="4.820526"><time>2026-05-07T20:07:55Z</time></trkpt>
<trkpt lat="50.516872" lon="4.819568"><time>2026-05-07T20:17:55Z</time></trkpt>
<trkpt lat="50.517268" lon="4.819128"><time>2026-05-07T20:27:55Z</time></trkpt>
<trkpt lat="50.517375" lon="4.818770"><time>2026-05-07T20:37:55Z</time></trkpt>
<trkpt lat="50.517402" lon="4.817204"><time>2026-05-07T20:47:55Z</time></trkpt>
</trkseg></trk>
<trk>
<name>nlbem2</name>
<cmt>v</cmt>
<desc>Emines Chemin n°2 Chemin de Seumois</desc>
<link href="https://chemins.be/emines/chemin/2"/><trkseg>
<trkpt lat="50.517402" lon="4.817204"><time>2026-05-07T20:47:55Z</time></trkpt>
<trkpt lat="50.518913" lon="4.817219"><time>2026-05-07T20:57:55Z</time></trkpt>
<trkpt lat="50.519318" lon="4.816926"><time>2026-05-07T21:07:55Z</time></trkpt>
<trkpt lat="50.520574" lon="4.815302"><time>2026-05-07T21:17:55Z</time></trkpt>
<trkpt lat="50.521574" lon="4.812548"><time>2026-05-07T21:27:55Z</time></trkpt>
<trkpt lat="50.522250" lon="4.812061"><time>2026-05-07T21:37:55Z</time></trkpt>
<trkpt lat="50.522771" lon="4.812094"><time>2026-05-07T21:47:55Z</time></trkpt>
<trkpt lat="50.522935" lon="4.811686"><time>2026-05-07T21:57:55Z</time></trkpt>
<trkpt lat="50.522716" lon="4.810105"><time>2026-05-07T22:07:55Z</time></trkpt>
</trkseg></trk>
<trk>
<name>nlbem2</name>
<cmt>r</cmt>
<desc>Emines Chemin n°2 Chemin de Seumois</desc>
<link href="https://chemins.be/emines/chemin/2"/><trkseg>
<trkpt lat="50.522716" lon="4.810105"><time>2026-05-07T22:07:55Z</time></trkpt>
<trkpt lat="50.523592" lon="4.809112"><time>2026-05-07T22:17:55Z</time></trkpt>
<trkpt lat="50.527167" lon="4.805182"><time>2026-05-07T22:27:55Z</time></trkpt>
<trkpt lat="50.528041" lon="4.804597"><time>2026-05-07T22:37:55Z</time></trkpt>
<trkpt lat="50.529908" lon="4.803021"><time>2026-05-07T22:47:55Z</time></trkpt>
<trkpt lat="50.530925" lon="4.802664"><time>2026-05-07T22:57:55Z</time></trkpt>
<trkpt lat="50.531947" lon="4.801178"><time>2026-05-07T23:07:55Z</time></trkpt>
</trkseg>
</trk>
<trk>
<name>nlbem20</name>
<cmt>s</cmt>
<desc>Emines Chemin n°20 Chemin du Tige du Curé</desc>
<link href="https://chemins.be/emines/chemin/20"/><trkseg>
<trkpt lat="50.507255" lon="4.839270"><time>2026-05-07T18:17:55Z</time></trkpt>
<trkpt lat="50.512623" lon="4.839013"><time>2026-05-07T18:27:55Z</time></trkpt>
</trkseg></trk>
<trk>
<name>nlbem20</name>
<cmt>v</cmt>
<desc>Emines Chemin n°20 Chemin du Tige du Curé</desc>
<link href="https://chemins.be/emines/chemin/20"/><trkseg>
<trkpt lat="50.512623" lon="4.839013"><time>2026-05-07T18:27:55Z</time></trkpt>
<trkpt lat="50.513710" lon="4.839306"><time>2026-05-07T18:37:55Z</time></trkpt>
</trkseg></trk>
<trk>
<name>nlbem20</name>
<cmt>s</cmt>
<desc>Emines Chemin n°20 Chemin du Tige du Curé</desc>
<link href="https://chemins.be/emines/chemin/20"/><trkseg>
<trkpt lat="50.513710" lon="4.839306"><time>2026-05-07T18:37:55Z</time></trkpt>
<trkpt lat="50.514366" lon="4.839341"><time>2026-05-07T18:47:55Z</time></trkpt>
</trkseg>
</trk>
<trk>
<name>nlbem21</name>
<cmt>r</cmt>
<desc>Emines Chemin n°21 Rue du Centre</desc>
<link href="https://chemins.be/emines/chemin/21"/><trkseg>
<trkpt lat="50.517856" lon="4.843338"><time>2026-05-07T18:17:55Z</time></trkpt>
<trkpt lat="50.518448" lon="4.841525"><time>2026-05-07T18:27:55Z</time></trkpt>
<trkpt lat="50.519280" lon="4.840292"><time>2026-05-07T18:37:55Z</time></trkpt>
</trkseg>
</trk>
<trk>
<name>nlbem22</name>
<cmt>r</cmt>
<desc>Emines Chemin n°22 Rue Prud'Homme / Rue Prud'homme</desc>
<link href="https://chemins.be/emines/chemin/22"/><trkseg>
<trkpt lat="50.515937" lon="4.826356"><time>2026-05-07T18:17:55Z</time></trkpt>
<trkpt lat="50.516261" lon="4.826359"><time>2026-05-07T18:27:55Z</time></trkpt>
<trkpt lat="50.516558" lon="4.826362"><time>2026-05-07T18:37:55Z</time></trkpt>
<trkpt lat="50.517637" lon="4.826259"><time>2026-05-07T18:47:55Z</time></trkpt>
</trkseg>
</trk>
<trk>
<name>nlbem23</name>
<cmt>r</cmt>
<desc>Emines Chemin n°23 Rue Sevrin</desc>
<link href="https://chemins.be/emines/chemin/23"/><trkseg>
<trkpt lat="50.516604" lon="4.820125"><time>2026-05-07T18:17:55Z</time></trkpt>
<trkpt lat="50.516686" lon="4.820379"><time>2026-05-07T18:27:55Z</time></trkpt>
<trkpt lat="50.516597" lon="4.821123"><time>2026-05-07T18:37:55Z</time></trkpt>
<trkpt lat="50.516605" lon="4.821955"><time>2026-05-07T18:47:55Z</time></trkpt>
<trkpt lat="50.516630" lon="4.822295"><time>2026-05-07T18:57:55Z</time></trkpt>
</trkseg>
</trk>
<trk>
<name>nlbem24</name>
<cmt>r</cmt>
<desc>Emines Chemin n°24 Rue du Spinia</desc>
<link href="https://chemins.be/emines/chemin/24"/><trkseg>
<trkpt lat="50.516954" lon="4.844090"><time>2026-05-07T18:17:55Z</time></trkpt>
<trkpt lat="50.517338" lon="4.844714"><time>2026-05-07T18:27:55Z</time></trkpt>
<trkpt lat="50.517613" lon="4.845718"><time>2026-05-07T18:37:55Z</time></trkpt>
</trkseg>
</trk>
<trk>
<name>nlbem26</name>
<cmt>r</cmt>
<desc>Emines Chemin n°26 Rue du Hazoir / Rue de Hazoir</desc>
<link href="https://chemins.be/emines/chemin/26"/><trkseg>
<trkpt lat="50.513405" lon="4.832521"><time>2026-05-07T18:17:55Z</time></trkpt>
<trkpt lat="50.518310" lon="4.828860"><time>2026-05-07T18:27:55Z</time></trkpt>
<trkpt lat="50.520521" lon="4.826710"><time>2026-05-07T18:37:55Z</time></trkpt>
<trkpt lat="50.521100" lon="4.825715"><time>2026-05-07T18:47:55Z</time></trkpt>
<trkpt lat="50.522265" lon="4.824428"><time>2026-05-07T18:57:55Z</time></trkpt>
<trkpt lat="50.523543" lon="4.824032"><time>2026-05-07T19:07:55Z</time></trkpt>
<trkpt lat="50.528085" lon="4.823596"><time>2026-05-07T19:17:55Z</time></trkpt>
<trkpt lat="50.533647" lon="4.817457"><time>2026-05-07T19:27:55Z</time></trkpt>
</trkseg>
</trk>
<trk>
<name>nlbem28</name>
<cmt>s</cmt>
<desc>Emines Sentier n°28 </desc>
<link href="https://chemins.be/emines/sentier/28"/><trkseg>
<trkpt lat="50.513290" lon="4.831956"><time>2026-05-07T18:17:55Z</time></trkpt>
<trkpt lat="50.510465" lon="4.832337"><time>2026-05-07T18:27:55Z</time></trkpt>
<trkpt lat="50.509268" lon="4.832819"><time>2026-05-07T18:37:55Z</time></trkpt>
</trkseg>
</trk>
<trk>
<name>nlbem29</name>
<cmt>r</cmt>
<desc>Emines Sentier n°29 Rue du Hazoir</desc>
<link href="https://chemins.be/emines/sentier/29"/><trkseg>
<trkpt lat="50.518084" lon="4.829027"><time>2026-05-07T18:17:55Z</time></trkpt>
<trkpt lat="50.517129" lon="4.829610"><time>2026-05-07T18:27:55Z</time></trkpt>
<trkpt lat="50.516129" lon="4.830193"><time>2026-05-07T18:37:55Z</time></trkpt>
</trkseg>
</trk>
<trk>
<name>nlbem3</name>
<cmt>r</cmt>
<desc>Emines Chemin n°3 Chemin Saint-Martin / Rue des Laberies / Rue Trieux des Frênes / Rue Saint-Martin</desc>
<link href="https://chemins.be/emines/chemin/3"/><trkseg>
<trkpt lat="50.523399" lon="4.835524"><time>2026-05-07T18:17:55Z</time></trkpt>
<trkpt lat="50.521396" lon="4.830385"><time>2026-05-07T18:27:55Z</time></trkpt>
<trkpt lat="50.520594" lon="4.826485"><time>2026-05-07T18:37:55Z</time></trkpt>
<trkpt lat="50.521002" lon="4.825530"><time>2026-05-07T18:47:55Z</time></trkpt>
<trkpt lat="50.517422" lon="4.819164"><time>2026-05-07T18:57:55Z</time></trkpt>
<trkpt lat="50.517385" lon="4.817162"><time>2026-05-07T19:07:55Z</time></trkpt>
<trkpt lat="50.516698" lon="4.813362"><time>2026-05-07T19:17:55Z</time></trkpt>
</trkseg></trk>
<trk>
<name>nlbem3</name>
<cmt>s</cmt>
<desc>Emines Chemin n°3 Chemin Saint-Martin / Rue des Laberies / Rue Trieux des Frênes / Rue Saint-Martin</desc>
<link href="https://chemins.be/emines/chemin/3"/><trkseg>
<trkpt lat="50.516698" lon="4.813362"><time>2026-05-07T19:17:55Z</time></trkpt>
<trkpt lat="50.516309" lon="4.812172"><time>2026-05-07T19:27:55Z</time></trkpt>
<trkpt lat="50.515577" lon="4.812343"><time>2026-05-07T19:37:55Z</time></trkpt>
<trkpt lat="50.515251" lon="4.810853"><time>2026-05-07T19:47:55Z</time></trkpt>
<trkpt lat="50.513881" lon="4.809458"><time>2026-05-07T19:57:55Z</time></trkpt>
</trkseg></trk>
<trk>
<name>nlbem3</name>
<cmt>v</cmt>
<desc>Emines Chemin n°3 Chemin Saint-Martin / Rue des Laberies / Rue Trieux des Frênes / Rue Saint-Martin</desc>
<link href="https://chemins.be/emines/chemin/3"/><trkseg>
<trkpt lat="50.513881" lon="4.809458"><time>2026-05-07T19:57:55Z</time></trkpt>
<trkpt lat="50.512404" lon="4.807640"><time>2026-05-07T20:07:55Z</time></trkpt>
</trkseg>
</trk>
<trk>
<name>nlbem30</name>
<cmt>v</cmt>
<desc>Emines Sentier n°30 Tri de Gotte</desc>
<link href="https://chemins.be/emines/sentier/30"/><trkseg>
<trkpt lat="50.520715" lon="4.854197"><time>2026-05-07T18:17:55Z</time></trkpt>
<trkpt lat="50.520528" lon="4.853856"><time>2026-05-07T18:27:55Z</time></trkpt>
<trkpt lat="50.519966" lon="4.852793"><time>2026-05-07T18:37:55Z</time></trkpt>
</trkseg></trk>
<trk>
<name>nlbem30</name>
<cmt>s</cmt>
<desc>Emines Sentier n°30 Tri de Gotte</desc>
<link href="https://chemins.be/emines/sentier/30"/><trkseg>
<trkpt lat="50.519966" lon="4.852793"><time>2026-05-07T18:37:55Z</time></trkpt>
<trkpt lat="50.518683" lon="4.852173"><time>2026-05-07T18:47:55Z</time></trkpt>
<trkpt lat="50.518011" lon="4.851631"><time>2026-05-07T18:57:55Z</time></trkpt>
</trkseg>
</trk>
<trk>
<name>nlbem31</name>
<cmt>s</cmt>
<desc>Emines Sentier n°31 </desc>
<link href="https://chemins.be/emines/sentier/31"/><trkseg>
<trkpt lat="50.512618" lon="4.844794"><time>2026-05-07T18:17:55Z</time></trkpt>
<trkpt lat="50.512722" lon="4.845683"><time>2026-05-07T18:27:55Z</time></trkpt>
<trkpt lat="50.516935" lon="4.850985"><time>2026-05-07T18:37:55Z</time></trkpt>
<trkpt lat="50.517215" lon="4.850635"><time>2026-05-07T18:47:55Z</time></trkpt>
</trkseg>
</trk>
<trk>
<name>nlbem32</name>
<cmt>s</cmt>
<desc>Emines Sentier n°32 </desc>
<link href="https://chemins.be/emines/sentier/32"/><trkseg>
<trkpt lat="50.517288" lon="4.843868"><time>2026-05-07T18:17:55Z</time></trkpt>
<trkpt lat="50.520258" lon="4.845139"><time>2026-05-07T18:27:55Z</time></trkpt>
</trkseg>
</trk>
<trk>
<name>nlbem33</name>
<cmt>s</cmt>
<desc>Emines Sentier n°33 </desc>
<link href="https://chemins.be/emines/sentier/33"/><trkseg>
<trkpt lat="50.522524" lon="4.842947"><time>2026-05-07T18:17:55Z</time></trkpt>
<trkpt lat="50.523284" lon="4.841714"><time>2026-05-07T18:27:55Z</time></trkpt>
</trkseg>
</trk>
<trk>
<name>nlbem34</name>
<cmt>s</cmt>
<desc>Emines Sentier n°34 </desc>
<link href="https://chemins.be/emines/sentier/34"/><trkseg>
<trkpt lat="50.519343" lon="4.840377"><time>2026-05-07T18:17:55Z</time></trkpt>
<trkpt lat="50.520036" lon="4.840173"><time>2026-05-07T18:27:55Z</time></trkpt>
<trkpt lat="50.523116" lon="4.840979"><time>2026-05-07T18:37:55Z</time></trkpt>
</trkseg>
</trk>
<trk>
<name>nlbem35</name>
<cmt>v</cmt>
<desc>Emines Sentier n°35 Sentier du Bois Bequet</desc>
<link href="https://chemins.be/emines/sentier/35"/><trkseg>
<trkpt lat="50.516566" lon="4.826446"><time>2026-05-07T18:17:55Z</time></trkpt>
<trkpt lat="50.516768" lon="4.827844"><time>2026-05-07T18:27:55Z</time></trkpt>
<trkpt lat="50.517112" lon="4.829455"><time>2026-05-07T18:37:55Z</time></trkpt>
<trkpt lat="50.517129" lon="4.829681"><time>2026-05-07T18:47:55Z</time></trkpt>
</trkseg></trk>
<trk>
<name>nlbem35</name>
<cmt>s</cmt>
<desc>Emines Sentier n°35 Sentier du Bois Bequet</desc>
<link href="https://chemins.be/emines/sentier/35"/><trkseg>
<trkpt lat="50.517129" lon="4.829681"><time>2026-05-07T18:47:55Z</time></trkpt>
<trkpt lat="50.518067" lon="4.833427"><time>2026-05-07T18:57:55Z</time></trkpt>
<trkpt lat="50.518784" lon="4.836127"><time>2026-05-07T19:07:55Z</time></trkpt>
</trkseg></trk>
<trk>
<name>nlbem35</name>
<cmt>v</cmt>
<desc>Emines Sentier n°35 Sentier du Bois Bequet</desc>
<link href="https://chemins.be/emines/sentier/35"/><trkseg>
<trkpt lat="50.518784" lon="4.836127"><time>2026-05-07T19:07:55Z</time></trkpt>
<trkpt lat="50.518701" lon="4.836803"><time>2026-05-07T19:17:55Z</time></trkpt>
<trkpt lat="50.518671" lon="4.837578"><time>2026-05-07T19:27:55Z</time></trkpt>
<trkpt lat="50.518864" lon="4.838694"><time>2026-05-07T19:37:55Z</time></trkpt>
</trkseg>
</trk>
<trk>
<name>nlbem36</name>
<cmt>q</cmt>
<desc>Emines Sentier n°36 Sentier du Clerc</desc>
<link href="https://chemins.be/emines/sentier/36"/><trkseg>
<trkpt lat="50.517549" lon="4.839147"><time>2026-05-07T18:17:55Z</time></trkpt>
<trkpt lat="50.517480" lon="4.838568"><time>2026-05-07T18:27:55Z</time></trkpt>
<trkpt lat="50.516769" lon="4.838716"><time>2026-05-07T18:37:55Z</time></trkpt>
<trkpt lat="50.516454" lon="4.838783"><time>2026-05-07T18:47:55Z</time></trkpt>
</trkseg></trk>
<trk>
<name>nlbem36</name>
<cmt>s</cmt>
<desc>Emines Sentier n°36 Sentier du Clerc</desc>
<link href="https://chemins.be/emines/sentier/36"/><trkseg>
<trkpt lat="50.516454" lon="4.838783"><time>2026-05-07T18:47:55Z</time></trkpt>
<trkpt lat="50.514483" lon="4.839285"><time>2026-05-07T18:57:55Z</time></trkpt>
</trkseg>
</trk>
<trk>
<name>nlbem37</name>
<cmt>s</cmt>
<desc>Emines Sentier n°37 </desc>
<link href="https://chemins.be/emines/sentier/37"/><trkseg>
<trkpt lat="50.515901" lon="4.826355"><time>2026-05-07T18:17:55Z</time></trkpt>
<trkpt lat="50.515208" lon="4.826574"><time>2026-05-07T18:27:55Z</time></trkpt>
<trkpt lat="50.515216" lon="4.826828"><time>2026-05-07T18:37:55Z</time></trkpt>
<trkpt lat="50.515580" lon="4.828143"><time>2026-05-07T18:47:55Z</time></trkpt>
<trkpt lat="50.516138" lon="4.830179"><time>2026-05-07T18:57:55Z</time></trkpt>
<trkpt lat="50.515407" lon="4.830975"><time>2026-05-07T19:07:55Z</time></trkpt>
<trkpt lat="50.514875" lon="4.835694"><time>2026-05-07T19:17:55Z</time></trkpt>
<trkpt lat="50.514948" lon="4.837823"><time>2026-05-07T19:27:55Z</time></trkpt>
<trkpt lat="50.514483" lon="4.839243"><time>2026-05-07T19:37:55Z</time></trkpt>
</trkseg>
</trk>
<trk>
<name>nlbem38</name>
<cmt>s</cmt>
<desc>Emines Sentier n°38 </desc>
<link href="https://chemins.be/emines/sentier/38"/><trkseg>
<trkpt lat="50.517485" lon="4.818996"><time>2026-05-07T18:17:55Z</time></trkpt>
<trkpt lat="50.518841" lon="4.817288"><time>2026-05-07T18:27:55Z</time></trkpt>
</trkseg>
</trk>
<trk>
<name>nlbem39</name>
<cmt>s</cmt>
<desc>Emines Sentier n°39 </desc>
<link href="https://chemins.be/emines/sentier/39"/><trkseg>
<trkpt lat="50.522806" lon="4.810162"><time>2026-05-07T18:17:55Z</time></trkpt>
<trkpt lat="50.522023" lon="4.810225"><time>2026-05-07T18:27:55Z</time></trkpt>
<trkpt lat="50.520701" lon="4.810255"><time>2026-05-07T18:37:55Z</time></trkpt>
<trkpt lat="50.517265" lon="4.808432"><time>2026-05-07T18:47:55Z</time></trkpt>
</trkseg>
</trk>
<trk>
<name>nlbem4</name>
<cmt>v</cmt>
<desc>Emines Chemin n°4 La Falize / ?</desc>
<link href="https://chemins.be/emines/chemin/4"/><trkseg>
<trkpt lat="50.504093" lon="4.834177"><time>2026-05-07T18:17:55Z</time></trkpt>
<trkpt lat="50.505177" lon="4.837268"><time>2026-05-07T18:27:55Z</time></trkpt>
<trkpt lat="50.505192" lon="4.837952"><time>2026-05-07T18:37:55Z</time></trkpt>
<trkpt lat="50.505873" lon="4.840750"><time>2026-05-07T18:47:55Z</time></trkpt>
<trkpt lat="50.507057" lon="4.848065"><time>2026-05-07T18:57:55Z</time></trkpt>
<trkpt lat="50.507326" lon="4.848279"><time>2026-05-07T19:07:55Z</time></trkpt>
<trkpt lat="50.507930" lon="4.848003"><time>2026-05-07T19:17:55Z</time></trkpt>
<trkpt lat="50.508052" lon="4.848949"><time>2026-05-07T19:27:55Z</time></trkpt>
<trkpt lat="50.508128" lon="4.850092"><time>2026-05-07T19:37:55Z</time></trkpt>
<trkpt lat="50.507622" lon="4.850650"><time>2026-05-07T19:47:55Z</time></trkpt>
<trkpt lat="50.507866" lon="4.852542"><time>2026-05-07T19:57:55Z</time></trkpt>
</trkseg></trk>
<trk>
<name>nlbem4</name>
<cmt>d</cmt>
<desc>Emines Chemin n°4 La Falize / ?</desc>
<link href="https://chemins.be/emines/chemin/4"/><trkseg>
<trkpt lat="50.507866" lon="4.852542"><time>2026-05-07T19:57:55Z</time></trkpt>
<trkpt lat="50.508736" lon="4.855244"><time>2026-05-07T20:07:55Z</time></trkpt>
</trkseg>
</trk>
<trk>
<name>nlbem40</name>
<cmt>r</cmt>
<desc>Emines Sentier n°40 Chemin de Saint-Martin / Rue Saint-Martin / Rue Saint Martin</desc>
<link href="https://chemins.be/emines/sentier/40"/><trkseg>
<trkpt lat="50.516744" lon="4.813081"><time>2026-05-07T18:17:55Z</time></trkpt>
<trkpt lat="50.516941" lon="4.810967"><time>2026-05-07T18:27:55Z</time></trkpt>
</trkseg></trk>
<trk>
<name>nlbem40</name>
<cmt>s</cmt>
<desc>Emines Sentier n°40 Chemin de Saint-Martin / Rue Saint-Martin / Rue Saint Martin</desc>
<link href="https://chemins.be/emines/sentier/40"/><trkseg>
<trkpt lat="50.516941" lon="4.810967"><time>2026-05-07T18:27:55Z</time></trkpt>
<trkpt lat="50.516950" lon="4.808669"><time>2026-05-07T18:37:55Z</time></trkpt>
</trkseg>
</trk>
<trk>
<name>nlbem41</name>
<cmt>s</cmt>
<desc>Emines Sentier n°41 </desc>
<link href="https://chemins.be/emines/sentier/41"/><trkseg>
<trkpt lat="50.515604" lon="4.812490"><time>2026-05-07T18:17:55Z</time></trkpt>
<trkpt lat="50.516800" lon="4.814170"><time>2026-05-07T18:27:55Z</time></trkpt>
</trkseg>
</trk>
<trk>
<name>nlbem42</name>
<cmt>s</cmt>
<desc>Emines Sentier n°42 </desc>
<link href="https://chemins.be/emines/sentier/42"/><trkseg>
<trkpt lat="50.515488" lon="4.812307"><time>2026-05-07T18:17:55Z</time></trkpt>
<trkpt lat="50.515892" lon="4.815415"><time>2026-05-07T18:27:55Z</time></trkpt>
<trkpt lat="50.516265" lon="4.820750"><time>2026-05-07T18:37:55Z</time></trkpt>
</trkseg>
</trk>
<trk>
<name>nlbem43</name>
<cmt>s</cmt>
<desc>Emines Sentier n°43 </desc>
<link href="https://chemins.be/emines/sentier/43"/><trkseg>
<trkpt lat="50.516879" lon="4.808372"><time>2026-05-07T18:17:55Z</time></trkpt>
<trkpt lat="50.516475" lon="4.805859"><time>2026-05-07T18:27:55Z</time></trkpt>
</trkseg>
</trk>
<trk>
<name>nlbem44</name>
<cmt>s</cmt>
<desc>Emines Sentier n°44 </desc>
<link href="https://chemins.be/emines/sentier/44"/><trkseg>
<trkpt lat="50.516007" lon="4.798734"><time>2026-05-07T18:17:55Z</time></trkpt>
<trkpt lat="50.515432" lon="4.798545"><time>2026-05-07T18:27:55Z</time></trkpt>
<trkpt lat="50.514556" lon="4.799580"><time>2026-05-07T18:37:55Z</time></trkpt>
<trkpt lat="50.513460" lon="4.799345"><time>2026-05-07T18:47:55Z</time></trkpt>
<trkpt lat="50.513234" lon="4.799709"><time>2026-05-07T18:57:55Z</time></trkpt>
<trkpt lat="50.512848" lon="4.799706"><time>2026-05-07T19:07:55Z</time></trkpt>
<trkpt lat="50.512439" lon="4.800661"><time>2026-05-07T19:17:55Z</time></trkpt>
</trkseg>
</trk>
<trk>
<name>nlbem45</name>
<cmt>s</cmt>
<desc>Emines Sentier n°45 </desc>
<link href="https://chemins.be/emines/sentier/45"/><trkseg>
<trkpt lat="50.516007" lon="4.798593"><time>2026-05-07T18:17:55Z</time></trkpt>
<trkpt lat="50.514934" lon="4.796975"><time>2026-05-07T18:27:55Z</time></trkpt>
<trkpt lat="50.513686" lon="4.794144"><time>2026-05-07T18:37:55Z</time></trkpt>
<trkpt lat="50.513770" lon="4.793327"><time>2026-05-07T18:47:55Z</time></trkpt>
<trkpt lat="50.513568" lon="4.792014"><time>2026-05-07T18:57:55Z</time></trkpt>
</trkseg>
</trk>
<trk>
<name>nlbem46</name>
<cmt>s</cmt>
<desc>Emines Sentier n°46 </desc>
<link href="https://chemins.be/emines/sentier/46"/><trkseg>
<trkpt lat="50.516214" lon="4.798594"><time>2026-05-07T18:17:55Z</time></trkpt>
<trkpt lat="50.518941" lon="4.797815"><time>2026-05-07T18:27:55Z</time></trkpt>
<trkpt lat="50.524233" lon="4.793745"><time>2026-05-07T18:37:55Z</time></trkpt>
<trkpt lat="50.525651" lon="4.791981"><time>2026-05-07T18:47:55Z</time></trkpt>
</trkseg>
</trk>
<trk>
<name>nlbem47</name>
<cmt>r</cmt>
<desc>Emines Sentier n°47 Rue de Rhisnes</desc>
<link href="https://chemins.be/emines/sentier/47"/><trkseg>
<trkpt lat="50.510882" lon="4.820061"><time>2026-05-07T18:17:55Z</time></trkpt>
<trkpt lat="50.507065" lon="4.821519"><time>2026-05-07T18:27:55Z</time></trkpt>
</trkseg></trk>
<trk>
<name>nlbem47</name>
<cmt>s</cmt>
<desc>Emines Sentier n°47 Rue de Rhisnes</desc>
<link href="https://chemins.be/emines/sentier/47"/><trkseg>
<trkpt lat="50.507065" lon="4.821519"><time>2026-05-07T18:27:55Z</time></trkpt>
<trkpt lat="50.506293" lon="4.821046"><time>2026-05-07T18:37:55Z</time></trkpt>
<trkpt lat="50.505825" lon="4.821154"><time>2026-05-07T18:47:55Z</time></trkpt>
</trkseg>
</trk>
<trk>
<name>nlbem48</name>
<cmt>s</cmt>
<desc>Emines Sentier n°48 Sentier de Seumoy</desc>
<link href="https://chemins.be/emines/sentier/48"/><trkseg>
<trkpt lat="50.524864" lon="4.807854"><time>2026-05-07T18:17:55Z</time></trkpt>
<trkpt lat="50.529028" lon="4.809924"><time>2026-05-07T18:27:55Z</time></trkpt>
<trkpt lat="50.531351" lon="4.809015"><time>2026-05-07T18:37:55Z</time></trkpt>
</trkseg>
</trk>
<trk>
<name>nlbem49</name>
<cmt>v</cmt>
<desc>Emines Sentier n°49 </desc>
<link href="https://chemins.be/emines/sentier/49"/><trkseg>
<trkpt lat="50.513449" lon="4.839289"><time>2026-05-07T18:17:55Z</time></trkpt>
<trkpt lat="50.513547" lon="4.839572"><time>2026-05-07T18:27:55Z</time></trkpt>
<trkpt lat="50.513842" lon="4.839942"><time>2026-05-07T18:37:55Z</time></trkpt>
<trkpt lat="50.514030" lon="4.840127"><time>2026-05-07T18:47:55Z</time></trkpt>
<trkpt lat="50.515032" lon="4.841349"><time>2026-05-07T18:57:55Z</time></trkpt>
<trkpt lat="50.515236" lon="4.842127"><time>2026-05-07T19:07:55Z</time></trkpt>
<trkpt lat="50.515381" lon="4.842589"><time>2026-05-07T19:17:55Z</time></trkpt>
<trkpt lat="50.515425" lon="4.843202"><time>2026-05-07T19:27:55Z</time></trkpt>
</trkseg></trk>
<trk>
<name>nlbem49</name>
<cmt>r</cmt>
<desc>Emines Sentier n°49 </desc>
<link href="https://chemins.be/emines/sentier/49"/><trkseg>
<trkpt lat="50.515425" lon="4.843202"><time>2026-05-07T19:27:55Z</time></trkpt>
<trkpt lat="50.515534" lon="4.843881"><time>2026-05-07T19:37:55Z</time></trkpt>
</trkseg>
</trk>
<trk>
<name>nlbem50</name>
<cmt>s</cmt>
<desc>Emines Sentier n°50 Sentier d'Emines à Vedrin</desc>
<link href="https://chemins.be/emines/sentier/50"/><trkseg>
<trkpt lat="50.511862" lon="4.844842"><time>2026-05-07T18:17:55Z</time></trkpt>
<trkpt lat="50.509748" lon="4.849601"><time>2026-05-07T18:27:55Z</time></trkpt>
<trkpt lat="50.508000" lon="4.852755"><time>2026-05-07T18:37:55Z</time></trkpt>
</trkseg>
</trk>
<trk>
<name>nlbem51</name>
<cmt>d</cmt>
<desc>Emines Sentier n°51 Sentier d'Emines à Saint-Marc</desc>
<link href="https://chemins.be/emines/sentier/51"/><trkseg>
<trkpt lat="50.507201" lon="4.839396"><time>2026-05-07T18:17:55Z</time></trkpt>
<trkpt lat="50.505777" lon="4.840101"><time>2026-05-07T18:27:55Z</time></trkpt>
<trkpt lat="50.504704" lon="4.840837"><time>2026-05-07T18:37:55Z</time></trkpt>
</trkseg>
</trk>
<trk>
<name>nlbem52</name>
<cmt>d</cmt>
<desc>Emines Sentier n°52 Sentier d'Emines à Saint-Servais</desc>
<link href="https://chemins.be/emines/sentier/52"/><trkseg>
<trkpt lat="50.503507" lon="4.836808"><time>2026-05-07T18:17:55Z</time></trkpt>
<trkpt lat="50.504487" lon="4.836803"><time>2026-05-07T18:27:55Z</time></trkpt>
</trkseg></trk>
<trk>
<name>nlbem52</name>
<cmt>b</cmt>
<desc>Emines Sentier n°52 Sentier d'Emines à Saint-Servais</desc>
<link href="https://chemins.be/emines/sentier/52"/><trkseg>
<trkpt lat="50.504487" lon="4.836803"><time>2026-05-07T18:27:55Z</time></trkpt>
<trkpt lat="50.504910" lon="4.836779"><time>2026-05-07T18:37:55Z</time></trkpt>
</trkseg>
</trk>
<trk>
<name>nlbem53</name>
<cmt>r</cmt>
<desc>Emines Sentier n°53 Rue du Cahiet</desc>
<link href="https://chemins.be/emines/sentier/53"/><trkseg>
<trkpt lat="50.520035" lon="4.842556"><time>2026-05-07T18:17:55Z</time></trkpt>
<trkpt lat="50.521086" lon="4.842735"><time>2026-05-07T18:27:55Z</time></trkpt>
</trkseg>
</trk>
<trk>
<name>nlbem54</name>
<cmt>r</cmt>
<desc>Emines Sentier n°54 Rue des Crolaux</desc>
<link href="https://chemins.be/emines/sentier/54"/><trkseg>
<trkpt lat="50.514942" lon="4.841546"><time>2026-05-07T18:17:55Z</time></trkpt>
<trkpt lat="50.514526" lon="4.842092"><time>2026-05-07T18:27:55Z</time></trkpt>
<trkpt lat="50.514013" lon="4.842242"><time>2026-05-07T18:37:55Z</time></trkpt>
</trkseg>
</trk>
<trk>
<name>nlbem55</name>
<cmt>s</cmt>
<desc>Emines Sentier n°55 </desc>
<link href="https://chemins.be/emines/sentier/55"/><trkseg>
<trkpt lat="50.513520" lon="4.839558"><time>2026-05-07T18:17:55Z</time></trkpt>
<trkpt lat="50.513618" lon="4.839784"><time>2026-05-07T18:27:55Z</time></trkpt>
<trkpt lat="50.513474" lon="4.839924"><time>2026-05-07T18:37:55Z</time></trkpt>
<trkpt lat="50.513641" lon="4.840687"><time>2026-05-07T18:47:55Z</time></trkpt>
<trkpt lat="50.513977" lon="4.842157"><time>2026-05-07T18:57:55Z</time></trkpt>
</trkseg>
</trk>
<trk>
<name>nlbem56</name>
<cmt>v</cmt>
<desc>Emines Sentier n°56 Sentier vicinal n°56</desc>
<link href="https://chemins.be/emines/sentier/56"/><trkseg>
<trkpt lat="50.516602" lon="4.821929"><time>2026-05-07T18:17:55Z</time></trkpt>
<trkpt lat="50.516127" lon="4.822183"><time>2026-05-07T18:27:55Z</time></trkpt>
<trkpt lat="50.515823" lon="4.822337"><time>2026-05-07T18:37:55Z</time></trkpt>
</trkseg></trk>
<trk>
<name>nlbem56</name>
<cmt>s</cmt>
<desc>Emines Sentier n°56 Sentier vicinal n°56</desc>
<link href="https://chemins.be/emines/sentier/56"/><trkseg>
<trkpt lat="50.515823" lon="4.822337"><time>2026-05-07T18:37:55Z</time></trkpt>
<trkpt lat="50.515719" lon="4.822415"><time>2026-05-07T18:47:55Z</time></trkpt>
<trkpt lat="50.515704" lon="4.822388"><time>2026-05-07T18:57:55Z</time></trkpt>
<trkpt lat="50.515268" lon="4.822711"><time>2026-05-07T19:07:55Z</time></trkpt>
<trkpt lat="50.514646" lon="4.823100"><time>2026-05-07T19:17:55Z</time></trkpt>
</trkseg>
</trk>
<trk>
<name>nlbem57</name>
<cmt>s</cmt>
<desc>Emines Sentier n°57 Sentier de Frehet</desc>
<link href="https://chemins.be/emines/sentier/57"/><trkseg>
<trkpt lat="50.529522" lon="4.821776"><time>2026-05-07T18:17:55Z</time></trkpt>
<trkpt lat="50.530109" lon="4.823249"><time>2026-05-07T18:27:55Z</time></trkpt>
<trkpt lat="50.530280" lon="4.823363"><time>2026-05-07T18:37:55Z</time></trkpt>
<trkpt lat="50.531302" lon="4.826321"><time>2026-05-07T18:47:55Z</time></trkpt>
<trkpt lat="50.531181" lon="4.827378"><time>2026-05-07T18:57:55Z</time></trkpt>
</trkseg>
</trk>
<trk>
<name>nlbem58</name>
<cmt>s</cmt>
<desc>Emines Sentier n°58 Rue de Seumoy</desc>
<link href="https://chemins.be/emines/sentier/58"/><trkseg>
<trkpt lat="50.531802" lon="4.801473"><time>2026-05-07T18:17:55Z</time></trkpt>
<trkpt lat="50.531213" lon="4.802624"><time>2026-05-07T18:27:55Z</time></trkpt>
</trkseg>
</trk>
<trk>
<name>nlbem59</name>
<cmt>s</cmt>
<desc>Emines Sentier n°59 </desc>
<link href="https://chemins.be/emines/sentier/59"/><trkseg>
<trkpt lat="50.508627" lon="4.812835"><time>2026-05-07T18:17:55Z</time></trkpt>
<trkpt lat="50.509425" lon="4.815620"><time>2026-05-07T18:27:55Z</time></trkpt>
</trkseg>
</trk>
<trk>
<name>nlbem6</name>
<cmt>r</cmt>
<desc>Emines Chemin n°6 Rue de Vedrin</desc>
<link href="https://chemins.be/emines/chemin/6"/><trkseg>
<trkpt lat="50.524774" lon="4.848766"><time>2026-05-07T18:17:55Z</time></trkpt>
<trkpt lat="50.522169" lon="4.850601"><time>2026-05-07T18:27:55Z</time></trkpt>
<trkpt lat="50.521150" lon="4.853454"><time>2026-05-07T18:37:55Z</time></trkpt>
<trkpt lat="50.520622" lon="4.854971"><time>2026-05-07T18:47:55Z</time></trkpt>
<trkpt lat="50.520177" lon="4.856123"><time>2026-05-07T18:57:55Z</time></trkpt>
<trkpt lat="50.519436" lon="4.856933"><time>2026-05-07T19:07:55Z</time></trkpt>
<trkpt lat="50.518415" lon="4.858065"><time>2026-05-07T19:17:55Z</time></trkpt>
<trkpt lat="50.515359" lon="4.860064"><time>2026-05-07T19:27:55Z</time></trkpt>
</trkseg>
</trk>
<trk>
<name>nlbem7</name>
<cmt>r</cmt>
<desc>Emines Chemin n°7 Rue de Rhisnes</desc>
<link href="https://chemins.be/emines/chemin/7"/><trkseg>
<trkpt lat="50.513626" lon="4.853193"><time>2026-05-07T18:17:55Z</time></trkpt>
<trkpt lat="50.512047" lon="4.844719"><time>2026-05-07T18:27:55Z</time></trkpt>
<trkpt lat="50.513282" lon="4.831674"><time>2026-05-07T18:37:55Z</time></trkpt>
<trkpt lat="50.513208" lon="4.830023"><time>2026-05-07T18:47:55Z</time></trkpt>
<trkpt lat="50.512335" lon="4.825658"><time>2026-05-07T18:57:55Z</time></trkpt>
<trkpt lat="50.512104" lon="4.824585"><time>2026-05-07T19:07:55Z</time></trkpt>
<trkpt lat="50.510829" lon="4.820004"><time>2026-05-07T19:17:55Z</time></trkpt>
<trkpt lat="50.509577" lon="4.815734"><time>2026-05-07T19:27:55Z</time></trkpt>
<trkpt lat="50.508525" lon="4.811566"><time>2026-05-07T19:37:55Z</time></trkpt>
</trkseg>
</trk>
<trk>
<name>nlbem8</name>
<cmt>r</cmt>
<desc>Emines Chemin n°8 Rue St Denis</desc>
<link href="https://chemins.be/emines/chemin/8"/><trkseg>
<trkpt lat="50.528197" lon="4.796376"><time>2026-05-07T18:17:55Z</time></trkpt>
<trkpt lat="50.527681" lon="4.797302"><time>2026-05-07T18:27:55Z</time></trkpt>
<trkpt lat="50.526492" lon="4.798096"><time>2026-05-07T18:37:55Z</time></trkpt>
<trkpt lat="50.525242" lon="4.800439"><time>2026-05-07T18:47:55Z</time></trkpt>
<trkpt lat="50.519584" lon="4.803941"><time>2026-05-07T18:57:55Z</time></trkpt>
<trkpt lat="50.517069" lon="4.805568"><time>2026-05-07T19:07:55Z</time></trkpt>
<trkpt lat="50.515466" lon="4.806399"><time>2026-05-07T19:17:55Z</time></trkpt>
<trkpt lat="50.512597" lon="4.806542"><time>2026-05-07T19:27:55Z</time></trkpt>
</trkseg>
</trk>
<trk>
<name>nlbem9</name>
<cmt>r</cmt>
<desc>Emines Chemin n°9 Chemin de Saint-Denis / Rue du Chenoy</desc>
<link href="https://chemins.be/emines/chemin/9"/><trkseg>
<trkpt lat="50.517499" lon="4.791358"><time>2026-05-07T18:17:55Z</time></trkpt>
<trkpt lat="50.516775" lon="4.795300"><time>2026-05-07T18:27:55Z</time></trkpt>
<trkpt lat="50.516124" lon="4.798706"><time>2026-05-07T18:37:55Z</time></trkpt>
<trkpt lat="50.516330" lon="4.801218"><time>2026-05-07T18:47:55Z</time></trkpt>
<trkpt lat="50.516573" lon="4.803533"><time>2026-05-07T18:57:55Z</time></trkpt>
</trkseg></trk>
<trk>
<name>nlbem9</name>
<cmt>s</cmt>
<desc>Emines Chemin n°9 Chemin de Saint-Denis / Rue du Chenoy</desc>
<link href="https://chemins.be/emines/chemin/9"/><trkseg>
<trkpt lat="50.516573" lon="4.803533"><time>2026-05-07T18:57:55Z</time></trkpt>
<trkpt lat="50.516412" lon="4.805773"><time>2026-05-07T19:07:55Z</time></trkpt>
</trkseg>
</trk>
<trk>
<name>nlbemi1</name>
<cmt>v</cmt>
<desc>Emines Sentier n°i1 </desc>
<link href="https://chemins.be/emines/sentier/i1"/><trkseg>
<trkpt lat="50.527238" lon="4.805309"><time>2026-05-07T18:17:55Z</time></trkpt>
<trkpt lat="50.528279" lon="4.808351"><time>2026-05-07T18:27:55Z</time></trkpt>
<trkpt lat="50.528850" lon="4.809273"><time>2026-05-07T18:37:55Z</time></trkpt>
<trkpt lat="50.530685" lon="4.811590"><time>2026-05-07T18:47:55Z</time></trkpt>
<trkpt lat="50.529589" lon="4.813625"><time>2026-05-07T18:57:55Z</time></trkpt>
<trkpt lat="50.529938" lon="4.814107"><time>2026-05-07T19:07:55Z</time></trkpt>
<trkpt lat="50.531258" lon="4.814416"><time>2026-05-07T19:17:55Z</time></trkpt>
<trkpt lat="50.532967" lon="4.814390"><time>2026-05-07T19:27:55Z</time></trkpt>
<trkpt lat="50.534325" lon="4.816363"><time>2026-05-07T19:37:55Z</time></trkpt>
</trkseg>
</trk>
<trk>
<name>nlbemi2</name>
<cmt>q</cmt>
<desc>Emines Sentier n°i2 </desc>
<link href="https://chemins.be/emines/sentier/i2"/><trkseg>
<trkpt lat="50.508910" lon="4.813980"><time>2026-05-07T18:17:55Z</time></trkpt>
<trkpt lat="50.508487" lon="4.814159"><time>2026-05-07T18:27:55Z</time></trkpt>
<trkpt lat="50.508209" lon="4.813917"><time>2026-05-07T18:37:55Z</time></trkpt>
<trkpt lat="50.507939" lon="4.814041"><time>2026-05-07T18:47:55Z</time></trkpt>
<trkpt lat="50.506588" lon="4.814522"><time>2026-05-07T18:57:55Z</time></trkpt>
<trkpt lat="50.505410" lon="4.814595"><time>2026-05-07T19:07:55Z</time></trkpt>
<trkpt lat="50.504896" lon="4.815098"><time>2026-05-07T19:17:55Z</time></trkpt>
<trkpt lat="50.504554" lon="4.815095"><time>2026-05-07T19:27:55Z</time></trkpt>
</trkseg>
</trk>
<trk>
<name>nlbemi3</name>
<cmt>q</cmt>
<desc>Emines Chemin n°i3 </desc>
<link href="https://chemins.be/emines/chemin/i3"/><trkseg>
<trkpt lat="50.517621" lon="4.826258"><time>2026-05-07T18:17:55Z</time></trkpt>
<trkpt lat="50.517703" lon="4.825807"><time>2026-05-07T18:27:55Z</time></trkpt>
<trkpt lat="50.517635" lon="4.825442"><time>2026-05-07T18:37:55Z</time></trkpt>
<trkpt lat="50.518599" lon="4.824780"><time>2026-05-07T18:47:55Z</time></trkpt>
<trkpt lat="50.518911" lon="4.824565"><time>2026-05-07T18:57:55Z</time></trkpt>
<trkpt lat="50.519975" lon="4.823856"><time>2026-05-07T19:07:55Z</time></trkpt>
</trkseg>
</trk>
<trk>
<name>nlbemi4</name>
<cmt>d</cmt>
<desc>Emines Sentier n°i4 </desc>
<link href="https://chemins.be/emines/sentier/i4"/><trkseg>
<trkpt lat="50.517637" lon="4.826273"><time>2026-05-07T18:17:55Z</time></trkpt>
<trkpt lat="50.517699" lon="4.826443"><time>2026-05-07T18:27:55Z</time></trkpt>
<trkpt lat="50.517896" lon="4.826530"><time>2026-05-07T18:37:55Z</time></trkpt>
<trkpt lat="50.518858" lon="4.826624"><time>2026-05-07T18:47:55Z</time></trkpt>
<trkpt lat="50.519361" lon="4.826671"><time>2026-05-07T18:57:55Z</time></trkpt>
</trkseg></trk>
<trk>
<name>nlbemi4</name>
<cmt>v</cmt>
<desc>Emines Sentier n°i4 </desc>
<link href="https://chemins.be/emines/sentier/i4"/><trkseg>
<trkpt lat="50.519361" lon="4.826671"><time>2026-05-07T18:57:55Z</time></trkpt>
<trkpt lat="50.519871" lon="4.827338"><time>2026-05-07T19:07:55Z</time></trkpt>
</trkseg>
</trk>
<trk>
<name>nlbemi5</name>
<cmt>v</cmt>
<desc>Emines Chemin n°i5 </desc>
<link href="https://chemins.be/emines/chemin/i5"/><trkseg>
<trkpt lat="50.514467" lon="4.822418"><time>2026-05-07T18:17:55Z</time></trkpt>
<trkpt lat="50.514638" lon="4.823176"><time>2026-05-07T18:27:55Z</time></trkpt>
</trkseg>
</trk>
<trk>
<name>nlbemi6</name>
<cmt>v</cmt>
<desc>Emines Sentier n°i6 </desc>
<link href="https://chemins.be/emines/sentier/i6"/><trkseg>
<trkpt lat="50.517586" lon="4.845647"><time>2026-05-07T18:17:55Z</time></trkpt>
<trkpt lat="50.516307" lon="4.846227"><time>2026-05-07T18:27:55Z</time></trkpt>
</trkseg>
</trk>
<trk>
<name>nlbemi7</name>
<cmt>s</cmt>
<desc>Emines Chemin n°i7 </desc>
<link href="https://chemins.be/emines/chemin/i7"/><trkseg>
<trkpt lat="50.511774" lon="4.794576"><time>2026-05-07T18:17:55Z</time></trkpt>
<trkpt lat="50.512266" lon="4.794174"><time>2026-05-07T18:27:55Z</time></trkpt>
<trkpt lat="50.512781" lon="4.795673"><time>2026-05-07T18:37:55Z</time></trkpt>
<trkpt lat="50.512978" lon="4.796140"><time>2026-05-07T18:47:55Z</time></trkpt>
<trkpt lat="50.513964" lon="4.796755"><time>2026-05-07T18:57:55Z</time></trkpt>
<trkpt lat="50.514223" lon="4.797420"><time>2026-05-07T19:07:55Z</time></trkpt>
<trkpt lat="50.514527" lon="4.797874"><time>2026-05-07T19:17:55Z</time></trkpt>
</trkseg>
</trk>
<trk>
<name>nlbemi8</name>
<cmt>v</cmt>
<desc>Emines Sentier n°i8 </desc>
<link href="https://chemins.be/emines/sentier/i8"/><trkseg>
<trkpt lat="50.515391" lon="4.841795"><time>2026-05-07T18:17:55Z</time></trkpt>
<trkpt lat="50.515220" lon="4.842020"><time>2026-05-07T18:27:55Z</time></trkpt>
</trkseg>
</trk>
<trk>
<name>nlbemr32</name>
<cmt>v</cmt>
<desc>Emines Chemin de remembrement n°r32 </desc>
<link href="https://chemins.be/emines/chemin/r32"/><trkseg>
<trkpt lat="50.518109" lon="4.851773"><time>2026-05-07T18:17:55Z</time></trkpt>
<trkpt lat="50.518592" lon="4.852483"><time>2026-05-07T18:27:55Z</time></trkpt>
</trkseg></trk>
<trk>
<name>nlbemr32</name>
<cmt>d</cmt>
<desc>Emines Chemin de remembrement n°r32 </desc>
<link href="https://chemins.be/emines/chemin/r32"/><trkseg>
<trkpt lat="50.518592" lon="4.852483"><time>2026-05-07T18:27:55Z</time></trkpt>
<trkpt lat="50.518931" lon="4.852980"><time>2026-05-07T18:37:55Z</time></trkpt>
<trkpt lat="50.519253" lon="4.853462"><time>2026-05-07T18:47:55Z</time></trkpt>
<trkpt lat="50.519695" lon="4.853002"><time>2026-05-07T18:57:55Z</time></trkpt>
<trkpt lat="50.519903" lon="4.852778"><time>2026-05-07T19:07:55Z</time></trkpt>
</trkseg>
</trk>
<trk>
<name>nlbemr34</name>
<cmt>r</cmt>
<desc>Emines Chemin de remembrement n°r34 Rue de Rhisnes / Unnamed Road</desc>
<link href="https://chemins.be/emines/chemin/r34"/><trkseg>
<trkpt lat="50.513150" lon="4.830869"><time>2026-05-07T18:17:55Z</time></trkpt>
<trkpt lat="50.510202" lon="4.830769"><time>2026-05-07T18:27:55Z</time></trkpt>
<trkpt lat="50.508093" lon="4.832032"><time>2026-05-07T18:37:55Z</time></trkpt>
</trkseg>
</trk>
<trk>
<name>nlbemr6</name>
<cmt>r</cmt>
<desc>Emines Chemin de remembrement n°r6 Rue du Chenoy</desc>
<link href="https://chemins.be/emines/chemin/r6"/><trkseg>
<trkpt lat="50.516766" lon="4.795272"><time>2026-05-07T18:17:55Z</time></trkpt>
<trkpt lat="50.516055" lon="4.795406"><time>2026-05-07T18:27:55Z</time></trkpt>
<trkpt lat="50.514401" lon="4.797774"><time>2026-05-07T18:37:55Z</time></trkpt>
<trkpt lat="50.514328" lon="4.798112"><time>2026-05-07T18:47:55Z</time></trkpt>
</trkseg>
</trk>
<trk>
<name>nlbemr7</name>
<cmt>r</cmt>
<desc>Emines Chemin de remembrement n°r7 Rue Saint-Martin / Rue du Chenoy</desc>
<link href="https://chemins.be/emines/chemin/r7"/><trkseg>
<trkpt lat="50.516869" lon="4.811009"><time>2026-05-07T18:17:55Z</time></trkpt>
<trkpt lat="50.516152" lon="4.810368"><time>2026-05-07T18:27:55Z</time></trkpt>
<trkpt lat="50.516362" lon="4.809622"><time>2026-05-07T18:37:55Z</time></trkpt>
<trkpt lat="50.516995" lon="4.808514"><time>2026-05-07T18:47:55Z</time></trkpt>
<trkpt lat="50.517619" lon="4.807589"><time>2026-05-07T18:57:55Z</time></trkpt>
<trkpt lat="50.517765" lon="4.807083"><time>2026-05-07T19:07:55Z</time></trkpt>
<trkpt lat="50.517595" lon="4.806659"><time>2026-05-07T19:17:55Z</time></trkpt>
<trkpt lat="50.517060" lon="4.805526"><time>2026-05-07T19:27:55Z</time></trkpt>
<trkpt lat="50.516591" lon="4.803505"><time>2026-05-07T19:37:55Z</time></trkpt>
</trkseg>
</trk>
<trk>
<name>nlbemr7bis</name>
<cmt>v</cmt>
<desc>Emines Chemin de remembrement n°r7bis Rue du Seûmoi</desc>
<link href="https://chemins.be/emines/chemin/r7bis"/><trkseg>
<trkpt lat="50.523528" lon="4.809266"><time>2026-05-07T18:17:55Z</time></trkpt>
<trkpt lat="50.523847" lon="4.810468"><time>2026-05-07T18:27:55Z</time></trkpt>
</trkseg>
</trk>
<trk>
<name>nlbmx1</name>
<cmt>r</cmt>
<desc>Meux Chemin n°1 Rue de Liernu / Rue du Brutal / Rue Cannevaux</desc>
<link href="https://chemins.be/meux/chemin/1"/><trkseg>
<trkpt lat="50.570311" lon="4.802729"><time>2026-05-07T18:17:55Z</time></trkpt>
<trkpt lat="50.567378" lon="4.800966"><time>2026-05-07T18:27:55Z</time></trkpt>
<trkpt lat="50.563636" lon="4.799040"><time>2026-05-07T18:37:55Z</time></trkpt>
<trkpt lat="50.562965" lon="4.798272"><time>2026-05-07T18:47:55Z</time></trkpt>
<trkpt lat="50.560649" lon="4.797206"><time>2026-05-07T18:57:55Z</time></trkpt>
<trkpt lat="50.557616" lon="4.795711"><time>2026-05-07T19:07:55Z</time></trkpt>
<trkpt lat="50.556467" lon="4.795277"><time>2026-05-07T19:17:55Z</time></trkpt>
<trkpt lat="50.555397" lon="4.795338"><time>2026-05-07T19:27:55Z</time></trkpt>
<trkpt lat="50.554007" lon="4.794423"><time>2026-05-07T19:37:55Z</time></trkpt>
<trkpt lat="50.551760" lon="4.791735"><time>2026-05-07T19:47:55Z</time></trkpt>
<trkpt lat="50.548206" lon="4.789982"><time>2026-05-07T19:57:55Z</time></trkpt>
<trkpt lat="50.547464" lon="4.788875"><time>2026-05-07T20:07:55Z</time></trkpt>
<trkpt lat="50.546854" lon="4.788348"><time>2026-05-07T20:17:55Z</time></trkpt>
<trkpt lat="50.545947" lon="4.788212"><time>2026-05-07T20:27:55Z</time></trkpt>
<trkpt lat="50.545035" lon="4.789432"><time>2026-05-07T20:37:55Z</time></trkpt>
<trkpt lat="50.544293" lon="4.790709"><time>2026-05-07T20:47:55Z</time></trkpt>
<trkpt lat="50.543437" lon="4.791195"><time>2026-05-07T20:57:55Z</time></trkpt>
<trkpt lat="50.541537" lon="4.792109"><time>2026-05-07T21:07:55Z</time></trkpt>
<trkpt lat="50.541223" lon="4.792354"><time>2026-05-07T21:17:55Z</time></trkpt>
<trkpt lat="50.538759" lon="4.794276"><time>2026-05-07T21:27:55Z</time></trkpt>
<trkpt lat="50.537137" lon="4.795540"><time>2026-05-07T21:37:55Z</time></trkpt>
</trkseg>
</trk>
<trk>
<name>nlbmx10</name>
<cmt>v</cmt>
<desc>Meux Chemin n°10 Tige Almay</desc>
<link href="https://chemins.be/meux/chemin/10"/><trkseg>
<trkpt lat="50.557607" lon="4.795683"><time>2026-05-07T18:17:55Z</time></trkpt>
<trkpt lat="50.557117" lon="4.794422"><time>2026-05-07T18:27:55Z</time></trkpt>
<trkpt lat="50.556341" lon="4.792750"><time>2026-05-07T18:37:55Z</time></trkpt>
</trkseg></trk>
<trk>
<name>nlbmx10</name>
<cmt>s</cmt>
<desc>Meux Chemin n°10 Tige Almay</desc>
<link href="https://chemins.be/meux/chemin/10"/><trkseg>
<trkpt lat="50.556341" lon="4.792750"><time>2026-05-07T18:37:55Z</time></trkpt>
<trkpt lat="50.556243" lon="4.789997"><time>2026-05-07T18:47:55Z</time></trkpt>
<trkpt lat="50.554879" lon="4.787022"><time>2026-05-07T18:57:55Z</time></trkpt>
</trkseg></trk>
<trk>
<name>nlbmx10</name>
<cmt>r</cmt>
<desc>Meux Chemin n°10 Tige Almay</desc>
<link href="https://chemins.be/meux/chemin/10"/><trkseg>
<trkpt lat="50.554879" lon="4.787022"><time>2026-05-07T18:57:55Z</time></trkpt>
<trkpt lat="50.553385" lon="4.784807"><time>2026-05-07T19:07:55Z</time></trkpt>
<trkpt lat="50.552383" lon="4.783373"><time>2026-05-07T19:17:55Z</time></trkpt>
<trkpt lat="50.550596" lon="4.780451"><time>2026-05-07T19:27:55Z</time></trkpt>
<trkpt lat="50.547341" lon="4.775413"><time>2026-05-07T19:37:55Z</time></trkpt>
</trkseg>
</trk>
<trk>
<name>nlbmx11</name>
<cmt>r</cmt>
<desc>Meux Chemin n°11 Rue des Bailleries / Rues des Baillereies / Rue Bawtia</desc>
<link href="https://chemins.be/meux/chemin/11"/><trkseg>
<trkpt lat="50.546738" lon="4.788205"><time>2026-05-07T18:17:55Z</time></trkpt>
<trkpt lat="50.546241" lon="4.786339"><time>2026-05-07T18:27:55Z</time></trkpt>
<trkpt lat="50.546079" lon="4.786436"><time>2026-05-07T18:37:55Z</time></trkpt>
</trkseg></trk>
<trk>
<name>nlbmx11</name>
<cmt>s</cmt>
<desc>Meux Chemin n°11 Rue des Bailleries / Rues des Baillereies / Rue Bawtia</desc>
<link href="https://chemins.be/meux/chemin/11"/><trkseg>
<trkpt lat="50.546079" lon="4.786436"><time>2026-05-07T18:37:55Z</time></trkpt>
<trkpt lat="50.545674" lon="4.786714"><time>2026-05-07T18:47:55Z</time></trkpt>
<trkpt lat="50.544933" lon="4.787696"><time>2026-05-07T18:57:55Z</time></trkpt>
</trkseg></trk>
<trk>
<name>nlbmx11</name>
<cmt>r</cmt>
<desc>Meux Chemin n°11 Rue des Bailleries / Rues des Baillereies / Rue Bawtia</desc>
<link href="https://chemins.be/meux/chemin/11"/><trkseg>
<trkpt lat="50.544933" lon="4.787696"><time>2026-05-07T18:57:55Z</time></trkpt>
<trkpt lat="50.544092" lon="4.786559"><time>2026-05-07T19:07:55Z</time></trkpt>
<trkpt lat="50.543851" lon="4.786007"><time>2026-05-07T19:17:55Z</time></trkpt>
<trkpt lat="50.542788" lon="4.784220"><time>2026-05-07T19:27:55Z</time></trkpt>
</trkseg>
</trk>
<trk>
<name>nlbmx12</name>
<cmt>r</cmt>
<desc>Meux Chemin n°12 Chemin de Mehaignoul</desc>
<link href="https://chemins.be/meux/chemin/12"/><trkseg>
<trkpt lat="50.555452" lon="4.821249"><time>2026-05-07T18:17:55Z</time></trkpt>
<trkpt lat="50.552811" lon="4.825302"><time>2026-05-07T18:27:55Z</time></trkpt>
<trkpt lat="50.548082" lon="4.832043"><time>2026-05-07T18:37:55Z</time></trkpt>
</trkseg></trk>
<trk>
<name>nlbmx12</name>
<cmt>s</cmt>
<desc>Meux Chemin n°12 Chemin de Mehaignoul</desc>
<link href="https://chemins.be/meux/chemin/12"/><trkseg>
<trkpt lat="50.548082" lon="4.832043"><time>2026-05-07T18:37:55Z</time></trkpt>
<trkpt lat="50.546687" lon="4.832354"><time>2026-05-07T18:47:55Z</time></trkpt>
<trkpt lat="50.545355" lon="4.832933"><time>2026-05-07T18:57:55Z</time></trkpt>
</trkseg>
</trk>
<trk>
<name>nlbmx13</name>
<cmt>r</cmt>
<desc>Meux Chemin n°13 Chemin de Matignée</desc>
<link href="https://chemins.be/meux/chemin/13"/><trkseg>
<trkpt lat="50.548082" lon="4.832085"><time>2026-05-07T18:17:55Z</time></trkpt>
<trkpt lat="50.550186" lon="4.832021"><time>2026-05-07T18:27:55Z</time></trkpt>
<trkpt lat="50.552729" lon="4.832286"><time>2026-05-07T18:37:55Z</time></trkpt>
<trkpt lat="50.553860" lon="4.832862"><time>2026-05-07T18:47:55Z</time></trkpt>
</trkseg>
</trk>
<trk>
<name>nlbmx14</name>
<cmt>r</cmt>
<desc>Meux Chemin n°14 </desc>
<link href="https://chemins.be/meux/chemin/14"/><trkseg>
<trkpt lat="50.551742" lon="4.791721"><time>2026-05-07T18:17:55Z</time></trkpt>
<trkpt lat="50.548838" lon="4.794179"><time>2026-05-07T18:27:55Z</time></trkpt>
<trkpt lat="50.548344" lon="4.794216"><time>2026-05-07T18:37:55Z</time></trkpt>
<trkpt lat="50.546811" lon="4.795275"><time>2026-05-07T18:47:55Z</time></trkpt>
</trkseg>
</trk>
<trk>
<name>nlbmx15</name>
<cmt>r</cmt>
<desc>Meux Chemin n°15 Chemin Théodore</desc>
<link href="https://chemins.be/meux/chemin/15"/><trkseg>
<trkpt lat="50.547520" lon="4.790780"><time>2026-05-07T18:17:55Z</time></trkpt>
<trkpt lat="50.545834" lon="4.792204"><time>2026-05-07T18:27:55Z</time></trkpt>
</trkseg></trk>
<trk>
<name>nlbmx15</name>
<cmt>s</cmt>
<desc>Meux Chemin n°15 Chemin Théodore</desc>
<link href="https://chemins.be/meux/chemin/15"/><trkseg>
<trkpt lat="50.545834" lon="4.792204"><time>2026-05-07T18:27:55Z</time></trkpt>
<trkpt lat="50.544770" lon="4.792914"><time>2026-05-07T18:37:55Z</time></trkpt>
<trkpt lat="50.543563" lon="4.793708"><time>2026-05-07T18:47:55Z</time></trkpt>
<trkpt lat="50.542628" lon="4.793460"><time>2026-05-07T18:57:55Z</time></trkpt>
<trkpt lat="50.541419" lon="4.792419"><time>2026-05-07T19:07:55Z</time></trkpt>
</trkseg>
</trk>
<trk>
<name>nlbmx16</name>
<cmt>r</cmt>
<desc>Meux Chemin n°16 Rue de la Gripelotte / Rue de la Grippelotte</desc>
<link href="https://chemins.be/meux/chemin/16"/><trkseg>
<trkpt lat="50.548082" lon="4.789660"><time>2026-05-07T18:17:55Z</time></trkpt>
<trkpt lat="50.550700" lon="4.785547"><time>2026-05-07T18:27:55Z</time></trkpt>
<trkpt lat="50.551743" lon="4.783974"><time>2026-05-07T18:37:55Z</time></trkpt>
<trkpt lat="50.552249" lon="4.783188"><time>2026-05-07T18:47:55Z</time></trkpt>
</trkseg>
</trk>
<trk>
<name>nlbmx17</name>
<cmt>r</cmt>
<desc>Meux Chemin n°17 Rue du Chainia / Rue du Vieux Raucourt</desc>
<link href="https://chemins.be/meux/chemin/17"/><trkseg>
<trkpt lat="50.550179" lon="4.803461"><time>2026-05-07T18:17:55Z</time></trkpt>
<trkpt lat="50.548626" lon="4.805422"><time>2026-05-07T18:27:55Z</time></trkpt>
<trkpt lat="50.547354" lon="4.806762"><time>2026-05-07T18:37:55Z</time></trkpt>
<trkpt lat="50.543614" lon="4.808960"><time>2026-05-07T18:47:55Z</time></trkpt>
<trkpt lat="50.541393" lon="4.810495"><time>2026-05-07T18:57:55Z</time></trkpt>
<trkpt lat="50.540208" lon="4.811002"><time>2026-05-07T19:07:55Z</time></trkpt>
<trkpt lat="50.538138" lon="4.811462"><time>2026-05-07T19:17:55Z</time></trkpt>
<trkpt lat="50.536634" lon="4.812111"><time>2026-05-07T19:27:55Z</time></trkpt>
</trkseg>
</trk>
<trk>
<name>nlbmx18</name>
<cmt>r</cmt>
<desc>Meux Chemin n°18 Rue Bois Notre Dame / Rue Bois Notre-Dame</desc>
<link href="https://chemins.be/meux/chemin/18"/><trkseg>
<trkpt lat="50.551506" lon="4.802119"><time>2026-05-07T18:17:55Z</time></trkpt>
<trkpt lat="50.551763" lon="4.803067"><time>2026-05-07T18:27:55Z</time></trkpt>
<trkpt lat="50.552407" lon="4.803891"><time>2026-05-07T18:37:55Z</time></trkpt>
<trkpt lat="50.552679" lon="4.805770"><time>2026-05-07T18:47:55Z</time></trkpt>
</trkseg></trk>
<trk>
<name>nlbmx18</name>
<cmt>v</cmt>
<desc>Meux Chemin n°18 Rue Bois Notre Dame / Rue Bois Notre-Dame</desc>
<link href="https://chemins.be/meux/chemin/18"/><trkseg>
<trkpt lat="50.552679" lon="4.805770"><time>2026-05-07T18:47:55Z</time></trkpt>
<trkpt lat="50.553416" lon="4.810561"><time>2026-05-07T18:57:55Z</time></trkpt>
</trkseg>
</trk>
<trk>
<name>nlbmx19</name>
<cmt>r</cmt>
<desc>Meux Chemin n°19 Chemin du Pré Hordal</desc>
<link href="https://chemins.be/meux/chemin/19"/><trkseg>
<trkpt lat="50.548526" lon="4.805534"><time>2026-05-07T18:17:55Z</time></trkpt>
<trkpt lat="50.548486" lon="4.801978"><time>2026-05-07T18:27:55Z</time></trkpt>
<trkpt lat="50.547804" lon="4.799164"><time>2026-05-07T18:37:55Z</time></trkpt>
<trkpt lat="50.547807" lon="4.798219"><time>2026-05-07T18:47:55Z</time></trkpt>
<trkpt lat="50.547470" lon="4.797129"><time>2026-05-07T18:57:55Z</time></trkpt>
<trkpt lat="50.546739" lon="4.795401"><time>2026-05-07T19:07:55Z</time></trkpt>
</trkseg></trk>
<trk>
<name>nlbmx19</name>
<cmt>v</cmt>
<desc>Meux Chemin n°19 Chemin du Pré Hordal</desc>
<link href="https://chemins.be/meux/chemin/19"/><trkseg>
<trkpt lat="50.546739" lon="4.795401"><time>2026-05-07T19:07:55Z</time></trkpt>
<trkpt lat="50.546311" lon="4.794311"><time>2026-05-07T19:17:55Z</time></trkpt>
</trkseg></trk>
<trk>
<name>nlbmx19</name>
<cmt>s</cmt>
<desc>Meux Chemin n°19 Chemin du Pré Hordal</desc>
<link href="https://chemins.be/meux/chemin/19"/><trkseg>
<trkpt lat="50.546311" lon="4.794311"><time>2026-05-07T19:17:55Z</time></trkpt>
<trkpt lat="50.544617" lon="4.792899"><time>2026-05-07T19:27:55Z</time></trkpt>
<trkpt lat="50.543426" lon="4.791816"><time>2026-05-07T19:37:55Z</time></trkpt>
<trkpt lat="50.542797" lon="4.791514"><time>2026-05-07T19:47:55Z</time></trkpt>
</trkseg>
</trk>
<trk>
<name>nlbmx2</name>
<cmt>r</cmt>
<desc>Meux Chemin n°2 Chemin de Notre Dame Mahaux</desc>
<link href="https://chemins.be/meux/chemin/2"/><trkseg>
<trkpt lat="50.539060" lon="4.826396"><time>2026-05-07T18:17:55Z</time></trkpt>
<trkpt lat="50.545695" lon="4.819617"><time>2026-05-07T18:27:55Z</time></trkpt>
<trkpt lat="50.547105" lon="4.815299"><time>2026-05-07T18:37:55Z</time></trkpt>
<trkpt lat="50.549978" lon="4.811432"><time>2026-05-07T18:47:55Z</time></trkpt>
<trkpt lat="50.550114" lon="4.811165"><time>2026-05-07T18:57:55Z</time></trkpt>
<trkpt lat="50.550582" lon="4.808841"><time>2026-05-07T19:07:55Z</time></trkpt>
<trkpt lat="50.550274" lon="4.804704"><time>2026-05-07T19:17:55Z</time></trkpt>
<trkpt lat="50.550580" lon="4.804382"><time>2026-05-07T19:27:55Z</time></trkpt>
<trkpt lat="50.550242" lon="4.803476"><time>2026-05-07T19:37:55Z</time></trkpt>
<trkpt lat="50.551470" lon="4.801991"><time>2026-05-07T19:47:55Z</time></trkpt>
<trkpt lat="50.551959" lon="4.801149"><time>2026-05-07T19:57:55Z</time></trkpt>
<trkpt lat="50.554789" lon="4.799143"><time>2026-05-07T20:07:55Z</time></trkpt>
<trkpt lat="50.557616" lon="4.795669"><time>2026-05-07T20:17:55Z</time></trkpt>
<trkpt lat="50.560663" lon="4.790870"><time>2026-05-07T20:27:55Z</time></trkpt>
<trkpt lat="50.561648" lon="4.789453"><time>2026-05-07T20:37:55Z</time></trkpt>
<trkpt lat="50.567522" lon="4.783506"><time>2026-05-07T20:47:55Z</time></trkpt>
</trkseg>
</trk>
<trk>
<name>nlbmx20</name>
<cmt>v</cmt>
<desc>Meux Chemin n°20 </desc>
<link href="https://chemins.be/meux/chemin/20"/><trkseg>
<trkpt lat="50.568356" lon="4.801370"><time>2026-05-07T18:17:55Z</time></trkpt>
<trkpt lat="50.572676" lon="4.795297"><time>2026-05-07T18:27:55Z</time></trkpt>
</trkseg>
</trk>
<trk>
<name>nlbmx21</name>
<cmt>r</cmt>
<desc>Meux Chemin n°21 Chemin Awgeaine</desc>
<link href="https://chemins.be/meux/chemin/21"/><trkseg>
<trkpt lat="50.562406" lon="4.801160"><time>2026-05-07T18:17:55Z</time></trkpt>
<trkpt lat="50.564132" lon="4.803519"><time>2026-05-07T18:27:55Z</time></trkpt>
<trkpt lat="50.565507" lon="4.805945"><time>2026-05-07T18:37:55Z</time></trkpt>
</trkseg>
</trk>
<trk>
<name>nlbmx22</name>
<cmt>s</cmt>
<desc>Meux Chemin n°22 Rue Radelet / Rue du Warichet</desc>
<link href="https://chemins.be/meux/chemin/22"/><trkseg>
<trkpt lat="50.546482" lon="4.794425"><time>2026-05-07T18:17:55Z</time></trkpt>
<trkpt lat="50.547365" lon="4.793798"><time>2026-05-07T18:27:55Z</time></trkpt>
</trkseg></trk>
<trk>
<name>nlbmx22</name>
<cmt>r</cmt>
<desc>Meux Chemin n°22 Rue Radelet / Rue du Warichet</desc>
<link href="https://chemins.be/meux/chemin/22"/><trkseg>
<trkpt lat="50.547365" lon="4.793798"><time>2026-05-07T18:27:55Z</time></trkpt>
<trkpt lat="50.547623" lon="4.794520"><time>2026-05-07T18:37:55Z</time></trkpt>
<trkpt lat="50.548211" lon="4.796134"><time>2026-05-07T18:47:55Z</time></trkpt>
<trkpt lat="50.548355" lon="4.796023"><time>2026-05-07T18:57:55Z</time></trkpt>
<trkpt lat="50.548246" lon="4.796205"><time>2026-05-07T19:07:55Z</time></trkpt>
<trkpt lat="50.548601" lon="4.797633"><time>2026-05-07T19:17:55Z</time></trkpt>
<trkpt lat="50.549357" lon="4.799729"><time>2026-05-07T19:27:55Z</time></trkpt>
<trkpt lat="50.550173" lon="4.800442"><time>2026-05-07T19:37:55Z</time></trkpt>
</trkseg>
</trk>
<trk>
<name>nlbmx23</name>
<cmt>r</cmt>
<desc>Meux Chemin n°23 Rue Willem</desc>
<link href="https://chemins.be/meux/chemin/23"/><trkseg>
<trkpt lat="50.558937" lon="4.805574"><time>2026-05-07T18:17:55Z</time></trkpt>
<trkpt lat="50.559232" lon="4.808329"><time>2026-05-07T18:27:55Z</time></trkpt>
</trkseg>
</trk>
<trk>
<name>nlbmx24</name>
<cmt>r</cmt>
<desc>Meux Chemin n°24 Rue de la Praule</desc>
<link href="https://chemins.be/meux/chemin/24"/><trkseg>
<trkpt lat="50.551761" lon="4.791566"><time>2026-05-07T18:17:55Z</time></trkpt>
<trkpt lat="50.552085" lon="4.786306"><time>2026-05-07T18:27:55Z</time></trkpt>
<trkpt lat="50.551806" lon="4.783876"><time>2026-05-07T18:37:55Z</time></trkpt>
</trkseg>
</trk>
<trk>
<name>nlbmx25</name>
<cmt>r</cmt>
<desc>Meux Chemin n°25 Rue Jonquart / Rue Janquart</desc>
<link href="https://chemins.be/meux/chemin/25"/><trkseg>
<trkpt lat="50.553953" lon="4.794464"><time>2026-05-07T18:17:55Z</time></trkpt>
<trkpt lat="50.552194" lon="4.796071"><time>2026-05-07T18:27:55Z</time></trkpt>
<trkpt lat="50.550281" lon="4.798001"><time>2026-05-07T18:37:55Z</time></trkpt>
</trkseg>
</trk>
<trk>
<name>nlbmx26</name>
<cmt>r</cmt>
<desc>Meux Chemin n°26 Chemin des Hauremées</desc>
<link href="https://chemins.be/meux/chemin/26"/><trkseg>
<trkpt lat="50.541172" lon="4.833400"><time>2026-05-07T18:17:55Z</time></trkpt>
<trkpt lat="50.539005" lon="4.826621"><time>2026-05-07T18:27:55Z</time></trkpt>
<trkpt lat="50.536085" lon="4.821571"><time>2026-05-07T18:37:55Z</time></trkpt>
</trkseg></trk>
<trk>
<name>nlbmx26</name>
<cmt>s</cmt>
<desc>Meux Chemin n°26 Chemin des Hauremées</desc>
<link href="https://chemins.be/meux/chemin/26"/><trkseg>
<trkpt lat="50.536085" lon="4.821571"><time>2026-05-07T18:37:55Z</time></trkpt>
<trkpt lat="50.535397" lon="4.818348"><time>2026-05-07T18:47:55Z</time></trkpt>
<trkpt lat="50.535565" lon="4.814386"><time>2026-05-07T18:57:55Z</time></trkpt>
</trkseg></trk>
<trk>
<name>nlbmx26</name>
<cmt>r</cmt>
<desc>Meux Chemin n°26 Chemin des Hauremées</desc>
<link href="https://chemins.be/meux/chemin/26"/><trkseg>
<trkpt lat="50.535565" lon="4.814386"><time>2026-05-07T18:57:55Z</time></trkpt>
<trkpt lat="50.536598" lon="4.812082"><time>2026-05-07T19:07:55Z</time></trkpt>
</trkseg>
</trk>
<trk>
<name>nlbmx27</name>
<cmt>r</cmt>
<desc>Meux Chemin n°27 Rue de Meux</desc>
<link href="https://chemins.be/meux/chemin/27"/><trkseg>
<trkpt lat="50.571862" lon="4.789417"><time>2026-05-07T18:17:55Z</time></trkpt>
<trkpt lat="50.571992" lon="4.790505"><time>2026-05-07T18:27:55Z</time></trkpt>
<trkpt lat="50.572114" lon="4.791607"><time>2026-05-07T18:37:55Z</time></trkpt>
<trkpt lat="50.572739" lon="4.795227"><time>2026-05-07T18:47:55Z</time></trkpt>
<trkpt lat="50.573469" lon="4.797337"><time>2026-05-07T18:57:55Z</time></trkpt>
</trkseg>
</trk>
<trk>
<name>nlbmx28</name>
<cmt>s</cmt>
<desc>Meux Sentier n°28 </desc>
<link href="https://chemins.be/meux/sentier/28"/><trkseg>
<trkpt lat="50.546001" lon="4.788213"><time>2026-05-07T18:17:55Z</time></trkpt>
<trkpt lat="50.545886" lon="4.787605"><time>2026-05-07T18:27:55Z</time></trkpt>
<trkpt lat="50.545674" lon="4.786517"><time>2026-05-07T18:37:55Z</time></trkpt>
<trkpt lat="50.545141" lon="4.784819"><time>2026-05-07T18:47:55Z</time></trkpt>
<trkpt lat="50.543468" lon="4.782618"><time>2026-05-07T18:57:55Z</time></trkpt>
</trkseg>
</trk>
<trk>
<name>nlbmx29</name>
<cmt>s</cmt>
<desc>Meux Sentier n°29 </desc>
<link href="https://chemins.be/meux/sentier/29"/><trkseg>
<trkpt lat="50.541799" lon="4.786567"><time>2026-05-07T18:17:55Z</time></trkpt>
<trkpt lat="50.542590" lon="4.786673"><time>2026-05-07T18:27:55Z</time></trkpt>
<trkpt lat="50.543515" lon="4.787119"><time>2026-05-07T18:37:55Z</time></trkpt>
</trkseg></trk>
<trk>
<name>nlbmx29</name>
<cmt>q</cmt>
<desc>Meux Sentier n°29 </desc>
<link href="https://chemins.be/meux/sentier/29"/><trkseg>
<trkpt lat="50.543515" lon="4.787119"><time>2026-05-07T18:37:55Z</time></trkpt>
<trkpt lat="50.544933" lon="4.787780"><time>2026-05-07T18:47:55Z</time></trkpt>
</trkseg></trk>
<trk>
<name>nlbmx29</name>
<cmt>s</cmt>
<desc>Meux Sentier n°29 </desc>
<link href="https://chemins.be/meux/sentier/29"/><trkseg>
<trkpt lat="50.544933" lon="4.787780"><time>2026-05-07T18:47:55Z</time></trkpt>
<trkpt lat="50.545157" lon="4.788008"><time>2026-05-07T18:57:55Z</time></trkpt>
<trkpt lat="50.545948" lon="4.787973"><time>2026-05-07T19:07:55Z</time></trkpt>
</trkseg>
</trk>
<trk>
<name>nlbmx3</name>
<cmt>r</cmt>
<desc>Meux Chemin n°3 Rue Ange du Paradis / Chaussée d'Eghezée / Route de la Bruyère</desc>
<link href="https://chemins.be/meux/chemin/3"/><trkseg>
<trkpt lat="50.547251" lon="4.775384"><time>2026-05-07T18:17:55Z</time></trkpt>
<trkpt lat="50.544573" lon="4.780299"><time>2026-05-07T18:27:55Z</time></trkpt>
<trkpt lat="50.541764" lon="4.786482"><time>2026-05-07T18:37:55Z</time></trkpt>
</trkseg></trk>
<trk>
<name>nlbmx3</name>
<cmt>s</cmt>
<desc>Meux Chemin n°3 Rue Ange du Paradis / Chaussée d'Eghezée / Route de la Bruyère</desc>
<link href="https://chemins.be/meux/chemin/3"/><trkseg>
<trkpt lat="50.541764" lon="4.786482"><time>2026-05-07T18:37:55Z</time></trkpt>
<trkpt lat="50.543231" lon="4.791038"><time>2026-05-07T18:47:55Z</time></trkpt>
<trkpt lat="50.543354" lon="4.791787"><time>2026-05-07T18:57:55Z</time></trkpt>
<trkpt lat="50.543537" lon="4.793439"><time>2026-05-07T19:07:55Z</time></trkpt>
<trkpt lat="50.544411" lon="4.797595"><time>2026-05-07T19:17:55Z</time></trkpt>
</trkseg></trk>
<trk>
<name>nlbmx3</name>
<cmt>r</cmt>
<desc>Meux Chemin n°3 Rue Ange du Paradis / Chaussée d'Eghezée / Route de la Bruyère</desc>
<link href="https://chemins.be/meux/chemin/3"/><trkseg>
<trkpt lat="50.544411" lon="4.797595"><time>2026-05-07T19:17:55Z</time></trkpt>
<trkpt lat="50.547389" lon="4.806681"><time>2026-05-07T19:27:55Z</time></trkpt>
<trkpt lat="50.548020" lon="4.808620"><time>2026-05-07T19:37:55Z</time></trkpt>
<trkpt lat="50.551437" lon="4.813266"><time>2026-05-07T19:47:55Z</time></trkpt>
<trkpt lat="50.551983" lon="4.813934"><time>2026-05-07T19:57:55Z</time></trkpt>
<trkpt lat="50.553819" lon="4.818143"><time>2026-05-07T20:07:55Z</time></trkpt>
<trkpt lat="50.555551" lon="4.821109"><time>2026-05-07T20:17:55Z</time></trkpt>
<trkpt lat="50.559087" lon="4.827310"><time>2026-05-07T20:27:55Z</time></trkpt>
</trkseg>
</trk>
<trk>
<name>nlbmx30</name>
<cmt>s</cmt>
<desc>Meux Sentier n°30 Sentier Mongué</desc>
<link href="https://chemins.be/meux/sentier/30"/><trkseg>
<trkpt lat="50.546757" lon="4.795444"><time>2026-05-07T18:17:55Z</time></trkpt>
<trkpt lat="50.546028" lon="4.798019"><time>2026-05-07T18:27:55Z</time></trkpt>
<trkpt lat="50.545918" lon="4.798611"><time>2026-05-07T18:37:55Z</time></trkpt>
<trkpt lat="50.545691" lon="4.799173"><time>2026-05-07T18:47:55Z</time></trkpt>
<trkpt lat="50.545124" lon="4.799478"><time>2026-05-07T18:57:55Z</time></trkpt>
<trkpt lat="50.545174" lon="4.800438"><time>2026-05-07T19:07:55Z</time></trkpt>
<trkpt lat="50.543980" lon="4.802487"><time>2026-05-07T19:17:55Z</time></trkpt>
<trkpt lat="50.542029" lon="4.804712"><time>2026-05-07T19:27:55Z</time></trkpt>
<trkpt lat="50.540739" lon="4.805984"><time>2026-05-07T19:37:55Z</time></trkpt>
<trkpt lat="50.539629" lon="4.807159"><time>2026-05-07T19:47:55Z</time></trkpt>
</trkseg>
</trk>
<trk>
<name>nlbmx31</name>
<cmt>s</cmt>
<desc>Meux Sentier n°31 Rue de la Ridale</desc>
<link href="https://chemins.be/meux/sentier/31"/><trkseg>
<trkpt lat="50.549859" lon="4.795401"><time>2026-05-07T18:17:55Z</time></trkpt>
<trkpt lat="50.549237" lon="4.795833"><time>2026-05-07T18:27:55Z</time></trkpt>
<trkpt lat="50.548308" lon="4.796587"><time>2026-05-07T18:37:55Z</time></trkpt>
<trkpt lat="50.548504" lon="4.797054"><time>2026-05-07T18:47:55Z</time></trkpt>
</trkseg></trk>
<trk>
<name>nlbmx31</name>
<cmt>v</cmt>
<desc>Meux Sentier n°31 Rue de la Ridale</desc>
<link href="https://chemins.be/meux/sentier/31"/><trkseg>
<trkpt lat="50.548504" lon="4.797054"><time>2026-05-07T18:47:55Z</time></trkpt>
<trkpt lat="50.547620" lon="4.797737"><time>2026-05-07T18:57:55Z</time></trkpt>
<trkpt lat="50.547443" lon="4.797129"><time>2026-05-07T19:07:55Z</time></trkpt>
<trkpt lat="50.546055" lon="4.798019"><time>2026-05-07T19:17:55Z</time></trkpt>
<trkpt lat="50.544874" lon="4.798841"><time>2026-05-07T19:27:55Z</time></trkpt>
</trkseg>
</trk>
<trk>
<name>nlbmx32</name>
<cmt>v</cmt>
<desc>Meux Sentier n°32 Sentier Procès</desc>
<link href="https://chemins.be/meux/sentier/32"/><trkseg>
<trkpt lat="50.550548" lon="4.798625"><time>2026-05-07T18:17:55Z</time></trkpt>
<trkpt lat="50.548942" lon="4.800180"><time>2026-05-07T18:27:55Z</time></trkpt>
<trkpt lat="50.548302" lon="4.800650"><time>2026-05-07T18:37:55Z</time></trkpt>
</trkseg></trk>
<trk>
<name>nlbmx32</name>
<cmt>s</cmt>
<desc>Meux Sentier n°32 Sentier Procès</desc>
<link href="https://chemins.be/meux/sentier/32"/><trkseg>
<trkpt lat="50.548302" lon="4.800650"><time>2026-05-07T18:37:55Z</time></trkpt>
<trkpt lat="50.547078" lon="4.800879"><time>2026-05-07T18:47:55Z</time></trkpt>
<trkpt lat="50.545763" lon="4.801601"><time>2026-05-07T18:57:55Z</time></trkpt>
<trkpt lat="50.543989" lon="4.802431"><time>2026-05-07T19:07:55Z</time></trkpt>
</trkseg>
</trk>
<trk>
<name>nlbmx33</name>
<cmt>s</cmt>
<desc>Meux Sentier n°33 </desc>
<link href="https://chemins.be/meux/sentier/33"/><trkseg>
<trkpt lat="50.548489" lon="4.805802"><time>2026-05-07T18:17:55Z</time></trkpt>
<trkpt lat="50.548038" lon="4.808648"><time>2026-05-07T18:27:55Z</time></trkpt>
<trkpt lat="50.544882" lon="4.808816"><time>2026-05-07T18:37:55Z</time></trkpt>
</trkseg>
</trk>
<trk>
<name>nlbmx33bis</name>
<cmt>s</cmt>
<desc>Meux Sentier n°33bis </desc>
<link href="https://chemins.be/meux/sentier/33bis"/><trkseg>
<trkpt lat="50.548038" lon="4.808719"><time>2026-05-07T18:17:55Z</time></trkpt>
<trkpt lat="50.544819" lon="4.811073"><time>2026-05-07T18:27:55Z</time></trkpt>
</trkseg>
</trk>
<trk>
<name>nlbmx34</name>
<cmt>s</cmt>
<desc>Meux Sentier n°34 </desc>
<link href="https://chemins.be/meux/sentier/34"/><trkseg>
<trkpt lat="50.548512" lon="4.809330"><time>2026-05-07T18:17:55Z</time></trkpt>
<trkpt lat="50.548232" lon="4.812065"><time>2026-05-07T18:27:55Z</time></trkpt>
<trkpt lat="50.548125" lon="4.814124"><time>2026-05-07T18:37:55Z</time></trkpt>
</trkseg>
</trk>
<trk>
<name>nlbmx35</name>
<cmt>r</cmt>
<desc>Meux Sentier n°35 Rue Saint-Sauveur</desc>
<link href="https://chemins.be/meux/sentier/35"/><trkseg>
<trkpt lat="50.550599" lon="4.804227"><time>2026-05-07T18:17:55Z</time></trkpt>
<trkpt lat="50.550743" lon="4.804285"><time>2026-05-07T18:27:55Z</time></trkpt>
<trkpt lat="50.551826" lon="4.805579"><time>2026-05-07T18:37:55Z</time></trkpt>
<trkpt lat="50.552071" lon="4.809603"><time>2026-05-07T18:47:55Z</time></trkpt>
<trkpt lat="50.552802" lon="4.811317"><time>2026-05-07T18:57:55Z</time></trkpt>
</trkseg>
</trk>
<trk>
<name>nlbmx36</name>
<cmt>s</cmt>
<desc>Meux Sentier n°36 Colas des Bidelles</desc>
<link href="https://chemins.be/meux/sentier/36"/><trkseg>
<trkpt lat="50.548957" lon="4.788592"><time>2026-05-07T18:17:55Z</time></trkpt>
<trkpt lat="50.549218" lon="4.790951"><time>2026-05-07T18:27:55Z</time></trkpt>
<trkpt lat="50.548845" lon="4.792344"><time>2026-05-07T18:37:55Z</time></trkpt>
</trkseg></trk>
<trk>
<name>nlbmx36</name>
<cmt>q</cmt>
<desc>Meux Sentier n°36 Colas des Bidelles</desc>
<link href="https://chemins.be/meux/sentier/36"/><trkseg>
<trkpt lat="50.548845" lon="4.792344"><time>2026-05-07T18:37:55Z</time></trkpt>
<trkpt lat="50.549271" lon="4.793858"><time>2026-05-07T18:47:55Z</time></trkpt>
</trkseg></trk>
<trk>
<name>nlbmx36</name>
<cmt>s</cmt>
<desc>Meux Sentier n°36 Colas des Bidelles</desc>
<link href="https://chemins.be/meux/sentier/36"/><trkseg>
<trkpt lat="50.549271" lon="4.793858"><time>2026-05-07T18:47:55Z</time></trkpt>
<trkpt lat="50.549352" lon="4.793830"><time>2026-05-07T18:57:55Z</time></trkpt>
<trkpt lat="50.549922" lon="4.795374"><time>2026-05-07T19:07:55Z</time></trkpt>
<trkpt lat="50.550412" lon="4.796577"><time>2026-05-07T19:17:55Z</time></trkpt>
</trkseg></trk>
<trk>
<name>nlbmx36</name>
<cmt>q</cmt>
<desc>Meux Sentier n°36 Colas des Bidelles</desc>
<link href="https://chemins.be/meux/sentier/36"/><trkseg>
<trkpt lat="50.550412" lon="4.796577"><time>2026-05-07T19:17:55Z</time></trkpt>
<trkpt lat="50.550759" lon="4.797455"><time>2026-05-07T19:27:55Z</time></trkpt>
</trkseg></trk>
<trk>
<name>nlbmx36</name>
<cmt>v</cmt>
<desc>Meux Sentier n°36 Colas des Bidelles</desc>
<link href="https://chemins.be/meux/sentier/36"/><trkseg>
<trkpt lat="50.550759" lon="4.797455"><time>2026-05-07T19:27:55Z</time></trkpt>
<trkpt lat="50.551133" lon="4.798305"><time>2026-05-07T19:37:55Z</time></trkpt>
<trkpt lat="50.551562" lon="4.799198"><time>2026-05-07T19:47:55Z</time></trkpt>
</trkseg></trk>
<trk>
<name>nlbmx36</name>
<cmt>s</cmt>
<desc>Meux Sentier n°36 Colas des Bidelles</desc>
<link href="https://chemins.be/meux/sentier/36"/><trkseg>
<trkpt lat="50.551562" lon="4.799198"><time>2026-05-07T19:47:55Z</time></trkpt>
<trkpt lat="50.552176" lon="4.800799"><time>2026-05-07T19:57:55Z</time></trkpt>
</trkseg>
</trk>
<trk>
<name>nlbmx37</name>
<cmt>v</cmt>
<desc>Meux Sentier n°37 </desc>
<link href="https://chemins.be/meux/sentier/37"/><trkseg>
<trkpt lat="50.549165" lon="4.790809"><time>2026-05-07T18:17:55Z</time></trkpt>
<trkpt lat="50.549548" lon="4.791772"><time>2026-05-07T18:27:55Z</time></trkpt>
</trkseg></trk>
<trk>
<name>nlbmx37</name>
<cmt>s</cmt>
<desc>Meux Sentier n°37 </desc>
<link href="https://chemins.be/meux/sentier/37"/><trkseg>
<trkpt lat="50.549548" lon="4.791772"><time>2026-05-07T18:27:55Z</time></trkpt>
<trkpt lat="50.550019" lon="4.793216"><time>2026-05-07T18:37:55Z</time></trkpt>
</trkseg>
</trk>
<trk>
<name>nlbmx38</name>
<cmt>s</cmt>
<desc>Meux Sentier n°38 Sentier de la Cicaille</desc>
<link href="https://chemins.be/meux/sentier/38"/><trkseg>
<trkpt lat="50.551337" lon="4.796812"><time>2026-05-07T18:17:55Z</time></trkpt>
<trkpt lat="50.550820" lon="4.795495"><time>2026-05-07T18:27:55Z</time></trkpt>
<trkpt lat="50.550939" lon="4.795016"><time>2026-05-07T18:37:55Z</time></trkpt>
<trkpt lat="50.551390" lon="4.792014"><time>2026-05-07T18:47:55Z</time></trkpt>
</trkseg>
</trk>
<trk>
<name>nlbmx39</name>
<cmt>s</cmt>
<desc>Meux Sentier n°39 Sentier Biétoin</desc>
<link href="https://chemins.be/meux/sentier/39"/><trkseg>
<trkpt lat="50.550786" lon="4.797498"><time>2026-05-07T18:17:55Z</time></trkpt>
<trkpt lat="50.552221" lon="4.798315"><time>2026-05-07T18:27:55Z</time></trkpt>
<trkpt lat="50.552930" lon="4.798590"><time>2026-05-07T18:37:55Z</time></trkpt>
<trkpt lat="50.553093" lon="4.798521"><time>2026-05-07T18:47:55Z</time></trkpt>
</trkseg></trk>
<trk>
<name>nlbmx39</name>
<cmt>r</cmt>
<desc>Meux Sentier n°39 Sentier Biétoin</desc>
<link href="https://chemins.be/meux/sentier/39"/><trkseg>
<trkpt lat="50.553093" lon="4.798521"><time>2026-05-07T18:47:55Z</time></trkpt>
<trkpt lat="50.554193" lon="4.797642"><time>2026-05-07T18:57:55Z</time></trkpt>
</trkseg></trk>
<trk>
<name>nlbmx39</name>
<cmt>v</cmt>
<desc>Meux Sentier n°39 Sentier Biétoin</desc>
<link href="https://chemins.be/meux/sentier/39"/><trkseg>
<trkpt lat="50.554193" lon="4.797642"><time>2026-05-07T18:57:55Z</time></trkpt>
<trkpt lat="50.554869" lon="4.797041"><time>2026-05-07T19:07:55Z</time></trkpt>
<trkpt lat="50.555356" lon="4.796594"><time>2026-05-07T19:17:55Z</time></trkpt>
</trkseg></trk>
<trk>
<name>nlbmx39</name>
<cmt>b</cmt>
<desc>Meux Sentier n°39 Sentier Biétoin</desc>
<link href="https://chemins.be/meux/sentier/39"/><trkseg>
<trkpt lat="50.555356" lon="4.796594"><time>2026-05-07T19:17:55Z</time></trkpt>
<trkpt lat="50.555564" lon="4.796412"><time>2026-05-07T19:27:55Z</time></trkpt>
</trkseg></trk>
<trk>
<name>nlbmx39</name>
<cmt>s</cmt>
<desc>Meux Sentier n°39 Sentier Biétoin</desc>
<link href="https://chemins.be/meux/sentier/39"/><trkseg>
<trkpt lat="50.555564" lon="4.796412"><time>2026-05-07T19:27:55Z</time></trkpt>
<trkpt lat="50.556493" lon="4.795433"><time>2026-05-07T19:37:55Z</time></trkpt>
</trkseg></trk>
<trk>
<name>nlbmx39</name>
<cmt>q</cmt>
<desc>Meux Sentier n°39 Sentier Biétoin</desc>
<link href="https://chemins.be/meux/sentier/39"/><trkseg>
<trkpt lat="50.556493" lon="4.795433"><time>2026-05-07T19:37:55Z</time></trkpt>
<trkpt lat="50.556823" lon="4.793841"><time>2026-05-07T19:47:55Z</time></trkpt>
</trkseg>
</trk>
<trk>
<name>nlbmx39bis</name>
<cmt>r</cmt>
<desc>Meux Sentier n°39bis Rue des Closières</desc>
<link href="https://chemins.be/meux/sentier/39bis"/><trkseg>
<trkpt lat="50.551963" lon="4.797607"><time>2026-05-07T18:17:55Z</time></trkpt>
<trkpt lat="50.551341" lon="4.798152"><time>2026-05-07T18:27:55Z</time></trkpt>
</trkseg></trk>
<trk>
<name>nlbmx39bis</name>
<cmt>v</cmt>
<desc>Meux Sentier n°39bis Rue des Closières</desc>
<link href="https://chemins.be/meux/sentier/39bis"/><trkseg>
<trkpt lat="50.551341" lon="4.798152"><time>2026-05-07T18:27:55Z</time></trkpt>
<trkpt lat="50.551133" lon="4.798305"><time>2026-05-07T18:37:55Z</time></trkpt>
</trkseg>
</trk>
<trk>
<name>nlbmx4</name>
<cmt>r</cmt>
<desc>Meux Chemin n°4 Rue de Sclef</desc>
<link href="https://chemins.be/meux/chemin/4"/><trkseg>
<trkpt lat="50.563555" lon="4.799167"><time>2026-05-07T18:17:55Z</time></trkpt>
<trkpt lat="50.562073" lon="4.801115"><time>2026-05-07T18:27:55Z</time></trkpt>
<trkpt lat="50.560827" lon="4.802628"><time>2026-05-07T18:37:55Z</time></trkpt>
<trkpt lat="50.558973" lon="4.805532"><time>2026-05-07T18:47:55Z</time></trkpt>
<trkpt lat="50.558150" lon="4.805422"><time>2026-05-07T18:57:55Z</time></trkpt>
<trkpt lat="50.556314" lon="4.807532"><time>2026-05-07T19:07:55Z</time></trkpt>
<trkpt lat="50.554756" lon="4.808713"><time>2026-05-07T19:17:55Z</time></trkpt>
<trkpt lat="50.554074" lon="4.809328"><time>2026-05-07T19:27:55Z</time></trkpt>
<trkpt lat="50.553265" lon="4.811001"><time>2026-05-07T19:37:55Z</time></trkpt>
<trkpt lat="50.551455" lon="4.813111"><time>2026-05-07T19:47:55Z</time></trkpt>
</trkseg>
</trk>
<trk>
<name>nlbmx40</name>
<cmt>v</cmt>
<desc>Meux Sentier n°40 Sentier Mahaux</desc>
<link href="https://chemins.be/meux/sentier/40"/><trkseg>
<trkpt lat="50.551083" lon="4.799702"><time>2026-05-07T18:17:55Z</time></trkpt>
<trkpt lat="50.551562" lon="4.799212"><time>2026-05-07T18:27:55Z</time></trkpt>
</trkseg></trk>
<trk>
<name>nlbmx40</name>
<cmt>s</cmt>
<desc>Meux Sentier n°40 Sentier Mahaux</desc>
<link href="https://chemins.be/meux/sentier/40"/><trkseg>
<trkpt lat="50.551562" lon="4.799212"><time>2026-05-07T18:27:55Z</time></trkpt>
<trkpt lat="50.551904" lon="4.798976"><time>2026-05-07T18:37:55Z</time></trkpt>
<trkpt lat="50.552346" lon="4.798683"><time>2026-05-07T18:47:55Z</time></trkpt>
</trkseg>
</trk>
<trk>
<name>nlbmx41</name>
<cmt>s</cmt>
<desc>Meux Sentier n°41 </desc>
<link href="https://chemins.be/meux/sentier/41"/><trkseg>
<trkpt lat="50.546746" lon="4.788403"><time>2026-05-07T18:17:55Z</time></trkpt>
<trkpt lat="50.547313" lon="4.790849"><time>2026-05-07T18:27:55Z</time></trkpt>
</trkseg>
</trk>
<trk>
<name>nlbmx42</name>
<cmt>s</cmt>
<desc>Meux Sentier n°42 Sentier de Mehaignoul</desc>
<link href="https://chemins.be/meux/sentier/42"/><trkseg>
<trkpt lat="50.552899" lon="4.811657"><time>2026-05-07T18:17:55Z</time></trkpt>
<trkpt lat="50.552883" lon="4.815904"><time>2026-05-07T18:27:55Z</time></trkpt>
<trkpt lat="50.552621" lon="4.823254"><time>2026-05-07T18:37:55Z</time></trkpt>
</trkseg>
</trk>
<trk>
<name>nlbmx43</name>
<cmt>s</cmt>
<desc>Meux Sentier n°43 Sentier d'Hostin</desc>
<link href="https://chemins.be/meux/sentier/43"/><trkseg>
<trkpt lat="50.545712" lon="4.819787"><time>2026-05-07T18:17:55Z</time></trkpt>
<trkpt lat="50.545757" lon="4.821974"><time>2026-05-07T18:27:55Z</time></trkpt>
<trkpt lat="50.545560" lon="4.826360"><time>2026-05-07T18:37:55Z</time></trkpt>
<trkpt lat="50.544929" lon="4.829148"><time>2026-05-07T18:47:55Z</time></trkpt>
<trkpt lat="50.545327" lon="4.832975"><time>2026-05-07T18:57:55Z</time></trkpt>
</trkseg>
</trk>
<trk>
<name>nlbmx45</name>
<cmt>s</cmt>
<desc>Meux Sentier n°45 Sentier de Matignée</desc>
<link href="https://chemins.be/meux/sentier/45"/><trkseg>
<trkpt lat="50.552702" lon="4.825555"><time>2026-05-07T18:17:55Z</time></trkpt>
<trkpt lat="50.554748" lon="4.828834"><time>2026-05-07T18:27:55Z</time></trkpt>
<trkpt lat="50.556303" lon="4.831065"><time>2026-05-07T18:37:55Z</time></trkpt>
</trkseg>
</trk>
<trk>
<name>nlbmx46</name>
<cmt>b</cmt>
<desc>Meux Sentier n°46 Sentier de Scle</desc>
<link href="https://chemins.be/meux/sentier/46"/><trkseg>
<trkpt lat="50.554015" lon="4.794507"><time>2026-05-07T18:17:55Z</time></trkpt>
<trkpt lat="50.554525" lon="4.795302"><time>2026-05-07T18:27:55Z</time></trkpt>
<trkpt lat="50.554730" lon="4.795629"><time>2026-05-07T18:37:55Z</time></trkpt>
</trkseg></trk>
<trk>
<name>nlbmx46</name>
<cmt>d</cmt>
<desc>Meux Sentier n°46 Sentier de Scle</desc>
<link href="https://chemins.be/meux/sentier/46"/><trkseg>
<trkpt lat="50.554730" lon="4.795629"><time>2026-05-07T18:37:55Z</time></trkpt>
<trkpt lat="50.554909" lon="4.795927"><time>2026-05-07T18:47:55Z</time></trkpt>
<trkpt lat="50.555356" lon="4.796608"><time>2026-05-07T18:57:55Z</time></trkpt>
<trkpt lat="50.555564" lon="4.796398"><time>2026-05-07T19:07:55Z</time></trkpt>
</trkseg></trk>
<trk>
<name>nlbmx46</name>
<cmt>b</cmt>
<desc>Meux Sentier n°46 Sentier de Scle</desc>
<link href="https://chemins.be/meux/sentier/46"/><trkseg>
<trkpt lat="50.555564" lon="4.796398"><time>2026-05-07T19:07:55Z</time></trkpt>
<trkpt lat="50.555840" lon="4.797022"><time>2026-05-07T19:17:55Z</time></trkpt>
<trkpt lat="50.556072" lon="4.797560"><time>2026-05-07T19:27:55Z</time></trkpt>
</trkseg></trk>
<trk>
<name>nlbmx46</name>
<cmt>s</cmt>
<desc>Meux Sentier n°46 Sentier de Scle</desc>
<link href="https://chemins.be/meux/sentier/46"/><trkseg>
<trkpt lat="50.556072" lon="4.797560"><time>2026-05-07T19:27:55Z</time></trkpt>
<trkpt lat="50.556288" lon="4.797350"><time>2026-05-07T19:37:55Z</time></trkpt>
<trkpt lat="50.556758" lon="4.799147"><time>2026-05-07T19:47:55Z</time></trkpt>
<trkpt lat="50.557113" lon="4.800519"><time>2026-05-07T19:57:55Z</time></trkpt>
<trkpt lat="50.557663" lon="4.802387"><time>2026-05-07T20:07:55Z</time></trkpt>
<trkpt lat="50.557913" lon="4.803010"><time>2026-05-07T20:17:55Z</time></trkpt>
<trkpt lat="50.558223" lon="4.804057"><time>2026-05-07T20:27:55Z</time></trkpt>
<trkpt lat="50.558265" lon="4.804862"><time>2026-05-07T20:37:55Z</time></trkpt>
<trkpt lat="50.558362" lon="4.805357"><time>2026-05-07T20:47:55Z</time></trkpt>
</trkseg>
</trk>
<trk>
<name>nlbmx47</name>
<cmt>s</cmt>
<desc>Meux Sentier n°47 des 6 Bonniers</desc>
<link href="https://chemins.be/meux/sentier/47"/><trkseg>
<trkpt lat="50.553897" lon="4.799869"><time>2026-05-07T18:17:55Z</time></trkpt>
<trkpt lat="50.554186" lon="4.801847"><time>2026-05-07T18:27:55Z</time></trkpt>
<trkpt lat="50.554759" lon="4.802403"><time>2026-05-07T18:37:55Z</time></trkpt>
<trkpt lat="50.557285" lon="4.805023"><time>2026-05-07T18:47:55Z</time></trkpt>
<trkpt lat="50.557587" lon="4.806027"><time>2026-05-07T18:57:55Z</time></trkpt>
<trkpt lat="50.557788" lon="4.807455"><time>2026-05-07T19:07:55Z</time></trkpt>
<trkpt lat="50.558297" lon="4.808518"><time>2026-05-07T19:17:55Z</time></trkpt>
</trkseg></trk>
<trk>
<name>nlbmx47</name>
<cmt>v</cmt>
<desc>Meux Sentier n°47 des 6 Bonniers</desc>
<link href="https://chemins.be/meux/sentier/47"/><trkseg>
<trkpt lat="50.558297" lon="4.808518"><time>2026-05-07T19:17:55Z</time></trkpt>
<trkpt lat="50.559232" lon="4.808371"><time>2026-05-07T19:27:55Z</time></trkpt>
</trkseg>
</trk>
<trk>
<name>nlbmx48</name>
<cmt>q</cmt>
<desc>Meux Sentier n°48 </desc>
<link href="https://chemins.be/meux/sentier/48"/><trkseg>
<trkpt lat="50.557732" lon="4.805761"><time>2026-05-07T18:17:55Z</time></trkpt>
<trkpt lat="50.557465" lon="4.804855"><time>2026-05-07T18:27:55Z</time></trkpt>
<trkpt lat="50.557303" lon="4.804995"><time>2026-05-07T18:37:55Z</time></trkpt>
</trkseg>
</trk>
<trk>
<name>nlbmx49</name>
<cmt>s</cmt>
<desc>Meux Sentier n°49 </desc>
<link href="https://chemins.be/meux/sentier/49"/><trkseg>
<trkpt lat="50.554760" lon="4.802360"><time>2026-05-07T18:17:55Z</time></trkpt>
<trkpt lat="50.555665" lon="4.798198"><time>2026-05-07T18:27:55Z</time></trkpt>
</trkseg>
</trk>
<trk>
<name>nlbmx5</name>
<cmt>r</cmt>
<desc>Meux Chemin n°5 Sentier Bétoin / Rue Alvaux</desc>
<link href="https://chemins.be/meux/chemin/5"/><trkseg>
<trkpt lat="50.553156" lon="4.798493"><time>2026-05-07T18:17:55Z</time></trkpt>
<trkpt lat="50.553365" lon="4.800188"><time>2026-05-07T18:27:55Z</time></trkpt>
<trkpt lat="50.553583" lon="4.801912"><time>2026-05-07T18:37:55Z</time></trkpt>
<trkpt lat="50.553903" lon="4.803016"><time>2026-05-07T18:47:55Z</time></trkpt>
<trkpt lat="50.554045" lon="4.805896"><time>2026-05-07T18:57:55Z</time></trkpt>
<trkpt lat="50.554790" lon="4.808655"><time>2026-05-07T19:07:55Z</time></trkpt>
</trkseg>
</trk>
<trk>
<name>nlbmx50</name>
<cmt>v</cmt>
<desc>Meux Sentier n°50 Sentier du Péché</desc>
<link href="https://chemins.be/meux/sentier/50"/><trkseg>
<trkpt lat="50.553912" lon="4.802973"><time>2026-05-07T18:17:55Z</time></trkpt>
<trkpt lat="50.554794" lon="4.802311"><time>2026-05-07T18:27:55Z</time></trkpt>
</trkseg>
</trk>
<trk>
<name>nlbmx51</name>
<cmt>s</cmt>
<desc>Meux Sentier n°51 Sentier Pennevaux</desc>
<link href="https://chemins.be/meux/sentier/51"/><trkseg>
<trkpt lat="50.559250" lon="4.808414"><time>2026-05-07T18:17:55Z</time></trkpt>
<trkpt lat="50.559486" lon="4.812579"><time>2026-05-07T18:27:55Z</time></trkpt>
</trkseg>
</trk>
<trk>
<name>nlbmx52</name>
<cmt>s</cmt>
<desc>Meux Sentier n°52 des 3 Bonniers</desc>
<link href="https://chemins.be/meux/sentier/52"/><trkseg>
<trkpt lat="50.554744" lon="4.808795"><time>2026-05-07T18:17:55Z</time></trkpt>
<trkpt lat="50.555249" lon="4.810790"><time>2026-05-07T18:27:55Z</time></trkpt>
<trkpt lat="50.555577" lon="4.812119"><time>2026-05-07T18:37:55Z</time></trkpt>
<trkpt lat="50.555934" lon="4.812871"><time>2026-05-07T18:47:55Z</time></trkpt>
<trkpt lat="50.557167" lon="4.814872"><time>2026-05-07T18:57:55Z</time></trkpt>
</trkseg>
</trk>
<trk>
<name>nlbmx53</name>
<cmt>s</cmt>
<desc>Meux Sentier n°53 </desc>
<link href="https://chemins.be/meux/sentier/53"/><trkseg>
<trkpt lat="50.554007" lon="4.794296"><time>2026-05-07T18:17:55Z</time></trkpt>
<trkpt lat="50.556309" lon="4.791691"><time>2026-05-07T18:27:55Z</time></trkpt>
</trkseg>
</trk>
<trk>
<name>nlbmx54</name>
<cmt>s</cmt>
<desc>Meux Sentier n°54 </desc>
<link href="https://chemins.be/meux/sentier/54"/><trkseg>
<trkpt lat="50.556080" lon="4.790349"><time>2026-05-07T18:17:55Z</time></trkpt>
<trkpt lat="50.556426" lon="4.784142"><time>2026-05-07T18:27:55Z</time></trkpt>
<trkpt lat="50.556637" lon="4.778751"><time>2026-05-07T18:37:55Z</time></trkpt>
</trkseg>
</trk>
<trk>
<name>nlbmx55</name>
<cmt>s</cmt>
<desc>Meux Sentier n°55 </desc>
<link href="https://chemins.be/meux/sentier/55"/><trkseg>
<trkpt lat="50.562130" lon="4.793084"><time>2026-05-07T18:17:55Z</time></trkpt>
<trkpt lat="50.559604" lon="4.792822"><time>2026-05-07T18:27:55Z</time></trkpt>
</trkseg>
</trk>
<trk>
<name>nlbmx56</name>
<cmt>s</cmt>
<desc>Meux Sentier n°56 </desc>
<link href="https://chemins.be/meux/sentier/56"/><trkseg>
<trkpt lat="50.558353" lon="4.826470"><time>2026-05-07T18:17:55Z</time></trkpt>
<trkpt lat="50.557855" lon="4.829613"><time>2026-05-07T18:27:55Z</time></trkpt>
</trkseg>
</trk>
<trk>
<name>nlbmx57</name>
<cmt>s</cmt>
<desc>Meux Sentier n°57 </desc>
<link href="https://chemins.be/meux/sentier/57"/><trkseg>
<trkpt lat="50.559438" lon="4.786737"><time>2026-05-07T18:17:55Z</time></trkpt>
<trkpt lat="50.560986" lon="4.783787"><time>2026-05-07T18:27:55Z</time></trkpt>
</trkseg>
</trk>
<trk>
<name>nlbmx58</name>
<cmt>s</cmt>
<desc>Meux Sentier n°58 Sentier du Vivier de Boulomme</desc>
<link href="https://chemins.be/meux/sentier/58"/><trkseg>
<trkpt lat="50.551543" lon="4.781926"><time>2026-05-07T18:17:55Z</time></trkpt>
<trkpt lat="50.552032" lon="4.781098"><time>2026-05-07T18:27:55Z</time></trkpt>
<trkpt lat="50.552127" lon="4.779518"><time>2026-05-07T18:37:55Z</time></trkpt>
<trkpt lat="50.551916" lon="4.778204"><time>2026-05-07T18:47:55Z</time></trkpt>
<trkpt lat="50.551522" lon="4.772542"><time>2026-05-07T18:57:55Z</time></trkpt>
<trkpt lat="50.551099" lon="4.765088"><time>2026-05-07T19:07:55Z</time></trkpt>
</trkseg>
</trk>
<trk>
<name>nlbmx59</name>
<cmt>r</cmt>
<desc>Meux Sentier n°59 Rue des Bailleries</desc>
<link href="https://chemins.be/meux/sentier/59"/><trkseg>
<trkpt lat="50.546423" lon="4.785959"><time>2026-05-07T18:17:55Z</time></trkpt>
<trkpt lat="50.545845" lon="4.784148"><time>2026-05-07T18:27:55Z</time></trkpt>
<trkpt lat="50.544536" lon="4.780440"><time>2026-05-07T18:37:55Z</time></trkpt>
</trkseg>
</trk>
<trk>
<name>nlbmx60</name>
<cmt>s</cmt>
<desc>Meux Sentier n°60 Sentier de la Motte</desc>
<link href="https://chemins.be/meux/sentier/60"/><trkseg>
<trkpt lat="50.551100" lon="4.802468"><time>2026-05-07T18:17:55Z</time></trkpt>
<trkpt lat="50.551864" lon="4.804846"><time>2026-05-07T18:27:55Z</time></trkpt>
<trkpt lat="50.551825" lon="4.805621"><time>2026-05-07T18:37:55Z</time></trkpt>
</trkseg></trk>
<trk>
<name>nlbmx60</name>
<cmt>v</cmt>
<desc>Meux Sentier n°60 Sentier de la Motte</desc>
<link href="https://chemins.be/meux/sentier/60"/><trkseg>
<trkpt lat="50.551825" lon="4.805621"><time>2026-05-07T18:37:55Z</time></trkpt>
<trkpt lat="50.552508" lon="4.805766"><time>2026-05-07T18:47:55Z</time></trkpt>
<trkpt lat="50.552703" lon="4.805726"><time>2026-05-07T18:57:55Z</time></trkpt>
<trkpt lat="50.553021" lon="4.805853"><time>2026-05-07T19:07:55Z</time></trkpt>
<trkpt lat="50.553948" lon="4.805528"><time>2026-05-07T19:17:55Z</time></trkpt>
</trkseg>
</trk>
<trk>
<name>nlbmx61</name>
<cmt>r</cmt>
<desc>Meux Sentier n°61 Sentier de l'Eglise</desc>
<link href="https://chemins.be/meux/sentier/61"/><trkseg>
<trkpt lat="50.550288" lon="4.803335"><time>2026-05-07T18:17:55Z</time></trkpt>
<trkpt lat="50.550032" lon="4.802749"><time>2026-05-07T18:27:55Z</time></trkpt>
</trkseg></trk>
<trk>
<name>nlbmx61</name>
<cmt>v</cmt>
<desc>Meux Sentier n°61 Sentier de l'Eglise</desc>
<link href="https://chemins.be/meux/sentier/61"/><trkseg>
<trkpt lat="50.550032" lon="4.802749"><time>2026-05-07T18:27:55Z</time></trkpt>
<trkpt lat="50.548915" lon="4.800190"><time>2026-05-07T18:37:55Z</time></trkpt>
<trkpt lat="50.548763" lon="4.799808"><time>2026-05-07T18:47:55Z</time></trkpt>
<trkpt lat="50.548471" lon="4.799431"><time>2026-05-07T18:57:55Z</time></trkpt>
<trkpt lat="50.548181" lon="4.799046"><time>2026-05-07T19:07:55Z</time></trkpt>
<trkpt lat="50.548133" lon="4.799053"><time>2026-05-07T19:17:55Z</time></trkpt>
<trkpt lat="50.547840" lon="4.799122"><time>2026-05-07T19:27:55Z</time></trkpt>
</trkseg>
</trk>
<trk>
<name>nlbmx62</name>
<cmt>s</cmt>
<desc>Meux Sentier n°62 </desc>
<link href="https://chemins.be/meux/sentier/62"/><trkseg>
<trkpt lat="50.545881" lon="4.794067"><time>2026-05-07T18:17:55Z</time></trkpt>
<trkpt lat="50.545878" lon="4.792247"><time>2026-05-07T18:27:55Z</time></trkpt>
<trkpt lat="50.544908" lon="4.789671"><time>2026-05-07T18:37:55Z</time></trkpt>
<trkpt lat="50.544953" lon="4.789473"><time>2026-05-07T18:47:55Z</time></trkpt>
<trkpt lat="50.544525" lon="4.788680"><time>2026-05-07T18:57:55Z</time></trkpt>
<trkpt lat="50.544977" lon="4.787964"><time>2026-05-07T19:07:55Z</time></trkpt>
</trkseg>
</trk>
<trk>
<name>nlbmx63</name>
<cmt>r</cmt>
<desc>Meux Sentier n°63 Rue de Meux</desc>
<link href="https://chemins.be/meux/sentier/63"/><trkseg>
<trkpt lat="50.567882" lon="4.783566"><time>2026-05-07T18:17:55Z</time></trkpt>
<trkpt lat="50.571817" lon="4.789374"><time>2026-05-07T18:27:55Z</time></trkpt>
</trkseg>
</trk>
<trk>
<name>nlbmx65</name>
<cmt>s</cmt>
<desc>Meux Sentier n°65 </desc>
<link href="https://chemins.be/meux/sentier/65"/><trkseg>
<trkpt lat="50.549691" lon="4.787004"><time>2026-05-07T18:17:55Z</time></trkpt>
<trkpt lat="50.548940" lon="4.785911"><time>2026-05-07T18:27:55Z</time></trkpt>
<trkpt lat="50.548963" lon="4.784373"><time>2026-05-07T18:37:55Z</time></trkpt>
<trkpt lat="50.548126" lon="4.782263"><time>2026-05-07T18:47:55Z</time></trkpt>
</trkseg>
</trk>
<trk>
<name>nlbmx66</name>
<cmt>s</cmt>
<desc>Meux Sentier n°66 </desc>
<link href="https://chemins.be/meux/sentier/66"/><trkseg>
<trkpt lat="50.546116" lon="4.783812"><time>2026-05-07T18:17:55Z</time></trkpt>
<trkpt lat="50.547170" lon="4.777994"><time>2026-05-07T18:27:55Z</time></trkpt>
<trkpt lat="50.546988" lon="4.776073"><time>2026-05-07T18:37:55Z</time></trkpt>
</trkseg>
</trk>
<trk>
<name>nlbmx67</name>
<cmt>s</cmt>
<desc>Meux Sentier n°67 </desc>
<link href="https://chemins.be/meux/sentier/67"/><trkseg>
<trkpt lat="50.547341" lon="4.775258"><time>2026-05-07T18:17:55Z</time></trkpt>
<trkpt lat="50.553391" lon="4.775621"><time>2026-05-07T18:27:55Z</time></trkpt>
</trkseg>
</trk>
<trk>
<name>nlbmx7</name>
<cmt>s</cmt>
<desc>Meux Chemin n°7 Chemin le Chenia</desc>
<link href="https://chemins.be/meux/chemin/7"/><trkseg>
<trkpt lat="50.556396" lon="4.792652"><time>2026-05-07T18:17:55Z</time></trkpt>
<trkpt lat="50.557747" lon="4.789503"><time>2026-05-07T18:27:55Z</time></trkpt>
<trkpt lat="50.559321" lon="4.786793"><time>2026-05-07T18:37:55Z</time></trkpt>
</trkseg>
</trk>
<trk>
<name>nlbmx71</name>
<cmt>s</cmt>
<desc>Meux Sentier n°71 </desc>
<link href="https://chemins.be/meux/sentier/71"/><trkseg>
<trkpt lat="50.550109" lon="4.793273"><time>2026-05-07T18:17:55Z</time></trkpt>
<trkpt lat="50.550776" lon="4.795367"><time>2026-05-07T18:27:55Z</time></trkpt>
</trkseg>
</trk>
<trk>
<name>nlbmx72</name>
<cmt>s</cmt>
<desc>Meux Sentier n°72 </desc>
<link href="https://chemins.be/meux/sentier/72"/><trkseg>
<trkpt lat="50.551128" lon="4.799759"><time>2026-05-07T18:17:55Z</time></trkpt>
<trkpt lat="50.551933" lon="4.800966"><time>2026-05-07T18:27:55Z</time></trkpt>
<trkpt lat="50.552203" lon="4.800813"><time>2026-05-07T18:37:55Z</time></trkpt>
</trkseg>
</trk>
<trk>
<name>nlbmx73</name>
<cmt>s</cmt>
<desc>Meux Sentier n°73 Rue du Chainia</desc>
<link href="https://chemins.be/meux/sentier/73"/><trkseg>
<trkpt lat="50.557517" lon="4.795710"><time>2026-05-07T18:17:55Z</time></trkpt>
<trkpt lat="50.555051" lon="4.799004"><time>2026-05-07T18:27:55Z</time></trkpt>
<trkpt lat="50.553950" lon="4.799982"><time>2026-05-07T18:37:55Z</time></trkpt>
</trkseg>
</trk>
<trk>
<name>nlbmx75</name>
<cmt>s</cmt>
<desc>Meux Sentier n°75 Rue du Chainia</desc>
<link href="https://chemins.be/meux/sentier/75"/><trkseg>
<trkpt lat="50.550350" lon="4.803562"><time>2026-05-07T18:17:55Z</time></trkpt>
<trkpt lat="50.551163" lon="4.802553"><time>2026-05-07T18:27:55Z</time></trkpt>
</trkseg>
</trk>
<trk>
<name>nlbmx8</name>
<cmt>r</cmt>
<desc>Meux Chemin n°8 Rue du village</desc>
<link href="https://chemins.be/meux/chemin/8"/><trkseg>
<trkpt lat="50.551797" lon="4.801091"><time>2026-05-07T18:17:55Z</time></trkpt>
<trkpt lat="50.550440" lon="4.798652"><time>2026-05-07T18:27:55Z</time></trkpt>
<trkpt lat="50.549423" lon="4.796568"><time>2026-05-07T18:37:55Z</time></trkpt>
<trkpt lat="50.548730" lon="4.794276"><time>2026-05-07T18:47:55Z</time></trkpt>
<trkpt lat="50.548344" lon="4.794118"><time>2026-05-07T18:57:55Z</time></trkpt>
<trkpt lat="50.547646" lon="4.790810"><time>2026-05-07T19:07:55Z</time></trkpt>
<trkpt lat="50.548197" lon="4.789912"><time>2026-05-07T19:17:55Z</time></trkpt>
</trkseg>
</trk>
<trk>
<name>nlbmx9</name>
<cmt>r</cmt>
<desc>Meux Chemin n°9 Chemin Croix de Pierre</desc>
<link href="https://chemins.be/meux/chemin/9"/><trkseg>
<trkpt lat="50.554979" lon="4.786613"><time>2026-05-07T18:17:55Z</time></trkpt>
<trkpt lat="50.553701" lon="4.789467"><time>2026-05-07T18:27:55Z</time></trkpt>
<trkpt lat="50.553338" lon="4.787827"><time>2026-05-07T18:37:55Z</time></trkpt>
<trkpt lat="50.556824" lon="4.783553"><time>2026-05-07T18:47:55Z</time></trkpt>
<trkpt lat="50.557692" lon="4.779525"><time>2026-05-07T18:57:55Z</time></trkpt>
</trkseg></trk>
<trk>
<name>nlbmx9</name>
<cmt>s</cmt>
<desc>Meux Chemin n°9 Chemin Croix de Pierre</desc>
<link href="https://chemins.be/meux/chemin/9"/><trkseg>
<trkpt lat="50.557692" lon="4.779525"><time>2026-05-07T18:57:55Z</time></trkpt>
<trkpt lat="50.559176" lon="4.766581"><time>2026-05-07T19:07:55Z</time></trkpt>
</trkseg></trk>
<trk>
<name>nlbmx9</name>
<cmt>r</cmt>
<desc>Meux Chemin n°9 Chemin Croix de Pierre</desc>
<link href="https://chemins.be/meux/chemin/9"/><trkseg>
<trkpt lat="50.559176" lon="4.766581"><time>2026-05-07T19:07:55Z</time></trkpt>
<trkpt lat="50.559385" lon="4.765736"><time>2026-05-07T19:17:55Z</time></trkpt>
<trkpt lat="50.560072" lon="4.764811"><time>2026-05-07T19:27:55Z</time></trkpt>
</trkseg>
</trk>
<trk>
<name>nlbmxi1</name>
<cmt>r</cmt>
<desc>Meux Chemin n°i1 Rue du Bois de Meux</desc>
<link href="https://chemins.be/meux/chemin/i1"/><trkseg>
<trkpt lat="50.545836" lon="4.784162"><time>2026-05-07T18:17:55Z</time></trkpt>
<trkpt lat="50.550596" lon="4.780465"><time>2026-05-07T18:27:55Z</time></trkpt>
</trkseg>
</trk>
<trk>
<name>nlbmxi12</name>
<cmt>d</cmt>
<desc>Meux Chemin n°i12 </desc>
<link href="https://chemins.be/meux/chemin/i12"/><trkseg>
<trkpt lat="50.548895" lon="4.805467"><time>2026-05-07T18:17:55Z</time></trkpt>
<trkpt lat="50.549620" lon="4.806391"><time>2026-05-07T18:27:55Z</time></trkpt>
<trkpt lat="50.549663" lon="4.806772"><time>2026-05-07T18:37:55Z</time></trkpt>
<trkpt lat="50.550335" lon="4.807569"><time>2026-05-07T18:47:55Z</time></trkpt>
</trkseg>
</trk>
<trk>
<name>nlbmxi13</name>
<cmt>v</cmt>
<desc>Meux Chemin n°i13 </desc>
<link href="https://chemins.be/meux/chemin/i13"/><trkseg>
<trkpt lat="50.563047" lon="4.798005"><time>2026-05-07T18:17:55Z</time></trkpt>
<trkpt lat="50.571011" lon="4.788308"><time>2026-05-07T18:27:55Z</time></trkpt>
</trkseg>
</trk>
<trk>
<name>nlbmxi14</name>
<cmt>v</cmt>
<desc>Meux Chemin n°i14 </desc>
<link href="https://chemins.be/meux/chemin/i14"/><trkseg>
<trkpt lat="50.563960" lon="4.798944"><time>2026-05-07T18:17:55Z</time></trkpt>
<trkpt lat="50.565753" lon="4.798029"><time>2026-05-07T18:27:55Z</time></trkpt>
<trkpt lat="50.566056" lon="4.798653"><time>2026-05-07T18:37:55Z</time></trkpt>
<trkpt lat="50.571925" lon="4.791733"><time>2026-05-07T18:47:55Z</time></trkpt>
</trkseg>
</trk>
<trk>
<name>nlbmxi15</name>
<cmt>q</cmt>
<desc>Meux Chemin n°i15 </desc>
<link href="https://chemins.be/meux/chemin/i15"/><trkseg>
<trkpt lat="50.562675" lon="4.793894"><time>2026-05-07T18:17:55Z</time></trkpt>
<trkpt lat="50.562928" lon="4.793614"><time>2026-05-07T18:27:55Z</time></trkpt>
<trkpt lat="50.569366" lon="4.785922"><time>2026-05-07T18:37:55Z</time></trkpt>
</trkseg>
</trk>
<trk>
<name>nlbmxi2</name>
<cmt>s</cmt>
<desc>Meux Chemin n°i2 </desc>
<link href="https://chemins.be/meux/chemin/i2"/><trkseg>
<trkpt lat="50.546685" lon="4.795373"><time>2026-05-07T18:17:55Z</time></trkpt>
<trkpt lat="50.544279" lon="4.797030"><time>2026-05-07T18:27:55Z</time></trkpt>
</trkseg>
</trk>
<trk>
<name>nlbmxi3</name>
<cmt>r</cmt>
<desc>Meux Chemin n°i3 Rue du Warichet</desc>
<link href="https://chemins.be/meux/chemin/i3"/><trkseg>
<trkpt lat="50.549458" lon="4.796752"><time>2026-05-07T18:17:55Z</time></trkpt>
<trkpt lat="50.548529" lon="4.797534"><time>2026-05-07T18:27:55Z</time></trkpt>
</trkseg>
</trk>
<trk>
<name>nlbmxi4</name>
<cmt>q</cmt>
<desc>Meux Sentier n°i4 </desc>
<link href="https://chemins.be/meux/sentier/i4"/><trkseg>
<trkpt lat="50.547384" lon="4.788677"><time>2026-05-07T18:17:55Z</time></trkpt>
<trkpt lat="50.549039" lon="4.785954"><time>2026-05-07T18:27:55Z</time></trkpt>
</trkseg>
</trk>
<trk>
<name>nlbmxi5</name>
<cmt>r</cmt>
<desc>Meux Chemin n°i5 Rue de la Sicaye / Rue du Petit Reclos</desc>
<link href="https://chemins.be/meux/chemin/i5"/><trkseg>
<trkpt lat="50.551111" lon="4.797092"><time>2026-05-07T18:17:55Z</time></trkpt>
<trkpt lat="50.550546" lon="4.795655"><time>2026-05-07T18:27:55Z</time></trkpt>
</trkseg></trk>
<trk>
<name>nlbmxi5</name>
<cmt>v</cmt>
<desc>Meux Chemin n°i5 Rue de la Sicaye / Rue du Petit Reclos</desc>
<link href="https://chemins.be/meux/chemin/i5"/><trkseg>
<trkpt lat="50.550546" lon="4.795655"><time>2026-05-07T18:27:55Z</time></trkpt>
<trkpt lat="50.550357" lon="4.795194"><time>2026-05-07T18:37:55Z</time></trkpt>
</trkseg></trk>
<trk>
<name>nlbmxi5</name>
<cmt>r</cmt>
<desc>Meux Chemin n°i5 Rue de la Sicaye / Rue du Petit Reclos</desc>
<link href="https://chemins.be/meux/chemin/i5"/><trkseg>
<trkpt lat="50.550357" lon="4.795194"><time>2026-05-07T18:37:55Z</time></trkpt>
<trkpt lat="50.550073" lon="4.794535"><time>2026-05-07T18:47:55Z</time></trkpt>
<trkpt lat="50.550287" lon="4.794254"><time>2026-05-07T18:57:55Z</time></trkpt>
<trkpt lat="50.549992" lon="4.793371"><time>2026-05-07T19:07:55Z</time></trkpt>
</trkseg>
</trk>
<trk>
<name>nlbmxi6</name>
<cmt>v</cmt>
<desc>Meux Sentier n°i6 </desc>
<link href="https://chemins.be/meux/sentier/i6"/><trkseg>
<trkpt lat="50.538528" lon="4.805865"><time>2026-05-07T18:17:55Z</time></trkpt>
<trkpt lat="50.539494" lon="4.807144"><time>2026-05-07T18:27:55Z</time></trkpt>
<trkpt lat="50.539751" lon="4.808091"><time>2026-05-07T18:37:55Z</time></trkpt>
<trkpt lat="50.540280" lon="4.808618"><time>2026-05-07T18:47:55Z</time></trkpt>
<trkpt lat="50.542109" lon="4.809923"><time>2026-05-07T18:57:55Z</time></trkpt>
</trkseg></trk>
<trk>
<name>nlbmxi6</name>
<cmt>r</cmt>
<desc>Meux Sentier n°i6 </desc>
<link href="https://chemins.be/meux/sentier/i6"/><trkseg>
<trkpt lat="50.542109" lon="4.809923"><time>2026-05-07T18:57:55Z</time></trkpt>
<trkpt lat="50.541378" lon="4.810462"><time>2026-05-07T19:07:55Z</time></trkpt>
</trkseg></trk>
<trk>
<name>nlbmxi6</name>
<cmt>v</cmt>
<desc>Meux Sentier n°i6 </desc>
<link href="https://chemins.be/meux/sentier/i6"/><trkseg>
<trkpt lat="50.541378" lon="4.810462"><time>2026-05-07T19:07:55Z</time></trkpt>
<trkpt lat="50.541791" lon="4.810805"><time>2026-05-07T19:17:55Z</time></trkpt>
<trkpt lat="50.543150" lon="4.810338"><time>2026-05-07T19:27:55Z</time></trkpt>
<trkpt lat="50.544559" lon="4.810958"><time>2026-05-07T19:37:55Z</time></trkpt>
<trkpt lat="50.545875" lon="4.812423"><time>2026-05-07T19:47:55Z</time></trkpt>
<trkpt lat="50.545929" lon="4.812325"><time>2026-05-07T19:57:55Z</time></trkpt>
<trkpt lat="50.547683" lon="4.814486"><time>2026-05-07T20:07:55Z</time></trkpt>
</trkseg>
</trk>
<trk>
<name>nlbmxi7</name>
<cmt>v</cmt>
<desc>Meux Sentier n°i7 </desc>
<link href="https://chemins.be/meux/sentier/i7"/><trkseg>
<trkpt lat="50.563273" lon="4.779707"><time>2026-05-07T18:17:55Z</time></trkpt>
<trkpt lat="50.563046" lon="4.779206"><time>2026-05-07T18:27:55Z</time></trkpt>
<trkpt lat="50.562716" lon="4.779130"><time>2026-05-07T18:37:55Z</time></trkpt>
<trkpt lat="50.562428" lon="4.779063"><time>2026-05-07T18:47:55Z</time></trkpt>
</trkseg></trk>
<trk>
<name>nlbmxi7</name>
<cmt>q</cmt>
<desc>Meux Sentier n°i7 </desc>
<link href="https://chemins.be/meux/sentier/i7"/><trkseg>
<trkpt lat="50.562428" lon="4.779063"><time>2026-05-07T18:47:55Z</time></trkpt>
<trkpt lat="50.561892" lon="4.780208"><time>2026-05-07T18:57:55Z</time></trkpt>
</trkseg>
</trk>
<trk>
<name>nlbmxi8</name>
<cmt>s</cmt>
<desc>Meux Sentier n°i8 </desc>
<link href="https://chemins.be/meux/sentier/i8"/><trkseg>
<trkpt lat="50.553346" lon="4.769145"><time>2026-05-07T18:17:55Z</time></trkpt>
<trkpt lat="50.553769" lon="4.768415"><time>2026-05-07T18:27:55Z</time></trkpt>
<trkpt lat="50.555114" lon="4.766148"><time>2026-05-07T18:37:55Z</time></trkpt>
</trkseg>
</trk>
<trk>
<name>nlbmxp1</name>
<cmt>s</cmt>
<desc>Meux Sentier particulier n°p1 </desc>
<link href="https://chemins.be/meux/sentier/p1"/><trkseg>
<trkpt lat="50.551320" lon="4.813307"><time>2026-05-07T18:17:55Z</time></trkpt>
<trkpt lat="50.547359" lon="4.819224"><time>2026-05-07T18:27:55Z</time></trkpt>
</trkseg>
</trk>
<trk>
<name>nlbmxp2</name>
<cmt>s</cmt>
<desc>Meux Sentier particulier n°p2 </desc>
<link href="https://chemins.be/meux/sentier/p2"/><trkseg>
<trkpt lat="50.554134" lon="4.806207"><time>2026-05-07T18:17:55Z</time></trkpt>
<trkpt lat="50.555171" lon="4.805412"><time>2026-05-07T18:27:55Z</time></trkpt>
<trkpt lat="50.556036" lon="4.804842"><time>2026-05-07T18:37:55Z</time></trkpt>
<trkpt lat="50.557168" lon="4.804895"><time>2026-05-07T18:47:55Z</time></trkpt>
</trkseg>
</trk>
<trk>
<name>nlbmxp3</name>
<cmt>s</cmt>
<desc>Meux Sentier particulier n°p3 </desc>
<link href="https://chemins.be/meux/sentier/p3"/><trkseg>
<trkpt lat="50.555063" lon="4.805425"><time>2026-05-07T18:17:55Z</time></trkpt>
<trkpt lat="50.555140" lon="4.803860"><time>2026-05-07T18:27:55Z</time></trkpt>
<trkpt lat="50.554777" lon="4.802473"><time>2026-05-07T18:37:55Z</time></trkpt>
</trkseg>
</trk>
<trk>
<name>nlbmxp4</name>
<cmt>r</cmt>
<desc>Meux Chemin particulier n°p4 </desc>
<link href="https://chemins.be/meux/chemin/p4"/><trkseg>
<trkpt lat="50.538867" lon="4.794357"><time>2026-05-07T18:17:55Z</time></trkpt>
<trkpt lat="50.540837" lon="4.801555"><time>2026-05-07T18:27:55Z</time></trkpt>
<trkpt lat="50.543632" lon="4.809002"><time>2026-05-07T18:37:55Z</time></trkpt>
</trkseg>
</trk>
<trk>
<name>nlbmxr1</name>
<cmt>r</cmt>
<desc>Meux Chemin de remembrement n°r1 Rue Breton</desc>
<link href="https://chemins.be/meux/chemin/r1"/><trkseg>
<trkpt lat="50.557774" lon="4.779384"><time>2026-05-07T18:17:55Z</time></trkpt>
<trkpt lat="50.561238" lon="4.775886"><time>2026-05-07T18:27:55Z</time></trkpt>
<trkpt lat="50.561933" lon="4.775243"><time>2026-05-07T18:37:55Z</time></trkpt>
</trkseg>
</trk>
<trk>
<name>nlbmxr10</name>
<cmt>v</cmt>
<desc>Meux Chemin de remembrement n°r10 </desc>
<link href="https://chemins.be/meux/chemin/r10"/><trkseg>
<trkpt lat="50.563144" lon="4.798471"><time>2026-05-07T18:17:55Z</time></trkpt>
<trkpt lat="50.563056" lon="4.798005"><time>2026-05-07T18:27:55Z</time></trkpt>
<trkpt lat="50.562880" lon="4.796817"><time>2026-05-07T18:37:55Z</time></trkpt>
<trkpt lat="50.562941" lon="4.795096"><time>2026-05-07T18:47:55Z</time></trkpt>
<trkpt lat="50.562666" lon="4.793894"><time>2026-05-07T18:57:55Z</time></trkpt>
<trkpt lat="50.560779" lon="4.791111"><time>2026-05-07T19:07:55Z</time></trkpt>
</trkseg>
</trk>
<trk>
<name>nlbmxr11</name>
<cmt>v</cmt>
<desc>Meux Chemin de remembrement n°r11 </desc>
<link href="https://chemins.be/meux/chemin/r11"/><trkseg>
<trkpt lat="50.554814" lon="4.802304"><time>2026-05-07T18:17:55Z</time></trkpt>
<trkpt lat="50.556887" lon="4.800686"><time>2026-05-07T18:27:55Z</time></trkpt>
</trkseg>
</trk>
<trk>
<name>nlbmxr12</name>
<cmt>v</cmt>
<desc>Meux Chemin de remembrement n°r12 </desc>
<link href="https://chemins.be/meux/chemin/r12"/><trkseg>
<trkpt lat="50.559149" lon="4.766426"><time>2026-05-07T18:17:55Z</time></trkpt>
<trkpt lat="50.558371" lon="4.765192"><time>2026-05-07T18:27:55Z</time></trkpt>
<trkpt lat="50.557540" lon="4.763816"><time>2026-05-07T18:37:55Z</time></trkpt>
</trkseg>
</trk>
<trk>
<name>nlbmxr13</name>
<cmt>v</cmt>
<desc>Meux Chemin de remembrement n°r13 </desc>
<link href="https://chemins.be/meux/chemin/r13"/><trkseg>
<trkpt lat="50.557468" lon="4.769164"><time>2026-05-07T18:17:55Z</time></trkpt>
<trkpt lat="50.556510" lon="4.767886"><time>2026-05-07T18:27:55Z</time></trkpt>
<trkpt lat="50.555696" lon="4.766849"><time>2026-05-07T18:37:55Z</time></trkpt>
<trkpt lat="50.555015" lon="4.765940"><time>2026-05-07T18:47:55Z</time></trkpt>
<trkpt lat="50.554072" lon="4.765819"><time>2026-05-07T18:57:55Z</time></trkpt>
</trkseg>
</trk>
<trk>
<name>nlbmxr14</name>
<cmt>v</cmt>
<desc>Meux Chemin de remembrement n°r14 </desc>
<link href="https://chemins.be/meux/chemin/r14"/><trkseg>
<trkpt lat="50.555641" lon="4.772140"><time>2026-05-07T18:17:55Z</time></trkpt>
<trkpt lat="50.553493" lon="4.769384"><time>2026-05-07T18:27:55Z</time></trkpt>
<trkpt lat="50.552321" lon="4.767695"><time>2026-05-07T18:37:55Z</time></trkpt>
</trkseg>
</trk>
<trk>
<name>nlbmxr15</name>
<cmt>v</cmt>
<desc>Meux Chemin de remembrement n°r15 </desc>
<link href="https://chemins.be/meux/chemin/r15"/><trkseg>
<trkpt lat="50.548557" lon="4.777272"><time>2026-05-07T18:17:55Z</time></trkpt>
<trkpt lat="50.551984" lon="4.771700"><time>2026-05-07T18:27:55Z</time></trkpt>
<trkpt lat="50.553529" lon="4.769342"><time>2026-05-07T18:37:55Z</time></trkpt>
</trkseg>
</trk>
<trk>
<name>nlbmxr16</name>
<cmt>v</cmt>
<desc>Meux Chemin de remembrement n°r16 </desc>
<link href="https://chemins.be/meux/chemin/r16"/><trkseg>
<trkpt lat="50.549900" lon="4.768493"><time>2026-05-07T18:17:55Z</time></trkpt>
<trkpt lat="50.550884" lon="4.769842"><time>2026-05-07T18:27:55Z</time></trkpt>
<trkpt lat="50.552029" lon="4.771615"><time>2026-05-07T18:37:55Z</time></trkpt>
</trkseg>
</trk>
<trk>
<name>nlbmxr17</name>
<cmt>r</cmt>
<desc>Meux Chemin de remembrement n°r17 Rue Ange du Paradis</desc>
<link href="https://chemins.be/meux/chemin/r17"/><trkseg>
<trkpt lat="50.547260" lon="4.775300"><time>2026-05-07T18:17:55Z</time></trkpt>
<trkpt lat="50.549599" lon="4.769887"><time>2026-05-07T18:27:55Z</time></trkpt>
<trkpt lat="50.549864" lon="4.768450"><time>2026-05-07T18:37:55Z</time></trkpt>
<trkpt lat="50.550253" lon="4.767762"><time>2026-05-07T18:47:55Z</time></trkpt>
</trkseg>
</trk>
<trk>
<name>nlbmxr2</name>
<cmt>r</cmt>
<desc>Meux Chemin de remembrement n°r2 Chemin de Remembrement II / Unnamed Road</desc>
<link href="https://chemins.be/meux/chemin/r2"/><trkseg>
<trkpt lat="50.550533" lon="4.780478"><time>2026-05-07T18:17:55Z</time></trkpt>
<trkpt lat="50.555668" lon="4.772140"><time>2026-05-07T18:27:55Z</time></trkpt>
<trkpt lat="50.557450" lon="4.769121"><time>2026-05-07T18:37:55Z</time></trkpt>
</trkseg></trk>
<trk>
<name>nlbmxr2</name>
<cmt>v</cmt>
<desc>Meux Chemin de remembrement n°r2 Chemin de Remembrement II / Unnamed Road</desc>
<link href="https://chemins.be/meux/chemin/r2"/><trkseg>
<trkpt lat="50.557450" lon="4.769121"><time>2026-05-07T18:37:55Z</time></trkpt>
<trkpt lat="50.559131" lon="4.766567"><time>2026-05-07T18:47:55Z</time></trkpt>
</trkseg>
</trk>
<trk>
<name>nlbmxr2bis</name>
<cmt>v</cmt>
<desc>Meux Chemin de remembrement n°r2bis </desc>
<link href="https://chemins.be/meux/chemin/r2bis"/><trkseg>
<trkpt lat="50.541405" lon="4.810449"><time>2026-05-07T18:17:55Z</time></trkpt>
<trkpt lat="50.542686" lon="4.811759"><time>2026-05-07T18:27:55Z</time></trkpt>
</trkseg>
</trk>
<trk>
<name>nlbmxr3</name>
<cmt>r</cmt>
<desc>Meux Chemin de remembrement n°r3 Rue du Vieux Raucourt</desc>
<link href="https://chemins.be/meux/chemin/r3"/><trkseg>
<trkpt lat="50.538884" lon="4.811554"><time>2026-05-07T18:17:55Z</time></trkpt>
<trkpt lat="50.542140" lon="4.815788"><time>2026-05-07T18:27:55Z</time></trkpt>
</trkseg>
</trk>
<trk>
<name>nlbmxr4</name>
<cmt>r</cmt>
<desc>Meux Chemin de remembrement n°r4 </desc>
<link href="https://chemins.be/meux/chemin/r4"/><trkseg>
<trkpt lat="50.536014" lon="4.821528"><time>2026-05-07T18:17:55Z</time></trkpt>
<trkpt lat="50.533665" lon="4.817443"><time>2026-05-07T18:27:55Z</time></trkpt>
</trkseg>
</trk>
<trk>
<name>nlbmxr8</name>
<cmt>v</cmt>
<desc>Meux Chemin de remembrement n°r8 </desc>
<link href="https://chemins.be/meux/chemin/r8"/><trkseg>
<trkpt lat="50.566620" lon="4.784571"><time>2026-05-07T18:17:55Z</time></trkpt>
<trkpt lat="50.563920" lon="4.780609"><time>2026-05-07T18:27:55Z</time></trkpt>
<trkpt lat="50.563310" lon="4.779715"><time>2026-05-07T18:37:55Z</time></trkpt>
</trkseg>
</trk>
<trk>
<name>nlbmxr9</name>
<cmt>v</cmt>
<desc>Meux Chemin de remembrement n°r9 </desc>
<link href="https://chemins.be/meux/chemin/r9"/><trkseg>
<trkpt lat="50.562912" lon="4.788081"><time>2026-05-07T18:17:55Z</time></trkpt>
<trkpt lat="50.560994" lon="4.783816"><time>2026-05-07T18:27:55Z</time></trkpt>
<trkpt lat="50.559853" lon="4.781265"><time>2026-05-07T18:37:55Z</time></trkpt>
<trkpt lat="50.561906" lon="4.780196"><time>2026-05-07T18:47:55Z</time></trkpt>
<trkpt lat="50.561247" lon="4.775928"><time>2026-05-07T18:57:55Z</time></trkpt>
</trkseg>
</trk>
<trk>
<name>nlbrh1</name>
<cmt>s</cmt>
<desc>Rhisnes Chemin n°1 Chemin de Gembloux</desc>
<link href="https://chemins.be/rhisnes/chemin/1"/><trkseg>
<trkpt lat="50.501480" lon="4.793301"><time>2026-05-07T18:17:55Z</time></trkpt>
<trkpt lat="50.502201" lon="4.792941"><time>2026-05-07T18:27:55Z</time></trkpt>
</trkseg></trk>
<trk>
<name>nlbrh1</name>
<cmt>r</cmt>
<desc>Rhisnes Chemin n°1 Chemin de Gembloux</desc>
<link href="https://chemins.be/rhisnes/chemin/1"/><trkseg>
<trkpt lat="50.502201" lon="4.792941"><time>2026-05-07T18:27:55Z</time></trkpt>
<trkpt lat="50.503471" lon="4.792304"><time>2026-05-07T18:37:55Z</time></trkpt>
<trkpt lat="50.504182" lon="4.792099"><time>2026-05-07T18:47:55Z</time></trkpt>
<trkpt lat="50.504930" lon="4.791443"><time>2026-05-07T18:57:55Z</time></trkpt>
<trkpt lat="50.505131" lon="4.790627"><time>2026-05-07T19:07:55Z</time></trkpt>
<trkpt lat="50.505720" lon="4.789336"><time>2026-05-07T19:17:55Z</time></trkpt>
<trkpt lat="50.505910" lon="4.789098"><time>2026-05-07T19:27:55Z</time></trkpt>
</trkseg></trk>
<trk>
<name>nlbrh1</name>
<cmt>s</cmt>
<desc>Rhisnes Chemin n°1 Chemin de Gembloux</desc>
<link href="https://chemins.be/rhisnes/chemin/1"/><trkseg>
<trkpt lat="50.505910" lon="4.789098"><time>2026-05-07T19:27:55Z</time></trkpt>
<trkpt lat="50.506877" lon="4.787683"><time>2026-05-07T19:37:55Z</time></trkpt>
<trkpt lat="50.507319" lon="4.787151"><time>2026-05-07T19:47:55Z</time></trkpt>
<trkpt lat="50.507790" lon="4.786380"><time>2026-05-07T19:57:55Z</time></trkpt>
<trkpt lat="50.507998" lon="4.785902"><time>2026-05-07T20:07:55Z</time></trkpt>
<trkpt lat="50.508832" lon="4.783936"><time>2026-05-07T20:17:55Z</time></trkpt>
</trkseg>
</trk>
<trk>
<name>nlbrh10</name>
<cmt>v</cmt>
<desc>Rhisnes Chemin n°10 Campagne de la Falise</desc>
<link href="https://chemins.be/rhisnes/chemin/10"/><trkseg>
<trkpt lat="50.495306" lon="4.818954"><time>2026-05-07T18:17:55Z</time></trkpt>
<trkpt lat="50.496297" lon="4.820838"><time>2026-05-07T18:27:55Z</time></trkpt>
<trkpt lat="50.497315" lon="4.822553"><time>2026-05-07T18:37:55Z</time></trkpt>
<trkpt lat="50.499628" lon="4.826480"><time>2026-05-07T18:47:55Z</time></trkpt>
<trkpt lat="50.501539" lon="4.829726"><time>2026-05-07T18:57:55Z</time></trkpt>
<trkpt lat="50.504075" lon="4.834191"><time>2026-05-07T19:07:55Z</time></trkpt>
</trkseg>
</trk>
<trk>
<name>nlbrh11</name>
<cmt>v</cmt>
<desc>Rhisnes Chemin n°11 Moulin</desc>
<link href="https://chemins.be/rhisnes/chemin/11"/><trkseg>
<trkpt lat="50.488135" lon="4.822775"><time>2026-05-07T18:17:55Z</time></trkpt>
<trkpt lat="50.488491" lon="4.821426"><time>2026-05-07T18:27:55Z</time></trkpt>
<trkpt lat="50.489055" lon="4.819796"><time>2026-05-07T18:37:55Z</time></trkpt>
<trkpt lat="50.489388" lon="4.819503"><time>2026-05-07T18:47:55Z</time></trkpt>
<trkpt lat="50.490019" lon="4.819312"><time>2026-05-07T18:57:55Z</time></trkpt>
<trkpt lat="50.491046" lon="4.821098"><time>2026-05-07T19:07:55Z</time></trkpt>
<trkpt lat="50.491593" lon="4.821328"><time>2026-05-07T19:17:55Z</time></trkpt>
<trkpt lat="50.492062" lon="4.821079"><time>2026-05-07T19:27:55Z</time></trkpt>
<trkpt lat="50.492718" lon="4.820959"><time>2026-05-07T19:37:55Z</time></trkpt>
</trkseg></trk>
<trk>
<name>nlbrh11</name>
<cmt>s</cmt>
<desc>Rhisnes Chemin n°11 Moulin</desc>
<link href="https://chemins.be/rhisnes/chemin/11"/><trkseg>
<trkpt lat="50.492718" lon="4.820959"><time>2026-05-07T19:37:55Z</time></trkpt>
<trkpt lat="50.492941" lon="4.819185"><time>2026-05-07T19:47:55Z</time></trkpt>
<trkpt lat="50.493362" lon="4.817300"><time>2026-05-07T19:57:55Z</time></trkpt>
<trkpt lat="50.493686" lon="4.817050"><time>2026-05-07T20:07:55Z</time></trkpt>
<trkpt lat="50.494148" lon="4.816124"><time>2026-05-07T20:17:55Z</time></trkpt>
<trkpt lat="50.494476" lon="4.815098"><time>2026-05-07T20:27:55Z</time></trkpt>
<trkpt lat="50.494172" lon="4.814644"><time>2026-05-07T20:37:55Z</time></trkpt>
<trkpt lat="50.493994" lon="4.814121"><time>2026-05-07T20:47:55Z</time></trkpt>
<trkpt lat="50.493692" lon="4.813371"><time>2026-05-07T20:57:55Z</time></trkpt>
</trkseg>
</trk>
<trk>
<name>nlbrh12</name>
<cmt>s</cmt>
<desc>Rhisnes Chemin n°12 Bois d'Hulplanche</desc>
<link href="https://chemins.be/rhisnes/chemin/12"/><trkseg>
<trkpt lat="50.501829" lon="4.817634"><time>2026-05-07T18:17:55Z</time></trkpt>
<trkpt lat="50.502236" lon="4.817201"><time>2026-05-07T18:27:55Z</time></trkpt>
<trkpt lat="50.502660" lon="4.816768"><time>2026-05-07T18:37:55Z</time></trkpt>
<trkpt lat="50.504500" lon="4.815108"><time>2026-05-07T18:47:55Z</time></trkpt>
</trkseg>
</trk>
<trk>
<name>nlbrh13</name>
<cmt>r</cmt>
<desc>Rhisnes Chemin n°13 Rue aux Cailloux</desc>
<link href="https://chemins.be/rhisnes/chemin/13"/><trkseg>
<trkpt lat="50.503635" lon="4.796450"><time>2026-05-07T18:17:55Z</time></trkpt>
<trkpt lat="50.502281" lon="4.793083"><time>2026-05-07T18:27:55Z</time></trkpt>
</trkseg>
</trk>
<trk>
<name>nlbrh13bis</name>
<cmt>s</cmt>
<desc>Rhisnes Chemin n°13bis Noirvy (?)</desc>
<link href="https://chemins.be/rhisnes/chemin/13bis"/><trkseg>
<trkpt lat="50.491560" lon="4.806558"><time>2026-05-07T18:17:55Z</time></trkpt>
<trkpt lat="50.490205" lon="4.808096"><time>2026-05-07T18:27:55Z</time></trkpt>
<trkpt lat="50.489202" lon="4.809397"><time>2026-05-07T18:37:55Z</time></trkpt>
<trkpt lat="50.488732" lon="4.810098"><time>2026-05-07T18:47:55Z</time></trkpt>
<trkpt lat="50.488154" lon="4.810938"><time>2026-05-07T18:57:55Z</time></trkpt>
<trkpt lat="50.487476" lon="4.811819"><time>2026-05-07T19:07:55Z</time></trkpt>
<trkpt lat="50.486914" lon="4.813124"><time>2026-05-07T19:17:55Z</time></trkpt>
<trkpt lat="50.486523" lon="4.814079"><time>2026-05-07T19:27:55Z</time></trkpt>
<trkpt lat="50.486196" lon="4.814950"><time>2026-05-07T19:37:55Z</time></trkpt>
<trkpt lat="50.485861" lon="4.815736"><time>2026-05-07T19:47:55Z</time></trkpt>
<trkpt lat="50.485499" lon="4.816394"><time>2026-05-07T19:57:55Z</time></trkpt>
<trkpt lat="50.485434" lon="4.816915"><time>2026-05-07T20:07:55Z</time></trkpt>
<trkpt lat="50.485206" lon="4.817604"><time>2026-05-07T20:17:55Z</time></trkpt>
<trkpt lat="50.485086" lon="4.818504"><time>2026-05-07T20:27:55Z</time></trkpt>
<trkpt lat="50.484912" lon="4.819292"><time>2026-05-07T20:37:55Z</time></trkpt>
<trkpt lat="50.484640" lon="4.819825"><time>2026-05-07T20:47:55Z</time></trkpt>
<trkpt lat="50.484253" lon="4.820075"><time>2026-05-07T20:57:55Z</time></trkpt>
</trkseg>
</trk>
<trk>
<name>nlbrh14</name>
<cmt>v</cmt>
<desc>Rhisnes Chemin n°14 Bovesse</desc>
<link href="https://chemins.be/rhisnes/chemin/14"/><trkseg>
<trkpt lat="50.507700" lon="4.786224"><time>2026-05-07T18:17:55Z</time></trkpt>
<trkpt lat="50.509433" lon="4.784434"><time>2026-05-07T18:27:55Z</time></trkpt>
</trkseg>
</trk>
<trk>
<name>nlbrh15</name>
<cmt>r</cmt>
<desc>Rhisnes Chemin n°15 Rue aux Cailloux</desc>
<link href="https://chemins.be/rhisnes/chemin/15"/><trkseg>
<trkpt lat="50.503744" lon="4.796381"><time>2026-05-07T18:17:55Z</time></trkpt>
<trkpt lat="50.505354" lon="4.798538"><time>2026-05-07T18:27:55Z</time></trkpt>
<trkpt lat="50.505894" lon="4.798331"><time>2026-05-07T18:37:55Z</time></trkpt>
<trkpt lat="50.506046" lon="4.798629"><time>2026-05-07T18:47:55Z</time></trkpt>
<trkpt lat="50.506266" lon="4.799914"><time>2026-05-07T18:57:55Z</time></trkpt>
</trkseg>
</trk>
<trk>
<name>nlbrh16</name>
<cmt>r</cmt>
<desc>Rhisnes Chemin n°16 Rue des Chômeurs</desc>
<link href="https://chemins.be/rhisnes/chemin/16"/><trkseg>
<trkpt lat="50.503689" lon="4.796662"><time>2026-05-07T18:17:55Z</time></trkpt>
<trkpt lat="50.503378" lon="4.798111"><time>2026-05-07T18:27:55Z</time></trkpt>
<trkpt lat="50.504231" lon="4.800769"><time>2026-05-07T18:37:55Z</time></trkpt>
<trkpt lat="50.503922" lon="4.801584"><time>2026-05-07T18:47:55Z</time></trkpt>
<trkpt lat="50.504539" lon="4.802619"><time>2026-05-07T18:57:55Z</time></trkpt>
<trkpt lat="50.504464" lon="4.803210"><time>2026-05-07T19:07:55Z</time></trkpt>
<trkpt lat="50.504867" lon="4.803679"><time>2026-05-07T19:17:55Z</time></trkpt>
</trkseg>
</trk>
<trk>
<name>nlbrh17</name>
<cmt>r</cmt>
<desc>Rhisnes Chemin n°17 Curé</desc>
<link href="https://chemins.be/rhisnes/chemin/17"/><trkseg>
<trkpt lat="50.504325" lon="4.804393"><time>2026-05-07T18:17:55Z</time></trkpt>
<trkpt lat="50.504804" lon="4.803862"><time>2026-05-07T18:27:55Z</time></trkpt>
<trkpt lat="50.504912" lon="4.803609"><time>2026-05-07T18:37:55Z</time></trkpt>
<trkpt lat="50.505703" lon="4.801473"><time>2026-05-07T18:47:55Z</time></trkpt>
<trkpt lat="50.506347" lon="4.799872"><time>2026-05-07T18:57:55Z</time></trkpt>
<trkpt lat="50.507674" lon="4.798305"><time>2026-05-07T19:07:55Z</time></trkpt>
</trkseg>
</trk>
<trk>
<name>nlbrh18</name>
<cmt>s</cmt>
<desc>Rhisnes Chemin n°18 Forge</desc>
<link href="https://chemins.be/rhisnes/chemin/18"/><trkseg>
<trkpt lat="50.507753" lon="4.786562"><time>2026-05-07T18:17:55Z</time></trkpt>
<trkpt lat="50.507851" lon="4.789397"><time>2026-05-07T18:27:55Z</time></trkpt>
<trkpt lat="50.507748" lon="4.790453"><time>2026-05-07T18:37:55Z</time></trkpt>
<trkpt lat="50.507563" lon="4.791946"><time>2026-05-07T18:47:55Z</time></trkpt>
<trkpt lat="50.507666" lon="4.793145"><time>2026-05-07T18:57:55Z</time></trkpt>
<trkpt lat="50.507885" lon="4.794684"><time>2026-05-07T19:07:55Z</time></trkpt>
<trkpt lat="50.508160" lon="4.795843"><time>2026-05-07T19:17:55Z</time></trkpt>
<trkpt lat="50.508568" lon="4.797186"><time>2026-05-07T19:27:55Z</time></trkpt>
<trkpt lat="50.508613" lon="4.797397"><time>2026-05-07T19:37:55Z</time></trkpt>
</trkseg></trk>
<trk>
<name>nlbrh18</name>
<cmt>r</cmt>
<desc>Rhisnes Chemin n°18 Forge</desc>
<link href="https://chemins.be/rhisnes/chemin/18"/><trkseg>
<trkpt lat="50.508613" lon="4.797397"><time>2026-05-07T19:37:55Z</time></trkpt>
<trkpt lat="50.507818" lon="4.798293"><time>2026-05-07T19:47:55Z</time></trkpt>
</trkseg>
</trk>
<trk>
<name>nlbrh19</name>
<cmt>v</cmt>
<desc>Rhisnes Chemin n°19 Tige des Meuniers</desc>
<link href="https://chemins.be/rhisnes/chemin/19"/><trkseg>
<trkpt lat="50.498745" lon="4.803538"><time>2026-05-07T18:17:55Z</time></trkpt>
<trkpt lat="50.498501" lon="4.804086"><time>2026-05-07T18:27:55Z</time></trkpt>
<trkpt lat="50.497795" lon="4.805277"><time>2026-05-07T18:37:55Z</time></trkpt>
</trkseg></trk>
<trk>
<name>nlbrh19</name>
<cmt>s</cmt>
<desc>Rhisnes Chemin n°19 Tige des Meuniers</desc>
<link href="https://chemins.be/rhisnes/chemin/19"/><trkseg>
<trkpt lat="50.497795" lon="4.805277"><time>2026-05-07T18:37:55Z</time></trkpt>
<trkpt lat="50.496820" lon="4.806410"><time>2026-05-07T18:47:55Z</time></trkpt>
<trkpt lat="50.496287" lon="4.806884"><time>2026-05-07T18:57:55Z</time></trkpt>
<trkpt lat="50.495665" lon="4.807541"><time>2026-05-07T19:07:55Z</time></trkpt>
<trkpt lat="50.495113" lon="4.808381"><time>2026-05-07T19:17:55Z</time></trkpt>
<trkpt lat="50.494679" lon="4.809054"><time>2026-05-07T19:27:55Z</time></trkpt>
<trkpt lat="50.494387" lon="4.810165"><time>2026-05-07T19:37:55Z</time></trkpt>
<trkpt lat="50.494438" lon="4.810884"><time>2026-05-07T19:47:55Z</time></trkpt>
<trkpt lat="50.494391" lon="4.811518"><time>2026-05-07T19:57:55Z</time></trkpt>
<trkpt lat="50.494127" lon="4.812304"><time>2026-05-07T20:07:55Z</time></trkpt>
<trkpt lat="50.493604" lon="4.812863"><time>2026-05-07T20:17:55Z</time></trkpt>
</trkseg>
</trk>
<trk>
<name>nlbrh2</name>
<cmt>s</cmt>
<desc>Rhisnes Chemin n°2 Bruyères</desc>
<link href="https://chemins.be/rhisnes/chemin/2"/><trkseg>
<trkpt lat="50.495023" lon="4.776302"><time>2026-05-07T18:17:55Z</time></trkpt>
<trkpt lat="50.496768" lon="4.776233"><time>2026-05-07T18:27:55Z</time></trkpt>
<trkpt lat="50.498497" lon="4.775416"><time>2026-05-07T18:37:55Z</time></trkpt>
<trkpt lat="50.500007" lon="4.775471"><time>2026-05-07T18:47:55Z</time></trkpt>
<trkpt lat="50.500366" lon="4.775488"><time>2026-05-07T18:57:55Z</time></trkpt>
</trkseg></trk>
<trk>
<name>nlbrh2</name>
<cmt>r</cmt>
<desc>Rhisnes Chemin n°2 Bruyères</desc>
<link href="https://chemins.be/rhisnes/chemin/2"/><trkseg>
<trkpt lat="50.500366" lon="4.775488"><time>2026-05-07T18:57:55Z</time></trkpt>
<trkpt lat="50.501293" lon="4.775412"><time>2026-05-07T19:07:55Z</time></trkpt>
<trkpt lat="50.502112" lon="4.774968"><time>2026-05-07T19:17:55Z</time></trkpt>
</trkseg></trk>
<trk>
<name>nlbrh2</name>
<cmt>v</cmt>
<desc>Rhisnes Chemin n°2 Bruyères</desc>
<link href="https://chemins.be/rhisnes/chemin/2"/><trkseg>
<trkpt lat="50.502112" lon="4.774968"><time>2026-05-07T19:17:55Z</time></trkpt>
<trkpt lat="50.504210" lon="4.774182"><time>2026-05-07T19:27:55Z</time></trkpt>
<trkpt lat="50.506251" lon="4.774172"><time>2026-05-07T19:37:55Z</time></trkpt>
</trkseg>
</trk>
<trk>
<name>nlbrh20</name>
<cmt>s</cmt>
<desc>Rhisnes Chemin n°20 Ruelle Bouet</desc>
<link href="https://chemins.be/rhisnes/chemin/20"/><trkseg>
<trkpt lat="50.508414" lon="4.800018"><time>2026-05-07T18:17:55Z</time></trkpt>
<trkpt lat="50.507286" lon="4.801107"><time>2026-05-07T18:27:55Z</time></trkpt>
<trkpt lat="50.506485" lon="4.801537"><time>2026-05-07T18:37:55Z</time></trkpt>
<trkpt lat="50.506249" lon="4.802071"><time>2026-05-07T18:47:55Z</time></trkpt>
</trkseg>
</trk>
<trk>
<name>nlbrh21</name>
<cmt>r</cmt>
<desc>Rhisnes Chemin n°21 Trieux</desc>
<link href="https://chemins.be/rhisnes/chemin/21"/><trkseg>
<trkpt lat="50.505747" lon="4.801502"><time>2026-05-07T18:17:55Z</time></trkpt>
<trkpt lat="50.506516" lon="4.802862"><time>2026-05-07T18:27:55Z</time></trkpt>
<trkpt lat="50.507197" lon="4.803348"><time>2026-05-07T18:37:55Z</time></trkpt>
<trkpt lat="50.507674" lon="4.803338"><time>2026-05-07T18:47:55Z</time></trkpt>
<trkpt lat="50.507897" lon="4.803650"><time>2026-05-07T18:57:55Z</time></trkpt>
<trkpt lat="50.507823" lon="4.804214"><time>2026-05-07T19:07:55Z</time></trkpt>
<trkpt lat="50.506783" lon="4.805966"><time>2026-05-07T19:17:55Z</time></trkpt>
</trkseg>
</trk>
<trk>
<name>nlbrh22</name>
<cmt>r</cmt>
<desc>Rhisnes Chemin n°22 Fossion</desc>
<link href="https://chemins.be/rhisnes/chemin/22"/><trkseg>
<trkpt lat="50.509064" lon="4.801814"><time>2026-05-07T18:17:55Z</time></trkpt>
<trkpt lat="50.507856" lon="4.802593"><time>2026-05-07T18:27:55Z</time></trkpt>
<trkpt lat="50.507656" lon="4.803352"><time>2026-05-07T18:37:55Z</time></trkpt>
</trkseg>
</trk>
<trk>
<name>nlbrh23</name>
<cmt>r</cmt>
<desc>Rhisnes Chemin n°23 Chenia</desc>
<link href="https://chemins.be/rhisnes/chemin/23"/><trkseg>
<trkpt lat="50.504158" lon="4.788786"><time>2026-05-07T18:17:55Z</time></trkpt>
<trkpt lat="50.505113" lon="4.790557"><time>2026-05-07T18:27:55Z</time></trkpt>
</trkseg>
</trk>
<trk>
<name>nlbrh24</name>
<cmt>r</cmt>
<desc>Rhisnes Chemin n°24 Rue de Suarlée / ?</desc>
<link href="https://chemins.be/rhisnes/chemin/24"/><trkseg>
<trkpt lat="50.499330" lon="4.798540"><time>2026-05-07T18:17:55Z</time></trkpt>
<trkpt lat="50.498874" lon="4.797887"><time>2026-05-07T18:27:55Z</time></trkpt>
<trkpt lat="50.497973" lon="4.798415"><time>2026-05-07T18:37:55Z</time></trkpt>
<trkpt lat="50.497214" lon="4.797210"><time>2026-05-07T18:47:55Z</time></trkpt>
<trkpt lat="50.495777" lon="4.796576"><time>2026-05-07T18:57:55Z</time></trkpt>
</trkseg></trk>
<trk>
<name>nlbrh24</name>
<cmt>s</cmt>
<desc>Rhisnes Chemin n°24 Rue de Suarlée / ?</desc>
<link href="https://chemins.be/rhisnes/chemin/24"/><trkseg>
<trkpt lat="50.495777" lon="4.796576"><time>2026-05-07T18:57:55Z</time></trkpt>
<trkpt lat="50.494675" lon="4.795636"><time>2026-05-07T19:07:55Z</time></trkpt>
<trkpt lat="50.494193" lon="4.794814"><time>2026-05-07T19:17:55Z</time></trkpt>
<trkpt lat="50.493998" lon="4.793925"><time>2026-05-07T19:27:55Z</time></trkpt>
</trkseg>
</trk>
<trk>
<name>nlbrh25</name>
<cmt>r</cmt>
<desc>Rhisnes Chemin n°25 Etroite Ruelle</desc>
<link href="https://chemins.be/rhisnes/chemin/25"/><trkseg>
<trkpt lat="50.504849" lon="4.791527"><time>2026-05-07T18:17:55Z</time></trkpt>
<trkpt lat="50.506142" lon="4.794612"><time>2026-05-07T18:27:55Z</time></trkpt>
</trkseg>
</trk>
<trk>
<name>nlbrh26</name>
<cmt>v</cmt>
<desc>Rhisnes Chemin n°26 Hulplanche à la Falise</desc>
<link href="https://chemins.be/rhisnes/chemin/26"/><trkseg>
<trkpt lat="50.501993" lon="4.817298"><time>2026-05-07T18:17:55Z</time></trkpt>
<trkpt lat="50.499573" lon="4.819981"><time>2026-05-07T18:27:55Z</time></trkpt>
<trkpt lat="50.497333" lon="4.822525"><time>2026-05-07T18:37:55Z</time></trkpt>
</trkseg>
</trk>
<trk>
<name>nlbrh27</name>
<cmt>s</cmt>
<desc>Rhisnes Chemin n°27 Falise</desc>
<link href="https://chemins.be/rhisnes/chemin/27"/><trkseg>
<trkpt lat="50.493215" lon="4.817990"><time>2026-05-07T18:17:55Z</time></trkpt>
<trkpt lat="50.493392" lon="4.818668"><time>2026-05-07T18:27:55Z</time></trkpt>
<trkpt lat="50.494074" lon="4.818998"><time>2026-05-07T18:37:55Z</time></trkpt>
</trkseg></trk>
<trk>
<name>nlbrh27</name>
<cmt>v</cmt>
<desc>Rhisnes Chemin n°27 Falise</desc>
<link href="https://chemins.be/rhisnes/chemin/27"/><trkseg>
<trkpt lat="50.494074" lon="4.818998"><time>2026-05-07T18:37:55Z</time></trkpt>
<trkpt lat="50.494318" lon="4.818846"><time>2026-05-07T18:47:55Z</time></trkpt>
<trkpt lat="50.494561" lon="4.818834"><time>2026-05-07T18:57:55Z</time></trkpt>
<trkpt lat="50.495314" lon="4.818979"><time>2026-05-07T19:07:55Z</time></trkpt>
</trkseg>
</trk>
<trk>
<name>nlbrh28</name>
<cmt>s</cmt>
<desc>Rhisnes Chemin n°28 Commune d'Artey</desc>
<link href="https://chemins.be/rhisnes/chemin/28"/><trkseg>
<trkpt lat="50.492055" lon="4.815907"><time>2026-05-07T18:17:55Z</time></trkpt>
<trkpt lat="50.491606" lon="4.815593"><time>2026-05-07T18:27:55Z</time></trkpt>
<trkpt lat="50.490776" lon="4.814105"><time>2026-05-07T18:37:55Z</time></trkpt>
<trkpt lat="50.490579" lon="4.813878"><time>2026-05-07T18:47:55Z</time></trkpt>
<trkpt lat="50.490264" lon="4.813917"><time>2026-05-07T18:57:55Z</time></trkpt>
<trkpt lat="50.489995" lon="4.813689"><time>2026-05-07T19:07:55Z</time></trkpt>
<trkpt lat="50.488787" lon="4.809887"><time>2026-05-07T19:17:55Z</time></trkpt>
</trkseg>
</trk>
<trk>
<name>nlbrh29</name>
<cmt>s</cmt>
<desc>Rhisnes Chemin n°29 Fontaine au Corbeaux</desc>
<link href="https://chemins.be/rhisnes/chemin/29"/><trkseg>
<trkpt lat="50.487811" lon="4.811287"><time>2026-05-07T18:17:55Z</time></trkpt>
<trkpt lat="50.487175" lon="4.810619"><time>2026-05-07T18:27:55Z</time></trkpt>
<trkpt lat="50.486727" lon="4.810290"><time>2026-05-07T18:37:55Z</time></trkpt>
<trkpt lat="50.486135" lon="4.809763"><time>2026-05-07T18:47:55Z</time></trkpt>
<trkpt lat="50.485813" lon="4.809450"><time>2026-05-07T18:57:55Z</time></trkpt>
</trkseg>
</trk>
<trk>
<name>nlbrh3</name>
<cmt>s</cmt>
<desc>Rhisnes Chemin n°3 Basse Chaussée</desc>
<link href="https://chemins.be/rhisnes/chemin/3"/><trkseg>
<trkpt lat="50.495041" lon="4.776246"><time>2026-05-07T18:17:55Z</time></trkpt>
<trkpt lat="50.496027" lon="4.779637"><time>2026-05-07T18:27:55Z</time></trkpt>
<trkpt lat="50.497301" lon="4.783017"><time>2026-05-07T18:37:55Z</time></trkpt>
<trkpt lat="50.497771" lon="4.784727"><time>2026-05-07T18:47:55Z</time></trkpt>
</trkseg></trk>
<trk>
<name>nlbrh3</name>
<cmt>v</cmt>
<desc>Rhisnes Chemin n°3 Basse Chaussée</desc>
<link href="https://chemins.be/rhisnes/chemin/3"/><trkseg>
<trkpt lat="50.497771" lon="4.784727"><time>2026-05-07T18:47:55Z</time></trkpt>
<trkpt lat="50.497930" lon="4.785700"><time>2026-05-07T18:57:55Z</time></trkpt>
<trkpt lat="50.498341" lon="4.788861"><time>2026-05-07T19:07:55Z</time></trkpt>
<trkpt lat="50.498751" lon="4.789809"><time>2026-05-07T19:17:55Z</time></trkpt>
<trkpt lat="50.500831" lon="4.793958"><time>2026-05-07T19:27:55Z</time></trkpt>
</trkseg></trk>
<trk>
<name>nlbrh3</name>
<cmt>r</cmt>
<desc>Rhisnes Chemin n°3 Basse Chaussée</desc>
<link href="https://chemins.be/rhisnes/chemin/3"/><trkseg>
<trkpt lat="50.500831" lon="4.793958"><time>2026-05-07T19:27:55Z</time></trkpt>
<trkpt lat="50.497719" lon="4.799173"><time>2026-05-07T19:37:55Z</time></trkpt>
<trkpt lat="50.499159" lon="4.801439"><time>2026-05-07T19:47:55Z</time></trkpt>
</trkseg></trk>
<trk>
<name>nlbrh3</name>
<cmt>v</cmt>
<desc>Rhisnes Chemin n°3 Basse Chaussée</desc>
<link href="https://chemins.be/rhisnes/chemin/3"/><trkseg>
<trkpt lat="50.499159" lon="4.801439"><time>2026-05-07T19:47:55Z</time></trkpt>
<trkpt lat="50.499425" lon="4.801664"><time>2026-05-07T19:57:55Z</time></trkpt>
<trkpt lat="50.499517" lon="4.802002"><time>2026-05-07T20:07:55Z</time></trkpt>
</trkseg></trk>
<trk>
<name>nlbrh3</name>
<cmt>r</cmt>
<desc>Rhisnes Chemin n°3 Basse Chaussée</desc>
<link href="https://chemins.be/rhisnes/chemin/3"/><trkseg>
<trkpt lat="50.499517" lon="4.802002"><time>2026-05-07T20:07:55Z</time></trkpt>
<trkpt lat="50.499953" lon="4.802689"><time>2026-05-07T20:17:55Z</time></trkpt>
<trkpt lat="50.499430" lon="4.803122"><time>2026-05-07T20:27:55Z</time></trkpt>
</trkseg></trk>
<trk>
<name>nlbrh3</name>
<cmt>s</cmt>
<desc>Rhisnes Chemin n°3 Basse Chaussée</desc>
<link href="https://chemins.be/rhisnes/chemin/3"/><trkseg>
<trkpt lat="50.499430" lon="4.803122"><time>2026-05-07T20:27:55Z</time></trkpt>
<trkpt lat="50.499811" lon="4.804605"><time>2026-05-07T20:37:55Z</time></trkpt>
<trkpt lat="50.500265" lon="4.805836"><time>2026-05-07T20:47:55Z</time></trkpt>
<trkpt lat="50.500505" lon="4.806655"><time>2026-05-07T20:57:55Z</time></trkpt>
<trkpt lat="50.500584" lon="4.807220"><time>2026-05-07T21:07:55Z</time></trkpt>
</trkseg></trk>
<trk>
<name>nlbrh3</name>
<cmt>r</cmt>
<desc>Rhisnes Chemin n°3 Basse Chaussée</desc>
<link href="https://chemins.be/rhisnes/chemin/3"/><trkseg>
<trkpt lat="50.500584" lon="4.807220"><time>2026-05-07T21:07:55Z</time></trkpt>
<trkpt lat="50.500401" lon="4.807937"><time>2026-05-07T21:17:55Z</time></trkpt>
</trkseg></trk>
<trk>
<name>nlbrh3</name>
<cmt>s</cmt>
<desc>Rhisnes Chemin n°3 Basse Chaussée</desc>
<link href="https://chemins.be/rhisnes/chemin/3"/><trkseg>
<trkpt lat="50.500401" lon="4.807937"><time>2026-05-07T21:17:55Z</time></trkpt>
<trkpt lat="50.501000" lon="4.808887"><time>2026-05-07T21:27:55Z</time></trkpt>
<trkpt lat="50.501204" lon="4.809664"><time>2026-05-07T21:37:55Z</time></trkpt>
<trkpt lat="50.500165" lon="4.811022"><time>2026-05-07T21:47:55Z</time></trkpt>
<trkpt lat="50.500192" lon="4.811860"><time>2026-05-07T21:57:55Z</time></trkpt>
</trkseg></trk>
<trk>
<name>nlbrh3</name>
<cmt>v</cmt>
<desc>Rhisnes Chemin n°3 Basse Chaussée</desc>
<link href="https://chemins.be/rhisnes/chemin/3"/><trkseg>
<trkpt lat="50.500192" lon="4.811860"><time>2026-05-07T21:57:55Z</time></trkpt>
<trkpt lat="50.500130" lon="4.812533"><time>2026-05-07T22:07:55Z</time></trkpt>
<trkpt lat="50.500380" lon="4.813420"><time>2026-05-07T22:17:55Z</time></trkpt>
<trkpt lat="50.500725" lon="4.814988"><time>2026-05-07T22:27:55Z</time></trkpt>
<trkpt lat="50.501045" lon="4.815879"><time>2026-05-07T22:37:55Z</time></trkpt>
<trkpt lat="50.501546" lon="4.816659"><time>2026-05-07T22:47:55Z</time></trkpt>
<trkpt lat="50.501902" lon="4.817508"><time>2026-05-07T22:57:55Z</time></trkpt>
<trkpt lat="50.503053" lon="4.824427"><time>2026-05-07T23:07:55Z</time></trkpt>
</trkseg></trk>
<trk>
<name>nlbrh3</name>
<cmt>s</cmt>
<desc>Rhisnes Chemin n°3 Basse Chaussée</desc>
<link href="https://chemins.be/rhisnes/chemin/3"/><trkseg>
<trkpt lat="50.503053" lon="4.824427"><time>2026-05-07T23:07:55Z</time></trkpt>
<trkpt lat="50.503799" lon="4.828902"><time>2026-05-07T23:17:55Z</time></trkpt>
<trkpt lat="50.504193" lon="4.831542"><time>2026-05-07T23:27:55Z</time></trkpt>
</trkseg></trk>
<trk>
<name>nlbrh3</name>
<cmt>d</cmt>
<desc>Rhisnes Chemin n°3 Basse Chaussée</desc>
<link href="https://chemins.be/rhisnes/chemin/3"/><trkseg>
<trkpt lat="50.504193" lon="4.831542"><time>2026-05-07T23:27:55Z</time></trkpt>
<trkpt lat="50.504066" lon="4.834191"><time>2026-05-07T23:37:55Z</time></trkpt>
</trkseg>
</trk>
<trk>
<name>nlbrh30</name>
<cmt>d</cmt>
<desc>Rhisnes Chemin n°30 Taille Michel</desc>
<link href="https://chemins.be/rhisnes/chemin/30"/><trkseg>
<trkpt lat="50.491703" lon="4.818398"><time>2026-05-07T18:17:55Z</time></trkpt>
<trkpt lat="50.491557" lon="4.821272"><time>2026-05-07T18:27:55Z</time></trkpt>
</trkseg>
</trk>
<trk>
<name>nlbrh31</name>
<cmt>r</cmt>
<desc>Rhisnes Chemin n°31 Carrière</desc>
<link href="https://chemins.be/rhisnes/chemin/31"/><trkseg>
<trkpt lat="50.507027" lon="4.805560"><time>2026-05-07T18:17:55Z</time></trkpt>
<trkpt lat="50.507169" lon="4.805942"><time>2026-05-07T18:27:55Z</time></trkpt>
</trkseg>
</trk>
<trk>
<name>nlbrh32</name>
<cmt>q</cmt>
<desc>Rhisnes Sentier n°32 Morivaux</desc>
<link href="https://chemins.be/rhisnes/sentier/32"/><trkseg>
<trkpt lat="50.487263" lon="4.801760"><time>2026-05-07T18:17:55Z</time></trkpt>
<trkpt lat="50.486247" lon="4.801213"><time>2026-05-07T18:27:55Z</time></trkpt>
<trkpt lat="50.484910" lon="4.800566"><time>2026-05-07T18:37:55Z</time></trkpt>
</trkseg></trk>
<trk>
<name>nlbrh32</name>
<cmt>s</cmt>
<desc>Rhisnes Sentier n°32 Morivaux</desc>
<link href="https://chemins.be/rhisnes/sentier/32"/><trkseg>
<trkpt lat="50.484910" lon="4.800566"><time>2026-05-07T18:37:55Z</time></trkpt>
<trkpt lat="50.483411" lon="4.799883"><time>2026-05-07T18:47:55Z</time></trkpt>
<trkpt lat="50.482380" lon="4.799414"><time>2026-05-07T18:57:55Z</time></trkpt>
</trkseg>
</trk>
<trk>
<name>nlbrh33</name>
<cmt>r</cmt>
<desc>Rhisnes Sentier n°33 Cérisiers</desc>
<link href="https://chemins.be/rhisnes/sentier/33"/><trkseg>
<trkpt lat="50.499348" lon="4.798526"><time>2026-05-07T18:17:55Z</time></trkpt>
<trkpt lat="50.499447" lon="4.798639"><time>2026-05-07T18:27:55Z</time></trkpt>
<trkpt lat="50.500043" lon="4.797940"><time>2026-05-07T18:37:55Z</time></trkpt>
<trkpt lat="50.500151" lon="4.797955"><time>2026-05-07T18:47:55Z</time></trkpt>
</trkseg></trk>
<trk>
<name>nlbrh33</name>
<cmt>s</cmt>
<desc>Rhisnes Sentier n°33 Cérisiers</desc>
<link href="https://chemins.be/rhisnes/sentier/33"/><trkseg>
<trkpt lat="50.500151" lon="4.797955"><time>2026-05-07T18:47:55Z</time></trkpt>
<trkpt lat="50.501203" lon="4.797767"><time>2026-05-07T18:57:55Z</time></trkpt>
<trkpt lat="50.502798" lon="4.796837"><time>2026-05-07T19:07:55Z</time></trkpt>
<trkpt lat="50.503492" lon="4.796421"><time>2026-05-07T19:17:55Z</time></trkpt>
</trkseg>
</trk>
<trk>
<name>nlbrh34</name>
<cmt>v</cmt>
<desc>Rhisnes Sentier n°34 Livot</desc>
<link href="https://chemins.be/rhisnes/sentier/34"/><trkseg>
<trkpt lat="50.499437" lon="4.796525"><time>2026-05-07T18:17:55Z</time></trkpt>
<trkpt lat="50.499723" lon="4.796894"><time>2026-05-07T18:27:55Z</time></trkpt>
<trkpt lat="50.499839" lon="4.797163"><time>2026-05-07T18:37:55Z</time></trkpt>
<trkpt lat="50.499935" lon="4.797869"><time>2026-05-07T18:47:55Z</time></trkpt>
<trkpt lat="50.500088" lon="4.797884"><time>2026-05-07T18:57:55Z</time></trkpt>
<trkpt lat="50.500321" lon="4.798083"><time>2026-05-07T19:07:55Z</time></trkpt>
<trkpt lat="50.500562" lon="4.798551"><time>2026-05-07T19:17:55Z</time></trkpt>
<trkpt lat="50.500901" lon="4.799216"><time>2026-05-07T19:27:55Z</time></trkpt>
<trkpt lat="50.501372" lon="4.800172"><time>2026-05-07T19:37:55Z</time></trkpt>
<trkpt lat="50.501662" lon="4.800540"><time>2026-05-07T19:47:55Z</time></trkpt>
<trkpt lat="50.502181" lon="4.800835"><time>2026-05-07T19:57:55Z</time></trkpt>
<trkpt lat="50.502747" lon="4.800925"><time>2026-05-07T20:07:55Z</time></trkpt>
<trkpt lat="50.503106" lon="4.800942"><time>2026-05-07T20:17:55Z</time></trkpt>
<trkpt lat="50.503484" lon="4.800946"><time>2026-05-07T20:27:55Z</time></trkpt>
</trkseg></trk>
<trk>
<name>nlbrh34</name>
<cmt>s</cmt>
<desc>Rhisnes Sentier n°34 Livot</desc>
<link href="https://chemins.be/rhisnes/sentier/34"/><trkseg>
<trkpt lat="50.503484" lon="4.800946"><time>2026-05-07T20:27:55Z</time></trkpt>
<trkpt lat="50.504031" lon="4.801233"><time>2026-05-07T20:37:55Z</time></trkpt>
</trkseg></trk>
<trk>
<name>nlbrh34</name>
<cmt>b</cmt>
<desc>Rhisnes Sentier n°34 Livot</desc>
<link href="https://chemins.be/rhisnes/sentier/34"/><trkseg>
<trkpt lat="50.504031" lon="4.801233"><time>2026-05-07T20:37:55Z</time></trkpt>
<trkpt lat="50.504399" lon="4.801349"><time>2026-05-07T20:47:55Z</time></trkpt>
<trkpt lat="50.505190" lon="4.801455"><time>2026-05-07T20:57:55Z</time></trkpt>
<trkpt lat="50.505181" lon="4.801596"><time>2026-05-07T21:07:55Z</time></trkpt>
<trkpt lat="50.505612" lon="4.801557"><time>2026-05-07T21:17:55Z</time></trkpt>
</trkseg>
</trk>
<trk>
<name>nlbrh35</name>
<cmt>r</cmt>
<desc>Rhisnes Sentier n°35 Dessous les jardins du rivage</desc>
<link href="https://chemins.be/rhisnes/sentier/35"/><trkseg>
<trkpt lat="50.501723" lon="4.800507"><time>2026-05-07T18:17:55Z</time></trkpt>
<trkpt lat="50.499909" lon="4.802478"><time>2026-05-07T18:27:55Z</time></trkpt>
</trkseg>
</trk>
<trk>
<name>nlbrh36</name>
<cmt>s</cmt>
<desc>Rhisnes Sentier n°36 Grand pachis</desc>
<link href="https://chemins.be/rhisnes/sentier/36"/><trkseg>
<trkpt lat="50.504557" lon="4.802534"><time>2026-05-07T18:17:55Z</time></trkpt>
<trkpt lat="50.505109" lon="4.801496"><time>2026-05-07T18:27:55Z</time></trkpt>
<trkpt lat="50.506039" lon="4.800490"><time>2026-05-07T18:37:55Z</time></trkpt>
</trkseg>
</trk>
<trk>
<name>nlbrh37</name>
<cmt>r</cmt>
<desc>Rhisnes Sentier n°37 Sec pachis</desc>
<link href="https://chemins.be/rhisnes/sentier/37"/><trkseg>
<trkpt lat="50.504401" lon="4.803252"><time>2026-05-07T18:17:55Z</time></trkpt>
<trkpt lat="50.504230" lon="4.803490"><time>2026-05-07T18:27:55Z</time></trkpt>
</trkseg></trk>
<trk>
<name>nlbrh37</name>
<cmt>b</cmt>
<desc>Rhisnes Sentier n°37 Sec pachis</desc>
<link href="https://chemins.be/rhisnes/sentier/37"/><trkseg>
<trkpt lat="50.504230" lon="4.803490"><time>2026-05-07T18:27:55Z</time></trkpt>
<trkpt lat="50.503805" lon="4.803951"><time>2026-05-07T18:37:55Z</time></trkpt>
<trkpt lat="50.502967" lon="4.804578"><time>2026-05-07T18:47:55Z</time></trkpt>
</trkseg>
</trk>
<trk>
<name>nlbrh38</name>
<cmt>s</cmt>
<desc>Rhisnes Sentier n°38 Pachis Pirsoul</desc>
<link href="https://chemins.be/rhisnes/sentier/38"/><trkseg>
<trkpt lat="50.506916" lon="4.799158"><time>2026-05-07T18:17:55Z</time></trkpt>
<trkpt lat="50.507557" lon="4.800785"><time>2026-05-07T18:27:55Z</time></trkpt>
<trkpt lat="50.507232" lon="4.801135"><time>2026-05-07T18:37:55Z</time></trkpt>
<trkpt lat="50.507893" lon="4.802608"><time>2026-05-07T18:47:55Z</time></trkpt>
</trkseg>
</trk>
<trk>
<name>nlbrh39</name>
<cmt>s</cmt>
<desc>Rhisnes Sentier n°39 Ruelle du Petit Profit</desc>
<link href="https://chemins.be/rhisnes/sentier/39"/><trkseg>
<trkpt lat="50.505469" lon="4.803741"><time>2026-05-07T18:17:55Z</time></trkpt>
<trkpt lat="50.505769" lon="4.802884"><time>2026-05-07T18:27:55Z</time></trkpt>
<trkpt lat="50.506195" lon="4.802070"><time>2026-05-07T18:37:55Z</time></trkpt>
</trkseg>
</trk>
<trk>
<name>nlbrh4</name>
<cmt>r</cmt>
<desc>Rhisnes Chemin n°4 Tige Saint-Hilaire</desc>
<link href="https://chemins.be/rhisnes/chemin/4"/><trkseg>
<trkpt lat="50.496794" lon="4.776275"><time>2026-05-07T18:17:55Z</time></trkpt>
<trkpt lat="50.499025" lon="4.783497"><time>2026-05-07T18:27:55Z</time></trkpt>
<trkpt lat="50.501862" lon="4.792304"><time>2026-05-07T18:37:55Z</time></trkpt>
<trkpt lat="50.502183" lon="4.793012"><time>2026-05-07T18:47:55Z</time></trkpt>
</trkseg>
</trk>
<trk>
<name>nlbrh40</name>
<cmt>r</cmt>
<desc>Rhisnes Sentier n°40 Bily</desc>
<link href="https://chemins.be/rhisnes/sentier/40"/><trkseg>
<trkpt lat="50.504957" lon="4.803694"><time>2026-05-07T18:17:55Z</time></trkpt>
<trkpt lat="50.505280" lon="4.803965"><time>2026-05-07T18:27:55Z</time></trkpt>
<trkpt lat="50.505478" lon="4.803797"><time>2026-05-07T18:37:55Z</time></trkpt>
<trkpt lat="50.506024" lon="4.804366"><time>2026-05-07T18:47:55Z</time></trkpt>
</trkseg></trk>
<trk>
<name>nlbrh40</name>
<cmt>s</cmt>
<desc>Rhisnes Sentier n°40 Bily</desc>
<link href="https://chemins.be/rhisnes/sentier/40"/><trkseg>
<trkpt lat="50.506024" lon="4.804366"><time>2026-05-07T18:47:55Z</time></trkpt>
<trkpt lat="50.506159" lon="4.804452"><time>2026-05-07T18:57:55Z</time></trkpt>
<trkpt lat="50.506285" lon="4.804439"><time>2026-05-07T19:07:55Z</time></trkpt>
<trkpt lat="50.506665" lon="4.803710"><time>2026-05-07T19:17:55Z</time></trkpt>
<trkpt lat="50.506353" lon="4.803171"><time>2026-05-07T19:27:55Z</time></trkpt>
</trkseg>
</trk>
<trk>
<name>nlbrh41</name>
<cmt>r</cmt>
<desc>Rhisnes Sentier n°41 Thyrion</desc>
<link href="https://chemins.be/rhisnes/sentier/41"/><trkseg>
<trkpt lat="50.505810" lon="4.804012"><time>2026-05-07T18:17:55Z</time></trkpt>
<trkpt lat="50.506507" lon="4.802778"><time>2026-05-07T18:27:55Z</time></trkpt>
</trkseg>
</trk>
<trk>
<name>nlbrh42</name>
<cmt>b</cmt>
<desc>Rhisnes Sentier n°42 Naubrichant</desc>
<link href="https://chemins.be/rhisnes/sentier/42"/><trkseg>
<trkpt lat="50.509108" lon="4.801885"><time>2026-05-07T18:17:55Z</time></trkpt>
<trkpt lat="50.509482" lon="4.803045"><time>2026-05-07T18:27:55Z</time></trkpt>
</trkseg>
</trk>
<trk>
<name>nlbrh43</name>
<cmt>r</cmt>
<desc>Rhisnes Sentier n°43 Rivage</desc>
<link href="https://chemins.be/rhisnes/sentier/43"/><trkseg>
<trkpt lat="50.502265" lon="4.804740"><time>2026-05-07T18:17:55Z</time></trkpt>
<trkpt lat="50.501172" lon="4.806267"><time>2026-05-07T18:27:55Z</time></trkpt>
<trkpt lat="50.500629" lon="4.807164"><time>2026-05-07T18:37:55Z</time></trkpt>
</trkseg></trk>
<trk>
<name>nlbrh43</name>
<cmt>s</cmt>
<desc>Rhisnes Sentier n°43 Rivage</desc>
<link href="https://chemins.be/rhisnes/sentier/43"/><trkseg>
<trkpt lat="50.500629" lon="4.807164"><time>2026-05-07T18:37:55Z</time></trkpt>
<trkpt lat="50.500159" lon="4.807709"><time>2026-05-07T18:47:55Z</time></trkpt>
<trkpt lat="50.499761" lon="4.808269"><time>2026-05-07T18:57:55Z</time></trkpt>
<trkpt lat="50.499108" lon="4.809884"><time>2026-05-07T19:07:55Z</time></trkpt>
<trkpt lat="50.498612" lon="4.810999"><time>2026-05-07T19:17:55Z</time></trkpt>
<trkpt lat="50.498220" lon="4.811127"><time>2026-05-07T19:27:55Z</time></trkpt>
<trkpt lat="50.497088" lon="4.811388"><time>2026-05-07T19:37:55Z</time></trkpt>
<trkpt lat="50.496487" lon="4.811157"><time>2026-05-07T19:47:55Z</time></trkpt>
<trkpt lat="50.495976" lon="4.810898"><time>2026-05-07T19:57:55Z</time></trkpt>
<trkpt lat="50.495338" lon="4.810695"><time>2026-05-07T20:07:55Z</time></trkpt>
<trkpt lat="50.494754" lon="4.810718"><time>2026-05-07T20:17:55Z</time></trkpt>
<trkpt lat="50.494420" lon="4.810996"><time>2026-05-07T20:27:55Z</time></trkpt>
</trkseg>
</trk>
<trk>
<name>nlbrh44</name>
<cmt>s</cmt>
<desc>Rhisnes Sentier n°44 Chenois</desc>
<link href="https://chemins.be/rhisnes/sentier/44"/><trkseg>
<trkpt lat="50.508460" lon="4.799821"><time>2026-05-07T18:17:55Z</time></trkpt>
<trkpt lat="50.509686" lon="4.801411"><time>2026-05-07T18:27:55Z</time></trkpt>
</trkseg></trk>
<trk>
<name>nlbrh44</name>
<cmt>v</cmt>
<desc>Rhisnes Sentier n°44 Chenois</desc>
<link href="https://chemins.be/rhisnes/sentier/44"/><trkseg>
<trkpt lat="50.509686" lon="4.801411"><time>2026-05-07T18:27:55Z</time></trkpt>
<trkpt lat="50.509794" lon="4.801398"><time>2026-05-07T18:37:55Z</time></trkpt>
<trkpt lat="50.509857" lon="4.801244"><time>2026-05-07T18:47:55Z</time></trkpt>
<trkpt lat="50.510046" lon="4.801189"><time>2026-05-07T18:57:55Z</time></trkpt>
</trkseg></trk>
<trk>
<name>nlbrh44</name>
<cmt>s</cmt>
<desc>Rhisnes Sentier n°44 Chenois</desc>
<link href="https://chemins.be/rhisnes/sentier/44"/><trkseg>
<trkpt lat="50.510046" lon="4.801189"><time>2026-05-07T18:57:55Z</time></trkpt>
<trkpt lat="50.512448" lon="4.800661"><time>2026-05-07T19:07:55Z</time></trkpt>
</trkseg>
</trk>
<trk>
<name>nlbrh45</name>
<cmt>s</cmt>
<desc>Rhisnes Sentier n°45 Bovesse</desc>
<link href="https://chemins.be/rhisnes/sentier/45"/><trkseg>
<trkpt lat="50.508533" lon="4.799582"><time>2026-05-07T18:17:55Z</time></trkpt>
<trkpt lat="50.508715" lon="4.798893"><time>2026-05-07T18:27:55Z</time></trkpt>
<trkpt lat="50.508630" lon="4.797510"><time>2026-05-07T18:37:55Z</time></trkpt>
</trkseg></trk>
<trk>
<name>nlbrh45</name>
<cmt>r</cmt>
<desc>Rhisnes Sentier n°45 Bovesse</desc>
<link href="https://chemins.be/rhisnes/sentier/45"/><trkseg>
<trkpt lat="50.508630" lon="4.797510"><time>2026-05-07T18:37:55Z</time></trkpt>
<trkpt lat="50.510895" lon="4.795176"><time>2026-05-07T18:47:55Z</time></trkpt>
<trkpt lat="50.511772" lon="4.791561"><time>2026-05-07T18:57:55Z</time></trkpt>
</trkseg>
</trk>
<trk>
<name>nlbrh46</name>
<cmt>s</cmt>
<desc>Rhisnes Sentier n°46 Grand Jacques</desc>
<link href="https://chemins.be/rhisnes/sentier/46"/><trkseg>
<trkpt lat="50.498768" lon="4.790021"><time>2026-05-07T18:17:55Z</time></trkpt>
<trkpt lat="50.498976" lon="4.792292"><time>2026-05-07T18:27:55Z</time></trkpt>
<trkpt lat="50.499267" lon="4.793873"><time>2026-05-07T18:37:55Z</time></trkpt>
<trkpt lat="50.499337" lon="4.794255"><time>2026-05-07T18:47:55Z</time></trkpt>
<trkpt lat="50.499425" lon="4.794692"><time>2026-05-07T18:57:55Z</time></trkpt>
<trkpt lat="50.499496" lon="4.795116"><time>2026-05-07T19:07:55Z</time></trkpt>
<trkpt lat="50.499737" lon="4.795569"><time>2026-05-07T19:17:55Z</time></trkpt>
</trkseg>
</trk>
<trk>
<name>nlbrh47</name>
<cmt>d</cmt>
<desc>Rhisnes Sentier n°47 Pyramide</desc>
<link href="https://chemins.be/rhisnes/sentier/47"/><trkseg>
<trkpt lat="50.494078" lon="4.794179"><time>2026-05-07T18:17:55Z</time></trkpt>
<trkpt lat="50.493239" lon="4.792551"><time>2026-05-07T18:27:55Z</time></trkpt>
</trkseg>
</trk>
<trk>
<name>nlbrh48</name>
<cmt>s</cmt>
<desc>Rhisnes Sentier n°48 Tybèche</desc>
<link href="https://chemins.be/rhisnes/sentier/48"/><trkseg>
<trkpt lat="50.502362" lon="4.817118"><time>2026-05-07T18:17:55Z</time></trkpt>
<trkpt lat="50.503132" lon="4.817774"><time>2026-05-07T18:27:55Z</time></trkpt>
<trkpt lat="50.503607" lon="4.818187"><time>2026-05-07T18:37:55Z</time></trkpt>
<trkpt lat="50.503930" lon="4.818472"><time>2026-05-07T18:47:55Z</time></trkpt>
<trkpt lat="50.504984" lon="4.820202"><time>2026-05-07T18:57:55Z</time></trkpt>
<trkpt lat="50.505762" lon="4.821182"><time>2026-05-07T19:07:55Z</time></trkpt>
</trkseg>
</trk>
<trk>
<name>nlbrh49</name>
<cmt>v</cmt>
<desc>Rhisnes Sentier n°49 Bosquet/Chaintinne</desc>
<link href="https://chemins.be/rhisnes/sentier/49"/><trkseg>
<trkpt lat="50.506656" lon="4.806050"><time>2026-05-07T18:17:55Z</time></trkpt>
<trkpt lat="50.506293" lon="4.807047"><time>2026-05-07T18:27:55Z</time></trkpt>
<trkpt lat="50.505948" lon="4.807904"><time>2026-05-07T18:37:55Z</time></trkpt>
<trkpt lat="50.505804" lon="4.808072"><time>2026-05-07T18:47:55Z</time></trkpt>
</trkseg></trk>
<trk>
<name>nlbrh49</name>
<cmt>d</cmt>
<desc>Rhisnes Sentier n°49 Bosquet/Chaintinne</desc>
<link href="https://chemins.be/rhisnes/sentier/49"/><trkseg>
<trkpt lat="50.505804" lon="4.808072"><time>2026-05-07T18:47:55Z</time></trkpt>
<trkpt lat="50.505363" lon="4.808354"><time>2026-05-07T18:57:55Z</time></trkpt>
<trkpt lat="50.504933" lon="4.808850"><time>2026-05-07T19:07:55Z</time></trkpt>
<trkpt lat="50.504547" lon="4.809380"><time>2026-05-07T19:17:55Z</time></trkpt>
<trkpt lat="50.504268" lon="4.809918"><time>2026-05-07T19:27:55Z</time></trkpt>
<trkpt lat="50.503808" lon="4.810323"><time>2026-05-07T19:37:55Z</time></trkpt>
<trkpt lat="50.503538" lon="4.810461"><time>2026-05-07T19:47:55Z</time></trkpt>
<trkpt lat="50.503232" lon="4.810642"><time>2026-05-07T19:57:55Z</time></trkpt>
<trkpt lat="50.502475" lon="4.810987"><time>2026-05-07T20:07:55Z</time></trkpt>
<trkpt lat="50.501298" lon="4.810976"><time>2026-05-07T20:17:55Z</time></trkpt>
<trkpt lat="50.500731" lon="4.811112"><time>2026-05-07T20:27:55Z</time></trkpt>
<trkpt lat="50.500522" lon="4.811247"><time>2026-05-07T20:37:55Z</time></trkpt>
<trkpt lat="50.500217" lon="4.811445"><time>2026-05-07T20:47:55Z</time></trkpt>
</trkseg></trk>
<trk>
<name>nlbrh49</name>
<cmt>b</cmt>
<desc>Rhisnes Sentier n°49 Bosquet/Chaintinne</desc>
<link href="https://chemins.be/rhisnes/sentier/49"/><trkseg>
<trkpt lat="50.500217" lon="4.811445"><time>2026-05-07T20:47:55Z</time></trkpt>
<trkpt lat="50.498479" lon="4.812289"><time>2026-05-07T20:57:55Z</time></trkpt>
<trkpt lat="50.498217" lon="4.812540"><time>2026-05-07T21:07:55Z</time></trkpt>
<trkpt lat="50.498125" lon="4.812962"><time>2026-05-07T21:17:55Z</time></trkpt>
<trkpt lat="50.498133" lon="4.813357"><time>2026-05-07T21:27:55Z</time></trkpt>
<trkpt lat="50.498193" lon="4.814090"><time>2026-05-07T21:37:55Z</time></trkpt>
<trkpt lat="50.498189" lon="4.815105"><time>2026-05-07T21:47:55Z</time></trkpt>
<trkpt lat="50.498430" lon="4.815671"><time>2026-05-07T21:57:55Z</time></trkpt>
<trkpt lat="50.498804" lon="4.816619"><time>2026-05-07T22:07:55Z</time></trkpt>
<trkpt lat="50.499143" lon="4.817299"><time>2026-05-07T22:17:55Z</time></trkpt>
<trkpt lat="50.499118" lon="4.818920"><time>2026-05-07T22:27:55Z</time></trkpt>
<trkpt lat="50.498505" lon="4.819534"><time>2026-05-07T22:37:55Z</time></trkpt>
<trkpt lat="50.498250" lon="4.820194"><time>2026-05-07T22:47:55Z</time></trkpt>
<trkpt lat="50.497962" lon="4.820445"><time>2026-05-07T22:57:55Z</time></trkpt>
<trkpt lat="50.497692" lon="4.820428"><time>2026-05-07T23:07:55Z</time></trkpt>
<trkpt lat="50.497423" lon="4.820369"><time>2026-05-07T23:17:55Z</time></trkpt>
</trkseg></trk>
<trk>
<name>nlbrh49</name>
<cmt>s</cmt>
<desc>Rhisnes Sentier n°49 Bosquet/Chaintinne</desc>
<link href="https://chemins.be/rhisnes/sentier/49"/><trkseg>
<trkpt lat="50.497423" lon="4.820369"><time>2026-05-07T23:17:55Z</time></trkpt>
<trkpt lat="50.496872" lon="4.819930"><time>2026-05-07T23:27:55Z</time></trkpt>
<trkpt lat="50.496586" lon="4.819307"><time>2026-05-07T23:37:55Z</time></trkpt>
<trkpt lat="50.496313" lon="4.819020"><time>2026-05-07T23:47:55Z</time></trkpt>
<trkpt lat="50.495965" lon="4.818269"><time>2026-05-07T23:57:55Z</time></trkpt>
<trkpt lat="50.495740" lon="4.818352"><time>2026-05-08T00:07:55Z</time></trkpt>
<trkpt lat="50.495306" lon="4.818926"><time>2026-05-08T00:17:55Z</time></trkpt>
</trkseg></trk>
<trk>
<name>nlbrh49</name>
<cmt>d</cmt>
<desc>Rhisnes Sentier n°49 Bosquet/Chaintinne</desc>
<link href="https://chemins.be/rhisnes/sentier/49"/><trkseg>
<trkpt lat="50.495306" lon="4.818926"><time>2026-05-08T00:17:55Z</time></trkpt>
<trkpt lat="50.494614" lon="4.818998"><time>2026-05-08T00:27:55Z</time></trkpt>
<trkpt lat="50.494241" lon="4.819406"><time>2026-05-08T00:37:55Z</time></trkpt>
<trkpt lat="50.493745" lon="4.820371"><time>2026-05-08T00:47:55Z</time></trkpt>
</trkseg></trk>
<trk>
<name>nlbrh49</name>
<cmt>v</cmt>
<desc>Rhisnes Sentier n°49 Bosquet/Chaintinne</desc>
<link href="https://chemins.be/rhisnes/sentier/49"/><trkseg>
<trkpt lat="50.493745" lon="4.820371"><time>2026-05-08T00:47:55Z</time></trkpt>
<trkpt lat="50.492978" lon="4.822617"><time>2026-05-08T00:57:55Z</time></trkpt>
<trkpt lat="50.492325" lon="4.825070"><time>2026-05-08T01:07:55Z</time></trkpt>
<trkpt lat="50.492075" lon="4.826745"><time>2026-05-08T01:17:55Z</time></trkpt>
<trkpt lat="50.492143" lon="4.828017"><time>2026-05-08T01:27:55Z</time></trkpt>
<trkpt lat="50.492494" lon="4.828776"><time>2026-05-08T01:37:55Z</time></trkpt>
<trkpt lat="50.492594" lon="4.829813"><time>2026-05-08T01:47:55Z</time></trkpt>
</trkseg>
</trk>
<trk>
<name>nlbrh5</name>
<cmt>r</cmt>
<desc>Rhisnes Chemin n°5 Bonwez</desc>
<link href="https://chemins.be/rhisnes/chemin/5"/><trkseg>
<trkpt lat="50.503408" lon="4.792388"><time>2026-05-07T18:17:55Z</time></trkpt>
<trkpt lat="50.504244" lon="4.794708"><time>2026-05-07T18:27:55Z</time></trkpt>
<trkpt lat="50.504583" lon="4.795359"><time>2026-05-07T18:37:55Z</time></trkpt>
<trkpt lat="50.505375" lon="4.795254"><time>2026-05-07T18:47:55Z</time></trkpt>
<trkpt lat="50.506151" lon="4.794598"><time>2026-05-07T18:57:55Z</time></trkpt>
<trkpt lat="50.507710" lon="4.798306"><time>2026-05-07T19:07:55Z</time></trkpt>
<trkpt lat="50.509079" lon="4.801815"><time>2026-05-07T19:17:55Z</time></trkpt>
<trkpt lat="50.509663" lon="4.801515"><time>2026-05-07T19:27:55Z</time></trkpt>
<trkpt lat="50.509890" lon="4.801455"><time>2026-05-07T19:37:55Z</time></trkpt>
<trkpt lat="50.510018" lon="4.801596"><time>2026-05-07T19:47:55Z</time></trkpt>
<trkpt lat="50.510211" lon="4.802769"><time>2026-05-07T19:57:55Z</time></trkpt>
<trkpt lat="50.510371" lon="4.803293"><time>2026-05-07T20:07:55Z</time></trkpt>
<trkpt lat="50.511475" lon="4.806151"><time>2026-05-07T20:17:55Z</time></trkpt>
<trkpt lat="50.512423" lon="4.807569"><time>2026-05-07T20:27:55Z</time></trkpt>
</trkseg>
</trk>
<trk>
<name>nlbrh50</name>
<cmt>s</cmt>
<desc>Rhisnes Sentier n°50 Moulin</desc>
<link href="https://chemins.be/rhisnes/sentier/50"/><trkseg>
<trkpt lat="50.495632" lon="4.818421"><time>2026-05-07T18:17:55Z</time></trkpt>
<trkpt lat="50.495584" lon="4.816870"><time>2026-05-07T18:27:55Z</time></trkpt>
<trkpt lat="50.495640" lon="4.816293"><time>2026-05-07T18:37:55Z</time></trkpt>
<trkpt lat="50.495741" lon="4.815914"><time>2026-05-07T18:47:55Z</time></trkpt>
<trkpt lat="50.496615" lon="4.815400"><time>2026-05-07T18:57:55Z</time></trkpt>
<trkpt lat="50.496751" lon="4.814880"><time>2026-05-07T19:07:55Z</time></trkpt>
<trkpt lat="50.497462" lon="4.812477"><time>2026-05-07T19:17:55Z</time></trkpt>
<trkpt lat="50.498258" lon="4.811103"><time>2026-05-07T19:27:55Z</time></trkpt>
</trkseg>
</trk>
<trk>
<name>nlbrh51</name>
<cmt>v</cmt>
<desc>Rhisnes Sentier n°51 Mauroul</desc>
<link href="https://chemins.be/rhisnes/sentier/51"/><trkseg>
<trkpt lat="50.492108" lon="4.829846"><time>2026-05-07T18:17:55Z</time></trkpt>
<trkpt lat="50.492593" lon="4.830020"><time>2026-05-07T18:27:55Z</time></trkpt>
<trkpt lat="50.493202" lon="4.830434"><time>2026-05-07T18:37:55Z</time></trkpt>
<trkpt lat="50.493561" lon="4.830762"><time>2026-05-07T18:47:55Z</time></trkpt>
<trkpt lat="50.493910" lon="4.831160"><time>2026-05-07T18:57:55Z</time></trkpt>
<trkpt lat="50.494581" lon="4.831970"><time>2026-05-07T19:07:55Z</time></trkpt>
<trkpt lat="50.495030" lon="4.832186"><time>2026-05-07T19:17:55Z</time></trkpt>
<trkpt lat="50.496044" lon="4.832647"><time>2026-05-07T19:27:55Z</time></trkpt>
</trkseg></trk>
<trk>
<name>nlbrh51</name>
<cmt>d</cmt>
<desc>Rhisnes Sentier n°51 Mauroul</desc>
<link href="https://chemins.be/rhisnes/sentier/51"/><trkseg>
<trkpt lat="50.496044" lon="4.832647"><time>2026-05-07T19:27:55Z</time></trkpt>
<trkpt lat="50.497418" lon="4.833148"><time>2026-05-07T19:37:55Z</time></trkpt>
<trkpt lat="50.498797" lon="4.833984"><time>2026-05-07T19:47:55Z</time></trkpt>
<trkpt lat="50.500708" lon="4.835272"><time>2026-05-07T19:57:55Z</time></trkpt>
</trkseg>
</trk>
<trk>
<name>nlbrh52</name>
<cmt>s</cmt>
<desc>Rhisnes Sentier n°52 Petit bois d'Artey</desc>
<link href="https://chemins.be/rhisnes/sentier/52"/><trkseg>
<trkpt lat="50.494200" lon="4.812108"><time>2026-05-07T18:17:55Z</time></trkpt>
<trkpt lat="50.494271" lon="4.812348"><time>2026-05-07T18:27:55Z</time></trkpt>
<trkpt lat="50.494819" lon="4.812283"><time>2026-05-07T18:37:55Z</time></trkpt>
<trkpt lat="50.495359" lon="4.812231"><time>2026-05-07T18:47:55Z</time></trkpt>
<trkpt lat="50.497098" lon="4.811303"><time>2026-05-07T18:57:55Z</time></trkpt>
</trkseg>
</trk>
<trk>
<name>nlbrh53</name>
<cmt>v</cmt>
<desc>Rhisnes Sentier n°53 Petit Berger</desc>
<link href="https://chemins.be/rhisnes/sentier/53"/><trkseg>
<trkpt lat="50.507362" lon="4.804957"><time>2026-05-07T18:17:55Z</time></trkpt>
<trkpt lat="50.507219" lon="4.804758"><time>2026-05-07T18:27:55Z</time></trkpt>
</trkseg></trk>
<trk>
<name>nlbrh53</name>
<cmt>s</cmt>
<desc>Rhisnes Sentier n°53 Petit Berger</desc>
<link href="https://chemins.be/rhisnes/sentier/53"/><trkseg>
<trkpt lat="50.507219" lon="4.804758"><time>2026-05-07T18:27:55Z</time></trkpt>
<trkpt lat="50.506968" lon="4.804417"><time>2026-05-07T18:37:55Z</time></trkpt>
<trkpt lat="50.506457" lon="4.804131"><time>2026-05-07T18:47:55Z</time></trkpt>
</trkseg>
</trk>
<trk>
<name>nlbrh54</name>
<cmt>s</cmt>
<desc>Rhisnes Sentier n°54 Perrot</desc>
<link href="https://chemins.be/rhisnes/sentier/54"/><trkseg>
<trkpt lat="50.506941" lon="4.804445"><time>2026-05-07T18:17:55Z</time></trkpt>
<trkpt lat="50.506561" lon="4.805104"><time>2026-05-07T18:27:55Z</time></trkpt>
</trkseg></trk>
<trk>
<name>nlbrh54</name>
<cmt>b</cmt>
<desc>Rhisnes Sentier n°54 Perrot</desc>
<link href="https://chemins.be/rhisnes/sentier/54"/><trkseg>
<trkpt lat="50.506561" lon="4.805104"><time>2026-05-07T18:27:55Z</time></trkpt>
<trkpt lat="50.506657" lon="4.805923"><time>2026-05-07T18:37:55Z</time></trkpt>
</trkseg>
</trk>
<trk>
<name>nlbrh55</name>
<cmt>v</cmt>
<desc>Rhisnes Sentier n°55 Quatre voies</desc>
<link href="https://chemins.be/rhisnes/sentier/55"/><trkseg>
<trkpt lat="50.507987" lon="4.803623"><time>2026-05-07T18:17:55Z</time></trkpt>
<trkpt lat="50.508561" lon="4.803995"><time>2026-05-07T18:27:55Z</time></trkpt>
<trkpt lat="50.508885" lon="4.804012"><time>2026-05-07T18:37:55Z</time></trkpt>
<trkpt lat="50.509200" lon="4.803747"><time>2026-05-07T18:47:55Z</time></trkpt>
<trkpt lat="50.509443" lon="4.803890"><time>2026-05-07T18:57:55Z</time></trkpt>
<trkpt lat="50.509667" lon="4.803864"><time>2026-05-07T19:07:55Z</time></trkpt>
<trkpt lat="50.509723" lon="4.803554"><time>2026-05-07T19:17:55Z</time></trkpt>
</trkseg></trk>
<trk>
<name>nlbrh55</name>
<cmt>r</cmt>
<desc>Rhisnes Sentier n°55 Quatre voies</desc>
<link href="https://chemins.be/rhisnes/sentier/55"/><trkseg>
<trkpt lat="50.509723" lon="4.803554"><time>2026-05-07T19:17:55Z</time></trkpt>
<trkpt lat="50.510317" lon="4.803306"><time>2026-05-07T19:27:55Z</time></trkpt>
</trkseg>
</trk>
<trk>
<name>nlbrh56</name>
<cmt>s</cmt>
<desc>Rhisnes Sentier n°56 Trou des Vaches</desc>
<link href="https://chemins.be/rhisnes/sentier/56"/><trkseg>
<trkpt lat="50.485965" lon="4.809762"><time>2026-05-07T18:17:55Z</time></trkpt>
<trkpt lat="50.486006" lon="4.810580"><time>2026-05-07T18:27:55Z</time></trkpt>
<trkpt lat="50.485472" lon="4.811730"><time>2026-05-07T18:37:55Z</time></trkpt>
<trkpt lat="50.484910" lon="4.812922"><time>2026-05-07T18:47:55Z</time></trkpt>
<trkpt lat="50.484571" lon="4.814371"><time>2026-05-07T18:57:55Z</time></trkpt>
<trkpt lat="50.484308" lon="4.815087"><time>2026-05-07T19:07:55Z</time></trkpt>
<trkpt lat="50.484062" lon="4.815831"><time>2026-05-07T19:17:55Z</time></trkpt>
<trkpt lat="50.482032" lon="4.817728"><time>2026-05-07T19:27:55Z</time></trkpt>
</trkseg>
</trk>
<trk>
<name>nlbrh57</name>
<cmt>s</cmt>
<desc>Rhisnes Sentier n°57 Morivaux</desc>
<link href="https://chemins.be/rhisnes/sentier/57"/><trkseg>
<trkpt lat="50.485714" lon="4.809365"><time>2026-05-07T18:17:55Z</time></trkpt>
<trkpt lat="50.483275" lon="4.810047"><time>2026-05-07T18:27:55Z</time></trkpt>
<trkpt lat="50.482775" lon="4.809295"><time>2026-05-07T18:37:55Z</time></trkpt>
<trkpt lat="50.481899" lon="4.807850"><time>2026-05-07T18:47:55Z</time></trkpt>
<trkpt lat="50.480933" lon="4.806460"><time>2026-05-07T18:57:55Z</time></trkpt>
</trkseg>
</trk>
<trk>
<name>nlbrh58</name>
<cmt>v</cmt>
<desc>Rhisnes Sentier n°58 Respailles</desc>
<link href="https://chemins.be/rhisnes/sentier/58"/><trkseg>
<trkpt lat="50.505919" lon="4.807980"><time>2026-05-07T18:17:55Z</time></trkpt>
<trkpt lat="50.505908" lon="4.809031"><time>2026-05-07T18:27:55Z</time></trkpt>
<trkpt lat="50.505898" lon="4.809412"><time>2026-05-07T18:37:55Z</time></trkpt>
<trkpt lat="50.505824" lon="4.809891"><time>2026-05-07T18:47:55Z</time></trkpt>
<trkpt lat="50.505787" lon="4.810045"><time>2026-05-07T18:57:55Z</time></trkpt>
</trkseg>
</trk>
<trk>
<name>nlbrh59</name>
<cmt>s</cmt>
<desc>Rhisnes Sentier n°59 Tienne de la Falise</desc>
<link href="https://chemins.be/rhisnes/sentier/59"/><trkseg>
<trkpt lat="50.498538" lon="4.821045"><time>2026-05-07T18:17:55Z</time></trkpt>
<trkpt lat="50.497493" lon="4.820391"><time>2026-05-07T18:27:55Z</time></trkpt>
</trkseg>
</trk>
<trk>
<name>nlbrh6</name>
<cmt>r</cmt>
<desc>Rhisnes Chemin n°6 Haibe</desc>
<link href="https://chemins.be/rhisnes/chemin/6"/><trkseg>
<trkpt lat="50.499944" lon="4.802675"><time>2026-05-07T18:17:55Z</time></trkpt>
<trkpt lat="50.500195" lon="4.802889"><time>2026-05-07T18:27:55Z</time></trkpt>
<trkpt lat="50.501632" lon="4.803438"><time>2026-05-07T18:37:55Z</time></trkpt>
<trkpt lat="50.502310" lon="4.804699"><time>2026-05-07T18:47:55Z</time></trkpt>
<trkpt lat="50.502957" lon="4.804733"><time>2026-05-07T18:57:55Z</time></trkpt>
<trkpt lat="50.504262" lon="4.804392"><time>2026-05-07T19:07:55Z</time></trkpt>
<trkpt lat="50.504638" lon="4.804875"><time>2026-05-07T19:17:55Z</time></trkpt>
<trkpt lat="50.505724" lon="4.805435"><time>2026-05-07T19:27:55Z</time></trkpt>
<trkpt lat="50.506774" lon="4.805980"><time>2026-05-07T19:37:55Z</time></trkpt>
<trkpt lat="50.508410" lon="4.805869"><time>2026-05-07T19:47:55Z</time></trkpt>
<trkpt lat="50.509695" lon="4.806106"><time>2026-05-07T19:57:55Z</time></trkpt>
<trkpt lat="50.512526" lon="4.806386"><time>2026-05-07T20:07:55Z</time></trkpt>
</trkseg>
</trk>
<trk>
<name>nlbrh60</name>
<cmt>r</cmt>
<desc>Rhisnes Sentier n°60 Ruelle Dujardin</desc>
<link href="https://chemins.be/rhisnes/sentier/60"/><trkseg>
<trkpt lat="50.508307" lon="4.802287"><time>2026-05-07T18:17:55Z</time></trkpt>
<trkpt lat="50.508099" lon="4.802553"><time>2026-05-07T18:27:55Z</time></trkpt>
<trkpt lat="50.507892" lon="4.802678"><time>2026-05-07T18:37:55Z</time></trkpt>
</trkseg>
</trk>
<trk>
<name>nlbrh61</name>
<cmt>s</cmt>
<desc>Rhisnes Sentier n°61 Artey</desc>
<link href="https://chemins.be/rhisnes/sentier/61"/><trkseg>
<trkpt lat="50.493648" lon="4.812906"><time>2026-05-07T18:17:55Z</time></trkpt>
<trkpt lat="50.492265" lon="4.814951"><time>2026-05-07T18:27:55Z</time></trkpt>
<trkpt lat="50.491613" lon="4.818439"><time>2026-05-07T18:37:55Z</time></trkpt>
<trkpt lat="50.490117" lon="4.819454"><time>2026-05-07T18:47:55Z</time></trkpt>
<trkpt lat="50.489511" lon="4.820392"><time>2026-05-07T18:57:55Z</time></trkpt>
<trkpt lat="50.488669" lon="4.821864"><time>2026-05-07T19:07:55Z</time></trkpt>
<trkpt lat="50.488100" lon="4.822676"><time>2026-05-07T19:17:55Z</time></trkpt>
<trkpt lat="50.487356" lon="4.824318"><time>2026-05-07T19:27:55Z</time></trkpt>
<trkpt lat="50.486903" lon="4.825074"><time>2026-05-07T19:37:55Z</time></trkpt>
</trkseg>
</trk>
<trk>
<name>nlbrh62</name>
<cmt>r</cmt>
<desc>Rhisnes Sentier n°62 dessous l'Eglise</desc>
<link href="https://chemins.be/rhisnes/sentier/62"/><trkseg>
<trkpt lat="50.504324" lon="4.804661"><time>2026-05-07T18:17:55Z</time></trkpt>
<trkpt lat="50.504799" lon="4.804989"><time>2026-05-07T18:27:55Z</time></trkpt>
<trkpt lat="50.506146" lon="4.805650"><time>2026-05-07T18:37:55Z</time></trkpt>
<trkpt lat="50.506675" lon="4.805979"><time>2026-05-07T18:47:55Z</time></trkpt>
</trkseg>
</trk>
<trk>
<name>nlbrh63</name>
<cmt>v</cmt>
<desc>Rhisnes Sentier n°63 Sentier de celui n°43 dis du Rivage vers le n°49 dit de Chaintinne</desc>
<link href="https://chemins.be/rhisnes/sentier/63"/><trkseg>
<trkpt lat="50.498573" lon="4.811021"><time>2026-05-07T18:17:55Z</time></trkpt>
<trkpt lat="50.498121" lon="4.811708"><time>2026-05-07T18:27:55Z</time></trkpt>
</trkseg>
</trk>
<trk>
<name>nlbrh7</name>
<cmt>r</cmt>
<desc>Rhisnes Chemin n°7 Bassouyaux (?)</desc>
<link href="https://chemins.be/rhisnes/chemin/7"/><trkseg>
<trkpt lat="50.506710" lon="4.806135"><time>2026-05-07T18:17:55Z</time></trkpt>
<trkpt lat="50.507092" lon="4.807266"><time>2026-05-07T18:27:55Z</time></trkpt>
<trkpt lat="50.507295" lon="4.808340"><time>2026-05-07T18:37:55Z</time></trkpt>
<trkpt lat="50.507999" lon="4.810052"><time>2026-05-07T18:47:55Z</time></trkpt>
<trkpt lat="50.508296" lon="4.810692"><time>2026-05-07T18:57:55Z</time></trkpt>
<trkpt lat="50.508514" lon="4.811518"><time>2026-05-07T19:07:55Z</time></trkpt>
</trkseg>
</trk>
<trk>
<name>nlbrh8</name>
<cmt>s</cmt>
<desc>Rhisnes Chemin n°8 Rouche Terre</desc>
<link href="https://chemins.be/rhisnes/chemin/8"/><trkseg>
<trkpt lat="50.494598" lon="4.804360"><time>2026-05-07T18:17:55Z</time></trkpt>
<trkpt lat="50.496225" lon="4.804487"><time>2026-05-07T18:27:55Z</time></trkpt>
<trkpt lat="50.498591" lon="4.803889"><time>2026-05-07T18:37:55Z</time></trkpt>
</trkseg></trk>
<trk>
<name>nlbrh8</name>
<cmt>r</cmt>
<desc>Rhisnes Chemin n°8 Rouche Terre</desc>
<link href="https://chemins.be/rhisnes/chemin/8"/><trkseg>
<trkpt lat="50.498591" lon="4.803889"><time>2026-05-07T18:37:55Z</time></trkpt>
<trkpt lat="50.499043" lon="4.803217"><time>2026-05-07T18:47:55Z</time></trkpt>
</trkseg></trk>
<trk>
<name>nlbrh8</name>
<cmt>v</cmt>
<desc>Rhisnes Chemin n°8 Rouche Terre</desc>
<link href="https://chemins.be/rhisnes/chemin/8"/><trkseg>
<trkpt lat="50.499043" lon="4.803217"><time>2026-05-07T18:47:55Z</time></trkpt>
<trkpt lat="50.499421" lon="4.803150"><time>2026-05-07T18:57:55Z</time></trkpt>
</trkseg>
</trk>
<trk>
<name>nlbrh9</name>
<cmt>s</cmt>
<desc>Rhisnes Chemin n°9 Petraly</desc>
<link href="https://chemins.be/rhisnes/chemin/9"/><trkseg>
<trkpt lat="50.493596" lon="4.812595"><time>2026-05-07T18:17:55Z</time></trkpt>
<trkpt lat="50.493455" lon="4.811706"><time>2026-05-07T18:27:55Z</time></trkpt>
<trkpt lat="50.493250" lon="4.811295"><time>2026-05-07T18:37:55Z</time></trkpt>
</trkseg></trk>
<trk>
<name>nlbrh9</name>
<cmt>r</cmt>
<desc>Rhisnes Chemin n°9 Petraly</desc>
<link href="https://chemins.be/rhisnes/chemin/9"/><trkseg>
<trkpt lat="50.493250" lon="4.811295"><time>2026-05-07T18:37:55Z</time></trkpt>
<trkpt lat="50.493117" lon="4.810914"><time>2026-05-07T18:47:55Z</time></trkpt>
<trkpt lat="50.493030" lon="4.809997"><time>2026-05-07T18:57:55Z</time></trkpt>
<trkpt lat="50.492745" lon="4.809205"><time>2026-05-07T19:07:55Z</time></trkpt>
<trkpt lat="50.492287" lon="4.808467"><time>2026-05-07T19:17:55Z</time></trkpt>
<trkpt lat="50.492023" lon="4.808452"><time>2026-05-07T19:27:55Z</time></trkpt>
<trkpt lat="50.491389" lon="4.806444"><time>2026-05-07T19:37:55Z</time></trkpt>
<trkpt lat="50.490870" lon="4.805777"><time>2026-05-07T19:47:55Z</time></trkpt>
<trkpt lat="50.490404" lon="4.805561"><time>2026-05-07T19:57:55Z</time></trkpt>
<trkpt lat="50.489812" lon="4.805105"><time>2026-05-07T20:07:55Z</time></trkpt>
<trkpt lat="50.489024" lon="4.804322"><time>2026-05-07T20:17:55Z</time></trkpt>
<trkpt lat="50.488372" lon="4.803260"><time>2026-05-07T20:27:55Z</time></trkpt>
<trkpt lat="50.488049" lon="4.802961"><time>2026-05-07T20:37:55Z</time></trkpt>
<trkpt lat="50.487593" lon="4.802224"><time>2026-05-07T20:47:55Z</time></trkpt>
<trkpt lat="50.487334" lon="4.801742"><time>2026-05-07T20:57:55Z</time></trkpt>
<trkpt lat="50.487347" lon="4.800728"><time>2026-05-07T21:07:55Z</time></trkpt>
<trkpt lat="50.487316" lon="4.799403"><time>2026-05-07T21:17:55Z</time></trkpt>
<trkpt lat="50.486995" lon="4.798794"><time>2026-05-07T21:27:55Z</time></trkpt>
</trkseg></trk>
<trk>
<name>nlbrh9</name>
<cmt>v</cmt>
<desc>Rhisnes Chemin n°9 Petraly</desc>
<link href="https://chemins.be/rhisnes/chemin/9"/><trkseg>
<trkpt lat="50.486995" lon="4.798794"><time>2026-05-07T21:27:55Z</time></trkpt>
<trkpt lat="50.486320" lon="4.798943"><time>2026-05-07T21:37:55Z</time></trkpt>
</trkseg></trk>
<trk>
<name>nlbrh9</name>
<cmt>b</cmt>
<desc>Rhisnes Chemin n°9 Petraly</desc>
<link href="https://chemins.be/rhisnes/chemin/9"/><trkseg>
<trkpt lat="50.486320" lon="4.798943"><time>2026-05-07T21:37:55Z</time></trkpt>
<trkpt lat="50.486033" lon="4.797706"><time>2026-05-07T21:47:55Z</time></trkpt>
</trkseg></trk>
<trk>
<name>nlbrh9</name>
<cmt>r</cmt>
<desc>Rhisnes Chemin n°9 Petraly</desc>
<link href="https://chemins.be/rhisnes/chemin/9"/><trkseg>
<trkpt lat="50.486033" lon="4.797706"><time>2026-05-07T21:47:55Z</time></trkpt>
<trkpt lat="50.485771" lon="4.796585"><time>2026-05-07T21:57:55Z</time></trkpt>
</trkseg>
</trk>
<trk>
<name>nlbrhi1</name>
<cmt>r</cmt>
<desc>Rhisnes Chemin n°i1 Rue des Ponts</desc>
<link href="https://chemins.be/rhisnes/chemin/i1"/><trkseg>
<trkpt lat="50.498227" lon="4.802758"><time>2026-05-07T18:17:55Z</time></trkpt>
<trkpt lat="50.497253" lon="4.804629"><time>2026-05-07T18:27:55Z</time></trkpt>
<trkpt lat="50.495586" lon="4.806878"><time>2026-05-07T18:37:55Z</time></trkpt>
<trkpt lat="50.492366" lon="4.812020"><time>2026-05-07T18:47:55Z</time></trkpt>
</trkseg>
</trk>
<trk>
<name>nlbrhi10</name>
<cmt>v</cmt>
<desc>Rhisnes Chemin n°i10 La Falize</desc>
<link href="https://chemins.be/rhisnes/chemin/i10"/><trkseg>
<trkpt lat="50.492745" lon="4.820945"><time>2026-05-07T18:17:55Z</time></trkpt>
<trkpt lat="50.492964" lon="4.820073"><time>2026-05-07T18:27:55Z</time></trkpt>
<trkpt lat="50.493193" lon="4.819159"><time>2026-05-07T18:37:55Z</time></trkpt>
<trkpt lat="50.493346" lon="4.819034"><time>2026-05-07T18:47:55Z</time></trkpt>
<trkpt lat="50.493930" lon="4.819166"><time>2026-05-07T18:57:55Z</time></trkpt>
<trkpt lat="50.494147" lon="4.818915"><time>2026-05-07T19:07:55Z</time></trkpt>
</trkseg>
</trk>
<trk>
<name>nlbrhi11</name>
<cmt>s</cmt>
<desc>Rhisnes Chemin n°i11 Chemin Militaire / Chemin militaire</desc>
<link href="https://chemins.be/rhisnes/chemin/i11"/><trkseg>
<trkpt lat="50.488502" lon="4.825414"><time>2026-05-07T18:17:55Z</time></trkpt>
<trkpt lat="50.489409" lon="4.825747"><time>2026-05-07T18:27:55Z</time></trkpt>
<trkpt lat="50.489993" lon="4.828233"><time>2026-05-07T18:37:55Z</time></trkpt>
<trkpt lat="50.490332" lon="4.828898"><time>2026-05-07T18:47:55Z</time></trkpt>
<trkpt lat="50.492129" lon="4.829127"><time>2026-05-07T18:57:55Z</time></trkpt>
<trkpt lat="50.493095" lon="4.830391"><time>2026-05-07T19:07:55Z</time></trkpt>
<trkpt lat="50.494276" lon="4.831657"><time>2026-05-07T19:17:55Z</time></trkpt>
<trkpt lat="50.495477" lon="4.832782"><time>2026-05-07T19:27:55Z</time></trkpt>
<trkpt lat="50.496117" lon="4.834564"><time>2026-05-07T19:37:55Z</time></trkpt>
<trkpt lat="50.496863" lon="4.836855"><time>2026-05-07T19:47:55Z</time></trkpt>
<trkpt lat="50.497505" lon="4.838102"><time>2026-05-07T19:57:55Z</time></trkpt>
</trkseg>
</trk>
<trk>
<name>nlbrhi12</name>
<cmt>v</cmt>
<desc>Rhisnes Sentier n°i12 </desc>
<link href="https://chemins.be/rhisnes/sentier/i12"/><trkseg>
<trkpt lat="50.510243" lon="4.806153"><time>2026-05-07T18:17:55Z</time></trkpt>
<trkpt lat="50.510008" lon="4.805448"><time>2026-05-07T18:27:55Z</time></trkpt>
<trkpt lat="50.509986" lon="4.805070"><time>2026-05-07T18:37:55Z</time></trkpt>
</trkseg>
</trk>
<trk>
<name>nlbrhi13</name>
<cmt>v</cmt>
<desc>Rhisnes Chemin n°i13 </desc>
<link href="https://chemins.be/rhisnes/chemin/i13"/><trkseg>
<trkpt lat="50.487752" lon="4.798485"><time>2026-05-07T18:17:55Z</time></trkpt>
<trkpt lat="50.489518" lon="4.797331"><time>2026-05-07T18:27:55Z</time></trkpt>
</trkseg>
</trk>
<trk>
<name>nlbrhi14</name>
<cmt>s</cmt>
<desc>Rhisnes Sentier n°i14 </desc>
<link href="https://chemins.be/rhisnes/sentier/i14"/><trkseg>
<trkpt lat="50.499799" lon="4.798332"><time>2026-05-07T18:17:55Z</time></trkpt>
<trkpt lat="50.499763" lon="4.800602"><time>2026-05-07T18:27:55Z</time></trkpt>
<trkpt lat="50.499266" lon="4.801429"><time>2026-05-07T18:37:55Z</time></trkpt>
</trkseg>
</trk>
<trk>
<name>nlbrhi15</name>
<cmt>s</cmt>
<desc>Rhisnes Chemin n°i15 </desc>
<link href="https://chemins.be/rhisnes/chemin/i15"/><trkseg>
<trkpt lat="50.495621" lon="4.816575"><time>2026-05-07T18:17:55Z</time></trkpt>
<trkpt lat="50.494639" lon="4.814846"><time>2026-05-07T18:27:55Z</time></trkpt>
<trkpt lat="50.494190" lon="4.814574"><time>2026-05-07T18:37:55Z</time></trkpt>
</trkseg>
</trk>
<trk>
<name>nlbrhi16</name>
<cmt>r</cmt>
<desc>Rhisnes Chemin n°i16 Rue des Déportés</desc>
<link href="https://chemins.be/rhisnes/chemin/i16"/><trkseg>
<trkpt lat="50.505844" lon="4.804449"><time>2026-05-07T18:17:55Z</time></trkpt>
<trkpt lat="50.506946" lon="4.805615"><time>2026-05-07T18:27:55Z</time></trkpt>
</trkseg>
</trk>
<trk>
<name>nlbrhi17</name>
<cmt>r</cmt>
<desc>Rhisnes Chemin n°i17 Rue du Ry des Mines / Rue des Chapelles</desc>
<link href="https://chemins.be/rhisnes/chemin/i17"/><trkseg>
<trkpt lat="50.505330" lon="4.795197"><time>2026-05-07T18:17:55Z</time></trkpt>
<trkpt lat="50.505073" lon="4.794151"><time>2026-05-07T18:27:55Z</time></trkpt>
<trkpt lat="50.505732" lon="4.793621"><time>2026-05-07T18:37:55Z</time></trkpt>
</trkseg>
</trk>
<trk>
<name>nlbrhi18</name>
<cmt>v</cmt>
<desc>Rhisnes Sentier n°i18 </desc>
<link href="https://chemins.be/rhisnes/sentier/i18"/><trkseg>
<trkpt lat="50.504067" lon="4.801261"><time>2026-05-07T18:17:55Z</time></trkpt>
<trkpt lat="50.504354" lon="4.801433"><time>2026-05-07T18:27:55Z</time></trkpt>
</trkseg></trk>
<trk>
<name>nlbrhi18</name>
<cmt>b</cmt>
<desc>Rhisnes Sentier n°i18 </desc>
<link href="https://chemins.be/rhisnes/sentier/i18"/><trkseg>
<trkpt lat="50.504354" lon="4.801433"><time>2026-05-07T18:27:55Z</time></trkpt>
<trkpt lat="50.504390" lon="4.801433"><time>2026-05-07T18:37:55Z</time></trkpt>
<trkpt lat="50.504498" lon="4.801378"><time>2026-05-07T18:47:55Z</time></trkpt>
</trkseg>
</trk>
<trk>
<name>nlbrhi19</name>
<cmt>s</cmt>
<desc>Rhisnes Chemin n°i19 </desc>
<link href="https://chemins.be/rhisnes/chemin/i19"/><trkseg>
<trkpt lat="50.504021" lon="4.834261"><time>2026-05-07T18:17:55Z</time></trkpt>
<trkpt lat="50.503334" lon="4.835002"><time>2026-05-07T18:27:55Z</time></trkpt>
</trkseg>
</trk>
<trk>
<name>nlbrhi2</name>
<cmt>v</cmt>
<desc>Rhisnes Chemin n°i2 Sentier Bosquet</desc>
<link href="https://chemins.be/rhisnes/chemin/i2"/><trkseg>
<trkpt lat="50.500316" lon="4.811418"><time>2026-05-07T18:17:55Z</time></trkpt>
<trkpt lat="50.500809" lon="4.811789"><time>2026-05-07T18:27:55Z</time></trkpt>
<trkpt lat="50.501620" lon="4.813545"><time>2026-05-07T18:37:55Z</time></trkpt>
<trkpt lat="50.502377" lon="4.815497"><time>2026-05-07T18:47:55Z</time></trkpt>
<trkpt lat="50.502670" lon="4.816360"><time>2026-05-07T18:57:55Z</time></trkpt>
<trkpt lat="50.503443" lon="4.818961"><time>2026-05-07T19:07:55Z</time></trkpt>
<trkpt lat="50.503918" lon="4.818399"><time>2026-05-07T19:17:55Z</time></trkpt>
<trkpt lat="50.504873" lon="4.821131"><time>2026-05-07T19:27:55Z</time></trkpt>
<trkpt lat="50.505691" lon="4.821083"><time>2026-05-07T19:37:55Z</time></trkpt>
<trkpt lat="50.505708" lon="4.821210"><time>2026-05-07T19:47:55Z</time></trkpt>
</trkseg>
</trk>
<trk>
<name>nlbrhi20</name>
<cmt>s</cmt>
<desc>Rhisnes Chemin n°i20 </desc>
<link href="https://chemins.be/rhisnes/chemin/i20"/><trkseg>
<trkpt lat="50.510922" lon="4.795219"><time>2026-05-07T18:17:55Z</time></trkpt>
<trkpt lat="50.511806" lon="4.794578"><time>2026-05-07T18:27:55Z</time></trkpt>
</trkseg>
</trk>
<trk>
<name>nlbrhi22</name>
<cmt>v</cmt>
<desc>Rhisnes Chemin n°i22 </desc>
<link href="https://chemins.be/rhisnes/chemin/i22"/><trkseg>
<trkpt lat="50.494112" lon="4.809189"><time>2026-05-07T18:17:55Z</time></trkpt>
<trkpt lat="50.493698" lon="4.809214"><time>2026-05-07T18:27:55Z</time></trkpt>
<trkpt lat="50.493240" lon="4.809111"><time>2026-05-07T18:37:55Z</time></trkpt>
<trkpt lat="50.492729" lon="4.808711"><time>2026-05-07T18:47:55Z</time></trkpt>
<trkpt lat="50.492380" lon="4.808166"><time>2026-05-07T18:57:55Z</time></trkpt>
<trkpt lat="50.492154" lon="4.807573"><time>2026-05-07T19:07:55Z</time></trkpt>
<trkpt lat="50.491822" lon="4.807680"><time>2026-05-07T19:17:55Z</time></trkpt>
</trkseg>
</trk>
<trk>
<name>nlbrhi23</name>
<cmt>q</cmt>
<desc>Rhisnes Chemin n°i23 </desc>
<link href="https://chemins.be/rhisnes/chemin/i23"/><trkseg>
<trkpt lat="50.498389" lon="4.800237"><time>2026-05-07T18:17:55Z</time></trkpt>
<trkpt lat="50.498787" lon="4.799719"><time>2026-05-07T18:27:55Z</time></trkpt>
<trkpt lat="50.499193" lon="4.799285"><time>2026-05-07T18:37:55Z</time></trkpt>
<trkpt lat="50.499500" lon="4.798823"><time>2026-05-07T18:47:55Z</time></trkpt>
<trkpt lat="50.499501" lon="4.798499"><time>2026-05-07T18:57:55Z</time></trkpt>
</trkseg>
</trk>
<trk>
<name>nlbrhi24</name>
<cmt>q</cmt>
<desc>Rhisnes Chemin n°i24 </desc>
<link href="https://chemins.be/rhisnes/chemin/i24"/><trkseg>
<trkpt lat="50.484225" lon="4.801399"><time>2026-05-07T18:17:55Z</time></trkpt>
<trkpt lat="50.483085" lon="4.802438"><time>2026-05-07T18:27:55Z</time></trkpt>
</trkseg></trk>
<trk>
<name>nlbrhi24</name>
<cmt>v</cmt>
<desc>Rhisnes Chemin n°i24 </desc>
<link href="https://chemins.be/rhisnes/chemin/i24"/><trkseg>
<trkpt lat="50.483085" lon="4.802438"><time>2026-05-07T18:27:55Z</time></trkpt>
<trkpt lat="50.482634" lon="4.802848"><time>2026-05-07T18:37:55Z</time></trkpt>
</trkseg></trk>
<trk>
<name>nlbrhi24</name>
<cmt>q</cmt>
<desc>Rhisnes Chemin n°i24 </desc>
<link href="https://chemins.be/rhisnes/chemin/i24"/><trkseg>
<trkpt lat="50.482634" lon="4.802848"><time>2026-05-07T18:37:55Z</time></trkpt>
<trkpt lat="50.482836" lon="4.804512"><time>2026-05-07T18:47:55Z</time></trkpt>
<trkpt lat="50.483284" lon="4.808210"><time>2026-05-07T18:57:55Z</time></trkpt>
</trkseg>
</trk>
<trk>
<name>nlbrhi25</name>
<cmt>q</cmt>
<desc>Rhisnes Chemin n°i25 La Falize</desc>
<link href="https://chemins.be/rhisnes/chemin/i25"/><trkseg>
<trkpt lat="50.500137" lon="4.812542"><time>2026-05-07T18:17:55Z</time></trkpt>
<trkpt lat="50.499690" lon="4.819867"><time>2026-05-07T18:27:55Z</time></trkpt>
</trkseg>
</trk>
<trk>
<name>nlbrhi3</name>
<cmt>v</cmt>
<desc>Rhisnes Chemin n°i3 </desc>
<link href="https://chemins.be/rhisnes/chemin/i3"/><trkseg>
<trkpt lat="50.510778" lon="4.795316"><time>2026-05-07T18:17:55Z</time></trkpt>
<trkpt lat="50.508431" lon="4.788162"><time>2026-05-07T18:27:55Z</time></trkpt>
<trkpt lat="50.507700" lon="4.786336"><time>2026-05-07T18:37:55Z</time></trkpt>
<trkpt lat="50.507213" lon="4.786614"><time>2026-05-07T18:47:55Z</time></trkpt>
<trkpt lat="50.506455" lon="4.785028"><time>2026-05-07T18:57:55Z</time></trkpt>
</trkseg>
</trk>
<trk>
<name>nlbrhi4</name>
<cmt>v</cmt>
<desc>Rhisnes Chemin n°i4 Chemin du Fort de Suarlée</desc>
<link href="https://chemins.be/rhisnes/chemin/i4"/><trkseg>
<trkpt lat="50.488013" lon="4.802862"><time>2026-05-07T18:17:55Z</time></trkpt>
<trkpt lat="50.486851" lon="4.803626"><time>2026-05-07T18:27:55Z</time></trkpt>
<trkpt lat="50.486348" lon="4.804412"><time>2026-05-07T18:37:55Z</time></trkpt>
</trkseg></trk>
<trk>
<name>nlbrhi4</name>
<cmt>q</cmt>
<desc>Rhisnes Chemin n°i4 Chemin du Fort de Suarlée</desc>
<link href="https://chemins.be/rhisnes/chemin/i4"/><trkseg>
<trkpt lat="50.486348" lon="4.804412"><time>2026-05-07T18:37:55Z</time></trkpt>
<trkpt lat="50.486234" lon="4.804605"><time>2026-05-07T18:47:55Z</time></trkpt>
</trkseg></trk>
<trk>
<name>nlbrhi4</name>
<cmt>s</cmt>
<desc>Rhisnes Chemin n°i4 Chemin du Fort de Suarlée</desc>
<link href="https://chemins.be/rhisnes/chemin/i4"/><trkseg>
<trkpt lat="50.486234" lon="4.804605"><time>2026-05-07T18:47:55Z</time></trkpt>
<trkpt lat="50.484638" lon="4.805183"><time>2026-05-07T18:57:55Z</time></trkpt>
</trkseg></trk>
<trk>
<name>nlbrhi4</name>
<cmt>q</cmt>
<desc>Rhisnes Chemin n°i4 Chemin du Fort de Suarlée</desc>
<link href="https://chemins.be/rhisnes/chemin/i4"/><trkseg>
<trkpt lat="50.484638" lon="4.805183"><time>2026-05-07T18:57:55Z</time></trkpt>
<trkpt lat="50.484131" lon="4.804996"><time>2026-05-07T19:07:55Z</time></trkpt>
<trkpt lat="50.483538" lon="4.804793"><time>2026-05-07T19:17:55Z</time></trkpt>
<trkpt lat="50.482837" lon="4.804506"><time>2026-05-07T19:27:55Z</time></trkpt>
</trkseg></trk>
<trk>
<name>nlbrhi4</name>
<cmt>v</cmt>
<desc>Rhisnes Chemin n°i4 Chemin du Fort de Suarlée</desc>
<link href="https://chemins.be/rhisnes/chemin/i4"/><trkseg>
<trkpt lat="50.482837" lon="4.804506"><time>2026-05-07T19:27:55Z</time></trkpt>
<trkpt lat="50.482308" lon="4.804289"><time>2026-05-07T19:37:55Z</time></trkpt>
<trkpt lat="50.481326" lon="4.802533"><time>2026-05-07T19:47:55Z</time></trkpt>
<trkpt lat="50.481003" lon="4.802220"><time>2026-05-07T19:57:55Z</time></trkpt>
<trkpt lat="50.480585" lon="4.801032"><time>2026-05-07T20:07:55Z</time></trkpt>
<trkpt lat="50.480289" lon="4.800790"><time>2026-05-07T20:17:55Z</time></trkpt>
</trkseg>
</trk>
<trk>
<name>nlbrhi5</name>
<cmt>v</cmt>
<desc>Rhisnes Chemin n°i5 </desc>
<link href="https://chemins.be/rhisnes/chemin/i5"/><trkseg>
<trkpt lat="50.486806" lon="4.803555"><time>2026-05-07T18:17:55Z</time></trkpt>
<trkpt lat="50.485650" lon="4.802530"><time>2026-05-07T18:27:55Z</time></trkpt>
<trkpt lat="50.484661" lon="4.802479"><time>2026-05-07T18:37:55Z</time></trkpt>
<trkpt lat="50.484338" lon="4.802293"><time>2026-05-07T18:47:55Z</time></trkpt>
<trkpt lat="50.484197" lon="4.801713"><time>2026-05-07T18:57:55Z</time></trkpt>
<trkpt lat="50.484316" lon="4.801165"><time>2026-05-07T19:07:55Z</time></trkpt>
<trkpt lat="50.484813" lon="4.800521"><time>2026-05-07T19:17:55Z</time></trkpt>
<trkpt lat="50.486329" lon="4.799013"><time>2026-05-07T19:27:55Z</time></trkpt>
</trkseg>
</trk>
<trk>
<name>nlbrhi6</name>
<cmt>v</cmt>
<desc>Rhisnes Sentier n°i6 </desc>
<link href="https://chemins.be/rhisnes/sentier/i6"/><trkseg>
<trkpt lat="50.503382" lon="4.795923"><time>2026-05-07T18:17:55Z</time></trkpt>
<trkpt lat="50.504244" lon="4.794671"><time>2026-05-07T18:27:55Z</time></trkpt>
<trkpt lat="50.504650" lon="4.794288"><time>2026-05-07T18:37:55Z</time></trkpt>
<trkpt lat="50.505064" lon="4.794123"><time>2026-05-07T18:47:55Z</time></trkpt>
</trkseg>
</trk>
<trk>
<name>nlbrhi7</name>
<cmt>v</cmt>
<desc>Rhisnes Chemin n°i7 Drève</desc>
<link href="https://chemins.be/rhisnes/chemin/i7"/><trkseg>
<trkpt lat="50.495706" lon="4.806770"><time>2026-05-07T18:17:55Z</time></trkpt>
<trkpt lat="50.495185" lon="4.805873"><time>2026-05-07T18:27:55Z</time></trkpt>
<trkpt lat="50.494461" lon="4.804795"><time>2026-05-07T18:37:55Z</time></trkpt>
</trkseg>
</trk>
<trk>
<name>nlbrhi8</name>
<cmt>v</cmt>
<desc>Rhisnes Sentier n°i8 </desc>
<link href="https://chemins.be/rhisnes/sentier/i8"/><trkseg>
<trkpt lat="50.497638" lon="4.802058"><time>2026-05-07T18:17:55Z</time></trkpt>
<trkpt lat="50.497787" lon="4.802444"><time>2026-05-07T18:27:55Z</time></trkpt>
<trkpt lat="50.498082" lon="4.802926"><time>2026-05-07T18:37:55Z</time></trkpt>
</trkseg>
</trk>
<trk>
<name>nlbrhi9</name>
<cmt>d</cmt>
<desc>Rhisnes Sentier n°i9 Rue du Spinoy</desc>
<link href="https://chemins.be/rhisnes/sentier/i9"/><trkseg>
<trkpt lat="50.503406" lon="4.800043"><time>2026-05-07T18:17:55Z</time></trkpt>
<trkpt lat="50.503408" lon="4.799704"><time>2026-05-07T18:27:55Z</time></trkpt>
<trkpt lat="50.503408" lon="4.799620"><time>2026-05-07T18:37:55Z</time></trkpt>
<trkpt lat="50.503390" lon="4.799535"><time>2026-05-07T18:47:55Z</time></trkpt>
<trkpt lat="50.503355" lon="4.799408"><time>2026-05-07T18:57:55Z</time></trkpt>
<trkpt lat="50.503382" lon="4.799253"><time>2026-05-07T19:07:55Z</time></trkpt>
</trkseg></trk>
<trk>
<name>nlbrhi9</name>
<cmt>b</cmt>
<desc>Rhisnes Sentier n°i9 Rue du Spinoy</desc>
<link href="https://chemins.be/rhisnes/sentier/i9"/><trkseg>
<trkpt lat="50.503382" lon="4.799253"><time>2026-05-07T19:07:55Z</time></trkpt>
<trkpt lat="50.503519" lon="4.798888"><time>2026-05-07T19:17:55Z</time></trkpt>
<trkpt lat="50.503573" lon="4.798747"><time>2026-05-07T19:27:55Z</time></trkpt>
</trkseg>
</trk>
<trk>
<name>nlbrhL161</name>
<cmt>t</cmt>
<desc>Rhisnes Chemin n°L161 </desc>
<link href="https://chemins.be/rhisnes/chemin/L161"/><trkseg>
<trkpt lat="50.487283" lon="4.824514"><time>2026-05-07T18:17:55Z</time></trkpt>
<trkpt lat="50.489016" lon="4.818274"><time>2026-05-07T18:27:55Z</time></trkpt>
<trkpt lat="50.492311" lon="4.812428"><time>2026-05-07T18:37:55Z</time></trkpt>
<trkpt lat="50.493296" lon="4.811099"><time>2026-05-07T18:47:55Z</time></trkpt>
<trkpt lat="50.498270" lon="4.803308"><time>2026-05-07T18:57:55Z</time></trkpt>
<trkpt lat="50.505319" lon="4.792567"><time>2026-05-07T19:07:55Z</time></trkpt>
<trkpt lat="50.509706" lon="4.785861"><time>2026-05-07T19:17:55Z</time></trkpt>
</trkseg>
</trk>
<trk>
<name>nlbrhr28</name>
<cmt>v</cmt>
<desc>Rhisnes Chemin de remembrement n°r28 </desc>
<link href="https://chemins.be/rhisnes/chemin/r28"/><trkseg>
<trkpt lat="50.498786" lon="4.790134"><time>2026-05-07T18:17:55Z</time></trkpt>
<trkpt lat="50.497449" lon="4.791954"><time>2026-05-07T18:27:55Z</time></trkpt>
</trkseg>
</trk>
<trk>
<name>nlbrhr31</name>
<cmt>r</cmt>
<desc>Rhisnes Chemin de remembrement n°r31 Rue de l'Eau Bleue</desc>
<link href="https://chemins.be/rhisnes/chemin/r31"/><trkseg>
<trkpt lat="50.508513" lon="4.797664"><time>2026-05-07T18:17:55Z</time></trkpt>
<trkpt lat="50.509100" lon="4.799319"><time>2026-05-07T18:27:55Z</time></trkpt>
<trkpt lat="50.509509" lon="4.800662"><time>2026-05-07T18:37:55Z</time></trkpt>
<trkpt lat="50.509967" lon="4.800638"><time>2026-05-07T18:47:55Z</time></trkpt>
<trkpt lat="50.510203" lon="4.800091"><time>2026-05-07T18:57:55Z</time></trkpt>
<trkpt lat="50.510143" lon="4.799329"><time>2026-05-07T19:07:55Z</time></trkpt>
<trkpt lat="50.509715" lon="4.798352"><time>2026-05-07T19:17:55Z</time></trkpt>
<trkpt lat="50.509226" lon="4.796938"><time>2026-05-07T19:27:55Z</time></trkpt>
</trkseg>
</trk>
<trk>
<name>nlbrhr32</name>
<cmt>r</cmt>
<desc>Rhisnes Chemin de remembrement n°r32 Rue de l'Eau Bleue</desc>
<link href="https://chemins.be/rhisnes/chemin/r32"/><trkseg>
<trkpt lat="50.509674" lon="4.800695"><time>2026-05-07T18:17:55Z</time></trkpt>
<trkpt lat="50.509690" lon="4.801467"><time>2026-05-07T18:27:55Z</time></trkpt>
</trkseg>
</trk>
<trk>
<name>nlbrhr33</name>
<cmt>r</cmt>
<desc>Rhisnes Chemin de remembrement n°r33 Rue de l'Eau Bleue</desc>
<link href="https://chemins.be/rhisnes/chemin/r33"/><trkseg>
<trkpt lat="50.510194" lon="4.800076"><time>2026-05-07T18:17:55Z</time></trkpt>
<trkpt lat="50.510526" lon="4.800192"><time>2026-05-07T18:27:55Z</time></trkpt>
</trkseg>
</trk>
<trk>
<name>nlbsd1</name>
<cmt>r</cmt>
<desc>Saint-Denis Chemin n°1 Chemin de Canneveau / Rue de Cannevaux / Rue de Canneveaux / Rue de la Bruyére</desc>
<link href="https://chemins.be/saintdenis/chemin/1"/><trkseg>
<trkpt lat="50.523488" lon="4.783472"><time>2026-05-07T18:17:55Z</time></trkpt>
<trkpt lat="50.524637" lon="4.789025"><time>2026-05-07T18:27:55Z</time></trkpt>
<trkpt lat="50.525767" lon="4.792180"><time>2026-05-07T18:37:55Z</time></trkpt>
<trkpt lat="50.528134" lon="4.796390"><time>2026-05-07T18:47:55Z</time></trkpt>
<trkpt lat="50.531865" lon="4.801332"><time>2026-05-07T18:57:55Z</time></trkpt>
<trkpt lat="50.532244" lon="4.801011"><time>2026-05-07T19:07:55Z</time></trkpt>
<trkpt lat="50.534152" lon="4.805232"><time>2026-05-07T19:17:55Z</time></trkpt>
<trkpt lat="50.536787" lon="4.812042"><time>2026-05-07T19:27:55Z</time></trkpt>
</trkseg>
</trk>
<trk>
<name>nlbsd11</name>
<cmt>r</cmt>
<desc>Saint-Denis Chemin n°11 Rue de Beauffaux</desc>
<link href="https://chemins.be/saintdenis/chemin/11"/><trkseg>
<trkpt lat="50.535226" lon="4.781812"><time>2026-05-07T18:17:55Z</time></trkpt>
<trkpt lat="50.536537" lon="4.779863"><time>2026-05-07T18:27:55Z</time></trkpt>
<trkpt lat="50.537824" lon="4.776954"><time>2026-05-07T18:37:55Z</time></trkpt>
<trkpt lat="50.539136" lon="4.774595"><time>2026-05-07T18:47:55Z</time></trkpt>
<trkpt lat="50.539661" lon="4.773372"><time>2026-05-07T18:57:55Z</time></trkpt>
<trkpt lat="50.540473" lon="4.772688"><time>2026-05-07T19:07:55Z</time></trkpt>
<trkpt lat="50.541339" lon="4.771905"><time>2026-05-07T19:17:55Z</time></trkpt>
<trkpt lat="50.543109" lon="4.769451"><time>2026-05-07T19:27:55Z</time></trkpt>
</trkseg>
</trk>
<trk>
<name>nlbsd12</name>
<cmt>s</cmt>
<desc>Saint-Denis Chemin n°12 Chemin de la Bolette</desc>
<link href="https://chemins.be/saintdenis/chemin/12"/><trkseg>
<trkpt lat="50.543262" lon="4.769396"><time>2026-05-07T18:17:55Z</time></trkpt>
<trkpt lat="50.543894" lon="4.768541"><time>2026-05-07T18:27:55Z</time></trkpt>
<trkpt lat="50.535375" lon="4.757015"><time>2026-05-07T18:37:55Z</time></trkpt>
</trkseg></trk>
<trk>
<name>nlbsd12</name>
<cmt>r</cmt>
<desc>Saint-Denis Chemin n°12 Chemin de la Bolette</desc>
<link href="https://chemins.be/saintdenis/chemin/12"/><trkseg>
<trkpt lat="50.535375" lon="4.757015"><time>2026-05-07T18:37:55Z</time></trkpt>
<trkpt lat="50.534184" lon="4.755495"><time>2026-05-07T18:47:55Z</time></trkpt>
<trkpt lat="50.533901" lon="4.753998"><time>2026-05-07T18:57:55Z</time></trkpt>
</trkseg>
</trk>
<trk>
<name>nlbsd13</name>
<cmt>r</cmt>
<desc>Saint-Denis Chemin n°13 Chaussée d'Eghezée</desc>
<link href="https://chemins.be/saintdenis/chemin/13"/><trkseg>
<trkpt lat="50.535852" lon="4.785330"><time>2026-05-07T18:17:55Z</time></trkpt>
<trkpt lat="50.536442" lon="4.786421"><time>2026-05-07T18:27:55Z</time></trkpt>
<trkpt lat="50.536981" lon="4.786482"><time>2026-05-07T18:37:55Z</time></trkpt>
<trkpt lat="50.537331" lon="4.786669"><time>2026-05-07T18:47:55Z</time></trkpt>
<trkpt lat="50.538450" lon="4.788075"><time>2026-05-07T18:57:55Z</time></trkpt>
<trkpt lat="50.539451" lon="4.789692"><time>2026-05-07T19:07:55Z</time></trkpt>
</trkseg></trk>
<trk>
<name>nlbsd13</name>
<cmt>s</cmt>
<desc>Saint-Denis Chemin n°13 Chaussée d'Eghezée</desc>
<link href="https://chemins.be/saintdenis/chemin/13"/><trkseg>
<trkpt lat="50.539451" lon="4.789692"><time>2026-05-07T19:07:55Z</time></trkpt>
<trkpt lat="50.539773" lon="4.790034"><time>2026-05-07T19:17:55Z</time></trkpt>
<trkpt lat="50.541064" lon="4.790948"><time>2026-05-07T19:27:55Z</time></trkpt>
<trkpt lat="50.541384" lon="4.791939"><time>2026-05-07T19:37:55Z</time></trkpt>
</trkseg>
</trk>
<trk>
<name>nlbsd14</name>
<cmt>r</cmt>
<desc>Saint-Denis Chemin n°14 Rue du Moulin</desc>
<link href="https://chemins.be/saintdenis/chemin/14"/><trkseg>
<trkpt lat="50.533561" lon="4.787581"><time>2026-05-07T18:17:55Z</time></trkpt>
<trkpt lat="50.534043" lon="4.788417"><time>2026-05-07T18:27:55Z</time></trkpt>
<trkpt lat="50.535703" lon="4.789306"><time>2026-05-07T18:37:55Z</time></trkpt>
<trkpt lat="50.538306" lon="4.790613"><time>2026-05-07T18:47:55Z</time></trkpt>
<trkpt lat="50.539245" lon="4.789409"><time>2026-05-07T18:57:55Z</time></trkpt>
</trkseg>
</trk>
<trk>
<name>nlbsd15</name>
<cmt>r</cmt>
<desc>Saint-Denis Chemin n°15 Rue du Moulin</desc>
<link href="https://chemins.be/saintdenis/chemin/15"/><trkseg>
<trkpt lat="50.533192" lon="4.787662"><time>2026-05-07T18:17:55Z</time></trkpt>
<trkpt lat="50.531908" lon="4.787242"><time>2026-05-07T18:27:55Z</time></trkpt>
<trkpt lat="50.530305" lon="4.785337"><time>2026-05-07T18:37:55Z</time></trkpt>
<trkpt lat="50.529627" lon="4.783850"><time>2026-05-07T18:47:55Z</time></trkpt>
</trkseg>
</trk>
<trk>
<name>nlbsd16</name>
<cmt>s</cmt>
<desc>Saint-Denis Chemin n°16 Rue du Moulin / Rue du Trenoy / Rue Ange au Paradis</desc>
<link href="https://chemins.be/saintdenis/chemin/16"/><trkseg>
<trkpt lat="50.536714" lon="4.795734"><time>2026-05-07T18:17:55Z</time></trkpt>
<trkpt lat="50.537193" lon="4.794864"><time>2026-05-07T18:27:55Z</time></trkpt>
<trkpt lat="50.537583" lon="4.793936"><time>2026-05-07T18:37:55Z</time></trkpt>
<trkpt lat="50.538012" lon="4.792247"><time>2026-05-07T18:47:55Z</time></trkpt>
<trkpt lat="50.538251" lon="4.790655"><time>2026-05-07T18:57:55Z</time></trkpt>
</trkseg></trk>
<trk>
<name>nlbsd16</name>
<cmt>r</cmt>
<desc>Saint-Denis Chemin n°16 Rue du Moulin / Rue du Trenoy / Rue Ange au Paradis</desc>
<link href="https://chemins.be/saintdenis/chemin/16"/><trkseg>
<trkpt lat="50.538251" lon="4.790655"><time>2026-05-07T18:57:55Z</time></trkpt>
<trkpt lat="50.538603" lon="4.790306"><time>2026-05-07T19:07:55Z</time></trkpt>
<trkpt lat="50.539506" lon="4.789383"><time>2026-05-07T19:17:55Z</time></trkpt>
<trkpt lat="50.541348" lon="4.787114"><time>2026-05-07T19:27:55Z</time></trkpt>
<trkpt lat="50.541790" lon="4.786638"><time>2026-05-07T19:37:55Z</time></trkpt>
<trkpt lat="50.541846" lon="4.786088"><time>2026-05-07T19:47:55Z</time></trkpt>
<trkpt lat="50.542725" lon="4.784234"><time>2026-05-07T19:57:55Z</time></trkpt>
<trkpt lat="50.542952" lon="4.783431"><time>2026-05-07T20:07:55Z</time></trkpt>
</trkseg>
</trk>
<trk>
<name>nlbsd17</name>
<cmt>s</cmt>
<desc>Saint-Denis Chemin n°17 </desc>
<link href="https://chemins.be/saintdenis/chemin/17"/><trkseg>
<trkpt lat="50.537959" lon="4.781822"><time>2026-05-07T18:17:55Z</time></trkpt>
<trkpt lat="50.537342" lon="4.780899"><time>2026-05-07T18:27:55Z</time></trkpt>
<trkpt lat="50.536446" lon="4.780059"><time>2026-05-07T18:37:55Z</time></trkpt>
</trkseg>
</trk>
<trk>
<name>nlbsd18</name>
<cmt>v</cmt>
<desc>Saint-Denis Chemin n°18 Rue de la Digue Haibe</desc>
<link href="https://chemins.be/saintdenis/chemin/18"/><trkseg>
<trkpt lat="50.537950" lon="4.782047"><time>2026-05-07T18:17:55Z</time></trkpt>
<trkpt lat="50.538267" lon="4.781204"><time>2026-05-07T18:27:55Z</time></trkpt>
<trkpt lat="50.538214" lon="4.778622"><time>2026-05-07T18:37:55Z</time></trkpt>
<trkpt lat="50.538064" lon="4.777774"><time>2026-05-07T18:47:55Z</time></trkpt>
<trkpt lat="50.537806" lon="4.776968"><time>2026-05-07T18:57:55Z</time></trkpt>
</trkseg>
</trk>
<trk>
<name>nlbsd19</name>
<cmt>r</cmt>
<desc>Saint-Denis Chemin n°19 Rue Dutry</desc>
<link href="https://chemins.be/saintdenis/chemin/19"/><trkseg>
<trkpt lat="50.539000" lon="4.774890"><time>2026-05-07T18:17:55Z</time></trkpt>
<trkpt lat="50.539650" lon="4.776617"><time>2026-05-07T18:27:55Z</time></trkpt>
<trkpt lat="50.540499" lon="4.778021"><time>2026-05-07T18:37:55Z</time></trkpt>
<trkpt lat="50.540567" lon="4.779136"><time>2026-05-07T18:47:55Z</time></trkpt>
</trkseg>
</trk>
<trk>
<name>nlbsd2</name>
<cmt>r</cmt>
<desc>Saint-Denis Chemin n°2 Rue Cannevaux</desc>
<link href="https://chemins.be/saintdenis/chemin/2"/><trkseg>
<trkpt lat="50.532196" lon="4.800834"><time>2026-05-07T18:17:55Z</time></trkpt>
<trkpt lat="50.534595" lon="4.797982"><time>2026-05-07T18:27:55Z</time></trkpt>
<trkpt lat="50.536659" lon="4.795808"><time>2026-05-07T18:37:55Z</time></trkpt>
<trkpt lat="50.538378" lon="4.794735"><time>2026-05-07T18:47:55Z</time></trkpt>
<trkpt lat="50.539859" lon="4.793419"><time>2026-05-07T18:57:55Z</time></trkpt>
<trkpt lat="50.541132" lon="4.792432"><time>2026-05-07T19:07:55Z</time></trkpt>
</trkseg>
</trk>
<trk>
<name>nlbsd20</name>
<cmt>r</cmt>
<desc>Saint-Denis Chemin n°20 Rue du Surtry</desc>
<link href="https://chemins.be/saintdenis/chemin/20"/><trkseg>
<trkpt lat="50.539750" lon="4.776392"><time>2026-05-07T18:17:55Z</time></trkpt>
<trkpt lat="50.541131" lon="4.774852"><time>2026-05-07T18:27:55Z</time></trkpt>
</trkseg>
</trk>
<trk>
<name>nlbsd21</name>
<cmt>r</cmt>
<desc>Saint-Denis Chemin n°21 Rue du Surtia</desc>
<link href="https://chemins.be/saintdenis/chemin/21"/><trkseg>
<trkpt lat="50.540392" lon="4.772800"><time>2026-05-07T18:17:55Z</time></trkpt>
<trkpt lat="50.541149" lon="4.774796"><time>2026-05-07T18:27:55Z</time></trkpt>
<trkpt lat="50.542281" lon="4.777500"><time>2026-05-07T18:37:55Z</time></trkpt>
</trkseg>
</trk>
<trk>
<name>nlbsd22</name>
<cmt>v</cmt>
<desc>Saint-Denis Chemin n°22 Chemin du Try / Rue du Surfia / ? / Rues Les Trys</desc>
<link href="https://chemins.be/saintdenis/chemin/22"/><trkseg>
<trkpt lat="50.542930" lon="4.776984"><time>2026-05-07T18:17:55Z</time></trkpt>
<trkpt lat="50.542380" lon="4.777416"><time>2026-05-07T18:27:55Z</time></trkpt>
<trkpt lat="50.540575" lon="4.779376"><time>2026-05-07T18:37:55Z</time></trkpt>
</trkseg></trk>
<trk>
<name>nlbsd22</name>
<cmt>r</cmt>
<desc>Saint-Denis Chemin n°22 Chemin du Try / Rue du Surfia / ? / Rues Les Trys</desc>
<link href="https://chemins.be/saintdenis/chemin/22"/><trkseg>
<trkpt lat="50.540575" lon="4.779376"><time>2026-05-07T18:37:55Z</time></trkpt>
<trkpt lat="50.539027" lon="4.782367"><time>2026-05-07T18:47:55Z</time></trkpt>
</trkseg>
</trk>
<trk>
<name>nlbsd23</name>
<cmt>r</cmt>
<desc>Saint-Denis Chemin n°23 Rue du Stordoir</desc>
<link href="https://chemins.be/saintdenis/chemin/23"/><trkseg>
<trkpt lat="50.535360" lon="4.782039"><time>2026-05-07T18:17:55Z</time></trkpt>
<trkpt lat="50.535888" lon="4.782735"><time>2026-05-07T18:27:55Z</time></trkpt>
<trkpt lat="50.536596" lon="4.783559"><time>2026-05-07T18:37:55Z</time></trkpt>
<trkpt lat="50.537940" lon="4.782245"><time>2026-05-07T18:47:55Z</time></trkpt>
<trkpt lat="50.538694" lon="4.782660"><time>2026-05-07T18:57:55Z</time></trkpt>
<trkpt lat="50.538910" lon="4.782479"><time>2026-05-07T19:07:55Z</time></trkpt>
<trkpt lat="50.539473" lon="4.783330"><time>2026-05-07T19:17:55Z</time></trkpt>
</trkseg>
</trk>
<trk>
<name>nlbsd25</name>
<cmt>s</cmt>
<desc>Saint-Denis Chemin n°25 Petit Drèfe</desc>
<link href="https://chemins.be/saintdenis/chemin/25"/><trkseg>
<trkpt lat="50.533804" lon="4.798836"><time>2026-05-07T18:17:55Z</time></trkpt>
<trkpt lat="50.534269" lon="4.799543"><time>2026-05-07T18:27:55Z</time></trkpt>
<trkpt lat="50.534480" lon="4.801737"><time>2026-05-07T18:37:55Z</time></trkpt>
<trkpt lat="50.534174" lon="4.805215"><time>2026-05-07T18:47:55Z</time></trkpt>
</trkseg>
</trk>
<trk>
<name>nlbsd26</name>
<cmt>r</cmt>
<desc>Saint-Denis Chemin n°26 Rue du Hazoir</desc>
<link href="https://chemins.be/saintdenis/chemin/26"/><trkseg>
<trkpt lat="50.536741" lon="4.812493"><time>2026-05-07T18:17:55Z</time></trkpt>
<trkpt lat="50.534062" lon="4.817094"><time>2026-05-07T18:27:55Z</time></trkpt>
<trkpt lat="50.533665" lon="4.817344"><time>2026-05-07T18:37:55Z</time></trkpt>
</trkseg>
</trk>
<trk>
<name>nlbsd27</name>
<cmt>r</cmt>
<desc>Saint-Denis Chemin n°27 Ruelle Procès</desc>
<link href="https://chemins.be/saintdenis/chemin/27"/><trkseg>
<trkpt lat="50.533722" lon="4.780247"><time>2026-05-07T18:17:55Z</time></trkpt>
<trkpt lat="50.533941" lon="4.779318"><time>2026-05-07T18:27:55Z</time></trkpt>
<trkpt lat="50.534061" lon="4.778374"><time>2026-05-07T18:37:55Z</time></trkpt>
</trkseg>
</trk>
<trk>
<name>nlbsd28</name>
<cmt>s</cmt>
<desc>Saint-Denis Chemin n°28 </desc>
<link href="https://chemins.be/saintdenis/chemin/28"/><trkseg>
<trkpt lat="50.529885" lon="4.777040"><time>2026-05-07T18:17:55Z</time></trkpt>
<trkpt lat="50.530139" lon="4.776478"><time>2026-05-07T18:27:55Z</time></trkpt>
<trkpt lat="50.530393" lon="4.775874"><time>2026-05-07T18:37:55Z</time></trkpt>
</trkseg>
</trk>
<trk>
<name>nlbsd29</name>
<cmt>r</cmt>
<desc>Saint-Denis Chemin n°29 Rue du Surfia / Rue du Surtia</desc>
<link href="https://chemins.be/saintdenis/chemin/29"/><trkseg>
<trkpt lat="50.543241" lon="4.778002"><time>2026-05-07T18:17:55Z</time></trkpt>
<trkpt lat="50.543359" lon="4.777820"><time>2026-05-07T18:27:55Z</time></trkpt>
<trkpt lat="50.543011" lon="4.777027"><time>2026-05-07T18:37:55Z</time></trkpt>
<trkpt lat="50.542912" lon="4.777082"><time>2026-05-07T18:47:55Z</time></trkpt>
<trkpt lat="50.542573" lon="4.776205"><time>2026-05-07T18:57:55Z</time></trkpt>
</trkseg>
</trk>
<trk>
<name>nlbsd3</name>
<cmt>r</cmt>
<desc>Saint-Denis Chemin n°3 Rue Reine Elisabeth</desc>
<link href="https://chemins.be/saintdenis/chemin/3"/><trkseg>
<trkpt lat="50.535404" lon="4.784987"><time>2026-05-07T18:17:55Z</time></trkpt>
<trkpt lat="50.534818" lon="4.785335"><time>2026-05-07T18:27:55Z</time></trkpt>
<trkpt lat="50.533626" lon="4.786946"><time>2026-05-07T18:37:55Z</time></trkpt>
<trkpt lat="50.533543" lon="4.787595"><time>2026-05-07T18:47:55Z</time></trkpt>
<trkpt lat="50.533084" lon="4.787703"><time>2026-05-07T18:57:55Z</time></trkpt>
<trkpt lat="50.532856" lon="4.788392"><time>2026-05-07T19:07:55Z</time></trkpt>
<trkpt lat="50.531546" lon="4.790341"><time>2026-05-07T19:17:55Z</time></trkpt>
<trkpt lat="50.528261" lon="4.796081"><time>2026-05-07T19:27:55Z</time></trkpt>
</trkseg>
</trk>
<trk>
<name>nlbsd30</name>
<cmt>s</cmt>
<desc>Saint-Denis Sentier n°30 </desc>
<link href="https://chemins.be/saintdenis/sentier/30"/><trkseg>
<trkpt lat="50.533062" lon="4.783824"><time>2026-05-07T18:17:55Z</time></trkpt>
<trkpt lat="50.533012" lon="4.785178"><time>2026-05-07T18:27:55Z</time></trkpt>
<trkpt lat="50.532352" lon="4.786230"><time>2026-05-07T18:37:55Z</time></trkpt>
<trkpt lat="50.531603" lon="4.786872"><time>2026-05-07T18:47:55Z</time></trkpt>
</trkseg></trk>
<trk>
<name>nlbsd30</name>
<cmt>v</cmt>
<desc>Saint-Denis Sentier n°30 </desc>
<link href="https://chemins.be/saintdenis/sentier/30"/><trkseg>
<trkpt lat="50.531603" lon="4.786872"><time>2026-05-07T18:47:55Z</time></trkpt>
<trkpt lat="50.530828" lon="4.787500"><time>2026-05-07T18:57:55Z</time></trkpt>
</trkseg></trk>
<trk>
<name>nlbsd30</name>
<cmt>s</cmt>
<desc>Saint-Denis Sentier n°30 </desc>
<link href="https://chemins.be/saintdenis/sentier/30"/><trkseg>
<trkpt lat="50.530828" lon="4.787500"><time>2026-05-07T18:57:55Z</time></trkpt>
<trkpt lat="50.530053" lon="4.788057"><time>2026-05-07T19:07:55Z</time></trkpt>
<trkpt lat="50.529989" lon="4.788282"><time>2026-05-07T19:17:55Z</time></trkpt>
<trkpt lat="50.529827" lon="4.788225"><time>2026-05-07T19:27:55Z</time></trkpt>
<trkpt lat="50.529665" lon="4.788350"><time>2026-05-07T19:37:55Z</time></trkpt>
<trkpt lat="50.529106" lon="4.788839"><time>2026-05-07T19:47:55Z</time></trkpt>
</trkseg></trk>
<trk>
<name>nlbsd30</name>
<cmt>v</cmt>
<desc>Saint-Denis Sentier n°30 </desc>
<link href="https://chemins.be/saintdenis/sentier/30"/><trkseg>
<trkpt lat="50.529106" lon="4.788839"><time>2026-05-07T19:47:55Z</time></trkpt>
<trkpt lat="50.527662" lon="4.790335"><time>2026-05-07T19:57:55Z</time></trkpt>
<trkpt lat="50.526392" lon="4.791085"><time>2026-05-07T20:07:55Z</time></trkpt>
<trkpt lat="50.526058" lon="4.791322"><time>2026-05-07T20:17:55Z</time></trkpt>
<trkpt lat="50.525687" lon="4.791939"><time>2026-05-07T20:27:55Z</time></trkpt>
</trkseg>
</trk>
<trk>
<name>nlbsd31</name>
<cmt>s</cmt>
<desc>Saint-Denis Sentier n°31 </desc>
<link href="https://chemins.be/saintdenis/sentier/31"/><trkseg>
<trkpt lat="50.529410" lon="4.776585"><time>2026-05-07T18:17:55Z</time></trkpt>
<trkpt lat="50.528378" lon="4.773656"><time>2026-05-07T18:27:55Z</time></trkpt>
<trkpt lat="50.525295" lon="4.768059"><time>2026-05-07T18:37:55Z</time></trkpt>
<trkpt lat="50.525217" lon="4.767382"><time>2026-05-07T18:47:55Z</time></trkpt>
<trkpt lat="50.523771" lon="4.764323"><time>2026-05-07T18:57:55Z</time></trkpt>
<trkpt lat="50.522681" lon="4.762185"><time>2026-05-07T19:07:55Z</time></trkpt>
</trkseg>
</trk>
<trk>
<name>nlbsd32</name>
<cmt>s</cmt>
<desc>Saint-Denis Sentier n°32 Rue de Cannevaux</desc>
<link href="https://chemins.be/saintdenis/sentier/32"/><trkseg>
<trkpt lat="50.529831" lon="4.777096"><time>2026-05-07T18:17:55Z</time></trkpt>
<trkpt lat="50.528900" lon="4.778372"><time>2026-05-07T18:27:55Z</time></trkpt>
<trkpt lat="50.528324" lon="4.778691"><time>2026-05-07T18:37:55Z</time></trkpt>
<trkpt lat="50.526239" lon="4.780887"><time>2026-05-07T18:47:55Z</time></trkpt>
<trkpt lat="50.525860" lon="4.781293"><time>2026-05-07T18:57:55Z</time></trkpt>
<trkpt lat="50.525478" lon="4.782672"><time>2026-05-07T19:07:55Z</time></trkpt>
</trkseg></trk>
<trk>
<name>nlbsd32</name>
<cmt>r</cmt>
<desc>Saint-Denis Sentier n°32 Rue de Cannevaux</desc>
<link href="https://chemins.be/saintdenis/sentier/32"/><trkseg>
<trkpt lat="50.525478" lon="4.782672"><time>2026-05-07T19:07:55Z</time></trkpt>
<trkpt lat="50.524846" lon="4.783498"><time>2026-05-07T19:17:55Z</time></trkpt>
<trkpt lat="50.523524" lon="4.783599"><time>2026-05-07T19:27:55Z</time></trkpt>
</trkseg>
</trk>
<trk>
<name>nlbsd33</name>
<cmt>s</cmt>
<desc>Saint-Denis Sentier n°33 Rue Grande Campagne</desc>
<link href="https://chemins.be/saintdenis/sentier/33"/><trkseg>
<trkpt lat="50.535920" lon="4.786614"><time>2026-05-07T18:17:55Z</time></trkpt>
<trkpt lat="50.535686" lon="4.789179"><time>2026-05-07T18:27:55Z</time></trkpt>
</trkseg></trk>
<trk>
<name>nlbsd33</name>
<cmt>r</cmt>
<desc>Saint-Denis Sentier n°33 Rue Grande Campagne</desc>
<link href="https://chemins.be/saintdenis/sentier/33"/><trkseg>
<trkpt lat="50.535686" lon="4.789179"><time>2026-05-07T18:27:55Z</time></trkpt>
<trkpt lat="50.535594" lon="4.792197"><time>2026-05-07T18:37:55Z</time></trkpt>
</trkseg></trk>
<trk>
<name>nlbsd33</name>
<cmt>d</cmt>
<desc>Saint-Denis Sentier n°33 Rue Grande Campagne</desc>
<link href="https://chemins.be/saintdenis/sentier/33"/><trkseg>
<trkpt lat="50.535594" lon="4.792197"><time>2026-05-07T18:37:55Z</time></trkpt>
<trkpt lat="50.535501" lon="4.792874"><time>2026-05-07T18:47:55Z</time></trkpt>
</trkseg></trk>
<trk>
<name>nlbsd33</name>
<cmt>s</cmt>
<desc>Saint-Denis Sentier n°33 Rue Grande Campagne</desc>
<link href="https://chemins.be/saintdenis/sentier/33"/><trkseg>
<trkpt lat="50.535501" lon="4.792874"><time>2026-05-07T18:47:55Z</time></trkpt>
<trkpt lat="50.534539" lon="4.797887"><time>2026-05-07T18:57:55Z</time></trkpt>
</trkseg>
</trk>
<trk>
<name>nlbsd34</name>
<cmt>b</cmt>
<desc>Saint-Denis Sentier n°34 </desc>
<link href="https://chemins.be/saintdenis/sentier/34"/><trkseg>
<trkpt lat="50.534070" lon="4.788305"><time>2026-05-07T18:17:55Z</time></trkpt>
<trkpt lat="50.535242" lon="4.787581"><time>2026-05-07T18:27:55Z</time></trkpt>
<trkpt lat="50.535729" lon="4.787205"><time>2026-05-07T18:37:55Z</time></trkpt>
</trkseg></trk>
<trk>
<name>nlbsd34</name>
<cmt>v</cmt>
<desc>Saint-Denis Sentier n°34 </desc>
<link href="https://chemins.be/saintdenis/sentier/34"/><trkseg>
<trkpt lat="50.535729" lon="4.787205"><time>2026-05-07T18:37:55Z</time></trkpt>
<trkpt lat="50.536143" lon="4.786898"><time>2026-05-07T18:47:55Z</time></trkpt>
<trkpt lat="50.536468" lon="4.786633"><time>2026-05-07T18:57:55Z</time></trkpt>
<trkpt lat="50.536564" lon="4.787311"><time>2026-05-07T19:07:55Z</time></trkpt>
</trkseg>
</trk>
<trk>
<name>nlbsd35</name>
<cmt>s</cmt>
<desc>Saint-Denis Sentier n°35 </desc>
<link href="https://chemins.be/saintdenis/sentier/35"/><trkseg>
<trkpt lat="50.535816" lon="4.785400"><time>2026-05-07T18:17:55Z</time></trkpt>
<trkpt lat="50.535626" lon="4.785695"><time>2026-05-07T18:27:55Z</time></trkpt>
<trkpt lat="50.535589" lon="4.785892"><time>2026-05-07T18:37:55Z</time></trkpt>
<trkpt lat="50.534894" lon="4.786788"><time>2026-05-07T18:47:55Z</time></trkpt>
<trkpt lat="50.533766" lon="4.787822"><time>2026-05-07T18:57:55Z</time></trkpt>
</trkseg>
</trk>
<trk>
<name>nlbsd36</name>
<cmt>s</cmt>
<desc>Saint-Denis Sentier n°36 </desc>
<link href="https://chemins.be/saintdenis/sentier/36"/><trkseg>
<trkpt lat="50.535580" lon="4.785962"><time>2026-05-07T18:17:55Z</time></trkpt>
<trkpt lat="50.535938" lon="4.786614"><time>2026-05-07T18:27:55Z</time></trkpt>
<trkpt lat="50.536098" lon="4.786870"><time>2026-05-07T18:37:55Z</time></trkpt>
<trkpt lat="50.536537" lon="4.787367"><time>2026-05-07T18:47:55Z</time></trkpt>
<trkpt lat="50.537039" lon="4.787879"><time>2026-05-07T18:57:55Z</time></trkpt>
<trkpt lat="50.538117" lon="4.790640"><time>2026-05-07T19:07:55Z</time></trkpt>
<trkpt lat="50.538029" lon="4.792346"><time>2026-05-07T19:17:55Z</time></trkpt>
<trkpt lat="50.538813" lon="4.794314"><time>2026-05-07T19:27:55Z</time></trkpt>
</trkseg>
</trk>
<trk>
<name>nlbsd37</name>
<cmt>v</cmt>
<desc>Saint-Denis Sentier n°37 Rue de Beauffaux</desc>
<link href="https://chemins.be/saintdenis/sentier/37"/><trkseg>
<trkpt lat="50.536963" lon="4.786383"><time>2026-05-07T18:17:55Z</time></trkpt>
<trkpt lat="50.537234" lon="4.786090"><time>2026-05-07T18:27:55Z</time></trkpt>
</trkseg></trk>
<trk>
<name>nlbsd37</name>
<cmt>s</cmt>
<desc>Saint-Denis Sentier n°37 Rue de Beauffaux</desc>
<link href="https://chemins.be/saintdenis/sentier/37"/><trkseg>
<trkpt lat="50.537234" lon="4.786090"><time>2026-05-07T18:27:55Z</time></trkpt>
<trkpt lat="50.537803" lon="4.785446"><time>2026-05-07T18:37:55Z</time></trkpt>
</trkseg></trk>
<trk>
<name>nlbsd37</name>
<cmt>q</cmt>
<desc>Saint-Denis Sentier n°37 Rue de Beauffaux</desc>
<link href="https://chemins.be/saintdenis/sentier/37"/><trkseg>
<trkpt lat="50.537803" lon="4.785446"><time>2026-05-07T18:37:55Z</time></trkpt>
<trkpt lat="50.539518" lon="4.783331"><time>2026-05-07T18:47:55Z</time></trkpt>
<trkpt lat="50.541497" lon="4.780653"><time>2026-05-07T18:57:55Z</time></trkpt>
<trkpt lat="50.543223" lon="4.778016"><time>2026-05-07T19:07:55Z</time></trkpt>
</trkseg></trk>
<trk>
<name>nlbsd37</name>
<cmt>s</cmt>
<desc>Saint-Denis Sentier n°37 Rue de Beauffaux</desc>
<link href="https://chemins.be/saintdenis/sentier/37"/><trkseg>
<trkpt lat="50.543223" lon="4.778016"><time>2026-05-07T19:07:55Z</time></trkpt>
<trkpt lat="50.543503" lon="4.777623"><time>2026-05-07T19:17:55Z</time></trkpt>
<trkpt lat="50.543668" lon="4.776905"><time>2026-05-07T19:27:55Z</time></trkpt>
<trkpt lat="50.544182" lon="4.776275"><time>2026-05-07T19:37:55Z</time></trkpt>
<trkpt lat="50.544755" lon="4.774432"><time>2026-05-07T19:47:55Z</time></trkpt>
<trkpt lat="50.545550" lon="4.773451"><time>2026-05-07T19:57:55Z</time></trkpt>
<trkpt lat="50.547710" lon="4.770139"><time>2026-05-07T20:07:55Z</time></trkpt>
<trkpt lat="50.548806" lon="4.767708"><time>2026-05-07T20:17:55Z</time></trkpt>
<trkpt lat="50.549253" lon="4.765933"><time>2026-05-07T20:27:55Z</time></trkpt>
<trkpt lat="50.549544" lon="4.764948"><time>2026-05-07T20:37:55Z</time></trkpt>
<trkpt lat="50.549851" lon="4.761903"><time>2026-05-07T20:47:55Z</time></trkpt>
</trkseg></trk>
<trk>
<name>nlbsd37</name>
<cmt>r</cmt>
<desc>Saint-Denis Sentier n°37 Rue de Beauffaux</desc>
<link href="https://chemins.be/saintdenis/sentier/37"/><trkseg>
<trkpt lat="50.549851" lon="4.761903"><time>2026-05-07T20:47:55Z</time></trkpt>
<trkpt lat="50.550280" lon="4.759889"><time>2026-05-07T20:57:55Z</time></trkpt>
</trkseg>
</trk>
<trk>
<name>nlbsd38</name>
<cmt>v</cmt>
<desc>Saint-Denis Sentier n°38 </desc>
<link href="https://chemins.be/saintdenis/sentier/38"/><trkseg>
<trkpt lat="50.536703" lon="4.783870"><time>2026-05-07T18:17:55Z</time></trkpt>
<trkpt lat="50.537042" lon="4.784564"><time>2026-05-07T18:27:55Z</time></trkpt>
</trkseg></trk>
<trk>
<name>nlbsd38</name>
<cmt>s</cmt>
<desc>Saint-Denis Sentier n°38 </desc>
<link href="https://chemins.be/saintdenis/sentier/38"/><trkseg>
<trkpt lat="50.537042" lon="4.784564"><time>2026-05-07T18:27:55Z</time></trkpt>
<trkpt lat="50.537301" lon="4.785089"><time>2026-05-07T18:37:55Z</time></trkpt>
<trkpt lat="50.537821" lon="4.785432"><time>2026-05-07T18:47:55Z</time></trkpt>
<trkpt lat="50.539410" lon="4.786123"><time>2026-05-07T18:57:55Z</time></trkpt>
<trkpt lat="50.541044" lon="4.786589"><time>2026-05-07T19:07:55Z</time></trkpt>
<trkpt lat="50.541294" lon="4.787099"><time>2026-05-07T19:17:55Z</time></trkpt>
</trkseg>
</trk>
<trk>
<name>nlbsd39</name>
<cmt>s</cmt>
<desc>Saint-Denis Sentier n°39 </desc>
<link href="https://chemins.be/saintdenis/sentier/39"/><trkseg>
<trkpt lat="50.534475" lon="4.785699"><time>2026-05-07T18:17:55Z</time></trkpt>
<trkpt lat="50.534110" lon="4.784778"><time>2026-05-07T18:27:55Z</time></trkpt>
</trkseg></trk>
<trk>
<name>nlbsd39</name>
<cmt>d</cmt>
<desc>Saint-Denis Sentier n°39 </desc>
<link href="https://chemins.be/saintdenis/sentier/39"/><trkseg>
<trkpt lat="50.534110" lon="4.784778"><time>2026-05-07T18:27:55Z</time></trkpt>
<trkpt lat="50.534426" lon="4.784316"><time>2026-05-07T18:37:55Z</time></trkpt>
<trkpt lat="50.534150" lon="4.783805"><time>2026-05-07T18:47:55Z</time></trkpt>
</trkseg></trk>
<trk>
<name>nlbsd39</name>
<cmt>s</cmt>
<desc>Saint-Denis Sentier n°39 </desc>
<link href="https://chemins.be/saintdenis/sentier/39"/><trkseg>
<trkpt lat="50.534150" lon="4.783805"><time>2026-05-07T18:47:55Z</time></trkpt>
<trkpt lat="50.533044" lon="4.783810"><time>2026-05-07T18:57:55Z</time></trkpt>
<trkpt lat="50.532802" lon="4.783469"><time>2026-05-07T19:07:55Z</time></trkpt>
<trkpt lat="50.532588" lon="4.783129"><time>2026-05-07T19:17:55Z</time></trkpt>
</trkseg>
</trk>
<trk>
<name>nlbsd4</name>
<cmt>r</cmt>
<desc>Saint-Denis Chemin n°4 Chemin de Noly / Rue du Noly / Vieux Chemin des Isnes / ? / Chaussée de Namur / Chemin n°4 de Saint-Denis</desc>
<link href="https://chemins.be/saintdenis/chemin/4"/><trkseg>
<trkpt lat="50.535325" lon="4.781996"><time>2026-05-07T18:17:55Z</time></trkpt>
<trkpt lat="50.532208" lon="4.778640"><time>2026-05-07T18:27:55Z</time></trkpt>
<trkpt lat="50.529230" lon="4.776569"><time>2026-05-07T18:37:55Z</time></trkpt>
<trkpt lat="50.527105" lon="4.774943"><time>2026-05-07T18:47:55Z</time></trkpt>
<trkpt lat="50.524694" lon="4.773061"><time>2026-05-07T18:57:55Z</time></trkpt>
<trkpt lat="50.521976" lon="4.771162"><time>2026-05-07T19:07:55Z</time></trkpt>
<trkpt lat="50.520499" lon="4.769386"><time>2026-05-07T19:17:55Z</time></trkpt>
<trkpt lat="50.519130" lon="4.767344"><time>2026-05-07T19:27:55Z</time></trkpt>
<trkpt lat="50.520190" lon="4.765083"><time>2026-05-07T19:37:55Z</time></trkpt>
</trkseg></trk>
<trk>
<name>nlbsd4</name>
<cmt>s</cmt>
<desc>Saint-Denis Chemin n°4 Chemin de Noly / Rue du Noly / Vieux Chemin des Isnes / ? / Chaussée de Namur / Chemin n°4 de Saint-Denis</desc>
<link href="https://chemins.be/saintdenis/chemin/4"/><trkseg>
<trkpt lat="50.520190" lon="4.765083"><time>2026-05-07T19:37:55Z</time></trkpt>
<trkpt lat="50.522214" lon="4.761955"><time>2026-05-07T19:47:55Z</time></trkpt>
<trkpt lat="50.522565" lon="4.761817"><time>2026-05-07T19:57:55Z</time></trkpt>
</trkseg></trk>
<trk>
<name>nlbsd4</name>
<cmt>v</cmt>
<desc>Saint-Denis Chemin n°4 Chemin de Noly / Rue du Noly / Vieux Chemin des Isnes / ? / Chaussée de Namur / Chemin n°4 de Saint-Denis</desc>
<link href="https://chemins.be/saintdenis/chemin/4"/><trkseg>
<trkpt lat="50.522565" lon="4.761817"><time>2026-05-07T19:57:55Z</time></trkpt>
<trkpt lat="50.523658" lon="4.760430"><time>2026-05-07T20:07:55Z</time></trkpt>
<trkpt lat="50.524453" lon="4.759379"><time>2026-05-07T20:17:55Z</time></trkpt>
<trkpt lat="50.526199" lon="4.756121"><time>2026-05-07T20:27:55Z</time></trkpt>
<trkpt lat="50.526579" lon="4.755349"><time>2026-05-07T20:37:55Z</time></trkpt>
</trkseg>
</trk>
<trk>
<name>nlbsd40</name>
<cmt>s</cmt>
<desc>Saint-Denis Sentier n°40 </desc>
<link href="https://chemins.be/saintdenis/sentier/40"/><trkseg>
<trkpt lat="50.535244" lon="4.781967"><time>2026-05-07T18:17:55Z</time></trkpt>
<trkpt lat="50.534656" lon="4.782978"><time>2026-05-07T18:27:55Z</time></trkpt>
<trkpt lat="50.534150" lon="4.783777"><time>2026-05-07T18:37:55Z</time></trkpt>
</trkseg>
</trk>
<trk>
<name>nlbsd41</name>
<cmt>b</cmt>
<desc>Saint-Denis Sentier n°41 </desc>
<link href="https://chemins.be/saintdenis/sentier/41"/><trkseg>
<trkpt lat="50.535841" lon="4.781027"><time>2026-05-07T18:17:55Z</time></trkpt>
<trkpt lat="50.536171" lon="4.781510"><time>2026-05-07T18:27:55Z</time></trkpt>
<trkpt lat="50.536815" lon="4.782531"><time>2026-05-07T18:37:55Z</time></trkpt>
<trkpt lat="50.537083" lon="4.782943"><time>2026-05-07T18:47:55Z</time></trkpt>
</trkseg>
</trk>
<trk>
<name>nlbsd42</name>
<cmt>s</cmt>
<desc>Saint-Denis Sentier n°42 </desc>
<link href="https://chemins.be/saintdenis/sentier/42"/><trkseg>
<trkpt lat="50.540909" lon="4.778998"><time>2026-05-07T18:17:55Z</time></trkpt>
<trkpt lat="50.541632" lon="4.780429"><time>2026-05-07T18:27:55Z</time></trkpt>
<trkpt lat="50.541560" lon="4.780583"><time>2026-05-07T18:37:55Z</time></trkpt>
<trkpt lat="50.543079" lon="4.783193"><time>2026-05-07T18:47:55Z</time></trkpt>
</trkseg>
</trk>
<trk>
<name>nlbsd43</name>
<cmt>v</cmt>
<desc>Saint-Denis Sentier n°43 Rue du Surtia / ?</desc>
<link href="https://chemins.be/saintdenis/sentier/43"/><trkseg>
<trkpt lat="50.544429" lon="4.780326"><time>2026-05-07T18:17:55Z</time></trkpt>
<trkpt lat="50.543214" lon="4.778016"><time>2026-05-07T18:27:55Z</time></trkpt>
</trkseg></trk>
<trk>
<name>nlbsd43</name>
<cmt>r</cmt>
<desc>Saint-Denis Sentier n°43 Rue du Surtia / ?</desc>
<link href="https://chemins.be/saintdenis/sentier/43"/><trkseg>
<trkpt lat="50.543214" lon="4.778016"><time>2026-05-07T18:27:55Z</time></trkpt>
<trkpt lat="50.543368" lon="4.777806"><time>2026-05-07T18:37:55Z</time></trkpt>
<trkpt lat="50.543020" lon="4.777027"><time>2026-05-07T18:47:55Z</time></trkpt>
<trkpt lat="50.542903" lon="4.777096"><time>2026-05-07T18:57:55Z</time></trkpt>
<trkpt lat="50.542564" lon="4.776162"><time>2026-05-07T19:07:55Z</time></trkpt>
</trkseg></trk>
<trk>
<name>nlbsd43</name>
<cmt>v</cmt>
<desc>Saint-Denis Sentier n°43 Rue du Surtia / ?</desc>
<link href="https://chemins.be/saintdenis/sentier/43"/><trkseg>
<trkpt lat="50.542564" lon="4.776162"><time>2026-05-07T19:07:55Z</time></trkpt>
<trkpt lat="50.542449" lon="4.775893"><time>2026-05-07T19:17:55Z</time></trkpt>
</trkseg></trk>
<trk>
<name>nlbsd43</name>
<cmt>s</cmt>
<desc>Saint-Denis Sentier n°43 Rue du Surtia / ?</desc>
<link href="https://chemins.be/saintdenis/sentier/43"/><trkseg>
<trkpt lat="50.542449" lon="4.775893"><time>2026-05-07T19:17:55Z</time></trkpt>
<trkpt lat="50.541032" lon="4.772312"><time>2026-05-07T19:27:55Z</time></trkpt>
</trkseg>
</trk>
<trk>
<name>nlbsd44</name>
<cmt>s</cmt>
<desc>Saint-Denis Sentier n°44 </desc>
<link href="https://chemins.be/saintdenis/sentier/44"/><trkseg>
<trkpt lat="50.541123" lon="4.774485"><time>2026-05-07T18:17:55Z</time></trkpt>
<trkpt lat="50.541655" lon="4.773925"><time>2026-05-07T18:27:55Z</time></trkpt>
<trkpt lat="50.543727" lon="4.770120"><time>2026-05-07T18:37:55Z</time></trkpt>
</trkseg>
</trk>
<trk>
<name>nlbsd45</name>
<cmt>s</cmt>
<desc>Saint-Denis Sentier n°45 </desc>
<link href="https://chemins.be/saintdenis/sentier/45"/><trkseg>
<trkpt lat="50.547180" lon="4.775271"><time>2026-05-07T18:17:55Z</time></trkpt>
<trkpt lat="50.547257" lon="4.771180"><time>2026-05-07T18:27:55Z</time></trkpt>
</trkseg>
</trk>
<trk>
<name>nlbsd46</name>
<cmt>s</cmt>
<desc>Saint-Denis Sentier n°46 </desc>
<link href="https://chemins.be/saintdenis/sentier/46"/><trkseg>
<trkpt lat="50.550378" lon="4.760087"><time>2026-05-07T18:17:55Z</time></trkpt>
<trkpt lat="50.550750" lon="4.761783"><time>2026-05-07T18:27:55Z</time></trkpt>
<trkpt lat="50.551278" lon="4.765132"><time>2026-05-07T18:37:55Z</time></trkpt>
</trkseg>
</trk>
<trk>
<name>nlbsd47</name>
<cmt>s</cmt>
<desc>Saint-Denis Sentier n°47 Rue des Bruyères / ?</desc>
<link href="https://chemins.be/saintdenis/sentier/47"/><trkseg>
<trkpt lat="50.538739" lon="4.774930"><time>2026-05-07T18:17:55Z</time></trkpt>
<trkpt lat="50.536595" lon="4.773430"><time>2026-05-07T18:27:55Z</time></trkpt>
</trkseg></trk>
<trk>
<name>nlbsd47</name>
<cmt>r</cmt>
<desc>Saint-Denis Sentier n°47 Rue des Bruyères / ?</desc>
<link href="https://chemins.be/saintdenis/sentier/47"/><trkseg>
<trkpt lat="50.536595" lon="4.773430"><time>2026-05-07T18:27:55Z</time></trkpt>
<trkpt lat="50.536079" lon="4.772030"><time>2026-05-07T18:37:55Z</time></trkpt>
<trkpt lat="50.535233" lon="4.769526"><time>2026-05-07T18:47:55Z</time></trkpt>
</trkseg></trk>
<trk>
<name>nlbsd47</name>
<cmt>s</cmt>
<desc>Saint-Denis Sentier n°47 Rue des Bruyères / ?</desc>
<link href="https://chemins.be/saintdenis/sentier/47"/><trkseg>
<trkpt lat="50.535233" lon="4.769526"><time>2026-05-07T18:47:55Z</time></trkpt>
<trkpt lat="50.533441" lon="4.765293"><time>2026-05-07T18:57:55Z</time></trkpt>
<trkpt lat="50.531596" lon="4.760552"><time>2026-05-07T19:07:55Z</time></trkpt>
</trkseg>
</trk>
<trk>
<name>nlbsd48</name>
<cmt>s</cmt>
<desc>Saint-Denis Sentier n°48 </desc>
<link href="https://chemins.be/saintdenis/sentier/48"/><trkseg>
<trkpt lat="50.537081" lon="4.778555"><time>2026-05-07T18:17:55Z</time></trkpt>
<trkpt lat="50.537201" lon="4.775185"><time>2026-05-07T18:27:55Z</time></trkpt>
</trkseg>
</trk>
<trk>
<name>nlbsd49</name>
<cmt>r</cmt>
<desc>Saint-Denis Chemin n°49 Rue des Bruyères</desc>
<link href="https://chemins.be/saintdenis/chemin/49"/><trkseg>
<trkpt lat="50.537780" lon="4.776657"><time>2026-05-07T18:17:55Z</time></trkpt>
<trkpt lat="50.536623" lon="4.773346"><time>2026-05-07T18:27:55Z</time></trkpt>
<trkpt lat="50.536115" lon="4.772044"><time>2026-05-07T18:37:55Z</time></trkpt>
</trkseg>
</trk>
<trk>
<name>nlbsd5</name>
<cmt>r</cmt>
<desc>Saint-Denis Chemin n°5 Ruelle Mouchet</desc>
<link href="https://chemins.be/saintdenis/chemin/5"/><trkseg>
<trkpt lat="50.534178" lon="4.780900"><time>2026-05-07T18:17:55Z</time></trkpt>
<trkpt lat="50.532480" lon="4.783100"><time>2026-05-07T18:27:55Z</time></trkpt>
<trkpt lat="50.529925" lon="4.783599"><time>2026-05-07T18:37:55Z</time></trkpt>
<trkpt lat="50.528565" lon="4.784151"><time>2026-05-07T18:47:55Z</time></trkpt>
</trkseg>
</trk>
<trk>
<name>nlbsd50</name>
<cmt>s</cmt>
<desc>Saint-Denis Sentier n°50 </desc>
<link href="https://chemins.be/saintdenis/sentier/50"/><trkseg>
<trkpt lat="50.541127" lon="4.791104"><time>2026-05-07T18:17:55Z</time></trkpt>
<trkpt lat="50.542303" lon="4.791383"><time>2026-05-07T18:27:55Z</time></trkpt>
</trkseg>
</trk>
<trk>
<name>nlbsd51</name>
<cmt>s</cmt>
<desc>Saint-Denis Sentier n°51 </desc>
<link href="https://chemins.be/saintdenis/sentier/51"/><trkseg>
<trkpt lat="50.538251" lon="4.790655"><time>2026-05-07T18:17:55Z</time></trkpt>
<trkpt lat="50.540265" lon="4.790631"><time>2026-05-07T18:27:55Z</time></trkpt>
</trkseg>
</trk>
<trk>
<name>nlbsd52</name>
<cmt>s</cmt>
<desc>Saint-Denis Sentier n°52 </desc>
<link href="https://chemins.be/saintdenis/sentier/52"/><trkseg>
<trkpt lat="50.535198" lon="4.784732"><time>2026-05-07T18:17:55Z</time></trkpt>
<trkpt lat="50.534467" lon="4.785416"><time>2026-05-07T18:27:55Z</time></trkpt>
</trkseg>
</trk>
<trk>
<name>nlbsd53</name>
<cmt>q</cmt>
<desc>Saint-Denis Sentier n°53 </desc>
<link href="https://chemins.be/saintdenis/sentier/53"/><trkseg>
<trkpt lat="50.535021" lon="4.783870"><time>2026-05-07T18:17:55Z</time></trkpt>
<trkpt lat="50.534408" lon="4.784316"><time>2026-05-07T18:27:55Z</time></trkpt>
</trkseg>
</trk>
<trk>
<name>nlbsd54</name>
<cmt>v</cmt>
<desc>Saint-Denis Sentier n°54 </desc>
<link href="https://chemins.be/saintdenis/sentier/54"/><trkseg>
<trkpt lat="50.535013" lon="4.783601"><time>2026-05-07T18:17:55Z</time></trkpt>
<trkpt lat="50.534638" lon="4.782992"><time>2026-05-07T18:27:55Z</time></trkpt>
</trkseg></trk>
<trk>
<name>nlbsd54</name>
<cmt>s</cmt>
<desc>Saint-Denis Sentier n°54 </desc>
<link href="https://chemins.be/saintdenis/sentier/54"/><trkseg>
<trkpt lat="50.534638" lon="4.782992"><time>2026-05-07T18:27:55Z</time></trkpt>
<trkpt lat="50.534783" lon="4.782753"><time>2026-05-07T18:37:55Z</time></trkpt>
<trkpt lat="50.534641" lon="4.782018"><time>2026-05-07T18:47:55Z</time></trkpt>
<trkpt lat="50.534472" lon="4.781692"><time>2026-05-07T18:57:55Z</time></trkpt>
<trkpt lat="50.534617" lon="4.781355"><time>2026-05-07T19:07:55Z</time></trkpt>
</trkseg>
</trk>
<trk>
<name>nlbsd55</name>
<cmt>s</cmt>
<desc>Saint-Denis Sentier n°55 </desc>
<link href="https://chemins.be/saintdenis/sentier/55"/><trkseg>
<trkpt lat="50.537959" lon="4.781836"><time>2026-05-07T18:17:55Z</time></trkpt>
<trkpt lat="50.537342" lon="4.781012"><time>2026-05-07T18:27:55Z</time></trkpt>
<trkpt lat="50.536392" lon="4.780059"><time>2026-05-07T18:37:55Z</time></trkpt>
<trkpt lat="50.535830" lon="4.779052"><time>2026-05-07T18:47:55Z</time></trkpt>
<trkpt lat="50.534133" lon="4.778389"><time>2026-05-07T18:57:55Z</time></trkpt>
</trkseg>
</trk>
<trk>
<name>nlbsd56</name>
<cmt>s</cmt>
<desc>Saint-Denis Sentier n°56 </desc>
<link href="https://chemins.be/saintdenis/sentier/56"/><trkseg>
<trkpt lat="50.537089" lon="4.778753"><time>2026-05-07T18:17:55Z</time></trkpt>
<trkpt lat="50.537260" lon="4.778768"><time>2026-05-07T18:27:55Z</time></trkpt>
<trkpt lat="50.538018" lon="4.777844"><time>2026-05-07T18:37:55Z</time></trkpt>
<trkpt lat="50.538793" lon="4.777315"><time>2026-05-07T18:47:55Z</time></trkpt>
<trkpt lat="50.539534" lon="4.776432"><time>2026-05-07T18:57:55Z</time></trkpt>
</trkseg>
</trk>
<trk>
<name>nlbsd57</name>
<cmt>s</cmt>
<desc>Saint-Denis Sentier n°57 Rue du Noly</desc>
<link href="https://chemins.be/saintdenis/sentier/57"/><trkseg>
<trkpt lat="50.534151" lon="4.780829"><time>2026-05-07T18:17:55Z</time></trkpt>
<trkpt lat="50.532306" lon="4.778754"><time>2026-05-07T18:27:55Z</time></trkpt>
<trkpt lat="50.531095" lon="4.777982"><time>2026-05-07T18:37:55Z</time></trkpt>
<trkpt lat="50.530182" lon="4.777015"><time>2026-05-07T18:47:55Z</time></trkpt>
</trkseg>
</trk>
<trk>
<name>nlbsd58</name>
<cmt>v</cmt>
<desc>Saint-Denis Sentier n°58 </desc>
<link href="https://chemins.be/saintdenis/sentier/58"/><trkseg>
<trkpt lat="50.536686" lon="4.783489"><time>2026-05-07T18:17:55Z</time></trkpt>
<trkpt lat="50.536667" lon="4.783813"><time>2026-05-07T18:27:55Z</time></trkpt>
<trkpt lat="50.536341" lon="4.784431"><time>2026-05-07T18:37:55Z</time></trkpt>
<trkpt lat="50.535826" lon="4.785146"><time>2026-05-07T18:47:55Z</time></trkpt>
</trkseg>
</trk>
<trk>
<name>nlbsd59</name>
<cmt>s</cmt>
<desc>Saint-Denis Sentier n°59 </desc>
<link href="https://chemins.be/saintdenis/sentier/59"/><trkseg>
<trkpt lat="50.535042" lon="4.807582"><time>2026-05-07T18:17:55Z</time></trkpt>
<trkpt lat="50.534871" lon="4.810120"><time>2026-05-07T18:27:55Z</time></trkpt>
<trkpt lat="50.534976" lon="4.810840"><time>2026-05-07T18:37:55Z</time></trkpt>
<trkpt lat="50.534973" lon="4.811658"><time>2026-05-07T18:47:55Z</time></trkpt>
<trkpt lat="50.534970" lon="4.812321"><time>2026-05-07T18:57:55Z</time></trkpt>
<trkpt lat="50.535308" lon="4.813368"><time>2026-05-07T19:07:55Z</time></trkpt>
<trkpt lat="50.535573" lon="4.814443"><time>2026-05-07T19:17:55Z</time></trkpt>
</trkseg>
</trk>
<trk>
<name>nlbsd6</name>
<cmt>r</cmt>
<desc>Saint-Denis Chemin n°6 Chemin de la Taillette / Rue de la Taillette / ?</desc>
<link href="https://chemins.be/saintdenis/chemin/6"/><trkseg>
<trkpt lat="50.536267" lon="4.779832"><time>2026-05-07T18:17:55Z</time></trkpt>
<trkpt lat="50.535848" lon="4.779052"><time>2026-05-07T18:27:55Z</time></trkpt>
<trkpt lat="50.534097" lon="4.778318"><time>2026-05-07T18:37:55Z</time></trkpt>
<trkpt lat="50.534182" lon="4.777303"><time>2026-05-07T18:47:55Z</time></trkpt>
<trkpt lat="50.531519" lon="4.772597"><time>2026-05-07T18:57:55Z</time></trkpt>
<trkpt lat="50.529204" lon="4.766005"><time>2026-05-07T19:07:55Z</time></trkpt>
<trkpt lat="50.528703" lon="4.762644"><time>2026-05-07T19:17:55Z</time></trkpt>
<trkpt lat="50.527908" lon="4.758378"><time>2026-05-07T19:27:55Z</time></trkpt>
</trkseg></trk>
<trk>
<name>nlbsd6</name>
<cmt>s</cmt>
<desc>Saint-Denis Chemin n°6 Chemin de la Taillette / Rue de la Taillette / ?</desc>
<link href="https://chemins.be/saintdenis/chemin/6"/><trkseg>
<trkpt lat="50.527908" lon="4.758378"><time>2026-05-07T19:27:55Z</time></trkpt>
<trkpt lat="50.527748" lon="4.757883"><time>2026-05-07T19:37:55Z</time></trkpt>
</trkseg></trk>
<trk>
<name>nlbsd6</name>
<cmt>v</cmt>
<desc>Saint-Denis Chemin n°6 Chemin de la Taillette / Rue de la Taillette / ?</desc>
<link href="https://chemins.be/saintdenis/chemin/6"/><trkseg>
<trkpt lat="50.527748" lon="4.757883"><time>2026-05-07T19:37:55Z</time></trkpt>
<trkpt lat="50.526632" lon="4.755645"><time>2026-05-07T19:47:55Z</time></trkpt>
<trkpt lat="50.526462" lon="4.755376"><time>2026-05-07T19:57:55Z</time></trkpt>
</trkseg>
</trk>
<trk>
<name>nlbsd60</name>
<cmt>s</cmt>
<desc>Saint-Denis Sentier n°60 </desc>
<link href="https://chemins.be/saintdenis/sentier/60"/><trkseg>
<trkpt lat="50.556988" lon="4.756727"><time>2026-05-07T18:17:55Z</time></trkpt>
<trkpt lat="50.557623" lon="4.757706"><time>2026-05-07T18:27:55Z</time></trkpt>
<trkpt lat="50.558627" lon="4.758674"><time>2026-05-07T18:37:55Z</time></trkpt>
</trkseg>
</trk>
<trk>
<name>nlbsd61</name>
<cmt>s</cmt>
<desc>Saint-Denis Sentier n°61 </desc>
<link href="https://chemins.be/saintdenis/sentier/61"/><trkseg>
<trkpt lat="50.548574" lon="4.762005"><time>2026-05-07T18:17:55Z</time></trkpt>
<trkpt lat="50.549795" lon="4.759673"><time>2026-05-07T18:27:55Z</time></trkpt>
<trkpt lat="50.550272" lon="4.759550"><time>2026-05-07T18:37:55Z</time></trkpt>
</trkseg>
</trk>
<trk>
<name>nlbsd62</name>
<cmt>s</cmt>
<desc>Saint-Denis Sentier n°62 Rue du Moulin</desc>
<link href="https://chemins.be/saintdenis/sentier/62"/><trkseg>
<trkpt lat="50.538395" lon="4.790741"><time>2026-05-07T18:17:55Z</time></trkpt>
<trkpt lat="50.539280" lon="4.789620"><time>2026-05-07T18:27:55Z</time></trkpt>
</trkseg>
</trk>
<trk>
<name>nlbsd63</name>
<cmt>s</cmt>
<desc>Saint-Denis Sentier n°63 Rue Reine Elisabeth</desc>
<link href="https://chemins.be/saintdenis/sentier/63"/><trkseg>
<trkpt lat="50.535386" lon="4.785086"><time>2026-05-07T18:17:55Z</time></trkpt>
<trkpt lat="50.534872" lon="4.785462"><time>2026-05-07T18:27:55Z</time></trkpt>
<trkpt lat="50.534637" lon="4.785756"><time>2026-05-07T18:37:55Z</time></trkpt>
</trkseg>
</trk>
<trk>
<name>nlbsd64</name>
<cmt>s</cmt>
<desc>Saint-Denis Sentier n°64 Rue de Beauffaux</desc>
<link href="https://chemins.be/saintdenis/sentier/64"/><trkseg>
<trkpt lat="50.537508" lon="4.777233"><time>2026-05-07T18:17:55Z</time></trkpt>
<trkpt lat="50.538757" lon="4.774973"><time>2026-05-07T18:27:55Z</time></trkpt>
</trkseg>
</trk>
<trk>
<name>nlbsd65</name>
<cmt>s</cmt>
<desc>Saint-Denis Sentier n°65 Ruelle Proces</desc>
<link href="https://chemins.be/saintdenis/sentier/65"/><trkseg>
<trkpt lat="50.533776" lon="4.780248"><time>2026-05-07T18:17:55Z</time></trkpt>
<trkpt lat="50.533995" lon="4.779262"><time>2026-05-07T18:27:55Z</time></trkpt>
<trkpt lat="50.534088" lon="4.778388"><time>2026-05-07T18:37:55Z</time></trkpt>
</trkseg>
</trk>
<trk>
<name>nlbsd66</name>
<cmt>s</cmt>
<desc>Saint-Denis Chemin n°66 </desc>
<link href="https://chemins.be/saintdenis/chemin/66"/><trkseg>
<trkpt lat="50.533290" lon="4.787733"><time>2026-05-07T18:17:55Z</time></trkpt>
<trkpt lat="50.533305" lon="4.788580"><time>2026-05-07T18:27:55Z</time></trkpt>
</trkseg>
</trk>
<trk>
<name>nlbsd67</name>
<cmt>s</cmt>
<desc>Saint-Denis Sentier n°67 </desc>
<link href="https://chemins.be/saintdenis/sentier/67"/><trkseg>
<trkpt lat="50.542930" lon="4.776998"><time>2026-05-07T18:17:55Z</time></trkpt>
<trkpt lat="50.543444" lon="4.776664"><time>2026-05-07T18:27:55Z</time></trkpt>
<trkpt lat="50.544165" lon="4.776218"><time>2026-05-07T18:37:55Z</time></trkpt>
</trkseg>
</trk>
<trk>
<name>nlbsd7</name>
<cmt>r</cmt>
<desc>Saint-Denis Chemin n°7 Rue de Beauffaux</desc>
<link href="https://chemins.be/saintdenis/chemin/7"/><trkseg>
<trkpt lat="50.543953" lon="4.769853"><time>2026-05-07T18:17:55Z</time></trkpt>
<trkpt lat="50.546666" lon="4.765051"><time>2026-05-07T18:27:55Z</time></trkpt>
<trkpt lat="50.548484" lon="4.762103"><time>2026-05-07T18:37:55Z</time></trkpt>
</trkseg></trk>
<trk>
<name>nlbsd7</name>
<cmt>s</cmt>
<desc>Saint-Denis Chemin n°7 Rue de Beauffaux</desc>
<link href="https://chemins.be/saintdenis/chemin/7"/><trkseg>
<trkpt lat="50.548484" lon="4.762103"><time>2026-05-07T18:37:55Z</time></trkpt>
<trkpt lat="50.550335" lon="4.759466"><time>2026-05-07T18:47:55Z</time></trkpt>
</trkseg></trk>
<trk>
<name>nlbsd7</name>
<cmt>r</cmt>
<desc>Saint-Denis Chemin n°7 Rue de Beauffaux</desc>
<link href="https://chemins.be/saintdenis/chemin/7"/><trkseg>
<trkpt lat="50.550335" lon="4.759466"><time>2026-05-07T18:47:55Z</time></trkpt>
<trkpt lat="50.551045" lon="4.751541"><time>2026-05-07T18:57:55Z</time></trkpt>
</trkseg>
</trk>
<trk>
<name>nlbsd8</name>
<cmt>r</cmt>
<desc>Saint-Denis Chemin n°8 Rue de Beauffaux</desc>
<link href="https://chemins.be/saintdenis/chemin/8"/><trkseg>
<trkpt lat="50.548610" lon="4.762034"><time>2026-05-07T18:17:55Z</time></trkpt>
<trkpt lat="50.549887" lon="4.761903"><time>2026-05-07T18:27:55Z</time></trkpt>
</trkseg></trk>
<trk>
<name>nlbsd8</name>
<cmt>v</cmt>
<desc>Saint-Denis Chemin n°8 Rue de Beauffaux</desc>
<link href="https://chemins.be/saintdenis/chemin/8"/><trkseg>
<trkpt lat="50.549887" lon="4.761903"><time>2026-05-07T18:27:55Z</time></trkpt>
<trkpt lat="50.552701" lon="4.761743"><time>2026-05-07T18:37:55Z</time></trkpt>
<trkpt lat="50.556823" lon="4.756771"><time>2026-05-07T18:47:55Z</time></trkpt>
<trkpt lat="50.557632" lon="4.755848"><time>2026-05-07T18:57:55Z</time></trkpt>
</trkseg>
</trk>
<trk>
<name>nlbsd9</name>
<cmt>r</cmt>
<desc>Saint-Denis Chemin n°9 Rue de la Bolette</desc>
<link href="https://chemins.be/saintdenis/chemin/9"/><trkseg>
<trkpt lat="50.543217" lon="4.769494"><time>2026-05-07T18:17:55Z</time></trkpt>
<trkpt lat="50.543907" lon="4.770276"><time>2026-05-07T18:27:55Z</time></trkpt>
<trkpt lat="50.545388" lon="4.773336"><time>2026-05-07T18:37:55Z</time></trkpt>
<trkpt lat="50.547134" lon="4.775369"><time>2026-05-07T18:47:55Z</time></trkpt>
</trkseg>
</trk>
<trk>
<name>nlbsdi1</name>
<cmt>v</cmt>
<desc>Saint-Denis Sentier n°i1 </desc>
<link href="https://chemins.be/saintdenis/sentier/i1"/><trkseg>
<trkpt lat="50.538501" lon="4.805879"><time>2026-05-07T18:17:55Z</time></trkpt>
<trkpt lat="50.537693" lon="4.803942"><time>2026-05-07T18:27:55Z</time></trkpt>
<trkpt lat="50.536977" lon="4.802324"><time>2026-05-07T18:37:55Z</time></trkpt>
<trkpt lat="50.535349" lon="4.800109"><time>2026-05-07T18:47:55Z</time></trkpt>
<trkpt lat="50.534290" lon="4.798274"><time>2026-05-07T18:57:55Z</time></trkpt>
<trkpt lat="50.533204" lon="4.797503"><time>2026-05-07T19:07:55Z</time></trkpt>
</trkseg>
</trk>
<trk>
<name>nlbsdi2</name>
<cmt>s</cmt>
<desc>Saint-Denis Sentier n°i2 </desc>
<link href="https://chemins.be/saintdenis/sentier/i2"/><trkseg>
<trkpt lat="50.531562" lon="4.790694"><time>2026-05-07T18:17:55Z</time></trkpt>
<trkpt lat="50.532332" lon="4.791745"><time>2026-05-07T18:27:55Z</time></trkpt>
<trkpt lat="50.532485" lon="4.791662"><time>2026-05-07T18:37:55Z</time></trkpt>
<trkpt lat="50.533127" lon="4.793078"><time>2026-05-07T18:47:55Z</time></trkpt>
<trkpt lat="50.533749" lon="4.795129"><time>2026-05-07T18:57:55Z</time></trkpt>
<trkpt lat="50.533818" lon="4.795807"><time>2026-05-07T19:07:55Z</time></trkpt>
<trkpt lat="50.533581" lon="4.796721"><time>2026-05-07T19:17:55Z</time></trkpt>
<trkpt lat="50.533228" lon="4.797325"><time>2026-05-07T19:27:55Z</time></trkpt>
</trkseg>
</trk>
<trk>
<name>nlbsdi5</name>
<cmt>q</cmt>
<desc>Saint-Denis Sentier n°i5 </desc>
<link href="https://chemins.be/saintdenis/sentier/i5"/><trkseg>
<trkpt lat="50.535703" lon="4.789306"><time>2026-05-07T18:17:55Z</time></trkpt>
<trkpt lat="50.535830" lon="4.789025"><time>2026-05-07T18:27:55Z</time></trkpt>
<trkpt lat="50.536129" lon="4.788323"><time>2026-05-07T18:37:55Z</time></trkpt>
<trkpt lat="50.536537" lon="4.787353"><time>2026-05-07T18:47:55Z</time></trkpt>
</trkseg>
</trk>
<trk>
<name>nlbsdL161</name>
<cmt>t</cmt>
<desc>Saint-Denis Chemin n°L161 </desc>
<link href="https://chemins.be/saintdenis/chemin/L161"/><trkseg>
<trkpt lat="50.520490" lon="4.769443"><time>2026-05-07T18:17:55Z</time></trkpt>
<trkpt lat="50.527829" lon="4.758039"><time>2026-05-07T18:27:55Z</time></trkpt>
</trkseg>
</trk>
<trk>
<name>nlbsdr18</name>
<cmt>v</cmt>
<desc>Saint-Denis Chemin de remembrement n°r18 </desc>
<link href="https://chemins.be/saintdenis/chemin/r18"/><trkseg>
<trkpt lat="50.546477" lon="4.765120"><time>2026-05-07T18:17:55Z</time></trkpt>
<trkpt lat="50.545241" lon="4.763882"><time>2026-05-07T18:27:55Z</time></trkpt>
<trkpt lat="50.540712" lon="4.757919"><time>2026-05-07T18:37:55Z</time></trkpt>
<trkpt lat="50.542553" lon="4.755959"><time>2026-05-07T18:47:55Z</time></trkpt>
</trkseg>
</trk>
<trk>
<name>nlbsdr19</name>
<cmt>r</cmt>
<desc>Saint-Denis Chemin de remembrement n°r19 Rue des Bruyères</desc>
<link href="https://chemins.be/saintdenis/chemin/r19"/><trkseg>
<trkpt lat="50.535153" lon="4.769468"><time>2026-05-07T18:17:55Z</time></trkpt>
<trkpt lat="50.532997" lon="4.766178"><time>2026-05-07T18:27:55Z</time></trkpt>
</trkseg></trk>
<trk>
<name>nlbsdr19</name>
<cmt>v</cmt>
<desc>Saint-Denis Chemin de remembrement n°r19 Rue des Bruyères</desc>
<link href="https://chemins.be/saintdenis/chemin/r19"/><trkseg>
<trkpt lat="50.532997" lon="4.766178"><time>2026-05-07T18:27:55Z</time></trkpt>
<trkpt lat="50.536317" lon="4.760154"><time>2026-05-07T18:37:55Z</time></trkpt>
</trkseg>
</trk>
<trk>
<name>nlbsdr20</name>
<cmt>d</cmt>
<desc>Saint-Denis Chemin de remembrement n°r20 </desc>
<link href="https://chemins.be/saintdenis/chemin/r20"/><trkseg>
<trkpt lat="50.534939" lon="4.758154"><time>2026-05-07T18:17:55Z</time></trkpt>
<trkpt lat="50.534768" lon="4.758307"><time>2026-05-07T18:27:55Z</time></trkpt>
</trkseg>
</trk>
<trk>
<name>nlbsdr23</name>
<cmt>v</cmt>
<desc>Saint-Denis Chemin de remembrement n°r23 </desc>
<link href="https://chemins.be/saintdenis/chemin/r23"/><trkseg>
<trkpt lat="50.529275" lon="4.794313"><time>2026-05-07T18:17:55Z</time></trkpt>
<trkpt lat="50.530286" lon="4.795662"><time>2026-05-07T18:27:55Z</time></trkpt>
<trkpt lat="50.531368" lon="4.797040"><time>2026-05-07T18:37:55Z</time></trkpt>
</trkseg>
</trk>
<trk>
<name>nlbsdr3</name>
<cmt>r</cmt>
<desc>Saint-Denis Chemin de remembrement n°r3 Rue Del'Abbaye</desc>
<link href="https://chemins.be/saintdenis/chemin/r3"/><trkseg>
<trkpt lat="50.550715" lon="4.756153"><time>2026-05-07T18:17:55Z</time></trkpt>
<trkpt lat="50.543272" lon="4.750505"><time>2026-05-07T18:27:55Z</time></trkpt>
<trkpt lat="50.542425" lon="4.748311"><time>2026-05-07T18:37:55Z</time></trkpt>
</trkseg>
</trk>
<trk>
<name>nlbsdr31</name>
<cmt>v</cmt>
<desc>Saint-Denis Chemin de remembrement n°r31 </desc>
<link href="https://chemins.be/saintdenis/chemin/r31"/><trkseg>
<trkpt lat="50.530807" lon="4.783353"><time>2026-05-07T18:17:55Z</time></trkpt>
<trkpt lat="50.530746" lon="4.782788"><time>2026-05-07T18:27:55Z</time></trkpt>
<trkpt lat="50.530514" lon="4.782222"><time>2026-05-07T18:37:55Z</time></trkpt>
</trkseg>
</trk>
<trk>
<name>nlbsdr4</name>
<cmt>r</cmt>
<desc>Saint-Denis Chemin de remembrement n°r4 Rue de la Bolette</desc>
<link href="https://chemins.be/saintdenis/chemin/r4"/><trkseg>
<trkpt lat="50.543181" lon="4.769395"><time>2026-05-07T18:17:55Z</time></trkpt>
<trkpt lat="50.536371" lon="4.760140"><time>2026-05-07T18:27:55Z</time></trkpt>
<trkpt lat="50.534948" lon="4.758182"><time>2026-05-07T18:37:55Z</time></trkpt>
<trkpt lat="50.535366" lon="4.757043"><time>2026-05-07T18:47:55Z</time></trkpt>
</trkseg>
</trk>
<trk>
<name>nlbsdr5</name>
<cmt>r</cmt>
<desc>Saint-Denis Chemin de remembrement n°r5 Rue du Chemin de Fer</desc>
<link href="https://chemins.be/saintdenis/chemin/r5"/><trkseg>
<trkpt lat="50.522452" lon="4.771321"><time>2026-05-07T18:17:55Z</time></trkpt>
<trkpt lat="50.523327" lon="4.770623"><time>2026-05-07T18:27:55Z</time></trkpt>
<trkpt lat="50.525104" lon="4.768678"><time>2026-05-07T18:37:55Z</time></trkpt>
<trkpt lat="50.525606" lon="4.766609"><time>2026-05-07T18:47:55Z</time></trkpt>
</trkseg>
</trk>
<trk>
<name>nlbwr1</name>
<cmt>r</cmt>
<desc>Warisoulx Chemin n°1 Rue du Bailli</desc>
<link href="https://chemins.be/warisoulx/chemin/1"/><trkseg>
<trkpt lat="50.533778" lon="4.860678"><time>2026-05-07T18:17:55Z</time></trkpt>
<trkpt lat="50.532112" lon="4.861338"><time>2026-05-07T18:27:55Z</time></trkpt>
<trkpt lat="50.530778" lon="4.862100"><time>2026-05-07T18:37:55Z</time></trkpt>
<trkpt lat="50.530661" lon="4.862226"><time>2026-05-07T18:47:55Z</time></trkpt>
</trkseg>
</trk>
<trk>
<name>nlbwr10</name>
<cmt>r</cmt>
<desc>Warisoulx Chemin n°10 Rue d'Ostin / ?</desc>
<link href="https://chemins.be/warisoulx/chemin/10"/><trkseg>
<trkpt lat="50.554080" lon="4.838537"><time>2026-05-07T18:17:55Z</time></trkpt>
<trkpt lat="50.553121" lon="4.839966"><time>2026-05-07T18:27:55Z</time></trkpt>
<trkpt lat="50.549807" lon="4.847807"><time>2026-05-07T18:37:55Z</time></trkpt>
<trkpt lat="50.548764" lon="4.850223"><time>2026-05-07T18:47:55Z</time></trkpt>
<trkpt lat="50.546870" lon="4.855848"><time>2026-05-07T18:57:55Z</time></trkpt>
<trkpt lat="50.546702" lon="4.857455"><time>2026-05-07T19:07:55Z</time></trkpt>
</trkseg></trk>
<trk>
<name>nlbwr10</name>
<cmt>s</cmt>
<desc>Warisoulx Chemin n°10 Rue d'Ostin / ?</desc>
<link href="https://chemins.be/warisoulx/chemin/10"/><trkseg>
<trkpt lat="50.546702" lon="4.857455"><time>2026-05-07T19:07:55Z</time></trkpt>
<trkpt lat="50.545570" lon="4.859390"><time>2026-05-07T19:17:55Z</time></trkpt>
<trkpt lat="50.543928" lon="4.860798"><time>2026-05-07T19:27:55Z</time></trkpt>
</trkseg>
</trk>
<trk>
<name>nlbwr11</name>
<cmt>r</cmt>
<desc>Warisoulx Chemin n°11 Chemin de Louvain</desc>
<link href="https://chemins.be/warisoulx/chemin/11"/><trkseg>
<trkpt lat="50.523516" lon="4.835567"><time>2026-05-07T18:17:55Z</time></trkpt>
<trkpt lat="50.531927" lon="4.834254"><time>2026-05-07T18:27:55Z</time></trkpt>
<trkpt lat="50.537387" lon="4.833419"><time>2026-05-07T18:37:55Z</time></trkpt>
<trkpt lat="50.539376" lon="4.833058"><time>2026-05-07T18:47:55Z</time></trkpt>
<trkpt lat="50.541243" lon="4.833598"><time>2026-05-07T18:57:55Z</time></trkpt>
</trkseg></trk>
<trk>
<name>nlbwr11</name>
<cmt>s</cmt>
<desc>Warisoulx Chemin n°11 Chemin de Louvain</desc>
<link href="https://chemins.be/warisoulx/chemin/11"/><trkseg>
<trkpt lat="50.541243" lon="4.833598"><time>2026-05-07T18:57:55Z</time></trkpt>
<trkpt lat="50.545282" lon="4.832975"><time>2026-05-07T19:07:55Z</time></trkpt>
</trkseg>
</trk>
<trk>
<name>nlbwr12</name>
<cmt>r</cmt>
<desc>Warisoulx Chemin n°12 Rue Pommelée Vache</desc>
<link href="https://chemins.be/warisoulx/chemin/12"/><trkseg>
<trkpt lat="50.541216" lon="4.833683"><time>2026-05-07T18:17:55Z</time></trkpt>
<trkpt lat="50.543524" lon="4.840127"><time>2026-05-07T18:27:55Z</time></trkpt>
</trkseg>
</trk>
<trk>
<name>nlbwr12bis</name>
<cmt>r</cmt>
<desc>Warisoulx Chemin n°12bis Rue d'Ostin</desc>
<link href="https://chemins.be/warisoulx/chemin/12bis"/><trkseg>
<trkpt lat="50.543392" lon="4.840406"><time>2026-05-07T18:17:55Z</time></trkpt>
<trkpt lat="50.547403" lon="4.848672"><time>2026-05-07T18:27:55Z</time></trkpt>
</trkseg>
</trk>
<trk>
<name>nlbwr13</name>
<cmt>r</cmt>
<desc>Warisoulx Chemin n°13 Rue des Laderies</desc>
<link href="https://chemins.be/warisoulx/chemin/13"/><trkseg>
<trkpt lat="50.521859" lon="4.831608"><time>2026-05-07T18:17:55Z</time></trkpt>
<trkpt lat="50.523587" lon="4.835667"><time>2026-05-07T18:27:55Z</time></trkpt>
<trkpt lat="50.529062" lon="4.844480"><time>2026-05-07T18:37:55Z</time></trkpt>
<trkpt lat="50.529228" lon="4.845864"><time>2026-05-07T18:47:55Z</time></trkpt>
</trkseg>
</trk>
<trk>
<name>nlbwr14</name>
<cmt>v</cmt>
<desc>Warisoulx Chemin n°14 </desc>
<link href="https://chemins.be/warisoulx/chemin/14"/><trkseg>
<trkpt lat="50.531832" lon="4.855270"><time>2026-05-07T18:17:55Z</time></trkpt>
<trkpt lat="50.530567" lon="4.856611"><time>2026-05-07T18:27:55Z</time></trkpt>
</trkseg></trk>
<trk>
<name>nlbwr14</name>
<cmt>s</cmt>
<desc>Warisoulx Chemin n°14 </desc>
<link href="https://chemins.be/warisoulx/chemin/14"/><trkseg>
<trkpt lat="50.530567" lon="4.856611"><time>2026-05-07T18:27:55Z</time></trkpt>
<trkpt lat="50.529690" lon="4.855742"><time>2026-05-07T18:37:55Z</time></trkpt>
<trkpt lat="50.527367" lon="4.852333"><time>2026-05-07T18:47:55Z</time></trkpt>
</trkseg></trk>
<trk>
<name>nlbwr14</name>
<cmt>v</cmt>
<desc>Warisoulx Chemin n°14 </desc>
<link href="https://chemins.be/warisoulx/chemin/14"/><trkseg>
<trkpt lat="50.527367" lon="4.852333"><time>2026-05-07T18:47:55Z</time></trkpt>
<trkpt lat="50.524819" lon="4.848781"><time>2026-05-07T18:57:55Z</time></trkpt>
</trkseg>
</trk>
<trk>
<name>nlbwr15</name>
<cmt>v</cmt>
<desc>Warisoulx Chemin n°15 Rue de Namur / Rue d'Ostin</desc>
<link href="https://chemins.be/warisoulx/chemin/15"/><trkseg>
<trkpt lat="50.533020" lon="4.844040"><time>2026-05-07T18:17:55Z</time></trkpt>
<trkpt lat="50.534714" lon="4.845284"><time>2026-05-07T18:27:55Z</time></trkpt>
</trkseg></trk>
<trk>
<name>nlbwr15</name>
<cmt>s</cmt>
<desc>Warisoulx Chemin n°15 Rue de Namur / Rue d'Ostin</desc>
<link href="https://chemins.be/warisoulx/chemin/15"/><trkseg>
<trkpt lat="50.534714" lon="4.845284"><time>2026-05-07T18:27:55Z</time></trkpt>
<trkpt lat="50.538520" lon="4.842219"><time>2026-05-07T18:37:55Z</time></trkpt>
</trkseg></trk>
<trk>
<name>nlbwr15</name>
<cmt>r</cmt>
<desc>Warisoulx Chemin n°15 Rue de Namur / Rue d'Ostin</desc>
<link href="https://chemins.be/warisoulx/chemin/15"/><trkseg>
<trkpt lat="50.538520" lon="4.842219"><time>2026-05-07T18:37:55Z</time></trkpt>
<trkpt lat="50.543770" lon="4.840212"><time>2026-05-07T18:47:55Z</time></trkpt>
</trkseg></trk>
<trk>
<name>nlbwr15</name>
<cmt>s</cmt>
<desc>Warisoulx Chemin n°15 Rue de Namur / Rue d'Ostin</desc>
<link href="https://chemins.be/warisoulx/chemin/15"/><trkseg>
<trkpt lat="50.543770" lon="4.840212"><time>2026-05-07T18:47:55Z</time></trkpt>
<trkpt lat="50.547579" lon="4.845217"><time>2026-05-07T18:57:55Z</time></trkpt>
<trkpt lat="50.547683" lon="4.846318"><time>2026-05-07T19:07:55Z</time></trkpt>
<trkpt lat="50.547652" lon="4.847376"><time>2026-05-07T19:17:55Z</time></trkpt>
<trkpt lat="50.547439" lon="4.848700"><time>2026-05-07T19:27:55Z</time></trkpt>
</trkseg></trk>
<trk>
<name>nlbwr15</name>
<cmt>r</cmt>
<desc>Warisoulx Chemin n°15 Rue de Namur / Rue d'Ostin</desc>
<link href="https://chemins.be/warisoulx/chemin/15"/><trkseg>
<trkpt lat="50.547439" lon="4.848700"><time>2026-05-07T19:27:55Z</time></trkpt>
<trkpt lat="50.547866" lon="4.849763"><time>2026-05-07T19:37:55Z</time></trkpt>
<trkpt lat="50.548619" lon="4.850377"><time>2026-05-07T19:47:55Z</time></trkpt>
</trkseg>
</trk>
<trk>
<name>nlbwr16</name>
<cmt>r</cmt>
<desc>Warisoulx Chemin n°16 </desc>
<link href="https://chemins.be/warisoulx/chemin/16"/><trkseg>
<trkpt lat="50.544159" lon="4.861224"><time>2026-05-07T18:17:55Z</time></trkpt>
<trkpt lat="50.542661" lon="4.858415"><time>2026-05-07T18:27:55Z</time></trkpt>
<trkpt lat="50.541742" lon="4.856740"><time>2026-05-07T18:37:55Z</time></trkpt>
</trkseg></trk>
<trk>
<name>nlbwr16</name>
<cmt>s</cmt>
<desc>Warisoulx Chemin n°16 </desc>
<link href="https://chemins.be/warisoulx/chemin/16"/><trkseg>
<trkpt lat="50.541742" lon="4.856740"><time>2026-05-07T18:37:55Z</time></trkpt>
<trkpt lat="50.536821" lon="4.848903"><time>2026-05-07T18:47:55Z</time></trkpt>
<trkpt lat="50.535570" lon="4.847056"><time>2026-05-07T18:57:55Z</time></trkpt>
<trkpt lat="50.534741" lon="4.845383"><time>2026-05-07T19:07:55Z</time></trkpt>
</trkseg>
</trk>
<trk>
<name>nlbwr17</name>
<cmt>r</cmt>
<desc>Warisoulx Chemin n°17 Rue de Namur-Perwez</desc>
<link href="https://chemins.be/warisoulx/chemin/17"/><trkseg>
<trkpt lat="50.524909" lon="4.848923"><time>2026-05-07T18:17:55Z</time></trkpt>
<trkpt lat="50.528252" lon="4.847067"><time>2026-05-07T18:27:55Z</time></trkpt>
<trkpt lat="50.528993" lon="4.846087"><time>2026-05-07T18:37:55Z</time></trkpt>
<trkpt lat="50.531011" lon="4.845064"><time>2026-05-07T18:47:55Z</time></trkpt>
</trkseg>
</trk>
<trk>
<name>nlbwr18</name>
<cmt>s</cmt>
<desc>Warisoulx Chemin n°18 Chemin de Meux</desc>
<link href="https://chemins.be/warisoulx/chemin/18"/><trkseg>
<trkpt lat="50.538934" lon="4.826480"><time>2026-05-07T18:17:55Z</time></trkpt>
<trkpt lat="50.537444" lon="4.828243"><time>2026-05-07T18:27:55Z</time></trkpt>
<trkpt lat="50.536991" lon="4.828944"><time>2026-05-07T18:37:55Z</time></trkpt>
<trkpt lat="50.536772" lon="4.829788"><time>2026-05-07T18:47:55Z</time></trkpt>
<trkpt lat="50.537522" lon="4.833406"><time>2026-05-07T18:57:55Z</time></trkpt>
</trkseg>
</trk>
<trk>
<name>nlbwr19</name>
<cmt>r</cmt>
<desc>Warisoulx Chemin n°19 Rue de Trehet / Rue du Trehet</desc>
<link href="https://chemins.be/warisoulx/chemin/19"/><trkseg>
<trkpt lat="50.532237" lon="4.844131"><time>2026-05-07T18:17:55Z</time></trkpt>
<trkpt lat="50.532095" lon="4.839461"><time>2026-05-07T18:27:55Z</time></trkpt>
<trkpt lat="50.532343" lon="4.838081"><time>2026-05-07T18:37:55Z</time></trkpt>
<trkpt lat="50.532250" lon="4.836627"><time>2026-05-07T18:47:55Z</time></trkpt>
<trkpt lat="50.531809" lon="4.834366"><time>2026-05-07T18:57:55Z</time></trkpt>
</trkseg>
</trk>
<trk>
<name>nlbwr2</name>
<cmt>r</cmt>
<desc>Warisoulx Chemin n°2 Rue du Bailli / Rue de Namur / Rue de Dhuy</desc>
<link href="https://chemins.be/warisoulx/chemin/2"/><trkseg>
<trkpt lat="50.523971" lon="4.866598"><time>2026-05-07T18:17:55Z</time></trkpt>
<trkpt lat="50.525460" lon="4.865330"><time>2026-05-07T18:27:55Z</time></trkpt>
<trkpt lat="50.528496" lon="4.863839"><time>2026-05-07T18:37:55Z</time></trkpt>
<trkpt lat="50.530580" lon="4.862267"><time>2026-05-07T18:47:55Z</time></trkpt>
</trkseg></trk>
<trk>
<name>nlbwr2</name>
<cmt>v</cmt>
<desc>Warisoulx Chemin n°2 Rue du Bailli / Rue de Namur / Rue de Dhuy</desc>
<link href="https://chemins.be/warisoulx/chemin/2"/><trkseg>
<trkpt lat="50.530580" lon="4.862267"><time>2026-05-07T18:47:55Z</time></trkpt>
<trkpt lat="50.531192" lon="4.864192"><time>2026-05-07T18:57:55Z</time></trkpt>
<trkpt lat="50.532458" lon="4.864445"><time>2026-05-07T19:07:55Z</time></trkpt>
</trkseg></trk>
<trk>
<name>nlbwr2</name>
<cmt>r</cmt>
<desc>Warisoulx Chemin n°2 Rue du Bailli / Rue de Namur / Rue de Dhuy</desc>
<link href="https://chemins.be/warisoulx/chemin/2"/><trkseg>
<trkpt lat="50.532458" lon="4.864445"><time>2026-05-07T19:07:55Z</time></trkpt>
<trkpt lat="50.533230" lon="4.864693"><time>2026-05-07T19:17:55Z</time></trkpt>
<trkpt lat="50.534323" lon="4.865748"><time>2026-05-07T19:27:55Z</time></trkpt>
<trkpt lat="50.536593" lon="4.866675"><time>2026-05-07T19:37:55Z</time></trkpt>
<trkpt lat="50.543486" lon="4.862133"><time>2026-05-07T19:47:55Z</time></trkpt>
<trkpt lat="50.544150" lon="4.861365"><time>2026-05-07T19:57:55Z</time></trkpt>
</trkseg>
</trk>
<trk>
<name>nlbwr20</name>
<cmt>s</cmt>
<desc>Warisoulx Chemin n°20 </desc>
<link href="https://chemins.be/warisoulx/chemin/20"/><trkseg>
<trkpt lat="50.531189" lon="4.851949"><time>2026-05-07T18:17:55Z</time></trkpt>
<trkpt lat="50.531958" lon="4.846413"><time>2026-05-07T18:27:55Z</time></trkpt>
<trkpt lat="50.531876" lon="4.844635"><time>2026-05-07T18:37:55Z</time></trkpt>
</trkseg>
</trk>
<trk>
<name>nlbwr21</name>
<cmt>r</cmt>
<desc>Warisoulx Chemin n°21 La Ruelle</desc>
<link href="https://chemins.be/warisoulx/chemin/21"/><trkseg>
<trkpt lat="50.529912" lon="4.845603"><time>2026-05-07T18:17:55Z</time></trkpt>
<trkpt lat="50.529902" lon="4.841442"><time>2026-05-07T18:27:55Z</time></trkpt>
</trkseg></trk>
<trk>
<name>nlbwr21</name>
<cmt>s</cmt>
<desc>Warisoulx Chemin n°21 La Ruelle</desc>
<link href="https://chemins.be/warisoulx/chemin/21"/><trkseg>
<trkpt lat="50.529902" lon="4.841442"><time>2026-05-07T18:27:55Z</time></trkpt>
<trkpt lat="50.529956" lon="4.834616"><time>2026-05-07T18:37:55Z</time></trkpt>
</trkseg>
</trk>
<trk>
<name>nlbwr22</name>
<cmt>r</cmt>
<desc>Warisoulx Chemin n°22 Rue des Trieux</desc>
<link href="https://chemins.be/warisoulx/chemin/22"/><trkseg>
<trkpt lat="50.535565" lon="4.869513"><time>2026-05-07T18:17:55Z</time></trkpt>
<trkpt lat="50.535988" lon="4.871450"><time>2026-05-07T18:27:55Z</time></trkpt>
<trkpt lat="50.536004" lon="4.872114"><time>2026-05-07T18:37:55Z</time></trkpt>
<trkpt lat="50.535608" lon="4.872208"><time>2026-05-07T18:47:55Z</time></trkpt>
</trkseg>
</trk>
<trk>
<name>nlbwr23</name>
<cmt>r</cmt>
<desc>Warisoulx Chemin n°23 Rue du Médecin</desc>
<link href="https://chemins.be/warisoulx/chemin/23"/><trkseg>
<trkpt lat="50.534966" lon="4.859889"><time>2026-05-07T18:17:55Z</time></trkpt>
<trkpt lat="50.534898" lon="4.859444"><time>2026-05-07T18:27:55Z</time></trkpt>
<trkpt lat="50.534637" lon="4.859027"><time>2026-05-07T18:37:55Z</time></trkpt>
</trkseg></trk>
<trk>
<name>nlbwr23</name>
<cmt>s</cmt>
<desc>Warisoulx Chemin n°23 Rue du Médecin</desc>
<link href="https://chemins.be/warisoulx/chemin/23"/><trkseg>
<trkpt lat="50.534637" lon="4.859027"><time>2026-05-07T18:37:55Z</time></trkpt>
<trkpt lat="50.534264" lon="4.858500"><time>2026-05-07T18:47:55Z</time></trkpt>
<trkpt lat="50.534677" lon="4.857792"><time>2026-05-07T18:57:55Z</time></trkpt>
</trkseg>
</trk>
<trk>
<name>nlbwr24</name>
<cmt>v</cmt>
<desc>Warisoulx Chemin n°24 </desc>
<link href="https://chemins.be/warisoulx/chemin/24"/><trkseg>
<trkpt lat="50.531895" lon="4.855242"><time>2026-05-07T18:17:55Z</time></trkpt>
<trkpt lat="50.532811" lon="4.855407"><time>2026-05-07T18:27:55Z</time></trkpt>
<trkpt lat="50.533538" lon="4.855753"><time>2026-05-07T18:37:55Z</time></trkpt>
<trkpt lat="50.535466" lon="4.856915"><time>2026-05-07T18:47:55Z</time></trkpt>
<trkpt lat="50.537295" lon="4.858133"><time>2026-05-07T18:57:55Z</time></trkpt>
</trkseg>
</trk>
<trk>
<name>nlbwr25</name>
<cmt>v</cmt>
<desc>Warisoulx Chemin n°25 Rue de Namur</desc>
<link href="https://chemins.be/warisoulx/chemin/25"/><trkseg>
<trkpt lat="50.533231" lon="4.864665"><time>2026-05-07T18:17:55Z</time></trkpt>
<trkpt lat="50.533312" lon="4.864538"><time>2026-05-07T18:27:55Z</time></trkpt>
<trkpt lat="50.533475" lon="4.864286"><time>2026-05-07T18:37:55Z</time></trkpt>
<trkpt lat="50.533854" lon="4.864022"><time>2026-05-07T18:47:55Z</time></trkpt>
</trkseg></trk>
<trk>
<name>nlbwr25</name>
<cmt>d</cmt>
<desc>Warisoulx Chemin n°25 Rue de Namur</desc>
<link href="https://chemins.be/warisoulx/chemin/25"/><trkseg>
<trkpt lat="50.533854" lon="4.864022"><time>2026-05-07T18:47:55Z</time></trkpt>
<trkpt lat="50.534122" lon="4.864364"><time>2026-05-07T18:57:55Z</time></trkpt>
</trkseg></trk>
<trk>
<name>nlbwr25</name>
<cmt>s</cmt>
<desc>Warisoulx Chemin n°25 Rue de Namur</desc>
<link href="https://chemins.be/warisoulx/chemin/25"/><trkseg>
<trkpt lat="50.534122" lon="4.864364"><time>2026-05-07T18:57:55Z</time></trkpt>
<trkpt lat="50.534401" lon="4.864197"><time>2026-05-07T19:07:55Z</time></trkpt>
<trkpt lat="50.535573" lon="4.863462"><time>2026-05-07T19:17:55Z</time></trkpt>
</trkseg>
</trk>
<trk>
<name>nlbwr26</name>
<cmt>s</cmt>
<desc>Warisoulx Sentier n°26 </desc>
<link href="https://chemins.be/warisoulx/sentier/26"/><trkseg>
<trkpt lat="50.537591" lon="4.862467"><time>2026-05-07T18:17:55Z</time></trkpt>
<trkpt lat="50.541497" lon="4.857175"><time>2026-05-07T18:27:55Z</time></trkpt>
<trkpt lat="50.541760" lon="4.856684"><time>2026-05-07T18:37:55Z</time></trkpt>
<trkpt lat="50.544895" lon="4.853133"><time>2026-05-07T18:47:55Z</time></trkpt>
<trkpt lat="50.547376" lon="4.848812"><time>2026-05-07T18:57:55Z</time></trkpt>
</trkseg>
</trk>
<trk>
<name>nlbwr27</name>
<cmt>q</cmt>
<desc>Warisoulx Sentier n°27 </desc>
<link href="https://chemins.be/warisoulx/sentier/27"/><trkseg>
<trkpt lat="50.525090" lon="4.865736"><time>2026-05-07T18:17:55Z</time></trkpt>
<trkpt lat="50.525436" lon="4.866684"><time>2026-05-07T18:27:55Z</time></trkpt>
<trkpt lat="50.524818" lon="4.868271"><time>2026-05-07T18:37:55Z</time></trkpt>
</trkseg>
</trk>
<trk>
<name>nlbwr28</name>
<cmt>s</cmt>
<desc>Warisoulx Sentier n°28 </desc>
<link href="https://chemins.be/warisoulx/sentier/28"/><trkseg>
<trkpt lat="50.525136" lon="4.865510"><time>2026-05-07T18:17:55Z</time></trkpt>
<trkpt lat="50.524093" lon="4.865556"><time>2026-05-07T18:27:55Z</time></trkpt>
</trkseg>
</trk>
<trk>
<name>nlbwr29</name>
<cmt>r</cmt>
<desc>Warisoulx Sentier n°29 Rue des Trieux</desc>
<link href="https://chemins.be/warisoulx/sentier/29"/><trkseg>
<trkpt lat="50.536057" lon="4.872199"><time>2026-05-07T18:17:55Z</time></trkpt>
<trkpt lat="50.536163" lon="4.872778"><time>2026-05-07T18:27:55Z</time></trkpt>
</trkseg></trk>
<trk>
<name>nlbwr29</name>
<cmt>s</cmt>
<desc>Warisoulx Sentier n°29 Rue des Trieux</desc>
<link href="https://chemins.be/warisoulx/sentier/29"/><trkseg>
<trkpt lat="50.536163" lon="4.872778"><time>2026-05-07T18:27:55Z</time></trkpt>
<trkpt lat="50.536356" lon="4.873852"><time>2026-05-07T18:37:55Z</time></trkpt>
</trkseg>
</trk>
<trk>
<name>nlbwr3</name>
<cmt>r</cmt>
<desc>Warisoulx Chemin n°3 Route de Warisoulx / Rue de Cognelée</desc>
<link href="https://chemins.be/warisoulx/chemin/3"/><trkseg>
<trkpt lat="50.540641" lon="4.873692"><time>2026-05-07T18:17:55Z</time></trkpt>
<trkpt lat="50.540297" lon="4.872992"><time>2026-05-07T18:27:55Z</time></trkpt>
<trkpt lat="50.538978" lon="4.870396"><time>2026-05-07T18:37:55Z</time></trkpt>
<trkpt lat="50.537603" lon="4.868096"><time>2026-05-07T18:47:55Z</time></trkpt>
<trkpt lat="50.536638" lon="4.866675"><time>2026-05-07T18:57:55Z</time></trkpt>
<trkpt lat="50.535528" lon="4.863419"><time>2026-05-07T19:07:55Z</time></trkpt>
<trkpt lat="50.534690" lon="4.861845"><time>2026-05-07T19:17:55Z</time></trkpt>
<trkpt lat="50.534188" lon="4.861473"><time>2026-05-07T19:27:55Z</time></trkpt>
<trkpt lat="50.533891" lon="4.860803"><time>2026-05-07T19:37:55Z</time></trkpt>
<trkpt lat="50.533954" lon="4.860256"><time>2026-05-07T19:47:55Z</time></trkpt>
<trkpt lat="50.533880" lon="4.859682"><time>2026-05-07T19:57:55Z</time></trkpt>
<trkpt lat="50.533567" lon="4.858873"><time>2026-05-07T20:07:55Z</time></trkpt>
<trkpt lat="50.532776" lon="4.857381"><time>2026-05-07T20:17:55Z</time></trkpt>
</trkseg>
</trk>
<trk>
<name>nlbwr30</name>
<cmt>s</cmt>
<desc>Warisoulx Sentier n°30 </desc>
<link href="https://chemins.be/warisoulx/sentier/30"/><trkseg>
<trkpt lat="50.531338" lon="4.857211"><time>2026-05-07T18:17:55Z</time></trkpt>
<trkpt lat="50.532877" lon="4.861022"><time>2026-05-07T18:27:55Z</time></trkpt>
<trkpt lat="50.533039" lon="4.860967"><time>2026-05-07T18:37:55Z</time></trkpt>
<trkpt lat="50.533349" lon="4.862113"><time>2026-05-07T18:47:55Z</time></trkpt>
<trkpt lat="50.533688" lon="4.862836"><time>2026-05-07T18:57:55Z</time></trkpt>
</trkseg></trk>
<trk>
<name>nlbwr30</name>
<cmt>d</cmt>
<desc>Warisoulx Sentier n°30 </desc>
<link href="https://chemins.be/warisoulx/sentier/30"/><trkseg>
<trkpt lat="50.533688" lon="4.862836"><time>2026-05-07T18:57:55Z</time></trkpt>
<trkpt lat="50.534062" lon="4.863531"><time>2026-05-07T19:07:55Z</time></trkpt>
<trkpt lat="50.533854" lon="4.864008"><time>2026-05-07T19:17:55Z</time></trkpt>
<trkpt lat="50.534122" lon="4.864392"><time>2026-05-07T19:27:55Z</time></trkpt>
<trkpt lat="50.534503" lon="4.865581"><time>2026-05-07T19:37:55Z</time></trkpt>
</trkseg></trk>
<trk>
<name>nlbwr30</name>
<cmt>s</cmt>
<desc>Warisoulx Sentier n°30 </desc>
<link href="https://chemins.be/warisoulx/sentier/30"/><trkseg>
<trkpt lat="50.534503" lon="4.865581"><time>2026-05-07T19:37:55Z</time></trkpt>
<trkpt lat="50.535575" lon="4.869245"><time>2026-05-07T19:47:55Z</time></trkpt>
</trkseg>
</trk>
<trk>
<name>nlbwr31</name>
<cmt>s</cmt>
<desc>Warisoulx Sentier n°31 </desc>
<link href="https://chemins.be/warisoulx/sentier/31"/><trkseg>
<trkpt lat="50.531338" lon="4.857169"><time>2026-05-07T18:17:55Z</time></trkpt>
<trkpt lat="50.531108" lon="4.856292"><time>2026-05-07T18:27:55Z</time></trkpt>
</trkseg>
</trk>
<trk>
<name>nlbwr32</name>
<cmt>s</cmt>
<desc>Warisoulx Sentier n°32 </desc>
<link href="https://chemins.be/warisoulx/sentier/32"/><trkseg>
<trkpt lat="50.534275" lon="4.858548"><time>2026-05-07T18:17:55Z</time></trkpt>
<trkpt lat="50.532962" lon="4.857905"><time>2026-05-07T18:27:55Z</time></trkpt>
<trkpt lat="50.531339" lon="4.857098"><time>2026-05-07T18:37:55Z</time></trkpt>
</trkseg>
</trk>
<trk>
<name>nlbwr33</name>
<cmt>s</cmt>
<desc>Warisoulx Sentier n°33 </desc>
<link href="https://chemins.be/warisoulx/sentier/33"/><trkseg>
<trkpt lat="50.534525" lon="4.860376"><time>2026-05-07T18:17:55Z</time></trkpt>
<trkpt lat="50.535113" lon="4.861778"><time>2026-05-07T18:27:55Z</time></trkpt>
<trkpt lat="50.535540" lon="4.862714"><time>2026-05-07T18:37:55Z</time></trkpt>
<trkpt lat="50.535396" lon="4.862896"><time>2026-05-07T18:47:55Z</time></trkpt>
</trkseg>
</trk>
<trk>
<name>nlbwr33bis</name>
<cmt>s</cmt>
<desc>Warisoulx Sentier n°33bis </desc>
<link href="https://chemins.be/warisoulx/sentier/33bis"/><trkseg>
<trkpt lat="50.535638" lon="4.860895"><time>2026-05-07T18:17:55Z</time></trkpt>
<trkpt lat="50.535113" lon="4.861680"><time>2026-05-07T18:27:55Z</time></trkpt>
</trkseg>
</trk>
<trk>
<name>nlbwr34</name>
<cmt>s</cmt>
<desc>Warisoulx Sentier n°34 </desc>
<link href="https://chemins.be/warisoulx/sentier/34"/><trkseg>
<trkpt lat="50.535428" lon="4.872164"><time>2026-05-07T18:17:55Z</time></trkpt>
<trkpt lat="50.534890" lon="4.871763"><time>2026-05-07T18:27:55Z</time></trkpt>
<trkpt lat="50.534427" lon="4.870729"><time>2026-05-07T18:37:55Z</time></trkpt>
</trkseg>
</trk>
<trk>
<name>nlbwr35</name>
<cmt>s</cmt>
<desc>Warisoulx Sentier n°35 Rue de Warisoulx</desc>
<link href="https://chemins.be/warisoulx/sentier/35"/><trkseg>
<trkpt lat="50.528884" lon="4.846424"><time>2026-05-07T18:17:55Z</time></trkpt>
<trkpt lat="50.530502" lon="4.848655"><time>2026-05-07T18:27:55Z</time></trkpt>
<trkpt lat="50.531413" lon="4.850089"><time>2026-05-07T18:37:55Z</time></trkpt>
</trkseg>
</trk>
<trk>
<name>nlbwr36</name>
<cmt>s</cmt>
<desc>Warisoulx Sentier n°36 </desc>
<link href="https://chemins.be/warisoulx/sentier/36"/><trkseg>
<trkpt lat="50.543726" lon="4.840084"><time>2026-05-07T18:17:55Z</time></trkpt>
<trkpt lat="50.544676" lon="4.838556"><time>2026-05-07T18:27:55Z</time></trkpt>
<trkpt lat="50.545294" lon="4.834569"><time>2026-05-07T18:37:55Z</time></trkpt>
<trkpt lat="50.545246" lon="4.833116"><time>2026-05-07T18:47:55Z</time></trkpt>
</trkseg>
</trk>
<trk>
<name>nlbwr37</name>
<cmt>s</cmt>
<desc>Warisoulx Sentier n°37 </desc>
<link href="https://chemins.be/warisoulx/sentier/37"/><trkseg>
<trkpt lat="50.533600" lon="4.833946"><time>2026-05-07T18:17:55Z</time></trkpt>
<trkpt lat="50.533156" lon="4.832489"><time>2026-05-07T18:27:55Z</time></trkpt>
<trkpt lat="50.533229" lon="4.832391"><time>2026-05-07T18:37:55Z</time></trkpt>
<trkpt lat="50.534378" lon="4.828170"><time>2026-05-07T18:47:55Z</time></trkpt>
<trkpt lat="50.535144" lon="4.825512"><time>2026-05-07T18:57:55Z</time></trkpt>
</trkseg>
</trk>
<trk>
<name>nlbwr38</name>
<cmt>s</cmt>
<desc>Warisoulx Sentier n°38 </desc>
<link href="https://chemins.be/warisoulx/sentier/38"/><trkseg>
<trkpt lat="50.524337" lon="4.841287"><time>2026-05-07T18:17:55Z</time></trkpt>
<trkpt lat="50.523215" lon="4.841008"><time>2026-05-07T18:27:55Z</time></trkpt>
</trkseg>
</trk>
<trk>
<name>nlbwr39</name>
<cmt>s</cmt>
<desc>Warisoulx Sentier n°39 Rue des Ecoles / ?</desc>
<link href="https://chemins.be/warisoulx/sentier/39"/><trkseg>
<trkpt lat="50.530973" lon="4.834499"><time>2026-05-07T18:17:55Z</time></trkpt>
<trkpt lat="50.531197" lon="4.839043"><time>2026-05-07T18:27:55Z</time></trkpt>
<trkpt lat="50.531060" lon="4.839704"><time>2026-05-07T18:37:55Z</time></trkpt>
</trkseg></trk>
<trk>
<name>nlbwr39</name>
<cmt>r</cmt>
<desc>Warisoulx Sentier n°39 Rue des Ecoles / ?</desc>
<link href="https://chemins.be/warisoulx/sentier/39"/><trkseg>
<trkpt lat="50.531060" lon="4.839704"><time>2026-05-07T18:37:55Z</time></trkpt>
<trkpt lat="50.529956" lon="4.841470"><time>2026-05-07T18:47:55Z</time></trkpt>
</trkseg></trk>
<trk>
<name>nlbwr39</name>
<cmt>s</cmt>
<desc>Warisoulx Sentier n°39 Rue des Ecoles / ?</desc>
<link href="https://chemins.be/warisoulx/sentier/39"/><trkseg>
<trkpt lat="50.529956" lon="4.841470"><time>2026-05-07T18:47:55Z</time></trkpt>
<trkpt lat="50.528786" lon="4.841614"><time>2026-05-07T18:57:55Z</time></trkpt>
<trkpt lat="50.527312" lon="4.841557"><time>2026-05-07T19:07:55Z</time></trkpt>
<trkpt lat="50.524239" lon="4.841286"><time>2026-05-07T19:17:55Z</time></trkpt>
<trkpt lat="50.523293" lon="4.841770"><time>2026-05-07T19:27:55Z</time></trkpt>
</trkseg>
</trk>
<trk>
<name>nlbwr4</name>
<cmt>r</cmt>
<desc>Warisoulx Chemin n°4 Rue du Médecin</desc>
<link href="https://chemins.be/warisoulx/chemin/4"/><trkseg>
<trkpt lat="50.533904" lon="4.860694"><time>2026-05-07T18:17:55Z</time></trkpt>
<trkpt lat="50.534905" lon="4.859957"><time>2026-05-07T18:27:55Z</time></trkpt>
<trkpt lat="50.536344" lon="4.861777"><time>2026-05-07T18:37:55Z</time></trkpt>
<trkpt lat="50.537349" lon="4.862253"><time>2026-05-07T18:47:55Z</time></trkpt>
<trkpt lat="50.538825" lon="4.864117"><time>2026-05-07T18:57:55Z</time></trkpt>
<trkpt lat="50.539074" lon="4.864754"><time>2026-05-07T19:07:55Z</time></trkpt>
</trkseg>
</trk>
<trk>
<name>nlbwr40</name>
<cmt>s</cmt>
<desc>Warisoulx Sentier n°40 </desc>
<link href="https://chemins.be/warisoulx/sentier/40"/><trkseg>
<trkpt lat="50.521349" lon="4.853103"><time>2026-05-07T18:17:55Z</time></trkpt>
<trkpt lat="50.521448" lon="4.853189"><time>2026-05-07T18:27:55Z</time></trkpt>
<trkpt lat="50.521934" lon="4.852926"><time>2026-05-07T18:37:55Z</time></trkpt>
<trkpt lat="50.522325" lon="4.853945"><time>2026-05-07T18:47:55Z</time></trkpt>
<trkpt lat="50.522770" lon="4.852934"><time>2026-05-07T18:57:55Z</time></trkpt>
<trkpt lat="50.523052" lon="4.852289"><time>2026-05-07T19:07:55Z</time></trkpt>
<trkpt lat="50.523834" lon="4.854299"><time>2026-05-07T19:17:55Z</time></trkpt>
</trkseg></trk>
<trk>
<name>nlbwr40</name>
<cmt>q</cmt>
<desc>Warisoulx Sentier n°40 </desc>
<link href="https://chemins.be/warisoulx/sentier/40"/><trkseg>
<trkpt lat="50.523834" lon="4.854299"><time>2026-05-07T19:17:55Z</time></trkpt>
<trkpt lat="50.524613" lon="4.852967"><time>2026-05-07T19:27:55Z</time></trkpt>
<trkpt lat="50.524985" lon="4.852153"><time>2026-05-07T19:37:55Z</time></trkpt>
</trkseg></trk>
<trk>
<name>nlbwr40</name>
<cmt>s</cmt>
<desc>Warisoulx Sentier n°40 </desc>
<link href="https://chemins.be/warisoulx/sentier/40"/><trkseg>
<trkpt lat="50.524985" lon="4.852153"><time>2026-05-07T19:37:55Z</time></trkpt>
<trkpt lat="50.525910" lon="4.850230"><time>2026-05-07T19:47:55Z</time></trkpt>
<trkpt lat="50.527114" lon="4.848141"><time>2026-05-07T19:57:55Z</time></trkpt>
<trkpt lat="50.527018" lon="4.847590"><time>2026-05-07T20:07:55Z</time></trkpt>
</trkseg>
</trk>
<trk>
<name>nlbwr41</name>
<cmt>v</cmt>
<desc>Warisoulx Sentier n°41 </desc>
<link href="https://chemins.be/warisoulx/sentier/41"/><trkseg>
<trkpt lat="50.531458" lon="4.867157"><time>2026-05-07T18:17:55Z</time></trkpt>
<trkpt lat="50.529954" lon="4.867677"><time>2026-05-07T18:27:55Z</time></trkpt>
</trkseg></trk>
<trk>
<name>nlbwr41</name>
<cmt>s</cmt>
<desc>Warisoulx Sentier n°41 </desc>
<link href="https://chemins.be/warisoulx/sentier/41"/><trkseg>
<trkpt lat="50.529954" lon="4.867677"><time>2026-05-07T18:27:55Z</time></trkpt>
<trkpt lat="50.529044" lon="4.868090"><time>2026-05-07T18:37:55Z</time></trkpt>
<trkpt lat="50.527618" lon="4.867455"><time>2026-05-07T18:47:55Z</time></trkpt>
<trkpt lat="50.526880" lon="4.867517"><time>2026-05-07T18:57:55Z</time></trkpt>
</trkseg>
</trk>
<trk>
<name>nlbwr5</name>
<cmt>q</cmt>
<desc>Warisoulx Chemin n°5 </desc>
<link href="https://chemins.be/warisoulx/chemin/5"/><trkseg>
<trkpt lat="50.535663" lon="4.863491"><time>2026-05-07T18:17:55Z</time></trkpt>
<trkpt lat="50.536743" lon="4.863206"><time>2026-05-07T18:27:55Z</time></trkpt>
<trkpt lat="50.537322" lon="4.862450"><time>2026-05-07T18:37:55Z</time></trkpt>
</trkseg>
</trk>
<trk>
<name>nlbwr6</name>
<cmt>r</cmt>
<desc>Warisoulx Chemin n°6 Rue de Cognelée / Rue de la Brasserie</desc>
<link href="https://chemins.be/warisoulx/chemin/6"/><trkseg>
<trkpt lat="50.536602" lon="4.866774"><time>2026-05-07T18:17:55Z</time></trkpt>
<trkpt lat="50.536793" lon="4.868285"><time>2026-05-07T18:27:55Z</time></trkpt>
<trkpt lat="50.535475" lon="4.869555"><time>2026-05-07T18:37:55Z</time></trkpt>
<trkpt lat="50.534040" lon="4.870851"><time>2026-05-07T18:47:55Z</time></trkpt>
<trkpt lat="50.532831" lon="4.871939"><time>2026-05-07T18:57:55Z</time></trkpt>
<trkpt lat="50.532338" lon="4.871581"><time>2026-05-07T19:07:55Z</time></trkpt>
<trkpt lat="50.531492" lon="4.873702"><time>2026-05-07T19:17:55Z</time></trkpt>
<trkpt lat="50.530647" lon="4.877811"><time>2026-05-07T19:27:55Z</time></trkpt>
<trkpt lat="50.529501" lon="4.882863"><time>2026-05-07T19:37:55Z</time></trkpt>
<trkpt lat="50.529098" lon="4.884692"><time>2026-05-07T19:47:55Z</time></trkpt>
<trkpt lat="50.526676" lon="4.895511"><time>2026-05-07T19:57:55Z</time></trkpt>
</trkseg>
</trk>
<trk>
<name>nlbwr7</name>
<cmt>r</cmt>
<desc>Warisoulx Chemin n°7 Rue de la Brasserie</desc>
<link href="https://chemins.be/warisoulx/chemin/7"/><trkseg>
<trkpt lat="50.535865" lon="4.864678"><time>2026-05-07T18:17:55Z</time></trkpt>
<trkpt lat="50.534494" lon="4.865651"><time>2026-05-07T18:27:55Z</time></trkpt>
<trkpt lat="50.531575" lon="4.867144"><time>2026-05-07T18:37:55Z</time></trkpt>
<trkpt lat="50.531663" lon="4.869543"><time>2026-05-07T18:47:55Z</time></trkpt>
<trkpt lat="50.532284" lon="4.871538"><time>2026-05-07T18:57:55Z</time></trkpt>
</trkseg>
</trk>
<trk>
<name>nlbwr8</name>
<cmt>r</cmt>
<desc>Warisoulx Chemin n°8 Rue de Warisoulx</desc>
<link href="https://chemins.be/warisoulx/chemin/8"/><trkseg>
<trkpt lat="50.526189" lon="4.865112"><time>2026-05-07T18:17:55Z</time></trkpt>
<trkpt lat="50.526774" lon="4.867206"><time>2026-05-07T18:27:55Z</time></trkpt>
</trkseg></trk>
<trk>
<name>nlbwr8</name>
<cmt>s</cmt>
<desc>Warisoulx Chemin n°8 Rue de Warisoulx</desc>
<link href="https://chemins.be/warisoulx/chemin/8"/><trkseg>
<trkpt lat="50.526774" lon="4.867206"><time>2026-05-07T18:27:55Z</time></trkpt>
<trkpt lat="50.526735" lon="4.867770"><time>2026-05-07T18:37:55Z</time></trkpt>
<trkpt lat="50.526305" lon="4.869500"><time>2026-05-07T18:47:55Z</time></trkpt>
<trkpt lat="50.525945" lon="4.869665"><time>2026-05-07T18:57:55Z</time></trkpt>
</trkseg>
</trk>
<trk>
<name>nlbwr9</name>
<cmt>r</cmt>
<desc>Warisoulx Chemin n°9 Rue de Cognelée</desc>
<link href="https://chemins.be/warisoulx/chemin/9"/><trkseg>
<trkpt lat="50.526666" lon="4.895652"><time>2026-05-07T18:17:55Z</time></trkpt>
<trkpt lat="50.524611" lon="4.896912"><time>2026-05-07T18:27:55Z</time></trkpt>
</trkseg></trk>
<trk>
<name>nlbwr9</name>
<cmt>v</cmt>
<desc>Warisoulx Chemin n°9 Rue de Cognelée</desc>
<link href="https://chemins.be/warisoulx/chemin/9"/><trkseg>
<trkpt lat="50.524611" lon="4.896912"><time>2026-05-07T18:27:55Z</time></trkpt>
<trkpt lat="50.522501" lon="4.898214"><time>2026-05-07T18:37:55Z</time></trkpt>
</trkseg>
</trk>
<trk>
<name>nlbwri1</name>
<cmt>v</cmt>
<desc>Warisoulx Sentier n°i1 </desc>
<link href="https://chemins.be/warisoulx/sentier/i1"/><trkseg>
<trkpt lat="50.532593" lon="4.864460"><time>2026-05-07T18:17:55Z</time></trkpt>
<trkpt lat="50.532103" lon="4.863341"><time>2026-05-07T18:27:55Z</time></trkpt>
<trkpt lat="50.531881" lon="4.862690"><time>2026-05-07T18:37:55Z</time></trkpt>
<trkpt lat="50.531553" lon="4.861699"><time>2026-05-07T18:47:55Z</time></trkpt>
</trkseg>
</trk>
<trk>
<name>nlbwri10</name>
<cmt>v</cmt>
<desc>Warisoulx Chemin n°i10 Rue des Boscailles</desc>
<link href="https://chemins.be/warisoulx/chemin/i10"/><trkseg>
<trkpt lat="50.540218" lon="4.872469"><time>2026-05-07T18:17:55Z</time></trkpt>
<trkpt lat="50.539373" lon="4.870428"><time>2026-05-07T18:27:55Z</time></trkpt>
<trkpt lat="50.541952" lon="4.866632"><time>2026-05-07T18:37:55Z</time></trkpt>
<trkpt lat="50.543916" lon="4.863493"><time>2026-05-07T18:47:55Z</time></trkpt>
<trkpt lat="50.544639" lon="4.862640"><time>2026-05-07T18:57:55Z</time></trkpt>
<trkpt lat="50.544694" lon="4.862415"><time>2026-05-07T19:07:55Z</time></trkpt>
</trkseg>
</trk>
<trk>
<name>nlbwri11</name>
<cmt>v</cmt>
<desc>Warisoulx Chemin n°i11 </desc>
<link href="https://chemins.be/warisoulx/chemin/i11"/><trkseg>
<trkpt lat="50.540146" lon="4.872943"><time>2026-05-07T18:17:55Z</time></trkpt>
<trkpt lat="50.538937" lon="4.870868"><time>2026-05-07T18:27:55Z</time></trkpt>
<trkpt lat="50.534761" lon="4.875418"><time>2026-05-07T18:37:55Z</time></trkpt>
<trkpt lat="50.530904" lon="4.878171"><time>2026-05-07T18:47:55Z</time></trkpt>
<trkpt lat="50.530322" lon="4.879838"><time>2026-05-07T18:57:55Z</time></trkpt>
</trkseg>
</trk>
<trk>
<name>nlbwri2</name>
<cmt>r</cmt>
<desc>Warisoulx Sentier n°i2 </desc>
<link href="https://chemins.be/warisoulx/sentier/i2"/><trkseg>
<trkpt lat="50.534286" lon="4.861601"><time>2026-05-07T18:17:55Z</time></trkpt>
<trkpt lat="50.534312" lon="4.861897"><time>2026-05-07T18:27:55Z</time></trkpt>
<trkpt lat="50.534347" lon="4.862179"><time>2026-05-07T18:37:55Z</time></trkpt>
</trkseg></trk>
<trk>
<name>nlbwri2</name>
<cmt>v</cmt>
<desc>Warisoulx Sentier n°i2 </desc>
<link href="https://chemins.be/warisoulx/sentier/i2"/><trkseg>
<trkpt lat="50.534347" lon="4.862179"><time>2026-05-07T18:37:55Z</time></trkpt>
<trkpt lat="50.534292" lon="4.862320"><time>2026-05-07T18:47:55Z</time></trkpt>
<trkpt lat="50.534229" lon="4.862418"><time>2026-05-07T18:57:55Z</time></trkpt>
<trkpt lat="50.534184" lon="4.862403"><time>2026-05-07T19:07:55Z</time></trkpt>
<trkpt lat="50.534013" lon="4.862585"><time>2026-05-07T19:17:55Z</time></trkpt>
<trkpt lat="50.533751" lon="4.862893"><time>2026-05-07T19:27:55Z</time></trkpt>
</trkseg>
</trk>
<trk>
<name>nlbwri3</name>
<cmt>s</cmt>
<desc>Warisoulx Chemin n°i3 </desc>
<link href="https://chemins.be/warisoulx/chemin/i3"/><trkseg>
<trkpt lat="50.536001" lon="4.864426"><time>2026-05-07T18:17:55Z</time></trkpt>
<trkpt lat="50.536694" lon="4.864052"><time>2026-05-07T18:27:55Z</time></trkpt>
</trkseg>
</trk>
<trk>
<name>nlbwri4</name>
<cmt>r</cmt>
<desc>Warisoulx Chemin n°i4 Rue Del'Grète</desc>
<link href="https://chemins.be/warisoulx/chemin/i4"/><trkseg>
<trkpt lat="50.523261" lon="4.883048"><time>2026-05-07T18:17:55Z</time></trkpt>
<trkpt lat="50.522436" lon="4.884746"><time>2026-05-07T18:27:55Z</time></trkpt>
<trkpt lat="50.522237" lon="4.886234"><time>2026-05-07T18:37:55Z</time></trkpt>
<trkpt lat="50.522484" lon="4.887934"><time>2026-05-07T18:47:55Z</time></trkpt>
<trkpt lat="50.523038" lon="4.888772"><time>2026-05-07T18:57:55Z</time></trkpt>
<trkpt lat="50.523416" lon="4.888776"><time>2026-05-07T19:07:55Z</time></trkpt>
<trkpt lat="50.523495" lon="4.889087"><time>2026-05-07T19:17:55Z</time></trkpt>
<trkpt lat="50.523201" lon="4.890621"><time>2026-05-07T19:27:55Z</time></trkpt>
<trkpt lat="50.523727" lon="4.891558"><time>2026-05-07T19:37:55Z</time></trkpt>
<trkpt lat="50.524792" lon="4.896562"><time>2026-05-07T19:47:55Z</time></trkpt>
</trkseg>
</trk>
<trk>
<name>nlbwri5</name>
<cmt>r</cmt>
<desc>Warisoulx Chemin n°i5 Rue de Warisoulx</desc>
<link href="https://chemins.be/warisoulx/chemin/i5"/><trkseg>
<trkpt lat="50.529930" lon="4.845673"><time>2026-05-07T18:17:55Z</time></trkpt>
<trkpt lat="50.531065" lon="4.851665"><time>2026-05-07T18:27:55Z</time></trkpt>
</trkseg>
</trk>
<trk>
<name>nlbwri6</name>
<cmt>v</cmt>
<desc>Warisoulx Sentier n°i6 </desc>
<link href="https://chemins.be/warisoulx/sentier/i6"/><trkseg>
<trkpt lat="50.529792" lon="4.844092"><time>2026-05-07T18:17:55Z</time></trkpt>
<trkpt lat="50.529027" lon="4.844268"><time>2026-05-07T18:27:55Z</time></trkpt>
</trkseg>
</trk>
<trk>
<name>nlbwri7</name>
<cmt>v</cmt>
<desc>Warisoulx Chemin n°i7 Rue du Hazoir</desc>
<link href="https://chemins.be/warisoulx/chemin/i7"/><trkseg>
<trkpt lat="50.531375" lon="4.873856"><time>2026-05-07T18:17:55Z</time></trkpt>
<trkpt lat="50.531181" lon="4.875024"><time>2026-05-07T18:27:55Z</time></trkpt>
<trkpt lat="50.530991" lon="4.875276"><time>2026-05-07T18:37:55Z</time></trkpt>
<trkpt lat="50.530695" lon="4.877191"><time>2026-05-07T18:47:55Z</time></trkpt>
<trkpt lat="50.528308" lon="4.878167"><time>2026-05-07T18:57:55Z</time></trkpt>
<trkpt lat="50.525580" lon="4.879153"><time>2026-05-07T19:07:55Z</time></trkpt>
</trkseg></trk>
<trk>
<name>nlbwri7</name>
<cmt>d</cmt>
<desc>Warisoulx Chemin n°i7 Rue du Hazoir</desc>
<link href="https://chemins.be/warisoulx/chemin/i7"/><trkseg>
<trkpt lat="50.525580" lon="4.879153"><time>2026-05-07T19:07:55Z</time></trkpt>
<trkpt lat="50.524294" lon="4.879322"><time>2026-05-07T19:17:55Z</time></trkpt>
</trkseg>
</trk>
<trk>
<name>nlbwri8</name>
<cmt>v</cmt>
<desc>Warisoulx Sentier n°i8 </desc>
<link href="https://chemins.be/warisoulx/sentier/i8"/><trkseg>
<trkpt lat="50.533908" lon="4.859565"><time>2026-05-07T18:17:55Z</time></trkpt>
<trkpt lat="50.534180" lon="4.859215"><time>2026-05-07T18:27:55Z</time></trkpt>
<trkpt lat="50.534449" lon="4.858893"><time>2026-05-07T18:37:55Z</time></trkpt>
</trkseg>
</trk>
<trk>
<name>nlbwri9</name>
<cmt>q</cmt>
<desc>Warisoulx Sentier n°i9 </desc>
<link href="https://chemins.be/warisoulx/sentier/i9"/><trkseg>
<trkpt lat="50.534024" lon="4.866168"><time>2026-05-07T18:17:55Z</time></trkpt>
<trkpt lat="50.532574" lon="4.871061"><time>2026-05-07T18:27:55Z</time></trkpt>
</trkseg>
</trk>
<trk>
<name>nlbwrL142</name>
<cmt>v</cmt>
<desc>Warisoulx Chemin n°L142 Tronçon de la ligne L142 à Warisoulx</desc>
<link href="https://chemins.be/warisoulx/chemin/L142"/><trkseg>
<trkpt lat="50.521730" lon="4.891761"><time>2026-05-07T18:17:55Z</time></trkpt>
<trkpt lat="50.523192" lon="4.894626"><time>2026-05-07T18:27:55Z</time></trkpt>
<trkpt lat="50.524620" lon="4.896800"><time>2026-05-07T18:37:55Z</time></trkpt>
</trkseg>
</trk>
<trk>
<name>nlbwrp1</name>
<cmt>r</cmt>
<desc>Warisoulx Chemin particulier n°p1 Rue Sous Le Bois</desc>
<link href="https://chemins.be/warisoulx/chemin/p1"/><trkseg>
<trkpt lat="50.523852" lon="4.854384"><time>2026-05-07T18:17:55Z</time></trkpt>
<trkpt lat="50.525025" lon="4.857682"><time>2026-05-07T18:27:55Z</time></trkpt>
</trkseg></trk>
<trk>
<name>nlbwrp1</name>
<cmt>s</cmt>
<desc>Warisoulx Chemin particulier n°p1 Rue Sous Le Bois</desc>
<link href="https://chemins.be/warisoulx/chemin/p1"/><trkseg>
<trkpt lat="50.525025" lon="4.857682"><time>2026-05-07T18:27:55Z</time></trkpt>
<trkpt lat="50.525808" lon="4.859665"><time>2026-05-07T18:37:55Z</time></trkpt>
<trkpt lat="50.523957" lon="4.861563"><time>2026-05-07T18:47:55Z</time></trkpt>
</trkseg>
</trk>
<trk>
<name>nlbwrp2</name>
<cmt>v</cmt>
<desc>Warisoulx Chemin particulier n°p2 </desc>
<link href="https://chemins.be/warisoulx/chemin/p2"/><trkseg>
<trkpt lat="50.529062" lon="4.884651"><time>2026-05-07T18:17:55Z</time></trkpt>
<trkpt lat="50.527841" lon="4.884382"><time>2026-05-07T18:27:55Z</time></trkpt>
<trkpt lat="50.524085" lon="4.883819"><time>2026-05-07T18:37:55Z</time></trkpt>
<trkpt lat="50.523386" lon="4.883205"><time>2026-05-07T18:47:55Z</time></trkpt>
</trkseg></trk>
<trk>
<name>nlbwrp2</name>
<cmt>s</cmt>
<desc>Warisoulx Chemin particulier n°p2 </desc>
<link href="https://chemins.be/warisoulx/chemin/p2"/><trkseg>
<trkpt lat="50.523386" lon="4.883205"><time>2026-05-07T18:47:55Z</time></trkpt>
<trkpt lat="50.521505" lon="4.881633"><time>2026-05-07T18:57:55Z</time></trkpt>
</trkseg>
</trk>
<trk>
<name>nlbwrr23</name>
<cmt>v</cmt>
<desc>Warisoulx Chemin de remembrement n°r23 </desc>
<link href="https://chemins.be/warisoulx/chemin/r23"/><trkseg>
<trkpt lat="50.532705" lon="4.871937"><time>2026-05-07T18:17:55Z</time></trkpt>
<trkpt lat="50.532713" lon="4.872050"><time>2026-05-07T18:27:55Z</time></trkpt>
<trkpt lat="50.532946" lon="4.872293"><time>2026-05-07T18:37:55Z</time></trkpt>
<trkpt lat="50.533340" lon="4.872720"><time>2026-05-07T18:47:55Z</time></trkpt>
<trkpt lat="50.534091" lon="4.873574"><time>2026-05-07T18:57:55Z</time></trkpt>
</trkseg>
</trk>
<trk>
<name>nlbwrr24</name>
<cmt>r</cmt>
<desc>Warisoulx Chemin de remembrement n°r24 </desc>
<link href="https://chemins.be/warisoulx/chemin/r24"/><trkseg>
<trkpt lat="50.526791" lon="4.867389"><time>2026-05-07T18:17:55Z</time></trkpt>
<trkpt lat="50.528196" lon="4.872905"><time>2026-05-07T18:27:55Z</time></trkpt>
<trkpt lat="50.531411" lon="4.873757"><time>2026-05-07T18:37:55Z</time></trkpt>
</trkseg>
</trk>
<trk>
<name>nlbwrr26</name>
<cmt>v</cmt>
<desc>Warisoulx Chemin de remembrement n°r26 </desc>
<link href="https://chemins.be/warisoulx/chemin/r26"/><trkseg>
<trkpt lat="50.532132" lon="4.871240"><time>2026-05-07T18:17:55Z</time></trkpt>
<trkpt lat="50.531063" lon="4.871257"><time>2026-05-07T18:27:55Z</time></trkpt>
</trkseg>
</trk>
<trk>
<name>nlbwrr27</name>
<cmt>r</cmt>
<desc>Warisoulx Chemin de remembrement n°r27 </desc>
<link href="https://chemins.be/warisoulx/chemin/r27"/><trkseg>
<trkpt lat="50.531590" lon="4.874055"><time>2026-05-07T18:17:55Z</time></trkpt>
<trkpt lat="50.532289" lon="4.874585"><time>2026-05-07T18:27:55Z</time></trkpt>
</trkseg></trk>
<trk>
<name>nlbwrr27</name>
<cmt>d</cmt>
<desc>Warisoulx Chemin de remembrement n°r27 </desc>
<link href="https://chemins.be/warisoulx/chemin/r27"/><trkseg>
<trkpt lat="50.532289" lon="4.874585"><time>2026-05-07T18:27:55Z</time></trkpt>
<trkpt lat="50.533490" lon="4.875345"><time>2026-05-07T18:37:55Z</time></trkpt>
</trkseg>
</trk>
<trk>
<name>nlbwrr30</name>
<cmt>r</cmt>
<desc>Warisoulx Chemin de remembrement n°r30 Rue de Warisoulx</desc>
<link href="https://chemins.be/warisoulx/chemin/r30"/><trkseg>
<trkpt lat="50.523957" lon="4.861535"><time>2026-05-07T18:17:55Z</time></trkpt>
<trkpt lat="50.525433" lon="4.865260"><time>2026-05-07T18:27:55Z</time></trkpt>
</trkseg>
</trk>
<trk>
<name>nlbwrr8</name>
<cmt>r</cmt>
<desc>Warisoulx Chemin de remembrement n°r8 Rue de Namur</desc>
<link href="https://chemins.be/warisoulx/chemin/r8"/><trkseg>
<trkpt lat="50.538944" lon="4.841984"><time>2026-05-07T18:17:55Z</time></trkpt>
<trkpt lat="50.540156" lon="4.844479"><time>2026-05-07T18:27:55Z</time></trkpt>
<trkpt lat="50.541459" lon="4.846862"><time>2026-05-07T18:37:55Z</time></trkpt>
</trkseg>
</trk>
</gpx>